Wetterdaten: Freitag, 24.11.2017
Datum Zeit Temp. A. Temp. A. max Feuchte A. Luftdruck Regen Wind Richtung Richtung Sonnenschein ET UV Solar Taupunkt Windchill Windböen
24.11.2017 00:00 5,9 °C 5,9 °C 69 % 1017,4 hPa 0,0 mm 0,5 km/h (0 Bft) SO 146 ° 0 min 0,000 mm 0,0 UV-I 0 W/m² 0,7 °C 5,9 °C 1,6 km/h (1 Bft)
24.11.2017 00:01 5,9 °C 5,9 °C 69 % 1017,3 hPa 0,0 mm 1,0 km/h (0 Bft) SO 146 ° 0 min 0,000 mm 0,0 UV-I 0 W/m² 0,7 °C 5,9 °C 1,6 km/h (1 Bft)
24.11.2017 00:03 5,9 °C 5,9 °C 68 % 1017,4 hPa 0,0 mm 1,4 km/h (1 Bft) SO 146 ° 0 min 0,000 mm 0,0 UV-I 0 W/m² 0,5 °C 5,9 °C 3,2 km/h (1 Bft)
24.11.2017 00:04 5,9 °C 5,9 °C 68 % 1017,3 hPa 0,0 mm 2,5 km/h (1 Bft) SO 146 ° 0 min 0,000 mm 0,0 UV-I 0 W/m² 0,5 °C 5,9 °C 3,2 km/h (1 Bft)
24.11.2017 00:05 5,9 °C 5,9 °C 68 % 1017,3 hPa 0,0 mm 1,5 km/h (1 Bft) SO 146 ° 0 min 0,000 mm 0,0 UV-I 0 W/m² 0,5 °C 5,9 °C 3,2 km/h (1 Bft)
24.11.2017 00:06 5,9 °C 5,9 °C 68 % 1017,3 hPa 0,0 mm 1,1 km/h (1 Bft) SO 146 ° 0 min 0,000 mm 0,0 UV-I 0 W/m² 0,5 °C 5,9 °C 1,6 km/h (1 Bft)
24.11.2017 00:07 5,9 °C 5,9 °C 68 % 1017,3 hPa 0,0 mm 0,0 km/h (0 Bft) SO 135 ° 0 min 0,000 mm 0,0 UV-I 0 W/m² 0,5 °C 5,9 °C 1,6 km/h (1 Bft)
24.11.2017 00:08 5,9 °C 5,9 °C 68 % 1017,3 hPa 0,0 mm 0,0 km/h (0 Bft) SO 135 ° 0 min 0,000 mm 0,0 UV-I 0 W/m² 0,5 °C 5,9 °C 1,6 km/h (1 Bft)
24.11.2017 00:09 5,9 °C 5,9 °C 68 % 1017,3 hPa 0,0 mm 0,0 km/h (0 Bft) SO 135 ° 0 min 0,000 mm 0,0 UV-I 0 W/m² 0,5 °C 5,9 °C 1,6 km/h (1 Bft)
24.11.2017 00:10 5,9 °C 5,9 °C 68 % 1017,3 hPa 0,0 mm 0,0 km/h (0 Bft) N 0 ° 0 min 0,000 mm 0,0 UV-I 0 W/m² 0,5 °C 5,9 °C 0,0 km/h (0 Bft)
24.11.2017 00:11 5,9 °C 5,9 °C 68 % 1017,3 hPa 0,0 mm 0,0 km/h (0 Bft) N 0 ° 0 min 0,000 mm 0,0 UV-I 0 W/m² 0,5 °C 5,9 °C 0,0 km/h (0 Bft)
24.11.2017 00:12 5,9 °C 5,9 °C 68 % 1017,3 hPa 0,0 mm 1,6 km/h (1 Bft) SW 225 ° 0 min 0,000 mm 0,0 UV-I 0 W/m² 0,5 °C 5,9 °C 4,8 km/h (1 Bft)
24.11.2017 00:13 5,9 °C 5,9 °C 68 % 1017,3 hPa 0,0 mm 0,0 km/h (0 Bft) SW 225 ° 0 min 0,000 mm 0,0 UV-I 0 W/m² 0,5 °C 5,9 °C 1,6 km/h (1 Bft)
24.11.2017 00:14 5,8 °C 5,9 °C 68 % 1017,3 hPa 0,0 mm 0,0 km/h (0 Bft) N 0 ° 0 min 0,000 mm 0,0 UV-I 0 W/m² 0,4 °C 5,8 °C 0,0 km/h (0 Bft)
24.11.2017 00:15 5,8 °C 5,9 °C 68 % 1017,3 hPa 0,0 mm 0,0 km/h (0 Bft) N 0 ° 0 min 0,000 mm 0,0 UV-I 0 W/m² 0,4 °C 5,8 °C 0,0 km/h (0 Bft)
24.11.2017 00:19 5,7 °C 5,9 °C 68 % 1017,2 hPa 0,0 mm 0,4 km/h (0 Bft) SW 223 ° 0 min 0,000 mm 0,0 UV-I 0 W/m² 0,3 °C 5,7 °C 3,2 km/h (1 Bft)
24.11.2017 00:20 5,7 °C 5,7 °C 68 % 1017,2 hPa 0,0 mm 0,0 km/h (0 Bft) SW 223 ° 0 min 0,000 mm 0,0 UV-I 0 W/m² 0,3 °C 5,7 °C 0,0 km/h (0 Bft)
24.11.2017 00:21 5,7 °C 5,7 °C 68 % 1017,2 hPa 0,0 mm 0,0 km/h (0 Bft) SW 223 ° 0 min 0,000 mm 0,0 UV-I 0 W/m² 0,3 °C 5,7 °C 0,0 km/h (0 Bft)
24.11.2017 00:22 5,7 °C 5,7 °C 68 % 1017,2 hPa 0,0 mm 0,0 km/h (0 Bft) SW 223 ° 0 min 0,000 mm 0,0 UV-I 0 W/m² 0,3 °C 5,7 °C 0,0 km/h (0 Bft)
24.11.2017 00:23 5,6 °C 5,7 °C 68 % 1017,2 hPa 0,0 mm 0,0 km/h (0 Bft) SW 223 ° 0 min 0,000 mm 0,0 UV-I 0 W/m² 0,2 °C 5,6 °C 0,0 km/h (0 Bft)
24.11.2017 00:24 5,6 °C 5,6 °C 68 % 1017,2 hPa 0,0 mm 0,0 km/h (0 Bft) SW 223 ° 0 min 0,000 mm 0,0 UV-I 0 W/m² 0,2 °C 5,6 °C 0,0 km/h (0 Bft)
24.11.2017 00:25 5,6 °C 5,6 °C 69 % 1017,2 hPa 0,0 mm 0,0 km/h (0 Bft) SW 223 ° 0 min 0,000 mm 0,0 UV-I 0 W/m² 0,4 °C 5,6 °C 0,0 km/h (0 Bft)
24.11.2017 00:26 5,5 °C 5,6 °C 69 % 1017,2 hPa 0,0 mm 0,0 km/h (0 Bft) SW 223 ° 0 min 0,000 mm 0,0 UV-I 0 W/m² 0,3 °C 5,5 °C 0,0 km/h (0 Bft)
24.11.2017 00:27 5,5 °C 5,5 °C 69 % 1017,2 hPa 0,0 mm 0,0 km/h (0 Bft) SW 223 ° 0 min 0,000 mm 0,0 UV-I 0 W/m² 0,3 °C 5,5 °C 0,0 km/h (0 Bft)
24.11.2017 00:28 5,4 °C 5,5 °C 69 % 1017,2 hPa 0,0 mm 0,0 km/h (0 Bft) SW 223 ° 0 min 0,000 mm 0,0 UV-I 0 W/m² 0,2 °C 5,4 °C 0,0 km/h (0 Bft)
24.11.2017 00:29 5,4 °C 5,4 °C 69 % 1017,2 hPa 0,0 mm 0,0 km/h (0 Bft) SW 223 ° 0 min 0,000 mm 0,0 UV-I 0 W/m² 0,2 °C 5,4 °C 0,0 km/h (0 Bft)
24.11.2017 00:30 5,3 °C 5,4 °C 69 % 1017,1 hPa 0,0 mm 0,2 km/h (0 Bft) SW 223 ° 0 min 0,000 mm 0,0 UV-I 0 W/m² 0,1 °C 5,3 °C 1,6 km/h (1 Bft)
24.11.2017 00:31 5,3 °C 5,3 °C 69 % 1017,1 hPa 0,0 mm 0,5 km/h (0 Bft) SW 223 ° 0 min 0,000 mm 0,0 UV-I 0 W/m² 0,1 °C 5,3 °C 1,6 km/h (1 Bft)
24.11.2017 00:32 5,3 °C 5,3 °C 69 % 1017,1 hPa 0,0 mm 0,2 km/h (0 Bft) SW 223 ° 0 min 0,000 mm 0,0 UV-I 0 W/m² 0,1 °C 5,3 °C 1,6 km/h (1 Bft)
24.11.2017 00:33 5,2 °C 5,3 °C 69 % 1017,2 hPa 0,0 mm 0,0 km/h (0 Bft) SW 223 ° 0 min 0,000 mm 0,0 UV-I 0 W/m² -0,0 °C 5,2 °C 0,0 km/h (0 Bft)
24.11.2017 00:34 5,2 °C 5,2 °C 69 % 1017,2 hPa 0,0 mm 0,0 km/h (0 Bft) SW 223 ° 0 min 0,000 mm 0,0 UV-I 0 W/m² -0,0 °C 5,2 °C 0,0 km/h (0 Bft)
24.11.2017 00:35 5,1 °C 5,2 °C 69 % 1017,2 hPa 0,0 mm 0,0 km/h (0 Bft) SW 223 ° 0 min 0,000 mm 0,0 UV-I 0 W/m² -0,1 °C 5,1 °C 0,0 km/h (0 Bft)
24.11.2017 00:36 5,1 °C 5,1 °C 69 % 1017,2 hPa 0,0 mm 0,0 km/h (0 Bft) SW 223 ° 0 min 0,000 mm 0,0 UV-I 0 W/m² -0,1 °C 5,1 °C 0,0 km/h (0 Bft)
24.11.2017 00:37 5,0 °C 5,1 °C 69 % 1017,2 hPa 0,0 mm 0,0 km/h (0 Bft) SW 223 ° 0 min 0,000 mm 0,0 UV-I 0 W/m² -0,2 °C 5,0 °C 0,0 km/h (0 Bft)
24.11.2017 00:38 4,9 °C 5,1 °C 70 % 1017,2 hPa 0,0 mm 0,0 km/h (0 Bft) SW 223 ° 0 min 0,000 mm 0,0 UV-I 0 W/m² -0,1 °C 4,9 °C 0,0 km/h (0 Bft)
24.11.2017 00:39 4,9 °C 5,0 °C 70 % 1017,2 hPa 0,0 mm 1,9 km/h (1 Bft) SW 223 ° 0 min 0,000 mm 0,0 UV-I 0 W/m² -0,1 °C 4,9 °C 3,2 km/h (1 Bft)
24.11.2017 00:40 4,9 °C 4,9 °C 70 % 1017,2 hPa 0,0 mm 2,1 km/h (1 Bft) W-NW 292 ° 0 min 0,000 mm 0,0 UV-I 0 W/m² -0,1 °C 4,9 °C 4,8 km/h (1 Bft)
24.11.2017 00:41 4,8 °C 4,9 °C 70 % 1017,2 hPa 0,0 mm 0,5 km/h (0 Bft) W-NW 292 ° 0 min 0,000 mm 0,0 UV-I 0 W/m² -0,2 °C 4,8 °C 3,2 km/h (1 Bft)
24.11.2017 00:42 4,8 °C 4,8 °C 70 % 1017,1 hPa 0,0 mm 0,0 km/h (0 Bft) W-NW 292 ° 0 min 0,000 mm 0,0 UV-I 0 W/m² -0,2 °C 4,8 °C 0,0 km/h (0 Bft)
24.11.2017 00:43 4,7 °C 4,8 °C 70 % 1017,2 hPa 0,0 mm 0,7 km/h (0 Bft) W-NW 292 ° 0 min 0,000 mm 0,0 UV-I 0 W/m² -0,3 °C 4,7 °C 3,2 km/h (1 Bft)
24.11.2017 00:44 4,7 °C 4,7 °C 71 % 1017,2 hPa 0,0 mm 0,0 km/h (0 Bft) W-NW 292 ° 0 min 0,000 mm 0,0 UV-I 0 W/m² -0,1 °C 4,7 °C 0,0 km/h (0 Bft)
24.11.2017 00:45 4,6 °C 4,7 °C 71 % 1017,2 hPa 0,0 mm 0,0 km/h (0 Bft) W-NW 292 ° 0 min 0,000 mm 0,0 UV-I 0 W/m² -0,2 °C 4,6 °C 0,0 km/h (0 Bft)
24.11.2017 00:46 4,6 °C 4,6 °C 71 % 1017,2 hPa 0,0 mm 0,5 km/h (0 Bft) W-NW 292 ° 0 min 0,000 mm 0,0 UV-I 0 W/m² -0,2 °C 4,6 °C 1,6 km/h (1 Bft)
24.11.2017 00:47 4,5 °C 4,6 °C 71 % 1017,1 hPa 0,0 mm 0,6 km/h (0 Bft) W-NW 292 ° 0 min 0,000 mm 0,0 UV-I 0 W/m² -0,3 °C 4,5 °C 1,6 km/h (1 Bft)
24.11.2017 00:48 4,4 °C 4,5 °C 71 % 1017,1 hPa 0,0 mm 0,1 km/h (0 Bft) W-NW 292 ° 0 min 0,000 mm 0,0 UV-I 0 W/m² -0,4 °C 4,4 °C 1,6 km/h (1 Bft)
24.11.2017 00:49 4,4 °C 4,4 °C 71 % 1017,1 hPa 0,0 mm 0,0 km/h (0 Bft) W-NW 292 ° 0 min 0,000 mm 0,0 UV-I 0 W/m² -0,4 °C 4,4 °C 0,0 km/h (0 Bft)
24.11.2017 00:50 4,4 °C 4,4 °C 72 % 1017,1 hPa 0,0 mm 0,0 km/h (0 Bft) W-NW 292 ° 0 min 0,000 mm 0,0 UV-I 0 W/m² -0,2 °C 4,4 °C 0,0 km/h (0 Bft)
24.11.2017 00:51 4,3 °C 4,4 °C 72 % 1017,1 hPa 0,0 mm 0,4 km/h (0 Bft) W-NW 300 ° 0 min 0,000 mm 0,0 UV-I 0 W/m² -0,3 °C 4,3 °C 1,6 km/h (1 Bft)
24.11.2017 00:52 4,3 °C 4,3 °C 72 % 1017,0 hPa 0,0 mm 0,5 km/h (0 Bft) W-NW 299 ° 0 min 0,000 mm 0,0 UV-I 0 W/m² -0,3 °C 4,3 °C 3,2 km/h (1 Bft)
24.11.2017 00:53 4,3 °C 4,3 °C 72 % 1017,0 hPa 0,0 mm 0,0 km/h (0 Bft) W-NW 299 ° 0 min 0,000 mm 0,0 UV-I 0 W/m² -0,3 °C 4,3 °C 0,0 km/h (0 Bft)
24.11.2017 00:54 4,2 °C 4,3 °C 72 % 1017,1 hPa 0,0 mm 0,0 km/h (0 Bft) W-NW 299 ° 0 min 0,000 mm 0,0 UV-I 0 W/m² -0,4 °C 4,2 °C 0,0 km/h (0 Bft)
24.11.2017 00:55 4,2 °C 4,2 °C 73 % 1017,0 hPa 0,0 mm 0,0 km/h (0 Bft) W-NW 299 ° 0 min 0,000 mm 0,0 UV-I 0 W/m² -0,2 °C 4,2 °C 0,0 km/h (0 Bft)
24.11.2017 00:56 4,2 °C 4,2 °C 73 % 1017,1 hPa 0,0 mm 0,0 km/h (0 Bft) W-NW 299 ° 0 min 0,000 mm 0,0 UV-I 0 W/m² -0,2 °C 4,2 °C 0,0 km/h (0 Bft)
24.11.2017 00:57 4,1 °C 4,2 °C 73 % 1017,1 hPa 0,0 mm 0,0 km/h (0 Bft) W-NW 299 ° 0 min 0,000 mm 0,0 UV-I 0 W/m² -0,3 °C 4,1 °C 0,0 km/h (0 Bft)
24.11.2017 00:58 4,1 °C 4,1 °C 73 % 1017,1 hPa 0,0 mm 1,4 km/h (1 Bft) W-NW 299 ° 0 min 0,000 mm 0,0 UV-I 0 W/m² -0,3 °C 4,1 °C 3,2 km/h (1 Bft)
24.11.2017 00:59 4,1 °C 4,1 °C 73 % 1017,1 hPa 0,0 mm 0,2 km/h (0 Bft) W-NW 299 ° 0 min 0,000 mm 0,0 UV-I 0 W/m² -0,3 °C 4,1 °C 1,6 km/h (1 Bft)
24.11.2017 01:00 4,0 °C 4,1 °C 73 % 1017,0 hPa 0,0 mm 0,0 km/h (0 Bft) W-NW 299 ° 0 min 0,025 mm 0,0 UV-I 0 W/m² -0,4 °C 4,0 °C 0,0 km/h (0 Bft)
24.11.2017 01:01 3,9 °C 4,0 °C 73 % 1017,0 hPa 0,0 mm 0,0 km/h (0 Bft) W-NW 299 ° 0 min 0,000 mm 0,0 UV-I 0 W/m² -0,5 °C 3,9 °C 0,0 km/h (0 Bft)
24.11.2017 01:02 3,9 °C 3,9 °C 73 % 1017,0 hPa 0,0 mm 0,0 km/h (0 Bft) W-NW 299 ° 0 min 0,000 mm 0,0 UV-I 0 W/m² -0,5 °C 3,9 °C 0,0 km/h (0 Bft)
24.11.2017 01:03 3,9 °C 3,9 °C 73 % 1017,0 hPa 0,0 mm 0,0 km/h (0 Bft) W-NW 299 ° 0 min 0,000 mm 0,0 UV-I 0 W/m² -0,5 °C 3,9 °C 0,0 km/h (0 Bft)
24.11.2017 01:04 3,8 °C 3,9 °C 73 % 1017,0 hPa 0,0 mm 0,0 km/h (0 Bft) W-NW 299 ° 0 min 0,000 mm 0,0 UV-I 0 W/m² -0,6 °C 3,8 °C 0,0 km/h (0 Bft)
24.11.2017 01:05 3,8 °C 3,8 °C 74 % 1017,0 hPa 0,0 mm 0,0 km/h (0 Bft) W-NW 299 ° 0 min 0,000 mm 0,0 UV-I 0 W/m² -0,4 °C 3,8 °C 0,0 km/h (0 Bft)
24.11.2017 01:06 3,8 °C 3,8 °C 74 % 1017,0 hPa 0,0 mm 0,0 km/h (0 Bft) W-NW 299 ° 0 min 0,000 mm 0,0 UV-I 0 W/m² -0,4 °C 3,8 °C 0,0 km/h (0 Bft)
24.11.2017 01:07 3,7 °C 3,8 °C 74 % 1017,0 hPa 0,0 mm 0,0 km/h (0 Bft) W-NW 299 ° 0 min 0,000 mm 0,0 UV-I 0 W/m² -0,5 °C 3,7 °C 0,0 km/h (0 Bft)
24.11.2017 01:08 3,7 °C 3,7 °C 74 % 1017,0 hPa 0,0 mm 0,0 km/h (0 Bft) W-NW 299 ° 0 min 0,000 mm 0,0 UV-I 0 W/m² -0,5 °C 3,7 °C 0,0 km/h (0 Bft)
24.11.2017 01:09 3,7 °C 3,7 °C 74 % 1017,0 hPa 0,0 mm 0,0 km/h (0 Bft) W-NW 299 ° 0 min 0,000 mm 0,0 UV-I 0 W/m² -0,5 °C 3,7 °C 0,0 km/h (0 Bft)
24.11.2017 01:10 3,7 °C 3,7 °C 74 % 1017,0 hPa 0,0 mm 0,0 km/h (0 Bft) W-NW 299 ° 0 min 0,000 mm 0,0 UV-I 0 W/m² -0,5 °C 3,7 °C 0,0 km/h (0 Bft)
24.11.2017 01:11 3,6 °C 3,7 °C 74 % 1017,0 hPa 0,0 mm 0,0 km/h (0 Bft) W-NW 299 ° 0 min 0,000 mm 0,0 UV-I 0 W/m² -0,6 °C 3,6 °C 0,0 km/h (0 Bft)
24.11.2017 01:12 3,6 °C 3,6 °C 74 % 1017,0 hPa 0,0 mm 0,0 km/h (0 Bft) W-NW 299 ° 0 min 0,000 mm 0,0 UV-I 0 W/m² -0,6 °C 3,6 °C 0,0 km/h (0 Bft)
24.11.2017 01:13 3,6 °C 3,6 °C 74 % 1017,0 hPa 0,0 mm 0,0 km/h (0 Bft) W-NW 299 ° 0 min 0,000 mm 0,0 UV-I 0 W/m² -0,6 °C 3,6 °C 0,0 km/h (0 Bft)
24.11.2017 01:14 3,5 °C 3,6 °C 74 % 1017,0 hPa 0,0 mm 0,0 km/h (0 Bft) W-NW 299 ° 0 min 0,000 mm 0,0 UV-I 0 W/m² -0,7 °C 3,5 °C 0,0 km/h (0 Bft)
24.11.2017 01:15 3,5 °C 3,6 °C 75 % 1017,0 hPa 0,0 mm 0,0 km/h (0 Bft) W-NW 299 ° 0 min 0,000 mm 0,0 UV-I 0 W/m² -0,5 °C 3,5 °C 0,0 km/h (0 Bft)
24.11.2017 01:16 3,5 °C 3,5 °C 75 % 1017,0 hPa 0,0 mm 0,0 km/h (0 Bft) W-NW 299 ° 0 min 0,000 mm 0,0 UV-I 0 W/m² -0,5 °C 3,5 °C 0,0 km/h (0 Bft)
24.11.2017 01:17 3,4 °C 3,5 °C 75 % 1017,0 hPa 0,0 mm 0,0 km/h (0 Bft) W-NW 299 ° 0 min 0,000 mm 0,0 UV-I 0 W/m² -0,6 °C 3,4 °C 0,0 km/h (0 Bft)
24.11.2017 01:18 3,4 °C 3,4 °C 75 % 1017,0 hPa 0,0 mm 0,0 km/h (0 Bft) W-NW 299 ° 0 min 0,000 mm 0,0 UV-I 0 W/m² -0,6 °C 3,4 °C 0,0 km/h (0 Bft)
24.11.2017 01:19 3,4 °C 3,4 °C 75 % 1017,0 hPa 0,0 mm 0,0 km/h (0 Bft) W-NW 299 ° 0 min 0,000 mm 0,0 UV-I 0 W/m² -0,6 °C 3,4 °C 0,0 km/h (0 Bft)
24.11.2017 01:20 3,3 °C 3,4 °C 75 % 1017,0 hPa 0,0 mm 0,0 km/h (0 Bft) W-NW 299 ° 0 min 0,000 mm 0,0 UV-I 0 W/m² -0,7 °C 3,3 °C 0,0 km/h (0 Bft)
24.11.2017 01:21 3,3 °C 3,3 °C 75 % 1017,0 hPa 0,0 mm 0,0 km/h (0 Bft) W-NW 299 ° 0 min 0,000 mm 0,0 UV-I 0 W/m² -0,7 °C 3,3 °C 0,0 km/h (0 Bft)
24.11.2017 01:22 3,3 °C 3,3 °C 75 % 1016,9 hPa 0,0 mm 0,0 km/h (0 Bft) W-NW 299 ° 0 min 0,000 mm 0,0 UV-I 0 W/m² -0,7 °C 3,3 °C 0,0 km/h (0 Bft)
24.11.2017 01:23 3,3 °C 3,3 °C 75 % 1017,0 hPa 0,0 mm 0,0 km/h (0 Bft) W-NW 299 ° 0 min 0,000 mm 0,0 UV-I 0 W/m² -0,7 °C 3,3 °C 0,0 km/h (0 Bft)
24.11.2017 01:24 3,3 °C 3,3 °C 75 % 1017,0 hPa 0,0 mm 0,0 km/h (0 Bft) W-NW 299 ° 0 min 0,000 mm 0,0 UV-I 0 W/m² -0,7 °C 3,3 °C 0,0 km/h (0 Bft)
24.11.2017 01:25 3,2 °C 3,3 °C 76 % 1016,9 hPa 0,0 mm 0,0 km/h (0 Bft) W-NW 299 ° 0 min 0,000 mm 0,0 UV-I 0 W/m² -0,6 °C 3,2 °C 0,0 km/h (0 Bft)
24.11.2017 01:26 3,2 °C 3,2 °C 76 % 1016,9 hPa 0,0 mm 0,0 km/h (0 Bft) W-NW 299 ° 0 min 0,000 mm 0,0 UV-I 0 W/m² -0,6 °C 3,2 °C 0,0 km/h (0 Bft)
24.11.2017 01:27 3,2 °C 3,2 °C 76 % 1016,9 hPa 0,0 mm 0,0 km/h (0 Bft) W-NW 299 ° 0 min 0,000 mm 0,0 UV-I 0 W/m² -0,6 °C 3,2 °C 0,0 km/h (0 Bft)
24.11.2017 01:28 3,2 °C 3,2 °C 76 % 1017,0 hPa 0,0 mm 0,0 km/h (0 Bft) W-NW 299 ° 0 min 0,000 mm 0,0 UV-I 0 W/m² -0,6 °C 3,2 °C 0,0 km/h (0 Bft)
24.11.2017 01:29 3,1 °C 3,2 °C 76 % 1016,9 hPa 0,0 mm 1,0 km/h (0 Bft) W-NW 300 ° 0 min 0,000 mm 0,0 UV-I 0 W/m² -0,7 °C 3,1 °C 3,2 km/h (1 Bft)
24.11.2017 01:30 3,1 °C 3,2 °C 76 % 1017,0 hPa 0,0 mm 0,0 km/h (0 Bft) W-NW 300 ° 0 min 0,000 mm 0,0 UV-I 0 W/m² -0,7 °C 3,1 °C 0,0 km/h (0 Bft)
24.11.2017 01:31 3,1 °C 3,1 °C 76 % 1016,9 hPa 0,0 mm 0,0 km/h (0 Bft) W-NW 300 ° 0 min 0,000 mm 0,0 UV-I 0 W/m² -0,7 °C 3,1 °C 0,0 km/h (0 Bft)
24.11.2017 01:32 3,1 °C 3,1 °C 76 % 1016,9 hPa 0,0 mm 0,0 km/h (0 Bft) W-NW 300 ° 0 min 0,000 mm 0,0 UV-I 0 W/m² -0,7 °C 3,1 °C 0,0 km/h (0 Bft)
24.11.2017 01:33 3,1 °C 3,1 °C 76 % 1016,9 hPa 0,0 mm 0,0 km/h (0 Bft) W-NW 300 ° 0 min 0,000 mm 0,0 UV-I 0 W/m² -0,7 °C 3,1 °C 0,0 km/h (0 Bft)
24.11.2017 01:34 3,0 °C 3,1 °C 76 % 1016,9 hPa 0,0 mm 0,0 km/h (0 Bft) W-NW 300 ° 0 min 0,000 mm 0,0 UV-I 0 W/m² -0,8 °C 3,0 °C 0,0 km/h (0 Bft)
24.11.2017 01:35 3,0 °C 3,1 °C 77 % 1016,9 hPa 0,0 mm 0,0 km/h (0 Bft) W-NW 300 ° 0 min 0,000 mm 0,0 UV-I 0 W/m² -0,6 °C 3,0 °C 0,0 km/h (0 Bft)
24.11.2017 01:36 3,0 °C 3,0 °C 76 % 1016,9 hPa 0,0 mm 0,0 km/h (0 Bft) W-NW 300 ° 0 min 0,000 mm 0,0 UV-I 0 W/m² -0,8 °C 3,0 °C 0,0 km/h (0 Bft)
24.11.2017 01:37 2,9 °C 3,0 °C 77 % 1016,9 hPa 0,0 mm 0,0 km/h (0 Bft) W-NW 300 ° 0 min 0,000 mm 0,0 UV-I 0 W/m² -0,7 °C 2,9 °C 0,0 km/h (0 Bft)
24.11.2017 01:38 2,9 °C 3,0 °C 77 % 1016,9 hPa 0,0 mm 0,0 km/h (0 Bft) W-NW 300 ° 0 min 0,000 mm 0,0 UV-I 0 W/m² -0,7 °C 2,9 °C 0,0 km/h (0 Bft)
24.11.2017 01:39 2,9 °C 2,9 °C 77 % 1016,9 hPa 0,0 mm 0,0 km/h (0 Bft) W-NW 300 ° 0 min 0,000 mm 0,0 UV-I 0 W/m² -0,7 °C 2,9 °C 0,0 km/h (0 Bft)
24.11.2017 01:40 2,9 °C 2,9 °C 77 % 1016,9 hPa 0,0 mm 0,0 km/h (0 Bft) W-NW 300 ° 0 min 0,000 mm 0,0 UV-I 0 W/m² -0,7 °C 2,9 °C 0,0 km/h (0 Bft)
24.11.2017 01:41 2,9 °C 2,9 °C 77 % 1016,9 hPa 0,0 mm 0,0 km/h (0 Bft) W-NW 300 ° 0 min 0,000 mm 0,0 UV-I 0 W/m² -0,7 °C 2,9 °C 0,0 km/h (0 Bft)
24.11.2017 01:42 2,8 °C 2,9 °C 78 % 1016,9 hPa 0,0 mm 1,0 km/h (0 Bft) W-NW 300 ° 0 min 0,000 mm 0,0 UV-I 0 W/m² -0,6 °C 2,8 °C 3,2 km/h (1 Bft)
24.11.2017 01:43 2,9 °C 2,9 °C 78 % 1016,9 hPa 0,0 mm 0,6 km/h (0 Bft) W-NW 300 ° 0 min 0,000 mm 0,0 UV-I 0 W/m² -0,5 °C 2,9 °C 3,2 km/h (1 Bft)
24.11.2017 01:44 2,8 °C 2,9 °C 78 % 1016,9 hPa 0,0 mm 0,0 km/h (0 Bft) W-NW 300 ° 0 min 0,000 mm 0,0 UV-I 0 W/m² -0,6 °C 2,8 °C 0,0 km/h (0 Bft)
24.11.2017 01:45 2,8 °C 2,8 °C 78 % 1016,9 hPa 0,0 mm 0,0 km/h (0 Bft) W-NW 300 ° 0 min 0,000 mm 0,0 UV-I 0 W/m² -0,6 °C 2,8 °C 0,0 km/h (0 Bft)
24.11.2017 01:46 2,8 °C 2,8 °C 78 % 1016,9 hPa 0,0 mm 0,7 km/h (0 Bft) W-NW 299 ° 0 min 0,000 mm 0,0 UV-I 0 W/m² -0,6 °C 2,8 °C 3,2 km/h (1 Bft)
24.11.2017 01:47 2,8 °C 2,8 °C 78 % 1016,9 hPa 0,0 mm 0,0 km/h (0 Bft) W-NW 299 ° 0 min 0,000 mm 0,0 UV-I 0 W/m² -0,6 °C 2,8 °C 0,0 km/h (0 Bft)
24.11.2017 01:48 2,8 °C 2,8 °C 78 % 1016,9 hPa 0,0 mm 0,0 km/h (0 Bft) W-NW 300 ° 0 min 0,000 mm 0,0 UV-I 0 W/m² -0,6 °C 2,8 °C 0,0 km/h (0 Bft)
24.11.2017 01:49 2,8 °C 2,8 °C 78 % 1016,9 hPa 0,0 mm 0,1 km/h (0 Bft) W-NW 299 ° 0 min 0,000 mm 0,0 UV-I 0 W/m² -0,6 °C 2,8 °C 1,6 km/h (1 Bft)
24.11.2017 01:50 2,8 °C 2,8 °C 78 % 1016,9 hPa 0,0 mm 0,0 km/h (0 Bft) W-NW 300 ° 0 min 0,000 mm 0,0 UV-I 0 W/m² -0,6 °C 2,8 °C 0,0 km/h (0 Bft)
24.11.2017 01:51 2,8 °C 2,8 °C 78 % 1016,9 hPa 0,0 mm 2,6 km/h (1 Bft) S-SO 157 ° 0 min 0,000 mm 0,0 UV-I 0 W/m² -0,6 °C 2,8 °C 6,4 km/h (2 Bft)
24.11.2017 01:52 2,7 °C 2,8 °C 79 % 1016,9 hPa 0,0 mm 0,1 km/h (0 Bft) S-SO 157 ° 0 min 0,000 mm 0,0 UV-I 0 W/m² -0,6 °C 2,7 °C 1,6 km/h (1 Bft)
24.11.2017 01:53 2,8 °C 2,8 °C 79 % 1016,9 hPa 0,0 mm 0,0 km/h (0 Bft) S-SO 157 ° 0 min 0,000 mm 0,0 UV-I 0 W/m² -0,5 °C 2,8 °C 0,0 km/h (0 Bft)
24.11.2017 01:54 2,8 °C 2,8 °C 79 % 1016,8 hPa 0,0 mm 0,0 km/h (0 Bft) S-SO 157 ° 0 min 0,000 mm 0,0 UV-I 0 W/m² -0,5 °C 2,8 °C 0,0 km/h (0 Bft)
24.11.2017 01:55 2,7 °C 2,8 °C 79 % 1016,9 hPa 0,0 mm 0,0 km/h (0 Bft) S-SO 157 ° 0 min 0,000 mm 0,0 UV-I 0 W/m² -0,6 °C 2,7 °C 0,0 km/h (0 Bft)
24.11.2017 01:56 2,8 °C 2,8 °C 79 % 1016,9 hPa 0,0 mm 0,6 km/h (0 Bft) S-SO 157 ° 0 min 0,000 mm 0,0 UV-I 0 W/m² -0,5 °C 2,8 °C 3,2 km/h (1 Bft)
24.11.2017 01:57 2,8 °C 2,8 °C 79 % 1016,9 hPa 0,0 mm 0,3 km/h (0 Bft) S-SO 157 ° 0 min 0,000 mm 0,0 UV-I 0 W/m² -0,5 °C 2,8 °C 3,2 km/h (1 Bft)
24.11.2017 01:58 2,8 °C 2,8 °C 79 % 1016,9 hPa 0,0 mm 0,1 km/h (0 Bft) S-SO 157 ° 0 min 0,000 mm 0,0 UV-I 0 W/m² -0,5 °C 2,8 °C 1,6 km/h (1 Bft)
24.11.2017 01:59 2,8 °C 2,8 °C 79 % 1016,9 hPa 0,0 mm 0,6 km/h (0 Bft) S-SO 157 ° 0 min 0,000 mm 0,0 UV-I 0 W/m² -0,5 °C 2,8 °C 1,6 km/h (1 Bft)
24.11.2017 02:00 2,8 °C 2,8 °C 79 % 1016,9 hPa 0,0 mm 0,1 km/h (0 Bft) S-SO 157 ° 0 min 0,026 mm 0,0 UV-I 0 W/m² -0,5 °C 2,8 °C 1,6 km/h (1 Bft)
24.11.2017 02:01 2,8 °C 2,8 °C 79 % 1016,9 hPa 0,0 mm 0,9 km/h (0 Bft) S-SO 158 ° 0 min 0,000 mm 0,0 UV-I 0 W/m² -0,5 °C 2,8 °C 1,6 km/h (1 Bft)
24.11.2017 02:02 2,8 °C 2,8 °C 79 % 1016,9 hPa 0,0 mm 0,0 km/h (0 Bft) S-SO 157 ° 0 min 0,000 mm 0,0 UV-I 0 W/m² -0,5 °C 2,8 °C 0,0 km/h (0 Bft)
24.11.2017 02:03 2,8 °C 2,8 °C 79 % 1016,9 hPa 0,0 mm 0,0 km/h (0 Bft) S-SO 157 ° 0 min 0,000 mm 0,0 UV-I 0 W/m² -0,5 °C 2,8 °C 0,0 km/h (0 Bft)
24.11.2017 02:04 2,8 °C 2,8 °C 79 % 1016,9 hPa 0,0 mm 0,1 km/h (0 Bft) S-SO 157 ° 0 min 0,000 mm 0,0 UV-I 0 W/m² -0,5 °C 2,8 °C 1,6 km/h (1 Bft)
24.11.2017 02:05 2,8 °C 2,8 °C 79 % 1016,8 hPa 0,0 mm 0,9 km/h (0 Bft) S 178 ° 0 min 0,000 mm 0,0 UV-I 0 W/m² -0,5 °C 2,8 °C 4,8 km/h (1 Bft)
24.11.2017 02:06 2,8 °C 2,8 °C 79 % 1016,9 hPa 0,0 mm 0,0 km/h (0 Bft) S 178 ° 0 min 0,000 mm 0,0 UV-I 0 W/m² -0,5 °C 2,8 °C 0,0 km/h (0 Bft)
24.11.2017 02:07 2,8 °C 2,8 °C 79 % 1016,9 hPa 0,0 mm 0,7 km/h (0 Bft) SW 214 ° 0 min 0,000 mm 0,0 UV-I 0 W/m² -0,5 °C 2,8 °C 6,4 km/h (2 Bft)
24.11.2017 02:08 2,8 °C 2,9 °C 79 % 1016,9 hPa 0,0 mm 3,6 km/h (1 Bft) S-SW 210 ° 0 min 0,000 mm 0,0 UV-I 0 W/m² -0,5 °C 2,8 °C 8,0 km/h (2 Bft)
24.11.2017 02:09 2,9 °C 2,9 °C 79 % 1016,9 hPa 0,0 mm 0,7 km/h (0 Bft) S-SW 210 ° 0 min 0,000 mm 0,0 UV-I 0 W/m² -0,4 °C 2,9 °C 3,2 km/h (1 Bft)
24.11.2017 02:10 2,9 °C 2,9 °C 79 % 1016,9 hPa 0,0 mm 0,3 km/h (0 Bft) S-SW 212 ° 0 min 0,000 mm 0,0 UV-I 0 W/m² -0,4 °C 2,9 °C 1,6 km/h (1 Bft)
24.11.2017 02:11 2,9 °C 2,9 °C 79 % 1016,9 hPa 0,0 mm 0,0 km/h (0 Bft) S-SW 212 ° 0 min 0,000 mm 0,0 UV-I 0 W/m² -0,4 °C 2,9 °C 0,0 km/h (0 Bft)
24.11.2017 02:12 2,9 °C 2,9 °C 79 % 1016,9 hPa 0,0 mm 0,1 km/h (0 Bft) S-SW 212 ° 0 min 0,000 mm 0,0 UV-I 0 W/m² -0,4 °C 2,9 °C 1,6 km/h (1 Bft)
24.11.2017 02:13 2,9 °C 2,9 °C 79 % 1016,9 hPa 0,0 mm 0,1 km/h (0 Bft) S-SW 212 ° 0 min 0,000 mm 0,0 UV-I 0 W/m² -0,4 °C 2,9 °C 1,6 km/h (1 Bft)
24.11.2017 02:14 2,9 °C 2,9 °C 79 % 1016,9 hPa 0,0 mm 0,0 km/h (0 Bft) SW 216 ° 0 min 0,000 mm 0,0 UV-I 0 W/m² -0,4 °C 2,9 °C 0,0 km/h (0 Bft)
24.11.2017 02:15 2,9 °C 2,9 °C 79 % 1016,9 hPa 0,0 mm 0,0 km/h (0 Bft) SW 216 ° 0 min 0,000 mm 0,0 UV-I 0 W/m² -0,4 °C 2,9 °C 0,0 km/h (0 Bft)
24.11.2017 02:16 2,9 °C 2,9 °C 79 % 1016,9 hPa 0,0 mm 0,0 km/h (0 Bft) SW 216 ° 0 min 0,000 mm 0,0 UV-I 0 W/m² -0,4 °C 2,9 °C 0,0 km/h (0 Bft)
24.11.2017 02:17 2,9 °C 3,0 °C 79 % 1016,9 hPa 0,0 mm 0,4 km/h (0 Bft) SW 216 ° 0 min 0,000 mm 0,0 UV-I 0 W/m² -0,4 °C 2,9 °C 1,6 km/h (1 Bft)
24.11.2017 02:18 3,0 °C 3,0 °C 79 % 1016,9 hPa 0,0 mm 1,1 km/h (1 Bft) N-NO 13 ° 0 min 0,000 mm 0,0 UV-I 0 W/m² -0,3 °C 3,0 °C 4,8 km/h (1 Bft)
24.11.2017 02:19 3,0 °C 3,0 °C 79 % 1016,9 hPa 0,0 mm 2,1 km/h (1 Bft) O-NO 61 ° 0 min 0,000 mm 0,0 UV-I 0 W/m² -0,3 °C 3,0 °C 4,8 km/h (1 Bft)
24.11.2017 02:20 3,1 °C 3,1 °C 79 % 1016,8 hPa 0,0 mm 2,3 km/h (1 Bft) O 94 ° 0 min 0,000 mm 0,0 UV-I 0 W/m² -0,2 °C 3,1 °C 4,8 km/h (1 Bft)
24.11.2017 02:21 3,1 °C 3,1 °C 79 % 1016,9 hPa 0,0 mm 0,8 km/h (0 Bft) O 94 ° 0 min 0,000 mm 0,0 UV-I 0 W/m² -0,2 °C 3,1 °C 1,6 km/h (1 Bft)
24.11.2017 02:22 3,1 °C 3,1 °C 80 % 1016,9 hPa 0,0 mm 0,0 km/h (0 Bft) O 94 ° 0 min 0,000 mm 0,0 UV-I 0 W/m² -0,0 °C 3,1 °C 0,0 km/h (0 Bft)
24.11.2017 02:23 3,1 °C 3,2 °C 79 % 1016,9 hPa 0,0 mm 0,5 km/h (0 Bft) O 94 ° 0 min 0,000 mm 0,0 UV-I 0 W/m² -0,2 °C 3,1 °C 3,2 km/h (1 Bft)
24.11.2017 02:24 3,2 °C 3,2 °C 79 % 1016,9 hPa 0,0 mm 1,3 km/h (1 Bft) O-NO 65 ° 0 min 0,000 mm 0,0 UV-I 0 W/m² -0,1 °C 3,2 °C 3,2 km/h (1 Bft)
24.11.2017 02:25 3,2 °C 3,2 °C 79 % 1016,9 hPa 0,0 mm 1,6 km/h (1 Bft) NO 56 ° 0 min 0,000 mm 0,0 UV-I 0 W/m² -0,1 °C 3,2 °C 4,8 km/h (1 Bft)
24.11.2017 02:26 3,2 °C 3,2 °C 79 % 1016,9 hPa 0,0 mm 0,1 km/h (0 Bft) NO 56 ° 0 min 0,000 mm 0,0 UV-I 0 W/m² -0,1 °C 3,2 °C 1,6 km/h (1 Bft)
24.11.2017 02:27 3,2 °C 3,3 °C 79 % 1016,9 hPa 0,0 mm 0,1 km/h (0 Bft) NO 56 ° 0 min 0,000 mm 0,0 UV-I 0 W/m² -0,1 °C 3,2 °C 1,6 km/h (1 Bft)
24.11.2017 02:28 3,3 °C 3,3 °C 80 % 1016,9 hPa 0,0 mm 0,0 km/h (0 Bft) NO 56 ° 0 min 0,000 mm 0,0 UV-I 0 W/m² 0,2 °C 3,3 °C 0,0 km/h (0 Bft)
24.11.2017 02:29 3,3 °C 3,3 °C 80 % 1016,9 hPa 0,0 mm 0,0 km/h (0 Bft) NO 56 ° 0 min 0,000 mm 0,0 UV-I 0 W/m² 0,2 °C 3,3 °C 0,0 km/h (0 Bft)
24.11.2017 02:30 3,3 °C 3,4 °C 79 % 1016,8 hPa 0,0 mm 1,9 km/h (1 Bft) NO 50 ° 0 min 0,000 mm 0,0 UV-I 0 W/m² 0,0 °C 3,3 °C 4,8 km/h (1 Bft)
24.11.2017 02:31 3,4 °C 3,4 °C 79 % 1016,8 hPa 0,0 mm 1,0 km/h (0 Bft) NO 50 ° 0 min 0,000 mm 0,0 UV-I 0 W/m² 0,1 °C 3,4 °C 3,2 km/h (1 Bft)
24.11.2017 02:32 3,4 °C 3,4 °C 79 % 1016,8 hPa 0,0 mm 1,0 km/h (0 Bft) NO 47 ° 0 min 0,000 mm 0,0 UV-I 0 W/m² 0,1 °C 3,4 °C 3,2 km/h (1 Bft)
24.11.2017 02:33 3,4 °C 3,5 °C 79 % 1016,8 hPa 0,0 mm 0,3 km/h (0 Bft) NO 47 ° 0 min 0,000 mm 0,0 UV-I 0 W/m² 0,1 °C 3,4 °C 1,6 km/h (1 Bft)
24.11.2017 02:34 3,5 °C 3,5 °C 79 % 1016,8 hPa 0,0 mm 0,5 km/h (0 Bft) NO 47 ° 0 min 0,000 mm 0,0 UV-I 0 W/m² 0,2 °C 3,5 °C 3,2 km/h (1 Bft)
24.11.2017 02:35 3,6 °C 3,6 °C 78 % 1016,8 hPa 0,0 mm 0,7 km/h (0 Bft) NO 47 ° 0 min 0,000 mm 0,0 UV-I 0 W/m² 0,1 °C 3,6 °C 3,2 km/h (1 Bft)
24.11.2017 02:36 3,6 °C 3,6 °C 78 % 1016,8 hPa 0,0 mm 0,7 km/h (0 Bft) NO 47 ° 0 min 0,000 mm 0,0 UV-I 0 W/m² 0,1 °C 3,6 °C 1,6 km/h (1 Bft)
24.11.2017 02:37 3,6 °C 3,6 °C 78 % 1016,8 hPa 0,0 mm 0,7 km/h (0 Bft) NO 47 ° 0 min 0,000 mm 0,0 UV-I 0 W/m² 0,1 °C 3,6 °C 1,6 km/h (1 Bft)
24.11.2017 02:38 3,6 °C 3,6 °C 78 % 1016,8 hPa 0,0 mm 0,0 km/h (0 Bft) NO 47 ° 0 min 0,000 mm 0,0 UV-I 0 W/m² 0,1 °C 3,6 °C 0,0 km/h (0 Bft)
24.11.2017 02:39 3,7 °C 3,7 °C 77 % 1016,8 hPa 0,0 mm 0,0 km/h (0 Bft) NO 47 ° 0 min 0,000 mm 0,0 UV-I 0 W/m² 0,1 °C 3,7 °C 0,0 km/h (0 Bft)
24.11.2017 02:40 3,7 °C 3,7 °C 77 % 1016,8 hPa 0,0 mm 0,6 km/h (0 Bft) NO 47 ° 0 min 0,000 mm 0,0 UV-I 0 W/m² 0,1 °C 3,7 °C 1,6 km/h (1 Bft)
24.11.2017 02:41 3,7 °C 3,7 °C 77 % 1016,8 hPa 0,0 mm 0,0 km/h (0 Bft) NO 47 ° 0 min 0,000 mm 0,0 UV-I 0 W/m² 0,1 °C 3,7 °C 0,0 km/h (0 Bft)
24.11.2017 02:42 3,7 °C 3,7 °C 77 % 1016,8 hPa 0,0 mm 0,5 km/h (0 Bft) NO 47 ° 0 min 0,000 mm 0,0 UV-I 0 W/m² 0,1 °C 3,7 °C 3,2 km/h (1 Bft)
24.11.2017 02:43 3,8 °C 3,8 °C 77 % 1016,8 hPa 0,0 mm 0,0 km/h (0 Bft) NO 47 ° 0 min 0,000 mm 0,0 UV-I 0 W/m² 0,1 °C 3,8 °C 0,0 km/h (0 Bft)
24.11.2017 02:44 3,8 °C 3,8 °C 77 % 1016,8 hPa 0,0 mm 0,0 km/h (0 Bft) NO 47 ° 0 min 0,000 mm 0,0 UV-I 0 W/m² 0,1 °C 3,8 °C 0,0 km/h (0 Bft)
24.11.2017 02:45 3,8 °C 3,8 °C 77 % 1016,8 hPa 0,0 mm 0,0 km/h (0 Bft) NO 47 ° 0 min 0,000 mm 0,0 UV-I 0 W/m² 0,1 °C 3,8 °C 0,0 km/h (0 Bft)
24.11.2017 02:46 3,8 °C 3,8 °C 77 % 1016,8 hPa 0,0 mm 0,0 km/h (0 Bft) NO 47 ° 0 min 0,000 mm 0,0 UV-I 0 W/m² 0,1 °C 3,8 °C 0,0 km/h (0 Bft)
24.11.2017 02:47 3,8 °C 3,8 °C 77 % 1016,8 hPa 0,0 mm 1,2 km/h (1 Bft) NO 47 ° 0 min 0,000 mm 0,0 UV-I 0 W/m² 0,1 °C 3,8 °C 3,2 km/h (1 Bft)
24.11.2017 02:48 3,9 °C 3,9 °C 76 % 1016,8 hPa 0,0 mm 0,9 km/h (0 Bft) NO 47 ° 0 min 0,000 mm 0,0 UV-I 0 W/m² 0,1 °C 3,9 °C 3,2 km/h (1 Bft)
24.11.2017 02:49 3,9 °C 3,9 °C 76 % 1016,8 hPa 0,0 mm 1,4 km/h (1 Bft) NO 47 ° 0 min 0,000 mm 0,0 UV-I 0 W/m² 0,1 °C 3,9 °C 3,2 km/h (1 Bft)
24.11.2017 02:50 3,9 °C 3,9 °C 76 % 1016,8 hPa 0,0 mm 0,0 km/h (0 Bft) NO 47 ° 0 min 0,000 mm 0,0 UV-I 0 W/m² 0,1 °C 3,9 °C 0,0 km/h (0 Bft)
24.11.2017 02:51 3,9 °C 3,9 °C 76 % 1016,8 hPa 0,0 mm 0,0 km/h (0 Bft) NO 47 ° 0 min 0,000 mm 0,0 UV-I 0 W/m² 0,1 °C 3,9 °C 0,0 km/h (0 Bft)
24.11.2017 02:52 3,9 °C 3,9 °C 75 % 1016,8 hPa 0,0 mm 0,5 km/h (0 Bft) NO 47 ° 0 min 0,000 mm 0,0 UV-I 0 W/m² -0,1 °C 3,9 °C 3,2 km/h (1 Bft)
24.11.2017 02:53 3,9 °C 3,9 °C 75 % 1016,8 hPa 0,0 mm 1,2 km/h (1 Bft) NO 47 ° 0 min 0,000 mm 0,0 UV-I 0 W/m² -0,1 °C 3,9 °C 3,2 km/h (1 Bft)
24.11.2017 02:54 3,9 °C 3,9 °C 75 % 1016,8 hPa 0,0 mm 0,0 km/h (0 Bft) NO 47 ° 0 min 0,000 mm 0,0 UV-I 0 W/m² -0,1 °C 3,9 °C 0,0 km/h (0 Bft)
24.11.2017 02:55 3,9 °C 3,9 °C 75 % 1016,8 hPa 0,0 mm 0,0 km/h (0 Bft) NO 47 ° 0 min 0,000 mm 0,0 UV-I 0 W/m² -0,1 °C 3,9 °C 0,0 km/h (0 Bft)
24.11.2017 02:56 3,9 °C 3,9 °C 75 % 1016,8 hPa 0,0 mm 0,0 km/h (0 Bft) NO 47 ° 0 min 0,000 mm 0,0 UV-I 0 W/m² -0,1 °C 3,9 °C 0,0 km/h (0 Bft)
24.11.2017 02:57 4,0 °C 4,0 °C 75 % 1016,8 hPa 0,0 mm 0,0 km/h (0 Bft) NO 47 ° 0 min 0,000 mm 0,0 UV-I 0 W/m² -0,0 °C 4,0 °C 0,0 km/h (0 Bft)
24.11.2017 02:58 3,9 °C 4,0 °C 75 % 1016,8 hPa 0,0 mm 0,0 km/h (0 Bft) NO 47 ° 0 min 0,000 mm 0,0 UV-I 0 W/m² -0,1 °C 3,9 °C 0,0 km/h (0 Bft)
24.11.2017 02:59 3,9 °C 3,9 °C 75 % 1016,8 hPa 0,0 mm 0,0 km/h (0 Bft) NO 47 ° 0 min 0,000 mm 0,0 UV-I 0 W/m² -0,1 °C 3,9 °C 0,0 km/h (0 Bft)
24.11.2017 03:00 3,9 °C 3,9 °C 75 % 1016,8 hPa 0,0 mm 0,0 km/h (0 Bft) NO 47 ° 0 min 0,000 mm 0,0 UV-I 0 W/m² -0,1 °C 3,9 °C 0,0 km/h (0 Bft)
24.11.2017 03:01 4,0 °C 4,0 °C 75 % 1016,8 hPa 0,0 mm 0,0 km/h (0 Bft) NO 47 ° 0 min 0,000 mm 0,0 UV-I 0 W/m² -0,0 °C 4,0 °C 0,0 km/h (0 Bft)
24.11.2017 03:02 3,9 °C 4,0 °C 75 % 1016,8 hPa 0,0 mm 0,0 km/h (0 Bft) NO 47 ° 0 min 0,000 mm 0,0 UV-I 0 W/m² -0,1 °C 3,9 °C 0,0 km/h (0 Bft)
24.11.2017 03:03 3,9 °C 3,9 °C 75 % 1016,8 hPa 0,0 mm 0,0 km/h (0 Bft) NO 47 ° 0 min 0,000 mm 0,0 UV-I 0 W/m² -0,1 °C 3,9 °C 0,0 km/h (0 Bft)
24.11.2017 03:04 3,9 °C 3,9 °C 75 % 1016,8 hPa 0,0 mm 0,1 km/h (0 Bft) NO 47 ° 0 min 0,000 mm 0,0 UV-I 0 W/m² -0,1 °C 3,9 °C 1,6 km/h (1 Bft)
24.11.2017 03:05 3,9 °C 3,9 °C 75 % 1016,8 hPa 0,0 mm 1,3 km/h (1 Bft) NO 47 ° 0 min 0,000 mm 0,0 UV-I 0 W/m² -0,1 °C 3,9 °C 3,2 km/h (1 Bft)
24.11.2017 03:06 3,9 °C 3,9 °C 75 % 1016,8 hPa 0,0 mm 1,5 km/h (1 Bft) N-NW 331 ° 0 min 0,000 mm 0,0 UV-I 0 W/m² -0,1 °C 3,9 °C 3,2 km/h (1 Bft)
24.11.2017 03:07 3,9 °C 3,9 °C 75 % 1016,7 hPa 0,0 mm 0,0 km/h (0 Bft) N-NW 331 ° 0 min 0,000 mm 0,0 UV-I 0 W/m² -0,1 °C 3,9 °C 0,0 km/h (0 Bft)
24.11.2017 03:08 3,9 °C 3,9 °C 75 % 1016,7 hPa 0,0 mm 0,0 km/h (0 Bft) N-NW 331 ° 0 min 0,000 mm 0,0 UV-I 0 W/m² -0,1 °C 3,9 °C 0,0 km/h (0 Bft)
24.11.2017 03:09 3,9 °C 3,9 °C 75 % 1016,7 hPa 0,0 mm 0,0 km/h (0 Bft) NW 323 ° 0 min 0,000 mm 0,0 UV-I 0 W/m² -0,1 °C 3,9 °C 0,0 km/h (0 Bft)
24.11.2017 03:10 3,9 °C 3,9 °C 75 % 1016,7 hPa 0,0 mm 0,0 km/h (0 Bft) NW 323 ° 0 min 0,000 mm 0,0 UV-I 0 W/m² -0,1 °C 3,9 °C 0,0 km/h (0 Bft)
24.11.2017 03:11 3,9 °C 3,9 °C 75 % 1016,7 hPa 0,0 mm 0,0 km/h (0 Bft) NW 323 ° 0 min 0,000 mm 0,0 UV-I 0 W/m² -0,1 °C 3,9 °C 0,0 km/h (0 Bft)
24.11.2017 03:12 3,9 °C 3,9 °C 75 % 1016,7 hPa 0,0 mm 0,0 km/h (0 Bft) NW 323 ° 0 min 0,000 mm 0,0 UV-I 0 W/m² -0,1 °C 3,9 °C 0,0 km/h (0 Bft)
24.11.2017 03:13 3,9 °C 3,9 °C 75 % 1016,7 hPa 0,0 mm 0,0 km/h (0 Bft) NW 323 ° 0 min 0,000 mm 0,0 UV-I 0 W/m² -0,1 °C 3,9 °C 0,0 km/h (0 Bft)
24.11.2017 03:14 3,9 °C 3,9 °C 75 % 1016,6 hPa 0,0 mm 2,0 km/h (1 Bft) N-NW 344 ° 0 min 0,000 mm 0,0 UV-I 0 W/m² -0,1 °C 3,9 °C 4,8 km/h (1 Bft)
24.11.2017 03:15 3,8 °C 3,9 °C 75 % 1016,6 hPa 0,0 mm 1,3 km/h (1 Bft) N-NW 344 ° 0 min 0,000 mm 0,0 UV-I 0 W/m² -0,2 °C 3,8 °C 4,8 km/h (1 Bft)
24.11.2017 03:16 3,8 °C 3,9 °C 75 % 1016,5 hPa 0,0 mm 0,1 km/h (0 Bft) N-NW 344 ° 0 min 0,000 mm 0,0 UV-I 0 W/m² -0,2 °C 3,8 °C 1,6 km/h (1 Bft)
24.11.2017 03:17 3,8 °C 3,8 °C 75 % 1016,6 hPa 0,0 mm 0,0 km/h (0 Bft) N-NW 344 ° 0 min 0,000 mm 0,0 UV-I 0 W/m² -0,2 °C 3,8 °C 0,0 km/h (0 Bft)
24.11.2017 03:18 3,8 °C 3,8 °C 75 % 1016,6 hPa 0,0 mm 0,7 km/h (0 Bft) N-NW 344 ° 0 min 0,000 mm 0,0 UV-I 0 W/m² -0,2 °C 3,8 °C 1,6 km/h (1 Bft)
24.11.2017 03:19 3,8 °C 3,8 °C 75 % 1016,5 hPa 0,0 mm 0,4 km/h (0 Bft) N-NW 338 ° 0 min 0,000 mm 0,0 UV-I 0 W/m² -0,2 °C 3,8 °C 3,2 km/h (1 Bft)
24.11.2017 03:20 3,8 °C 3,8 °C 75 % 1016,5 hPa 0,0 mm 0,1 km/h (0 Bft) NW 311 ° 0 min 0,000 mm 0,0 UV-I 0 W/m² -0,2 °C 3,8 °C 1,6 km/h (1 Bft)
24.11.2017 03:21 3,8 °C 3,8 °C 75 % 1016,6 hPa 0,0 mm 0,0 km/h (0 Bft) NW 311 ° 0 min 0,000 mm 0,0 UV-I 0 W/m² -0,2 °C 3,8 °C 0,0 km/h (0 Bft)
24.11.2017 03:22 3,8 °C 3,8 °C 75 % 1016,5 hPa 0,0 mm 0,0 km/h (0 Bft) NW 311 ° 0 min 0,000 mm 0,0 UV-I 0 W/m² -0,2 °C 3,8 °C 0,0 km/h (0 Bft)
24.11.2017 03:23 3,8 °C 3,8 °C 75 % 1016,5 hPa 0,0 mm 0,0 km/h (0 Bft) NW 311 ° 0 min 0,000 mm 0,0 UV-I 0 W/m² -0,2 °C 3,8 °C 0,0 km/h (0 Bft)
24.11.2017 03:24 3,8 °C 3,8 °C 75 % 1016,6 hPa 0,0 mm 0,0 km/h (0 Bft) NW 311 ° 0 min 0,000 mm 0,0 UV-I 0 W/m² -0,2 °C 3,8 °C 0,0 km/h (0 Bft)
24.11.2017 03:25 3,8 °C 3,8 °C 75 % 1016,6 hPa 0,0 mm 0,0 km/h (0 Bft) NW 311 ° 0 min 0,000 mm 0,0 UV-I 0 W/m² -0,2 °C 3,8 °C 0,0 km/h (0 Bft)
24.11.2017 03:26 3,8 °C 3,8 °C 75 % 1016,5 hPa 0,0 mm 0,0 km/h (0 Bft) NW 311 ° 0 min 0,000 mm 0,0 UV-I 0 W/m² -0,2 °C 3,8 °C 0,0 km/h (0 Bft)
24.11.2017 03:27 3,8 °C 3,8 °C 75 % 1016,5 hPa 0,0 mm 0,0 km/h (0 Bft) NW 311 ° 0 min 0,000 mm 0,0 UV-I 0 W/m² -0,2 °C 3,8 °C 0,0 km/h (0 Bft)
24.11.2017 03:28 3,8 °C 3,8 °C 76 % 1016,5 hPa 0,0 mm 0,6 km/h (0 Bft) NW 313 ° 0 min 0,000 mm 0,0 UV-I 0 W/m² -0,0 °C 3,8 °C 1,6 km/h (1 Bft)
24.11.2017 03:29 3,8 °C 3,8 °C 76 % 1016,5 hPa 0,0 mm 0,6 km/h (0 Bft) NW 313 ° 0 min 0,000 mm 0,0 UV-I 0 W/m² -0,0 °C 3,8 °C 3,2 km/h (1 Bft)
24.11.2017 03:30 3,8 °C 3,8 °C 76 % 1016,5 hPa 0,0 mm 0,0 km/h (0 Bft) NW 313 ° 0 min 0,000 mm 0,0 UV-I 0 W/m² -0,0 °C 3,8 °C 0,0 km/h (0 Bft)
24.11.2017 03:31 3,8 °C 3,8 °C 76 % 1016,5 hPa 0,0 mm 0,0 km/h (0 Bft) NW 313 ° 0 min 0,000 mm 0,0 UV-I 0 W/m² -0,0 °C 3,8 °C 0,0 km/h (0 Bft)
24.11.2017 03:32 3,8 °C 3,8 °C 77 % 1016,4 hPa 0,0 mm 0,0 km/h (0 Bft) NW 313 ° 0 min 0,000 mm 0,0 UV-I 0 W/m² 0,1 °C 3,8 °C 0,0 km/h (0 Bft)
24.11.2017 03:33 3,8 °C 3,8 °C 77 % 1016,4 hPa 0,0 mm 0,0 km/h (0 Bft) NW 313 ° 0 min 0,000 mm 0,0 UV-I 0 W/m² 0,1 °C 3,8 °C 0,0 km/h (0 Bft)
24.11.2017 03:34 3,8 °C 3,8 °C 77 % 1016,4 hPa 0,0 mm 0,0 km/h (0 Bft) NW 313 ° 0 min 0,000 mm 0,0 UV-I 0 W/m² 0,1 °C 3,8 °C 0,0 km/h (0 Bft)
24.11.2017 03:35 3,9 °C 3,9 °C 77 % 1016,4 hPa 0,0 mm 0,2 km/h (0 Bft) NW 313 ° 0 min 0,000 mm 0,0 UV-I 0 W/m² 0,2 °C 3,9 °C 1,6 km/h (1 Bft)
24.11.2017 03:36 3,9 °C 3,9 °C 77 % 1016,4 hPa 0,0 mm 0,7 km/h (0 Bft) NW 313 ° 0 min 0,000 mm 0,0 UV-I 0 W/m² 0,2 °C 3,9 °C 1,6 km/h (1 Bft)
24.11.2017 03:37 3,9 °C 3,9 °C 77 % 1016,4 hPa 0,0 mm 0,0 km/h (0 Bft) NW 313 ° 0 min 0,000 mm 0,0 UV-I 0 W/m² 0,2 °C 3,9 °C 0,0 km/h (0 Bft)
24.11.2017 03:38 3,9 °C 3,9 °C 76 % 1016,4 hPa 0,0 mm 0,4 km/h (0 Bft) NW 313 ° 0 min 0,000 mm 0,0 UV-I 0 W/m² 0,1 °C 3,9 °C 1,6 km/h (1 Bft)
24.11.2017 03:39 3,9 °C 3,9 °C 76 % 1016,4 hPa 0,0 mm 0,0 km/h (0 Bft) NW 313 ° 0 min 0,000 mm 0,0 UV-I 0 W/m² 0,1 °C 3,9 °C 0,0 km/h (0 Bft)
24.11.2017 03:40 3,9 °C 3,9 °C 76 % 1016,4 hPa 0,0 mm 0,0 km/h (0 Bft) NW 313 ° 0 min 0,000 mm 0,0 UV-I 0 W/m² 0,1 °C 3,9 °C 0,0 km/h (0 Bft)
24.11.2017 03:41 3,9 °C 3,9 °C 76 % 1016,4 hPa 0,0 mm 0,6 km/h (0 Bft) NW 313 ° 0 min 0,000 mm 0,0 UV-I 0 W/m² 0,1 °C 3,9 °C 3,2 km/h (1 Bft)
24.11.2017 03:42 3,9 °C 3,9 °C 76 % 1016,4 hPa 0,0 mm 0,7 km/h (0 Bft) NW 313 ° 0 min 0,000 mm 0,0 UV-I 0 W/m² 0,1 °C 3,9 °C 3,2 km/h (1 Bft)
24.11.2017 03:43 3,9 °C 3,9 °C 76 % 1016,4 hPa 0,0 mm 0,0 km/h (0 Bft) NW 313 ° 0 min 0,000 mm 0,0 UV-I 0 W/m² 0,1 °C 3,9 °C 0,0 km/h (0 Bft)
24.11.2017 03:44 3,9 °C 3,9 °C 76 % 1016,4 hPa 0,0 mm 3,5 km/h (1 Bft) SO 141 ° 0 min 0,000 mm 0,0 UV-I 0 W/m² 0,1 °C 3,9 °C 6,4 km/h (2 Bft)
24.11.2017 03:45 4,0 °C 4,0 °C 77 % 1016,4 hPa 0,0 mm 0,4 km/h (0 Bft) SO 141 ° 0 min 0,000 mm 0,0 UV-I 0 W/m² 0,3 °C 4,0 °C 3,2 km/h (1 Bft)
24.11.2017 03:46 4,0 °C 4,0 °C 77 % 1016,4 hPa 0,0 mm 0,0 km/h (0 Bft) SO 141 ° 0 min 0,000 mm 0,0 UV-I 0 W/m² 0,3 °C 4,0 °C 0,0 km/h (0 Bft)
24.11.2017 03:47 4,0 °C 4,0 °C 76 % 1016,3 hPa 0,0 mm 0,6 km/h (0 Bft) SO 137 ° 0 min 0,000 mm 0,0 UV-I 0 W/m² 0,2 °C 4,0 °C 1,6 km/h (1 Bft)
24.11.2017 03:48 4,0 °C 4,0 °C 76 % 1016,3 hPa 0,0 mm 0,0 km/h (0 Bft) SO 138 ° 0 min 0,000 mm 0,0 UV-I 0 W/m² 0,2 °C 4,0 °C 0,0 km/h (0 Bft)
24.11.2017 03:49 4,0 °C 4,0 °C 76 % 1016,3 hPa 0,0 mm 0,0 km/h (0 Bft) SO 138 ° 0 min 0,000 mm 0,0 UV-I 0 W/m² 0,2 °C 4,0 °C 0,0 km/h (0 Bft)
24.11.2017 03:50 4,0 °C 4,0 °C 76 % 1016,4 hPa 0,0 mm 0,1 km/h (0 Bft) SO 138 ° 0 min 0,000 mm 0,0 UV-I 0 W/m² 0,2 °C 4,0 °C 1,6 km/h (1 Bft)
24.11.2017 03:51 4,0 °C 4,1 °C 76 % 1016,3 hPa 0,0 mm 0,1 km/h (0 Bft) SO 137 ° 0 min 0,000 mm 0,0 UV-I 0 W/m² 0,2 °C 4,0 °C 1,6 km/h (1 Bft)
24.11.2017 03:52 4,1 °C 4,1 °C 76 % 1016,4 hPa 0,0 mm 0,3 km/h (0 Bft) SO 137 ° 0 min 0,000 mm 0,0 UV-I 0 W/m² 0,3 °C 4,1 °C 1,6 km/h (1 Bft)
24.11.2017 03:53 4,1 °C 4,1 °C 76 % 1016,4 hPa 0,0 mm 1,2 km/h (1 Bft) SO 137 ° 0 min 0,000 mm 0,0 UV-I 0 W/m² 0,3 °C 4,1 °C 3,2 km/h (1 Bft)
24.11.2017 03:54 4,1 °C 4,1 °C 76 % 1016,3 hPa 0,0 mm 0,9 km/h (0 Bft) SO 137 ° 0 min 0,000 mm 0,0 UV-I 0 W/m² 0,3 °C 4,1 °C 3,2 km/h (1 Bft)
24.11.2017 03:55 4,1 °C 4,1 °C 76 % 1016,3 hPa 0,0 mm 0,6 km/h (0 Bft) SO 137 ° 0 min 0,000 mm 0,0 UV-I 0 W/m² 0,3 °C 4,1 °C 1,6 km/h (1 Bft)
24.11.2017 03:56 4,1 °C 4,1 °C 76 % 1016,3 hPa 0,0 mm 0,4 km/h (0 Bft) SO 137 ° 0 min 0,000 mm 0,0 UV-I 0 W/m² 0,3 °C 4,1 °C 1,6 km/h (1 Bft)
24.11.2017 03:57 4,1 °C 4,1 °C 75 % 1016,3 hPa 0,0 mm 0,0 km/h (0 Bft) SO 137 ° 0 min 0,000 mm 0,0 UV-I 0 W/m² 0,1 °C 4,1 °C 0,0 km/h (0 Bft)
24.11.2017 03:58 4,1 °C 4,1 °C 75 % 1016,3 hPa 0,0 mm 0,6 km/h (0 Bft) SO 133 ° 0 min 0,000 mm 0,0 UV-I 0 W/m² 0,1 °C 4,1 °C 3,2 km/h (1 Bft)
24.11.2017 03:59 4,1 °C 4,1 °C 75 % 1016,3 hPa 0,0 mm 0,5 km/h (0 Bft) SO 133 ° 0 min 0,000 mm 0,0 UV-I 0 W/m² 0,1 °C 4,1 °C 1,6 km/h (1 Bft)
24.11.2017 04:00 4,1 °C 4,1 °C 75 % 1016,3 hPa 0,0 mm 0,7 km/h (0 Bft) SO 133 ° 0 min 0,025 mm 0,0 UV-I 0 W/m² 0,1 °C 4,1 °C 3,2 km/h (1 Bft)
24.11.2017 04:01 4,1 °C 4,1 °C 75 % 1016,3 hPa 0,0 mm 0,7 km/h (0 Bft) SW 228 ° 0 min 0,000 mm 0,0 UV-I 0 W/m² 0,1 °C 4,1 °C 3,2 km/h (1 Bft)
24.11.2017 04:02 4,1 °C 4,1 °C 75 % 1016,3 hPa 0,0 mm 0,3 km/h (0 Bft) SW 228 ° 0 min 0,000 mm 0,0 UV-I 0 W/m² 0,1 °C 4,1 °C 1,6 km/h (1 Bft)
24.11.2017 04:03 4,1 °C 4,1 °C 74 % 1016,3 hPa 0,0 mm 0,0 km/h (0 Bft) SW 228 ° 0 min 0,000 mm 0,0 UV-I 0 W/m² -0,1 °C 4,1 °C 0,0 km/h (0 Bft)
24.11.2017 04:04 4,1 °C 4,1 °C 74 % 1016,3 hPa 0,0 mm 0,8 km/h (0 Bft) W 263 ° 0 min 0,000 mm 0,0 UV-I 0 W/m² -0,1 °C 4,1 °C 1,6 km/h (1 Bft)
24.11.2017 04:05 4,1 °C 4,1 °C 74 % 1016,3 hPa 0,0 mm 0,0 km/h (0 Bft) W 263 ° 0 min 0,000 mm 0,0 UV-I 0 W/m² -0,1 °C 4,1 °C 0,0 km/h (0 Bft)
24.11.2017 04:06 4,1 °C 4,1 °C 74 % 1016,3 hPa 0,0 mm 0,0 km/h (0 Bft) W 263 ° 0 min 0,000 mm 0,0 UV-I 0 W/m² -0,1 °C 4,1 °C 0,0 km/h (0 Bft)
24.11.2017 04:07 4,1 °C 4,1 °C 74 % 1016,3 hPa 0,0 mm 0,0 km/h (0 Bft) W 263 ° 0 min 0,000 mm 0,0 UV-I 0 W/m² -0,1 °C 4,1 °C 0,0 km/h (0 Bft)
24.11.2017 04:08 4,1 °C 4,1 °C 74 % 1016,3 hPa 0,0 mm 0,0 km/h (0 Bft) W 263 ° 0 min 0,000 mm 0,0 UV-I 0 W/m² -0,1 °C 4,1 °C 0,0 km/h (0 Bft)
24.11.2017 04:09 4,1 °C 4,1 °C 74 % 1016,3 hPa 0,0 mm 0,0 km/h (0 Bft) W 263 ° 0 min 0,000 mm 0,0 UV-I 0 W/m² -0,1 °C 4,1 °C 0,0 km/h (0 Bft)
24.11.2017 04:10 4,1 °C 4,1 °C 74 % 1016,3 hPa 0,0 mm 0,1 km/h (0 Bft) W 263 ° 0 min 0,000 mm 0,0 UV-I 0 W/m² -0,1 °C 4,1 °C 1,6 km/h (1 Bft)
24.11.2017 04:11 4,1 °C 4,1 °C 74 % 1016,3 hPa 0,0 mm 0,0 km/h (0 Bft) W 263 ° 0 min 0,000 mm 0,0 UV-I 0 W/m² -0,1 °C 4,1 °C 0,0 km/h (0 Bft)
24.11.2017 04:12 4,1 °C 4,1 °C 74 % 1016,2 hPa 0,0 mm 0,0 km/h (0 Bft) W 263 ° 0 min 0,000 mm 0,0 UV-I 0 W/m² -0,1 °C 4,1 °C 0,0 km/h (0 Bft)
24.11.2017 04:13 4,1 °C 4,1 °C 74 % 1016,3 hPa 0,0 mm 0,1 km/h (0 Bft) W 263 ° 0 min 0,000 mm 0,0 UV-I 0 W/m² -0,1 °C 4,1 °C 1,6 km/h (1 Bft)
24.11.2017 04:14 4,1 °C 4,1 °C 74 % 1016,3 hPa 0,0 mm 0,7 km/h (0 Bft) W 263 ° 0 min 0,000 mm 0,0 UV-I 0 W/m² -0,1 °C 4,1 °C 3,2 km/h (1 Bft)
24.11.2017 04:15 4,1 °C 4,1 °C 74 % 1016,3 hPa 0,0 mm 0,4 km/h (0 Bft) W 263 ° 0 min 0,000 mm 0,0 UV-I 0 W/m² -0,1 °C 4,1 °C 1,6 km/h (1 Bft)
24.11.2017 04:16 4,1 °C 4,1 °C 74 % 1016,3 hPa 0,0 mm 0,0 km/h (0 Bft) W 263 ° 0 min 0,000 mm 0,0 UV-I 0 W/m² -0,1 °C 4,1 °C 0,0 km/h (0 Bft)
24.11.2017 04:17 4,1 °C 4,1 °C 74 % 1016,3 hPa 0,0 mm 0,0 km/h (0 Bft) W 263 ° 0 min 0,000 mm 0,0 UV-I 0 W/m² -0,1 °C 4,1 °C 0,0 km/h (0 Bft)
24.11.2017 04:18 4,1 °C 4,1 °C 74 % 1016,3 hPa 0,0 mm 0,8 km/h (0 Bft) W 263 ° 0 min 0,000 mm 0,0 UV-I 0 W/m² -0,1 °C 4,1 °C 1,6 km/h (1 Bft)
24.11.2017 04:19 4,0 °C 4,1 °C 74 % 1016,3 hPa 0,0 mm 0,3 km/h (0 Bft) W 263 ° 0 min 0,000 mm 0,0 UV-I 0 W/m² -0,2 °C 4,0 °C 1,6 km/h (1 Bft)
24.11.2017 04:20 4,0 °C 4,1 °C 74 % 1016,3 hPa 0,0 mm 0,1 km/h (0 Bft) W 263 ° 0 min 0,000 mm 0,0 UV-I 0 W/m² -0,2 °C 4,0 °C 1,6 km/h (1 Bft)
24.11.2017 04:21 4,0 °C 4,0 °C 74 % 1016,3 hPa 0,0 mm 0,0 km/h (0 Bft) W 263 ° 0 min 0,000 mm 0,0 UV-I 0 W/m² -0,2 °C 4,0 °C 0,0 km/h (0 Bft)
24.11.2017 04:22 4,0 °C 4,0 °C 74 % 1016,3 hPa 0,0 mm 0,0 km/h (0 Bft) W 263 ° 0 min 0,000 mm 0,0 UV-I 0 W/m² -0,2 °C 4,0 °C 0,0 km/h (0 Bft)
24.11.2017 04:23 3,9 °C 4,0 °C 74 % 1016,3 hPa 0,0 mm 0,0 km/h (0 Bft) W 263 ° 0 min 0,000 mm 0,0 UV-I 0 W/m² -0,3 °C 3,9 °C 0,0 km/h (0 Bft)
24.11.2017 04:24 3,9 °C 4,0 °C 73 % 1016,3 hPa 0,0 mm 0,7 km/h (0 Bft) W 263 ° 0 min 0,000 mm 0,0 UV-I 0 W/m² -0,5 °C 3,9 °C 3,2 km/h (1 Bft)
24.11.2017 04:25 3,9 °C 4,0 °C 73 % 1016,3 hPa 0,0 mm 0,0 km/h (0 Bft) W 263 ° 0 min 0,000 mm 0,0 UV-I 0 W/m² -0,5 °C 3,9 °C 0,0 km/h (0 Bft)
24.11.2017 04:26 3,9 °C 3,9 °C 74 % 1016,3 hPa 0,0 mm 0,6 km/h (0 Bft) W 263 ° 0 min 0,000 mm 0,0 UV-I 0 W/m² -0,3 °C 3,9 °C 3,2 km/h (1 Bft)
24.11.2017 04:27 3,9 °C 3,9 °C 74 % 1016,3 hPa 0,0 mm 0,0 km/h (0 Bft) W 263 ° 0 min 0,000 mm 0,0 UV-I 0 W/m² -0,3 °C 3,9 °C 0,0 km/h (0 Bft)
24.11.2017 04:28 3,9 °C 3,9 °C 74 % 1016,3 hPa 0,0 mm 0,1 km/h (0 Bft) W 263 ° 0 min 0,000 mm 0,0 UV-I 0 W/m² -0,3 °C 3,9 °C 1,6 km/h (1 Bft)
24.11.2017 04:29 3,9 °C 3,9 °C 73 % 1016,3 hPa 0,0 mm 0,1 km/h (0 Bft) W 263 ° 0 min 0,000 mm 0,0 UV-I 0 W/m² -0,5 °C 3,9 °C 1,6 km/h (1 Bft)
24.11.2017 04:30 3,9 °C 3,9 °C 73 % 1016,3 hPa 0,0 mm 0,1 km/h (0 Bft) W 263 ° 0 min 0,000 mm 0,0 UV-I 0 W/m² -0,5 °C 3,9 °C 1,6 km/h (1 Bft)
24.11.2017 04:31 3,9 °C 3,9 °C 73 % 1016,3 hPa 0,0 mm 0,0 km/h (0 Bft) W 263 ° 0 min 0,000 mm 0,0 UV-I 0 W/m² -0,5 °C 3,9 °C 0,0 km/h (0 Bft)
24.11.2017 04:32 3,8 °C 3,9 °C 74 % 1016,3 hPa 0,0 mm 0,0 km/h (0 Bft) W 263 ° 0 min 0,000 mm 0,0 UV-I 0 W/m² -0,4 °C 3,8 °C 0,0 km/h (0 Bft)
24.11.2017 04:33 3,8 °C 3,8 °C 74 % 1016,3 hPa 0,0 mm 0,0 km/h (0 Bft) W 263 ° 0 min 0,000 mm 0,0 UV-I 0 W/m² -0,4 °C 3,8 °C 0,0 km/h (0 Bft)
24.11.2017 04:34 3,8 °C 3,8 °C 74 % 1016,3 hPa 0,0 mm 0,0 km/h (0 Bft) W 263 ° 0 min 0,000 mm 0,0 UV-I 0 W/m² -0,4 °C 3,8 °C 0,0 km/h (0 Bft)
24.11.2017 04:35 3,8 °C 3,8 °C 74 % 1016,3 hPa 0,0 mm 0,0 km/h (0 Bft) W 263 ° 0 min 0,000 mm 0,0 UV-I 0 W/m² -0,4 °C 3,8 °C 0,0 km/h (0 Bft)
24.11.2017 04:36 3,8 °C 3,8 °C 74 % 1016,2 hPa 0,0 mm 0,0 km/h (0 Bft) W 263 ° 0 min 0,000 mm 0,0 UV-I 0 W/m² -0,4 °C 3,8 °C 0,0 km/h (0 Bft)
24.11.2017 04:37 3,8 °C 3,8 °C 74 % 1016,2 hPa 0,0 mm 0,0 km/h (0 Bft) W 263 ° 0 min 0,000 mm 0,0 UV-I 0 W/m² -0,4 °C 3,8 °C 0,0 km/h (0 Bft)
24.11.2017 04:38 3,7 °C 3,8 °C 74 % 1016,2 hPa 0,0 mm 0,0 km/h (0 Bft) W 263 ° 0 min 0,000 mm 0,0 UV-I 0 W/m² -0,5 °C 3,7 °C 0,0 km/h (0 Bft)
24.11.2017 04:39 3,7 °C 3,7 °C 74 % 1016,2 hPa 0,0 mm 0,0 km/h (0 Bft) W 263 ° 0 min 0,000 mm 0,0 UV-I 0 W/m² -0,5 °C 3,7 °C 0,0 km/h (0 Bft)
24.11.2017 04:40 3,7 °C 3,7 °C 74 % 1016,1 hPa 0,0 mm 0,0 km/h (0 Bft) W 263 ° 0 min 0,000 mm 0,0 UV-I 0 W/m² -0,5 °C 3,7 °C 0,0 km/h (0 Bft)
24.11.2017 04:41 3,7 °C 3,7 °C 74 % 1016,1 hPa 0,0 mm 0,0 km/h (0 Bft) W 263 ° 0 min 0,000 mm 0,0 UV-I 0 W/m² -0,5 °C 3,7 °C 0,0 km/h (0 Bft)
24.11.2017 04:42 3,7 °C 3,7 °C 74 % 1016,1 hPa 0,0 mm 2,1 km/h (1 Bft) NW 316 ° 0 min 0,000 mm 0,0 UV-I 0 W/m² -0,5 °C 3,7 °C 4,8 km/h (1 Bft)
24.11.2017 04:43 3,6 °C 3,7 °C 74 % 1016,2 hPa 0,0 mm 2,1 km/h (1 Bft) NW 316 ° 0 min 0,000 mm 0,0 UV-I 0 W/m² -0,6 °C 3,6 °C 3,2 km/h (1 Bft)
24.11.2017 04:44 3,6 °C 3,6 °C 74 % 1016,2 hPa 0,0 mm 0,5 km/h (0 Bft) NW 316 ° 0 min 0,000 mm 0,0 UV-I 0 W/m² -0,6 °C 3,6 °C 3,2 km/h (1 Bft)
24.11.2017 04:45 3,6 °C 3,6 °C 74 % 1016,2 hPa 0,0 mm 0,0 km/h (0 Bft) NW 316 ° 0 min 0,000 mm 0,0 UV-I 0 W/m² -0,6 °C 3,6 °C 0,0 km/h (0 Bft)
24.11.2017 04:46 3,6 °C 3,6 °C 74 % 1016,2 hPa 0,0 mm 0,0 km/h (0 Bft) NW 316 ° 0 min 0,000 mm 0,0 UV-I 0 W/m² -0,6 °C 3,6 °C 0,0 km/h (0 Bft)
24.11.2017 04:47 3,6 °C 3,6 °C 74 % 1016,2 hPa 0,0 mm 0,0 km/h (0 Bft) NW 316 ° 0 min 0,000 mm 0,0 UV-I 0 W/m² -0,6 °C 3,6 °C 0,0 km/h (0 Bft)
24.11.2017 04:48 3,5 °C 3,6 °C 75 % 1016,3 hPa 0,0 mm 0,0 km/h (0 Bft) NW 316 ° 0 min 0,000 mm 0,0 UV-I 0 W/m² -0,5 °C 3,5 °C 0,0 km/h (0 Bft)
24.11.2017 04:49 3,6 °C 3,6 °C 75 % 1016,2 hPa 0,0 mm 1,9 km/h (1 Bft) NW 316 ° 0 min 0,000 mm 0,0 UV-I 0 W/m² -0,4 °C 3,6 °C 4,8 km/h (1 Bft)
24.11.2017 04:50 3,5 °C 3,6 °C 75 % 1016,2 hPa 0,0 mm 2,4 km/h (1 Bft) NW 323 ° 0 min 0,000 mm 0,0 UV-I 0 W/m² -0,5 °C 3,5 °C 4,8 km/h (1 Bft)
24.11.2017 04:51 3,5 °C 3,5 °C 75 % 1016,2 hPa 0,0 mm 0,0 km/h (0 Bft) NW 323 ° 0 min 0,000 mm 0,0 UV-I 0 W/m² -0,5 °C 3,5 °C 0,0 km/h (0 Bft)
24.11.2017 04:52 3,5 °C 3,5 °C 75 % 1016,2 hPa 0,0 mm 0,0 km/h (0 Bft) NW 323 ° 0 min 0,000 mm 0,0 UV-I 0 W/m² -0,5 °C 3,5 °C 0,0 km/h (0 Bft)
24.11.2017 04:53 3,5 °C 3,5 °C 75 % 1016,2 hPa 0,0 mm 0,0 km/h (0 Bft) NW 323 ° 0 min 0,000 mm 0,0 UV-I 0 W/m² -0,5 °C 3,5 °C 0,0 km/h (0 Bft)
24.11.2017 04:54 3,4 °C 3,5 °C 75 % 1016,2 hPa 0,0 mm 0,0 km/h (0 Bft) NW 323 ° 0 min 0,000 mm 0,0 UV-I 0 W/m² -0,6 °C 3,4 °C 0,0 km/h (0 Bft)
24.11.2017 04:55 3,4 °C 3,4 °C 75 % 1016,2 hPa 0,0 mm 0,0 km/h (0 Bft) NW 323 ° 0 min 0,000 mm 0,0 UV-I 0 W/m² -0,6 °C 3,4 °C 0,0 km/h (0 Bft)
24.11.2017 04:56 3,4 °C 3,4 °C 75 % 1016,2 hPa 0,0 mm 0,0 km/h (0 Bft) NW 323 ° 0 min 0,000 mm 0,0 UV-I 0 W/m² -0,6 °C 3,4 °C 0,0 km/h (0 Bft)
24.11.2017 04:57 3,4 °C 3,4 °C 75 % 1016,1 hPa 0,0 mm 0,0 km/h (0 Bft) NW 323 ° 0 min 0,000 mm 0,0 UV-I 0 W/m² -0,6 °C 3,4 °C 0,0 km/h (0 Bft)
24.11.2017 04:58 3,4 °C 3,4 °C 75 % 1016,1 hPa 0,0 mm 0,0 km/h (0 Bft) NW 323 ° 0 min 0,000 mm 0,0 UV-I 0 W/m² -0,6 °C 3,4 °C 0,0 km/h (0 Bft)
24.11.2017 04:59 3,4 °C 3,4 °C 75 % 1016,1 hPa 0,0 mm 0,0 km/h (0 Bft) NW 323 ° 0 min 0,000 mm 0,0 UV-I 0 W/m² -0,6 °C 3,4 °C 0,0 km/h (0 Bft)
24.11.2017 05:00 3,4 °C 3,4 °C 75 % 1016,1 hPa 0,0 mm 0,5 km/h (0 Bft) N-NW 342 ° 0 min 0,000 mm 0,0 UV-I 0 W/m² -0,6 °C 3,4 °C 3,2 km/h (1 Bft)
24.11.2017 05:01 3,3 °C 3,4 °C 75 % 1016,0 hPa 0,0 mm 1,5 km/h (1 Bft) N-NW 342 ° 0 min 0,026 mm 0,0 UV-I 0 W/m² -0,7 °C 3,3 °C 3,2 km/h (1 Bft)
24.11.2017 05:02 3,3 °C 3,3 °C 75 % 1016,0 hPa 0,0 mm 0,0 km/h (0 Bft) N-NW 342 ° 0 min 0,000 mm 0,0 UV-I 0 W/m² -0,7 °C 3,3 °C 0,0 km/h (0 Bft)
24.11.2017 05:03 3,3 °C 3,3 °C 75 % 1016,0 hPa 0,0 mm 0,3 km/h (0 Bft) N-NW 342 ° 0 min 0,000 mm 0,0 UV-I 0 W/m² -0,7 °C 3,3 °C 1,6 km/h (1 Bft)
24.11.2017 05:04 3,3 °C 3,3 °C 75 % 1016,0 hPa 0,0 mm 0,5 km/h (0 Bft) N-NW 342 ° 0 min 0,000 mm 0,0 UV-I 0 W/m² -0,7 °C 3,3 °C 3,2 km/h (1 Bft)
24.11.2017 05:05 3,3 °C 3,3 °C 75 % 1016,1 hPa 0,0 mm 0,0 km/h (0 Bft) N-NW 342 ° 0 min 0,000 mm 0,0 UV-I 0 W/m² -0,7 °C 3,3 °C 0,0 km/h (0 Bft)
24.11.2017 05:06 3,3 °C 3,3 °C 76 % 1016,1 hPa 0,0 mm 3,4 km/h (1 Bft) N-NO 27 ° 0 min 0,000 mm 0,0 UV-I 0 W/m² -0,5 °C 3,3 °C 6,4 km/h (2 Bft)
24.11.2017 05:07 3,3 °C 3,3 °C 76 % 1016,2 hPa 0,0 mm 1,6 km/h (1 Bft) N-NO 27 ° 0 min 0,000 mm 0,0 UV-I 0 W/m² -0,5 °C 3,3 °C 3,2 km/h (1 Bft)
24.11.2017 05:08 3,3 °C 3,3 °C 76 % 1016,2 hPa 0,0 mm 0,0 km/h (0 Bft) N-NO 27 ° 0 min 0,000 mm 0,0 UV-I 0 W/m² -0,5 °C 3,3 °C 0,0 km/h (0 Bft)
24.11.2017 05:09 3,3 °C 3,3 °C 76 % 1016,2 hPa 0,0 mm 0,0 km/h (0 Bft) N-NO 27 ° 0 min 0,000 mm 0,0 UV-I 0 W/m² -0,5 °C 3,3 °C 0,0 km/h (0 Bft)
24.11.2017 05:10 3,3 °C 3,3 °C 76 % 1016,2 hPa 0,0 mm 0,3 km/h (0 Bft) N-NO 27 ° 0 min 0,000 mm 0,0 UV-I 0 W/m² -0,5 °C 3,3 °C 1,6 km/h (1 Bft)
24.11.2017 05:11 3,3 °C 3,3 °C 76 % 1016,2 hPa 0,0 mm 0,6 km/h (0 Bft) N-NO 27 ° 0 min 0,000 mm 0,0 UV-I 0 W/m² -0,5 °C 3,3 °C 1,6 km/h (1 Bft)
24.11.2017 05:12 3,2 °C 3,3 °C 76 % 1016,3 hPa 0,0 mm 0,0 km/h (0 Bft) N-NO 27 ° 0 min 0,000 mm 0,0 UV-I 0 W/m² -0,6 °C 3,2 °C 0,0 km/h (0 Bft)
24.11.2017 05:13 3,2 °C 3,3 °C 76 % 1016,3 hPa 0,0 mm 0,0 km/h (0 Bft) N-NO 27 ° 0 min 0,000 mm 0,0 UV-I 0 W/m² -0,6 °C 3,2 °C 0,0 km/h (0 Bft)
24.11.2017 05:14 3,2 °C 3,3 °C 76 % 1016,3 hPa 0,0 mm 0,0 km/h (0 Bft) N-NO 27 ° 0 min 0,000 mm 0,0 UV-I 0 W/m² -0,6 °C 3,2 °C 0,0 km/h (0 Bft)
24.11.2017 05:15 3,2 °C 3,2 °C 76 % 1016,3 hPa 0,0 mm 0,0 km/h (0 Bft) N-NO 27 ° 0 min 0,000 mm 0,0 UV-I 0 W/m² -0,6 °C 3,2 °C 0,0 km/h (0 Bft)
24.11.2017 05:16 3,2 °C 3,2 °C 76 % 1016,3 hPa 0,0 mm 0,0 km/h (0 Bft) N-NO 27 ° 0 min 0,000 mm 0,0 UV-I 0 W/m² -0,6 °C 3,2 °C 0,0 km/h (0 Bft)
24.11.2017 05:17 3,2 °C 3,2 °C 76 % 1016,4 hPa 0,0 mm 0,0 km/h (0 Bft) N-NO 27 ° 0 min 0,000 mm 0,0 UV-I 0 W/m² -0,6 °C 3,2 °C 0,0 km/h (0 Bft)
24.11.2017 05:18 3,2 °C 3,2 °C 76 % 1016,3 hPa 0,0 mm 0,0 km/h (0 Bft) N-NO 27 ° 0 min 0,000 mm 0,0 UV-I 0 W/m² -0,6 °C 3,2 °C 0,0 km/h (0 Bft)
24.11.2017 05:19 3,2 °C 3,2 °C 76 % 1016,3 hPa 0,0 mm 0,0 km/h (0 Bft) N-NO 27 ° 0 min 0,000 mm 0,0 UV-I 0 W/m² -0,6 °C 3,2 °C 0,0 km/h (0 Bft)
24.11.2017 05:20 3,2 °C 3,2 °C 76 % 1016,3 hPa 0,0 mm 0,0 km/h (0 Bft) N-NO 27 ° 0 min 0,000 mm 0,0 UV-I 0 W/m² -0,6 °C 3,2 °C 0,0 km/h (0 Bft)
24.11.2017 05:21 3,2 °C 3,2 °C 76 % 1016,3 hPa 0,0 mm 0,0 km/h (0 Bft) N-NO 27 ° 0 min 0,000 mm 0,0 UV-I 0 W/m² -0,6 °C 3,2 °C 0,0 km/h (0 Bft)
24.11.2017 05:22 3,1 °C 3,2 °C 76 % 1016,3 hPa 0,0 mm 0,0 km/h (0 Bft) N-NO 27 ° 0 min 0,000 mm 0,0 UV-I 0 W/m² -0,7 °C 3,1 °C 0,0 km/h (0 Bft)
24.11.2017 05:23 3,2 °C 3,2 °C 76 % 1016,3 hPa 0,0 mm 0,0 km/h (0 Bft) N-NO 27 ° 0 min 0,000 mm 0,0 UV-I 0 W/m² -0,6 °C 3,2 °C 0,0 km/h (0 Bft)
24.11.2017 05:24 3,1 °C 3,2 °C 76 % 1016,4 hPa 0,0 mm 0,0 km/h (0 Bft) N-NO 27 ° 0 min 0,000 mm 0,0 UV-I 0 W/m² -0,7 °C 3,1 °C 0,0 km/h (0 Bft)
24.11.2017 05:25 3,1 °C 3,1 °C 76 % 1016,4 hPa 0,0 mm 0,0 km/h (0 Bft) N-NO 27 ° 0 min 0,000 mm 0,0 UV-I 0 W/m² -0,7 °C 3,1 °C 0,0 km/h (0 Bft)
24.11.2017 05:26 3,1 °C 3,1 °C 76 % 1016,4 hPa 0,0 mm 0,0 km/h (0 Bft) N-NO 27 ° 0 min 0,000 mm 0,0 UV-I 0 W/m² -0,7 °C 3,1 °C 0,0 km/h (0 Bft)
24.11.2017 05:27 3,1 °C 3,1 °C 76 % 1016,3 hPa 0,0 mm 0,0 km/h (0 Bft) N-NO 27 ° 0 min 0,000 mm 0,0 UV-I 0 W/m² -0,7 °C 3,1 °C 0,0 km/h (0 Bft)
24.11.2017 05:28 3,1 °C 3,1 °C 76 % 1016,4 hPa 0,0 mm 0,0 km/h (0 Bft) N-NO 27 ° 0 min 0,000 mm 0,0 UV-I 0 W/m² -0,7 °C 3,1 °C 0,0 km/h (0 Bft)
24.11.2017 05:29 3,1 °C 3,1 °C 76 % 1016,3 hPa 0,0 mm 0,0 km/h (0 Bft) N-NO 27 ° 0 min 0,000 mm 0,0 UV-I 0 W/m² -0,7 °C 3,1 °C 0,0 km/h (0 Bft)
24.11.2017 05:30 3,1 °C 3,1 °C 76 % 1016,3 hPa 0,0 mm 0,0 km/h (0 Bft) N-NO 27 ° 0 min 0,000 mm 0,0 UV-I 0 W/m² -0,7 °C 3,1 °C 0,0 km/h (0 Bft)
24.11.2017 05:31 3,1 °C 3,1 °C 76 % 1016,2 hPa 0,0 mm 0,0 km/h (0 Bft) N-NO 27 ° 0 min 0,000 mm 0,0 UV-I 0 W/m² -0,7 °C 3,1 °C 0,0 km/h (0 Bft)
24.11.2017 05:32 3,0 °C 3,1 °C 76 % 1016,2 hPa 0,0 mm 0,0 km/h (0 Bft) N-NO 27 ° 0 min 0,000 mm 0,0 UV-I 0 W/m² -0,8 °C 3,0 °C 0,0 km/h (0 Bft)
24.11.2017 05:33 3,0 °C 3,0 °C 76 % 1016,2 hPa 0,0 mm 0,0 km/h (0 Bft) N-NO 27 ° 0 min 0,000 mm 0,0 UV-I 0 W/m² -0,8 °C 3,0 °C 0,0 km/h (0 Bft)
24.11.2017 05:34 2,9 °C 3,0 °C 76 % 1016,0 hPa 0,0 mm 0,0 km/h (0 Bft) N-NO 27 ° 0 min 0,000 mm 0,0 UV-I 0 W/m² -0,9 °C 2,9 °C 0,0 km/h (0 Bft)
24.11.2017 05:35 2,9 °C 3,0 °C 76 % 1016,0 hPa 0,0 mm 0,0 km/h (0 Bft) N-NO 27 ° 0 min 0,000 mm 0,0 UV-I 0 W/m² -0,9 °C 2,9 °C 0,0 km/h (0 Bft)
24.11.2017 05:36 2,9 °C 2,9 °C 76 % 1016,1 hPa 0,0 mm 0,0 km/h (0 Bft) N-NO 27 ° 0 min 0,000 mm 0,0 UV-I 0 W/m² -0,9 °C 2,9 °C 0,0 km/h (0 Bft)
24.11.2017 05:37 2,9 °C 3,0 °C 76 % 1016,1 hPa 0,0 mm 1,5 km/h (1 Bft) N-NO 27 ° 0 min 0,000 mm 0,0 UV-I 0 W/m² -0,9 °C 2,9 °C 3,2 km/h (1 Bft)
24.11.2017 05:38 2,9 °C 2,9 °C 77 % 1016,1 hPa 0,0 mm 0,9 km/h (0 Bft) N-NO 27 ° 0 min 0,000 mm 0,0 UV-I 0 W/m² -0,7 °C 2,9 °C 1,6 km/h (1 Bft)
24.11.2017 05:39 2,9 °C 2,9 °C 77 % 1016,1 hPa 0,0 mm 1,1 km/h (1 Bft) N-NO 27 ° 0 min 0,000 mm 0,0 UV-I 0 W/m² -0,7 °C 2,9 °C 3,2 km/h (1 Bft)
24.11.2017 05:40 2,9 °C 2,9 °C 77 % 1016,1 hPa 0,0 mm 0,1 km/h (0 Bft) N-NO 27 ° 0 min 0,000 mm 0,0 UV-I 0 W/m² -0,7 °C 2,9 °C 1,6 km/h (1 Bft)
24.11.2017 05:41 2,9 °C 2,9 °C 77 % 1016,1 hPa 0,0 mm 0,0 km/h (0 Bft) N-NO 27 ° 0 min 0,000 mm 0,0 UV-I 0 W/m² -0,7 °C 2,9 °C 0,0 km/h (0 Bft)
24.11.2017 05:42 2,8 °C 2,9 °C 77 % 1016,0 hPa 0,0 mm 0,0 km/h (0 Bft) N-NO 27 ° 0 min 0,000 mm 0,0 UV-I 0 W/m² -0,8 °C 2,8 °C 0,0 km/h (0 Bft)
24.11.2017 05:43 2,8 °C 2,8 °C 77 % 1016,0 hPa 0,0 mm 0,0 km/h (0 Bft) N-NO 27 ° 0 min 0,000 mm 0,0 UV-I 0 W/m² -0,8 °C 2,8 °C 0,0 km/h (0 Bft)
24.11.2017 05:44 2,8 °C 2,8 °C 77 % 1015,9 hPa 0,0 mm 0,0 km/h (0 Bft) N-NO 27 ° 0 min 0,000 mm 0,0 UV-I 0 W/m² -0,8 °C 2,8 °C 0,0 km/h (0 Bft)
24.11.2017 05:45 2,8 °C 2,8 °C 77 % 1016,0 hPa 0,0 mm 0,0 km/h (0 Bft) N-NO 27 ° 0 min 0,000 mm 0,0 UV-I 0 W/m² -0,8 °C 2,8 °C 0,0 km/h (0 Bft)
24.11.2017 05:46 2,7 °C 2,8 °C 77 % 1015,9 hPa 0,0 mm 0,0 km/h (0 Bft) N-NO 27 ° 0 min 0,000 mm 0,0 UV-I 0 W/m² -0,9 °C 2,7 °C 0,0 km/h (0 Bft)
24.11.2017 05:47 2,7 °C 2,7 °C 77 % 1015,9 hPa 0,0 mm 0,5 km/h (0 Bft) N-NO 27 ° 0 min 0,000 mm 0,0 UV-I 0 W/m² -0,9 °C 2,7 °C 1,6 km/h (1 Bft)
24.11.2017 05:48 2,7 °C 2,7 °C 77 % 1015,9 hPa 0,0 mm 0,0 km/h (0 Bft) N-NO 27 ° 0 min 0,000 mm 0,0 UV-I 0 W/m² -0,9 °C 2,7 °C 0,0 km/h (0 Bft)
24.11.2017 05:49 2,7 °C 2,7 °C 77 % 1015,9 hPa 0,0 mm 0,0 km/h (0 Bft) N-NO 27 ° 0 min 0,000 mm 0,0 UV-I 0 W/m² -0,9 °C 2,7 °C 0,0 km/h (0 Bft)
24.11.2017 05:50 2,7 °C 2,7 °C 76 % 1015,9 hPa 0,0 mm 0,0 km/h (0 Bft) N-NO 27 ° 0 min 0,000 mm 0,0 UV-I 0 W/m² -1,1 °C 2,7 °C 0,0 km/h (0 Bft)
24.11.2017 05:51 2,6 °C 2,7 °C 76 % 1015,8 hPa 0,0 mm 0,0 km/h (0 Bft) N-NO 27 ° 0 min 0,000 mm 0,0 UV-I 0 W/m² -1,2 °C 2,6 °C 0,0 km/h (0 Bft)
24.11.2017 05:52 2,6 °C 2,7 °C 76 % 1015,8 hPa 0,0 mm 0,0 km/h (0 Bft) N-NO 27 ° 0 min 0,000 mm 0,0 UV-I 0 W/m² -1,2 °C 2,6 °C 0,0 km/h (0 Bft)
24.11.2017 05:53 2,6 °C 2,6 °C 76 % 1015,8 hPa 0,0 mm 0,0 km/h (0 Bft) N-NO 27 ° 0 min 0,000 mm 0,0 UV-I 0 W/m² -1,2 °C 2,6 °C 0,0 km/h (0 Bft)
24.11.2017 05:54 2,6 °C 2,6 °C 76 % 1015,9 hPa 0,0 mm 0,0 km/h (0 Bft) N-NO 27 ° 0 min 0,000 mm 0,0 UV-I 0 W/m² -1,2 °C 2,6 °C 0,0 km/h (0 Bft)
24.11.2017 05:55 2,6 °C 2,6 °C 76 % 1015,9 hPa 0,0 mm 0,0 km/h (0 Bft) N-NO 27 ° 0 min 0,000 mm 0,0 UV-I 0 W/m² -1,2 °C 2,6 °C 0,0 km/h (0 Bft)
24.11.2017 05:56 2,6 °C 2,6 °C 77 % 1015,9 hPa 0,0 mm 0,0 km/h (0 Bft) N-NO 27 ° 0 min 0,000 mm 0,0 UV-I 0 W/m² -1,0 °C 2,6 °C 0,0 km/h (0 Bft)
24.11.2017 05:57 2,5 °C 2,6 °C 77 % 1015,9 hPa 0,0 mm 0,0 km/h (0 Bft) N-NO 27 ° 0 min 0,000 mm 0,0 UV-I 0 W/m² -1,1 °C 2,5 °C 0,0 km/h (0 Bft)
24.11.2017 05:58 2,4 °C 2,5 °C 77 % 1015,9 hPa 0,0 mm 0,0 km/h (0 Bft) N-NO 27 ° 0 min 0,000 mm 0,0 UV-I 0 W/m² -1,2 °C 2,4 °C 0,0 km/h (0 Bft)
24.11.2017 05:59 2,4 °C 2,4 °C 77 % 1016,1 hPa 0,0 mm 0,0 km/h (0 Bft) N-NO 27 ° 0 min 0,000 mm 0,0 UV-I 0 W/m² -1,2 °C 2,4 °C 0,0 km/h (0 Bft)
24.11.2017 06:00 2,4 °C 2,4 °C 77 % 1016,1 hPa 0,0 mm 0,0 km/h (0 Bft) N-NO 27 ° 0 min 0,000 mm 0,0 UV-I 0 W/m² -1,2 °C 2,4 °C 0,0 km/h (0 Bft)
24.11.2017 06:01 2,4 °C 2,4 °C 77 % 1016,0 hPa 0,0 mm 0,0 km/h (0 Bft) N-NO 27 ° 0 min 0,025 mm 0,0 UV-I 0 W/m² -1,2 °C 2,4 °C 0,0 km/h (0 Bft)
24.11.2017 06:02 2,4 °C 2,4 °C 78 % 1016,0 hPa 0,0 mm 0,0 km/h (0 Bft) N-NO 27 ° 0 min 0,000 mm 0,0 UV-I 0 W/m² -1,0 °C 2,4 °C 0,0 km/h (0 Bft)
24.11.2017 06:03 2,3 °C 2,4 °C 78 % 1015,9 hPa 0,0 mm 0,0 km/h (0 Bft) N-NO 27 ° 0 min 0,000 mm 0,0 UV-I 0 W/m² -1,1 °C 2,3 °C 0,0 km/h (0 Bft)
24.11.2017 06:04 2,3 °C 2,3 °C 78 % 1015,9 hPa 0,0 mm 0,0 km/h (0 Bft) N-NO 27 ° 0 min 0,000 mm 0,0 UV-I 0 W/m² -1,1 °C 2,3 °C 0,0 km/h (0 Bft)
24.11.2017 06:05 2,3 °C 2,3 °C 78 % 1015,9 hPa 0,0 mm 0,0 km/h (0 Bft) N-NO 27 ° 0 min 0,000 mm 0,0 UV-I 0 W/m² -1,1 °C 2,3 °C 0,0 km/h (0 Bft)
24.11.2017 06:06 2,3 °C 2,3 °C 79 % 1015,9 hPa 0,0 mm 0,0 km/h (0 Bft) N-NO 27 ° 0 min 0,000 mm 0,0 UV-I 0 W/m² -1,0 °C 2,3 °C 0,0 km/h (0 Bft)
24.11.2017 06:07 2,3 °C 2,3 °C 79 % 1015,9 hPa 0,0 mm 0,0 km/h (0 Bft) N-NO 27 ° 0 min 0,000 mm 0,0 UV-I 0 W/m² -1,0 °C 2,3 °C 0,0 km/h (0 Bft)
24.11.2017 06:08 2,2 °C 2,3 °C 79 % 1015,9 hPa 0,0 mm 0,0 km/h (0 Bft) N-NO 27 ° 0 min 0,000 mm 0,0 UV-I 0 W/m² -1,1 °C 2,2 °C 0,0 km/h (0 Bft)
24.11.2017 06:09 2,2 °C 2,2 °C 79 % 1015,9 hPa 0,0 mm 0,0 km/h (0 Bft) N-NO 27 ° 0 min 0,000 mm 0,0 UV-I 0 W/m² -1,1 °C 2,2 °C 0,0 km/h (0 Bft)
24.11.2017 06:10 2,2 °C 2,2 °C 79 % 1015,9 hPa 0,0 mm 0,0 km/h (0 Bft) N-NO 27 ° 0 min 0,000 mm 0,0 UV-I 0 W/m² -1,1 °C 2,2 °C 0,0 km/h (0 Bft)
24.11.2017 06:11 2,2 °C 2,2 °C 79 % 1015,9 hPa 0,0 mm 0,0 km/h (0 Bft) N-NO 27 ° 0 min 0,000 mm 0,0 UV-I 0 W/m² -1,1 °C 2,2 °C 0,0 km/h (0 Bft)
24.11.2017 06:12 2,2 °C 2,2 °C 79 % 1015,9 hPa 0,0 mm 0,0 km/h (0 Bft) N-NO 27 ° 0 min 0,000 mm 0,0 UV-I 0 W/m² -1,1 °C 2,2 °C 0,0 km/h (0 Bft)
24.11.2017 06:13 2,1 °C 2,2 °C 79 % 1015,9 hPa 0,0 mm 0,1 km/h (0 Bft) N-NO 27 ° 0 min 0,000 mm 0,0 UV-I 0 W/m² -1,2 °C 2,1 °C 1,6 km/h (1 Bft)
24.11.2017 06:14 2,1 °C 2,1 °C 80 % 1015,9 hPa 0,0 mm 0,8 km/h (0 Bft) N-NO 27 ° 0 min 0,000 mm 0,0 UV-I 0 W/m² -1,0 °C 2,1 °C 3,2 km/h (1 Bft)
24.11.2017 06:15 2,1 °C 2,1 °C 80 % 1015,9 hPa 0,0 mm 0,0 km/h (0 Bft) N-NO 27 ° 0 min 0,000 mm 0,0 UV-I 0 W/m² -1,0 °C 2,1 °C 0,0 km/h (0 Bft)
24.11.2017 06:16 2,1 °C 2,1 °C 80 % 1015,9 hPa 0,0 mm 0,0 km/h (0 Bft) N-NO 27 ° 0 min 0,000 mm 0,0 UV-I 0 W/m² -1,0 °C 2,1 °C 0,0 km/h (0 Bft)
24.11.2017 06:17 2,1 °C 2,1 °C 80 % 1016,0 hPa 0,0 mm 0,3 km/h (0 Bft) N-NO 27 ° 0 min 0,000 mm 0,0 UV-I 0 W/m² -1,0 °C 2,1 °C 1,6 km/h (1 Bft)
24.11.2017 06:18 2,1 °C 2,1 °C 80 % 1016,0 hPa 0,0 mm 0,0 km/h (0 Bft) N-NO 27 ° 0 min 0,000 mm 0,0 UV-I 0 W/m² -1,0 °C 2,1 °C 0,0 km/h (0 Bft)
24.11.2017 06:19 2,1 °C 2,1 °C 80 % 1016,0 hPa 0,0 mm 0,1 km/h (0 Bft) N-NO 27 ° 0 min 0,000 mm 0,0 UV-I 0 W/m² -1,0 °C 2,1 °C 1,6 km/h (1 Bft)
24.11.2017 06:20 2,0 °C 2,1 °C 81 % 1016,0 hPa 0,0 mm 0,0 km/h (0 Bft) N-NO 27 ° 0 min 0,000 mm 0,0 UV-I 0 W/m² -0,9 °C 2,0 °C 0,0 km/h (0 Bft)
24.11.2017 06:21 2,1 °C 2,1 °C 81 % 1015,9 hPa 0,0 mm 0,0 km/h (0 Bft) N-NO 27 ° 0 min 0,000 mm 0,0 UV-I 0 W/m² -0,8 °C 2,1 °C 0,0 km/h (0 Bft)
24.11.2017 06:22 2,1 °C 2,1 °C 81 % 1016,0 hPa 0,0 mm 0,0 km/h (0 Bft) N-NO 27 ° 0 min 0,000 mm 0,0 UV-I 0 W/m² -0,8 °C 2,1 °C 0,0 km/h (0 Bft)
24.11.2017 06:23 2,1 °C 2,1 °C 81 % 1015,9 hPa 0,0 mm 0,0 km/h (0 Bft) N-NO 27 ° 0 min 0,000 mm 0,0 UV-I 0 W/m² -0,8 °C 2,1 °C 0,0 km/h (0 Bft)
24.11.2017 06:24 2,1 °C 2,1 °C 81 % 1015,9 hPa 0,0 mm 0,0 km/h (0 Bft) N-NO 27 ° 0 min 0,000 mm 0,0 UV-I 0 W/m² -0,8 °C 2,1 °C 0,0 km/h (0 Bft)
24.11.2017 06:25 2,1 °C 2,1 °C 81 % 1015,9 hPa 0,0 mm 0,0 km/h (0 Bft) N-NO 27 ° 0 min 0,000 mm 0,0 UV-I 0 W/m² -0,8 °C 2,1 °C 0,0 km/h (0 Bft)
24.11.2017 06:26 2,1 °C 2,1 °C 81 % 1015,9 hPa 0,0 mm 0,0 km/h (0 Bft) N-NO 27 ° 0 min 0,000 mm 0,0 UV-I 0 W/m² -0,8 °C 2,1 °C 0,0 km/h (0 Bft)
24.11.2017 06:27 2,1 °C 2,1 °C 81 % 1015,9 hPa 0,0 mm 0,0 km/h (0 Bft) N-NO 27 ° 0 min 0,000 mm 0,0 UV-I 0 W/m² -0,8 °C 2,1 °C 0,0 km/h (0 Bft)
24.11.2017 06:28 2,1 °C 2,1 °C 81 % 1015,9 hPa 0,0 mm 0,0 km/h (0 Bft) N-NO 27 ° 0 min 0,000 mm 0,0 UV-I 0 W/m² -0,8 °C 2,1 °C 0,0 km/h (0 Bft)
24.11.2017 06:29 2,1 °C 2,2 °C 81 % 1016,0 hPa 0,0 mm 0,0 km/h (0 Bft) N-NO 27 ° 0 min 0,000 mm 0,0 UV-I 0 W/m² -0,8 °C 2,1 °C 0,0 km/h (0 Bft)
24.11.2017 06:30 2,2 °C 2,2 °C 81 % 1016,0 hPa 0,0 mm 0,0 km/h (0 Bft) N-NO 27 ° 0 min 0,000 mm 0,0 UV-I 0 W/m² -0,7 °C 2,2 °C 0,0 km/h (0 Bft)
24.11.2017 06:31 2,2 °C 2,2 °C 81 % 1016,0 hPa 0,0 mm 0,0 km/h (0 Bft) N-NO 27 ° 0 min 0,000 mm 0,0 UV-I 0 W/m² -0,7 °C 2,2 °C 0,0 km/h (0 Bft)
24.11.2017 06:32 2,2 °C 2,2 °C 81 % 1016,0 hPa 0,0 mm 0,0 km/h (0 Bft) N-NO 27 ° 0 min 0,000 mm 0,0 UV-I 0 W/m² -0,7 °C 2,2 °C 0,0 km/h (0 Bft)
24.11.2017 06:33 2,2 °C 2,2 °C 81 % 1015,9 hPa 0,0 mm 0,0 km/h (0 Bft) N-NO 27 ° 0 min 0,000 mm 0,0 UV-I 0 W/m² -0,7 °C 2,2 °C 0,0 km/h (0 Bft)
24.11.2017 06:34 2,2 °C 2,2 °C 81 % 1016,0 hPa 0,0 mm 0,0 km/h (0 Bft) N-NO 27 ° 0 min 0,000 mm 0,0 UV-I 0 W/m² -0,7 °C 2,2 °C 0,0 km/h (0 Bft)
24.11.2017 06:35 2,2 °C 2,2 °C 81 % 1016,0 hPa 0,0 mm 0,0 km/h (0 Bft) N-NO 27 ° 0 min 0,000 mm 0,0 UV-I 0 W/m² -0,7 °C 2,2 °C 0,0 km/h (0 Bft)
24.11.2017 06:36 2,2 °C 2,2 °C 81 % 1016,0 hPa 0,0 mm 0,0 km/h (0 Bft) N-NO 27 ° 0 min 0,000 mm 0,0 UV-I 0 W/m² -0,7 °C 2,2 °C 0,0 km/h (0 Bft)
24.11.2017 06:37 2,2 °C 2,2 °C 81 % 1016,0 hPa 0,0 mm 0,0 km/h (0 Bft) N-NO 27 ° 0 min 0,000 mm 0,0 UV-I 0 W/m² -0,7 °C 2,2 °C 0,0 km/h (0 Bft)
24.11.2017 06:38 2,2 °C 2,2 °C 81 % 1016,0 hPa 0,0 mm 0,0 km/h (0 Bft) N-NO 27 ° 0 min 0,000 mm 0,0 UV-I 0 W/m² -0,7 °C 2,2 °C 0,0 km/h (0 Bft)
24.11.2017 06:39 2,2 °C 2,2 °C 81 % 1016,0 hPa 0,0 mm 0,0 km/h (0 Bft) N-NO 27 ° 0 min 0,000 mm 0,0 UV-I 0 W/m² -0,7 °C 2,2 °C 0,0 km/h (0 Bft)
24.11.2017 06:40 2,3 °C 2,3 °C 81 % 1015,9 hPa 0,0 mm 0,0 km/h (0 Bft) N-NO 27 ° 0 min 0,000 mm 0,0 UV-I 0 W/m² -0,6 °C 2,3 °C 0,0 km/h (0 Bft)
24.11.2017 06:41 2,3 °C 2,3 °C 81 % 1015,9 hPa 0,0 mm 0,0 km/h (0 Bft) N-NO 27 ° 0 min 0,000 mm 0,0 UV-I 0 W/m² -0,6 °C 2,3 °C 0,0 km/h (0 Bft)
24.11.2017 06:42 2,3 °C 2,3 °C 81 % 1015,9 hPa 0,0 mm 0,0 km/h (0 Bft) N-NO 27 ° 0 min 0,000 mm 0,0 UV-I 0 W/m² -0,6 °C 2,3 °C 0,0 km/h (0 Bft)
24.11.2017 06:43 2,3 °C 2,3 °C 81 % 1015,9 hPa 0,0 mm 0,0 km/h (0 Bft) N-NO 27 ° 0 min 0,000 mm 0,0 UV-I 0 W/m² -0,6 °C 2,3 °C 0,0 km/h (0 Bft)
24.11.2017 06:44 2,3 °C 2,3 °C 81 % 1015,9 hPa 0,0 mm 0,0 km/h (0 Bft) N-NO 27 ° 0 min 0,000 mm 0,0 UV-I 0 W/m² -0,6 °C 2,3 °C 0,0 km/h (0 Bft)
24.11.2017 06:45 2,3 °C 2,3 °C 81 % 1015,9 hPa 0,0 mm 0,0 km/h (0 Bft) N-NO 27 ° 0 min 0,000 mm 0,0 UV-I 0 W/m² -0,6 °C 2,3 °C 0,0 km/h (0 Bft)
24.11.2017 06:46 2,3 °C 2,3 °C 81 % 1015,9 hPa 0,0 mm 0,0 km/h (0 Bft) N-NO 27 ° 0 min 0,000 mm 0,0 UV-I 0 W/m² -0,6 °C 2,3 °C 0,0 km/h (0 Bft)
24.11.2017 06:47 2,3 °C 2,3 °C 81 % 1015,8 hPa 0,0 mm 0,5 km/h (0 Bft) N-NO 27 ° 0 min 0,000 mm 0,0 UV-I 0 W/m² -0,6 °C 2,3 °C 4,8 km/h (1 Bft)
24.11.2017 06:48 2,3 °C 2,3 °C 81 % 1015,8 hPa 0,0 mm 0,9 km/h (0 Bft) N-NO 27 ° 0 min 0,000 mm 0,0 UV-I 0 W/m² -0,6 °C 2,3 °C 4,8 km/h (1 Bft)
24.11.2017 06:49 2,3 °C 2,3 °C 81 % 1015,8 hPa 0,0 mm 0,0 km/h (0 Bft) N-NO 27 ° 0 min 0,000 mm 0,0 UV-I 0 W/m² -0,6 °C 2,3 °C 0,0 km/h (0 Bft)
24.11.2017 06:50 2,3 °C 2,3 °C 81 % 1015,8 hPa 0,0 mm 0,8 km/h (0 Bft) N-NO 27 ° 0 min 0,000 mm 0,0 UV-I 0 W/m² -0,6 °C 2,3 °C 1,6 km/h (1 Bft)
24.11.2017 06:51 2,3 °C 2,3 °C 81 % 1015,8 hPa 0,0 mm 0,0 km/h (0 Bft) N-NO 27 ° 0 min 0,000 mm 0,0 UV-I 0 W/m² -0,6 °C 2,3 °C 0,0 km/h (0 Bft)
24.11.2017 06:52 2,3 °C 2,3 °C 81 % 1015,8 hPa 0,0 mm 0,0 km/h (0 Bft) N-NO 27 ° 0 min 0,000 mm 0,0 UV-I 0 W/m² -0,6 °C 2,3 °C 0,0 km/h (0 Bft)
24.11.2017 06:53 2,3 °C 2,3 °C 81 % 1015,8 hPa 0,0 mm 0,0 km/h (0 Bft) N-NO 27 ° 0 min 0,000 mm 0,0 UV-I 0 W/m² -0,6 °C 2,3 °C 0,0 km/h (0 Bft)
24.11.2017 06:54 2,3 °C 2,3 °C 81 % 1015,8 hPa 0,0 mm 0,0 km/h (0 Bft) N-NO 27 ° 0 min 0,000 mm 0,0 UV-I 0 W/m² -0,6 °C 2,3 °C 0,0 km/h (0 Bft)
24.11.2017 06:55 2,3 °C 2,3 °C 81 % 1015,9 hPa 0,0 mm 0,0 km/h (0 Bft) N-NO 27 ° 0 min 0,000 mm 0,0 UV-I 0 W/m² -0,6 °C 2,3 °C 0,0 km/h (0 Bft)
24.11.2017 06:56 2,3 °C 2,3 °C 81 % 1015,9 hPa 0,0 mm 0,0 km/h (0 Bft) N-NO 27 ° 0 min 0,000 mm 0,0 UV-I 0 W/m² -0,6 °C 2,3 °C 0,0 km/h (0 Bft)
24.11.2017 06:57 2,3 °C 2,3 °C 81 % 1015,9 hPa 0,0 mm 0,0 km/h (0 Bft) N-NO 27 ° 0 min 0,000 mm 0,0 UV-I 0 W/m² -0,6 °C 2,3 °C 0,0 km/h (0 Bft)
24.11.2017 06:58 2,3 °C 2,3 °C 80 % 1015,9 hPa 0,0 mm 0,0 km/h (0 Bft) N-NO 27 ° 0 min 0,000 mm 0,0 UV-I 0 W/m² -0,8 °C 2,3 °C 0,0 km/h (0 Bft)
24.11.2017 06:59 2,4 °C 2,4 °C 80 % 1015,9 hPa 0,0 mm 0,0 km/h (0 Bft) N-NO 27 ° 0 min 0,000 mm 0,0 UV-I 0 W/m² -0,7 °C 2,4 °C 0,0 km/h (0 Bft)
24.11.2017 07:00 2,3 °C 2,4 °C 80 % 1015,9 hPa 0,0 mm 0,0 km/h (0 Bft) N-NO 27 ° 0 min 0,000 mm 0,0 UV-I 0 W/m² -0,8 °C 2,3 °C 0,0 km/h (0 Bft)
24.11.2017 07:01 2,3 °C 2,3 °C 80 % 1015,9 hPa 0,0 mm 0,0 km/h (0 Bft) N-NO 27 ° 0 min 0,000 mm 0,0 UV-I 0 W/m² -0,8 °C 2,3 °C 0,0 km/h (0 Bft)
24.11.2017 07:02 2,3 °C 2,3 °C 80 % 1015,9 hPa 0,0 mm 0,0 km/h (0 Bft) N-NO 27 ° 0 min 0,000 mm 0,0 UV-I 0 W/m² -0,8 °C 2,3 °C 0,0 km/h (0 Bft)
24.11.2017 07:03 2,3 °C 2,3 °C 80 % 1015,9 hPa 0,0 mm 0,0 km/h (0 Bft) N-NO 27 ° 0 min 0,000 mm 0,0 UV-I 0 W/m² -0,8 °C 2,3 °C 0,0 km/h (0 Bft)
24.11.2017 07:04 2,3 °C 2,3 °C 80 % 1015,8 hPa 0,0 mm 0,0 km/h (0 Bft) N-NO 27 ° 0 min 0,000 mm 0,0 UV-I 0 W/m² -0,8 °C 2,3 °C 0,0 km/h (0 Bft)
24.11.2017 07:05 2,3 °C 2,3 °C 80 % 1015,9 hPa 0,0 mm 0,0 km/h (0 Bft) N-NO 27 ° 0 min 0,000 mm 0,0 UV-I 0 W/m² -0,8 °C 2,3 °C 0,0 km/h (0 Bft)
24.11.2017 07:06 2,3 °C 2,3 °C 80 % 1015,8 hPa 0,0 mm 0,0 km/h (0 Bft) N-NO 27 ° 0 min 0,000 mm 0,0 UV-I 0 W/m² -0,8 °C 2,3 °C 0,0 km/h (0 Bft)
24.11.2017 07:07 2,3 °C 2,3 °C 80 % 1015,8 hPa 0,0 mm 0,0 km/h (0 Bft) N-NO 27 ° 0 min 0,000 mm 0,0 UV-I 0 W/m² -0,8 °C 2,3 °C 0,0 km/h (0 Bft)
24.11.2017 07:08 2,3 °C 2,3 °C 80 % 1015,8 hPa 0,0 mm 0,0 km/h (0 Bft) N-NO 27 ° 0 min 0,000 mm 0,0 UV-I 0 W/m² -0,8 °C 2,3 °C 0,0 km/h (0 Bft)
24.11.2017 07:09 2,3 °C 2,3 °C 80 % 1015,8 hPa 0,0 mm 0,1 km/h (0 Bft) N-NO 27 ° 0 min 0,000 mm 0,0 UV-I 0 W/m² -0,8 °C 2,3 °C 1,6 km/h (1 Bft)
24.11.2017 07:10 2,3 °C 2,3 °C 79 % 1015,8 hPa 0,0 mm 0,0 km/h (0 Bft) N-NO 27 ° 0 min 0,000 mm 0,0 UV-I 0 W/m² -1,0 °C 2,3 °C 0,0 km/h (0 Bft)
24.11.2017 07:11 2,2 °C 2,3 °C 79 % 1015,9 hPa 0,0 mm 0,1 km/h (0 Bft) N-NO 27 ° 0 min 0,000 mm 0,0 UV-I 0 W/m² -1,1 °C 2,2 °C 1,6 km/h (1 Bft)
24.11.2017 07:12 2,2 °C 2,2 °C 79 % 1015,9 hPa 0,0 mm 0,0 km/h (0 Bft) N-NO 27 ° 0 min 0,000 mm 0,0 UV-I 0 W/m² -1,1 °C 2,2 °C 0,0 km/h (0 Bft)
24.11.2017 07:13 2,2 °C 2,2 °C 79 % 1015,9 hPa 0,0 mm 0,0 km/h (0 Bft) N-NO 27 ° 0 min 0,000 mm 0,0 UV-I 0 W/m² -1,1 °C 2,2 °C 0,0 km/h (0 Bft)
24.11.2017 07:14 2,2 °C 2,2 °C 79 % 1015,9 hPa 0,0 mm 0,0 km/h (0 Bft) N-NO 27 ° 0 min 0,000 mm 0,0 UV-I 0 W/m² -1,1 °C 2,2 °C 0,0 km/h (0 Bft)
24.11.2017 07:15 2,2 °C 2,2 °C 79 % 1015,9 hPa 0,0 mm 0,0 km/h (0 Bft) N-NO 27 ° 0 min 0,000 mm 0,0 UV-I 0 W/m² -1,1 °C 2,2 °C 0,0 km/h (0 Bft)
24.11.2017 07:16 2,1 °C 2,2 °C 80 % 1015,9 hPa 0,0 mm 0,0 km/h (0 Bft) N-NO 27 ° 0 min 0,000 mm 0,0 UV-I 0 W/m² -1,0 °C 2,1 °C 0,0 km/h (0 Bft)
24.11.2017 07:17 2,1 °C 2,2 °C 80 % 1015,9 hPa 0,0 mm 0,0 km/h (0 Bft) N-NO 27 ° 0 min 0,000 mm 0,0 UV-I 0 W/m² -1,0 °C 2,1 °C 0,0 km/h (0 Bft)
24.11.2017 07:18 2,1 °C 2,1 °C 80 % 1015,9 hPa 0,0 mm 0,0 km/h (0 Bft) N-NO 27 ° 0 min 0,000 mm 0,0 UV-I 0 W/m² -1,0 °C 2,1 °C 0,0 km/h (0 Bft)
24.11.2017 07:19 2,1 °C 2,1 °C 80 % 1015,9 hPa 0,0 mm 0,0 km/h (0 Bft) N-NO 27 ° 0 min 0,000 mm 0,0 UV-I 0 W/m² -1,0 °C 2,1 °C 0,0 km/h (0 Bft)
24.11.2017 07:20 2,0 °C 2,1 °C 80 % 1015,9 hPa 0,0 mm 0,0 km/h (0 Bft) N-NO 27 ° 0 min 0,000 mm 0,0 UV-I 0 W/m² -1,1 °C 2,0 °C 0,0 km/h (0 Bft)
24.11.2017 07:21 2,0 °C 2,0 °C 80 % 1015,9 hPa 0,0 mm 0,0 km/h (0 Bft) N-NO 27 ° 0 min 0,000 mm 0,0 UV-I 0 W/m² -1,1 °C 2,0 °C 0,0 km/h (0 Bft)
24.11.2017 07:22 2,0 °C 2,0 °C 81 % 1015,8 hPa 0,0 mm 0,4 km/h (0 Bft) N-NO 27 ° 0 min 0,000 mm 0,0 UV-I 0 W/m² -0,9 °C 2,0 °C 1,6 km/h (1 Bft)
24.11.2017 07:23 1,9 °C 2,0 °C 81 % 1015,9 hPa 0,0 mm 0,0 km/h (0 Bft) N-NO 27 ° 0 min 0,000 mm 0,0 UV-I 0 W/m² -1,0 °C 1,9 °C 0,0 km/h (0 Bft)
24.11.2017 07:24 1,9 °C 1,9 °C 81 % 1015,8 hPa 0,0 mm 0,0 km/h (0 Bft) N-NO 27 ° 0 min 0,000 mm 0,0 UV-I 0 W/m² -1,0 °C 1,9 °C 0,0 km/h (0 Bft)
24.11.2017 07:25 1,9 °C 1,9 °C 81 % 1015,8 hPa 0,0 mm 0,0 km/h (0 Bft) N-NO 27 ° 0 min 0,000 mm 0,0 UV-I 0 W/m² -1,0 °C 1,9 °C 0,0 km/h (0 Bft)
24.11.2017 07:26 1,9 °C 1,9 °C 81 % 1015,8 hPa 0,0 mm 0,0 km/h (0 Bft) N-NO 27 ° 0 min 0,000 mm 0,0 UV-I 0 W/m² -1,0 °C 1,9 °C 0,0 km/h (0 Bft)
24.11.2017 07:27 1,9 °C 1,9 °C 81 % 1015,8 hPa 0,0 mm 0,0 km/h (0 Bft) N-NO 27 ° 0 min 0,000 mm 0,0 UV-I 0 W/m² -1,0 °C 1,9 °C 0,0 km/h (0 Bft)
24.11.2017 07:28 1,8 °C 1,9 °C 81 % 1015,8 hPa 0,0 mm 0,0 km/h (0 Bft) N-NO 27 ° 0 min 0,000 mm 0,0 UV-I 0 W/m² -1,1 °C 1,8 °C 0,0 km/h (0 Bft)
24.11.2017 07:29 1,8 °C 1,9 °C 81 % 1015,8 hPa 0,0 mm 0,0 km/h (0 Bft) N-NO 27 ° 0 min 0,000 mm 0,0 UV-I 0 W/m² -1,1 °C 1,8 °C 0,0 km/h (0 Bft)
24.11.2017 07:30 1,8 °C 1,8 °C 81 % 1015,8 hPa 0,0 mm 0,0 km/h (0 Bft) N-NO 27 ° 0 min 0,000 mm 0,0 UV-I 0 W/m² -1,1 °C 1,8 °C 0,0 km/h (0 Bft)
24.11.2017 07:31 1,8 °C 1,8 °C 81 % 1015,7 hPa 0,0 mm 0,5 km/h (0 Bft) N-NO 27 ° 0 min 0,000 mm 0,0 UV-I 0 W/m² -1,1 °C 1,8 °C 3,2 km/h (1 Bft)
24.11.2017 07:32 1,8 °C 1,8 °C 81 % 1015,7 hPa 0,0 mm 0,9 km/h (0 Bft) N-NO 27 ° 0 min 0,000 mm 0,0 UV-I 0 W/m² -1,1 °C 1,8 °C 3,2 km/h (1 Bft)
24.11.2017 07:33 1,8 °C 1,8 °C 81 % 1015,7 hPa 0,0 mm 0,0 km/h (0 Bft) N-NO 27 ° 0 min 0,000 mm 0,0 UV-I 5 W/m² -1,1 °C 1,8 °C 0,0 km/h (0 Bft)
24.11.2017 07:34 1,8 °C 1,8 °C 81 % 1015,7 hPa 0,0 mm 0,0 km/h (0 Bft) N-NO 27 ° 0 min 0,000 mm 0,0 UV-I 5 W/m² -1,1 °C 1,8 °C 0,0 km/h (0 Bft)
24.11.2017 07:35 1,7 °C 1,8 °C 81 % 1015,7 hPa 0,0 mm 1,6 km/h (1 Bft) N-NO 27 ° 0 min 0,000 mm 0,0 UV-I 5 W/m² -1,2 °C 1,7 °C 4,8 km/h (1 Bft)
24.11.2017 07:36 1,7 °C 1,7 °C 81 % 1015,7 hPa 0,0 mm 0,1 km/h (0 Bft) N-NO 27 ° 0 min 0,000 mm 0,0 UV-I 5 W/m² -1,2 °C 1,7 °C 1,6 km/h (1 Bft)
24.11.2017 07:37 1,7 °C 1,7 °C 81 % 1015,7 hPa 0,0 mm 0,9 km/h (0 Bft) N-NO 27 ° 0 min 0,000 mm 0,0 UV-I 5 W/m² -1,2 °C 1,7 °C 3,2 km/h (1 Bft)
24.11.2017 07:38 1,7 °C 1,7 °C 81 % 1015,7 hPa 0,0 mm 0,3 km/h (0 Bft) N-NO 27 ° 0 min 0,000 mm 0,0 UV-I 7 W/m² -1,2 °C 1,7 °C 1,6 km/h (1 Bft)
24.11.2017 07:39 1,7 °C 1,7 °C 81 % 1015,7 hPa 0,0 mm 0,0 km/h (0 Bft) N-NO 27 ° 0 min 0,000 mm 0,0 UV-I 7 W/m² -1,2 °C 1,7 °C 0,0 km/h (0 Bft)
24.11.2017 07:40 1,7 °C 1,7 °C 81 % 1015,7 hPa 0,0 mm 0,1 km/h (0 Bft) N-NO 27 ° 0 min 0,000 mm 0,0 UV-I 9 W/m² -1,2 °C 1,7 °C 1,6 km/h (1 Bft)
24.11.2017 07:41 1,7 °C 1,7 °C 81 % 1015,7 hPa 0,0 mm 3,2 km/h (1 Bft) N-NO 28 ° 0 min 0,000 mm 0,0 UV-I 9 W/m² -1,2 °C 1,7 °C 6,4 km/h (2 Bft)
24.11.2017 07:42 1,7 °C 1,7 °C 82 % 1015,7 hPa 0,0 mm 1,3 km/h (1 Bft) O-SO 110 ° 0 min 0,000 mm 0,0 UV-I 12 W/m² -1,0 °C 1,7 °C 4,8 km/h (1 Bft)
24.11.2017 07:43 1,6 °C 1,7 °C 82 % 1015,7 hPa 0,0 mm 1,7 km/h (1 Bft) O-SO 103 ° 0 min 0,000 mm 0,0 UV-I 12 W/m² -1,1 °C 1,6 °C 3,2 km/h (1 Bft)
24.11.2017 07:44 1,7 °C 1,7 °C 82 % 1015,7 hPa 0,0 mm 4,8 km/h (1 Bft) N-NW 330 ° 0 min 0,000 mm 0,0 UV-I 12 W/m² -1,0 °C 0,4 °C 12,9 km/h (3 Bft)
24.11.2017 07:45 1,6 °C 1,7 °C 82 % 1015,7 hPa 0,0 mm 1,3 km/h (1 Bft) N-NW 338 ° 0 min 0,000 mm 0,0 UV-I 12 W/m² -1,1 °C 1,6 °C 3,2 km/h (1 Bft)
24.11.2017 07:46 1,7 °C 1,7 °C 82 % 1015,7 hPa 0,0 mm 0,0 km/h (0 Bft) N-NW 338 ° 0 min 0,000 mm 0,0 UV-I 12 W/m² -1,0 °C 1,7 °C 0,0 km/h (0 Bft)
24.11.2017 07:47 1,7 °C 1,7 °C 82 % 1015,7 hPa 0,0 mm 0,0 km/h (0 Bft) N-NW 338 ° 0 min 0,000 mm 0,0 UV-I 12 W/m² -1,0 °C 1,7 °C 0,0 km/h (0 Bft)
24.11.2017 07:48 1,7 °C 1,7 °C 82 % 1015,8 hPa 0,0 mm 0,0 km/h (0 Bft) N-NW 338 ° 0 min 0,000 mm 0,0 UV-I 14 W/m² -1,0 °C 1,7 °C 0,0 km/h (0 Bft)
24.11.2017 07:49 1,7 °C 1,7 °C 82 % 1015,7 hPa 0,0 mm 0,0 km/h (0 Bft) N-NW 338 ° 0 min 0,000 mm 0,0 UV-I 14 W/m² -1,0 °C 1,7 °C 0,0 km/h (0 Bft)
24.11.2017 07:50 1,7 °C 1,7 °C 82 % 1015,7 hPa 0,0 mm 0,0 km/h (0 Bft) N-NW 338 ° 0 min 0,000 mm 0,0 UV-I 12 W/m² -1,0 °C 1,7 °C 0,0 km/h (0 Bft)
24.11.2017 07:51 1,7 °C 1,7 °C 82 % 1015,7 hPa 0,0 mm 0,2 km/h (0 Bft) N-NW 338 ° 0 min 0,000 mm 0,0 UV-I 12 W/m² -1,0 °C 1,7 °C 1,6 km/h (1 Bft)
24.11.2017 07:52 1,7 °C 1,7 °C 82 % 1015,7 hPa 0,0 mm 1,0 km/h (0 Bft) N-NW 338 ° 0 min 0,000 mm 0,0 UV-I 12 W/m² -1,0 °C 1,7 °C 3,2 km/h (1 Bft)
24.11.2017 07:53 1,7 °C 1,7 °C 82 % 1015,7 hPa 0,0 mm 0,1 km/h (0 Bft) N-NW 338 ° 0 min 0,000 mm 0,0 UV-I 12 W/m² -1,0 °C 1,7 °C 1,6 km/h (1 Bft)
24.11.2017 07:54 1,7 °C 1,7 °C 82 % 1015,7 hPa 0,0 mm 1,9 km/h (1 Bft) N-NW 338 ° 0 min 0,000 mm 0,0 UV-I 12 W/m² -1,0 °C 1,7 °C 4,8 km/h (1 Bft)
24.11.2017 07:55 1,7 °C 1,7 °C 82 % 1015,7 hPa 0,0 mm 0,1 km/h (0 Bft) N-NW 338 ° 0 min 0,000 mm 0,0 UV-I 12 W/m² -1,0 °C 1,7 °C 1,6 km/h (1 Bft)
24.11.2017 07:56 1,7 °C 1,7 °C 82 % 1015,7 hPa 0,0 mm 0,0 km/h (0 Bft) N-NW 338 ° 0 min 0,000 mm 0,0 UV-I 12 W/m² -1,0 °C 1,7 °C 0,0 km/h (0 Bft)
24.11.2017 07:57 1,7 °C 1,7 °C 82 % 1015,7 hPa 0,0 mm 0,0 km/h (0 Bft) N-NW 338 ° 0 min 0,000 mm 0,0 UV-I 12 W/m² -1,0 °C 1,7 °C 0,0 km/h (0 Bft)
24.11.2017 07:58 1,7 °C 1,7 °C 82 % 1015,7 hPa 0,0 mm 2,1 km/h (1 Bft) N-NW 338 ° 0 min 0,000 mm 0,0 UV-I 14 W/m² -1,0 °C 1,7 °C 4,8 km/h (1 Bft)
24.11.2017 07:59 1,7 °C 1,7 °C 82 % 1015,8 hPa 0,0 mm 0,1 km/h (0 Bft) N-NW 338 ° 0 min 0,000 mm 0,0 UV-I 14 W/m² -1,0 °C 1,7 °C 1,6 km/h (1 Bft)
24.11.2017 08:00 1,7 °C 1,7 °C 82 % 1015,8 hPa 0,0 mm 0,2 km/h (0 Bft) N-NW 338 ° 0 min 0,000 mm 0,0 UV-I 14 W/m² -1,0 °C 1,7 °C 1,6 km/h (1 Bft)
24.11.2017 08:01 1,7 °C 1,7 °C 82 % 1015,8 hPa 0,0 mm 0,4 km/h (0 Bft) N-NO 22 ° 0 min 0,000 mm 0,0 UV-I 16 W/m² -1,0 °C 1,7 °C 1,6 km/h (1 Bft)
24.11.2017 08:02 1,7 °C 1,7 °C 82 % 1015,8 hPa 0,0 mm 0,0 km/h (0 Bft) N-NO 22 ° 0 min 0,000 mm 0,0 UV-I 16 W/m² -1,0 °C 1,7 °C 0,0 km/h (0 Bft)
24.11.2017 08:03 1,7 °C 1,7 °C 82 % 1015,8 hPa 0,0 mm 1,1 km/h (1 Bft) N-NO 22 ° 0 min 0,000 mm 0,0 UV-I 16 W/m² -1,0 °C 1,7 °C 1,6 km/h (1 Bft)
24.11.2017 08:04 1,7 °C 1,7 °C 83 % 1015,8 hPa 0,0 mm 0,4 km/h (0 Bft) N-NO 22 ° 0 min 0,000 mm 0,0 UV-I 18 W/m² -0,9 °C 1,7 °C 1,6 km/h (1 Bft)
24.11.2017 08:05 1,8 °C 1,8 °C 83 % 1015,8 hPa 0,0 mm 0,0 km/h (0 Bft) N-NO 22 ° 0 min 0,000 mm 0,0 UV-I 19 W/m² -0,8 °C 1,8 °C 0,0 km/h (0 Bft)
24.11.2017 08:06 1,8 °C 1,8 °C 83 % 1015,8 hPa 0,0 mm 0,0 km/h (0 Bft) N-NO 22 ° 0 min 0,000 mm 0,0 UV-I 19 W/m² -0,8 °C 1,8 °C 0,0 km/h (0 Bft)
24.11.2017 08:07 1,8 °C 1,8 °C 83 % 1015,8 hPa 0,0 mm 2,5 km/h (1 Bft) SO 132 ° 0 min 0,000 mm 0,0 UV-I 21 W/m² -0,8 °C 1,8 °C 3,2 km/h (1 Bft)
24.11.2017 08:08 1,8 °C 1,8 °C 83 % 1015,8 hPa 0,0 mm 2,2 km/h (1 Bft) SO 132 ° 0 min 0,000 mm 0,0 UV-I 21 W/m² -0,8 °C 1,8 °C 3,2 km/h (1 Bft)
24.11.2017 08:09 1,9 °C 1,9 °C 82 % 1015,8 hPa 0,0 mm 1,1 km/h (1 Bft) SO 132 ° 0 min 0,000 mm 0,0 UV-I 23 W/m² -0,8 °C 1,9 °C 3,2 km/h (1 Bft)
24.11.2017 08:10 1,9 °C 1,9 °C 82 % 1015,8 hPa 0,0 mm 0,0 km/h (0 Bft) SO 132 ° 0 min 0,000 mm 0,0 UV-I 25 W/m² -0,8 °C 1,9 °C 0,0 km/h (0 Bft)
24.11.2017 08:11 1,9 °C 1,9 °C 82 % 1015,8 hPa 0,0 mm 0,0 km/h (0 Bft) SO 132 ° 0 min 0,000 mm 0,0 UV-I 26 W/m² -0,8 °C 1,9 °C 0,0 km/h (0 Bft)
24.11.2017 08:12 1,9 °C 1,9 °C 82 % 1015,8 hPa 0,0 mm 0,0 km/h (0 Bft) SO 132 ° 0 min 0,000 mm 0,0 UV-I 28 W/m² -0,8 °C 1,9 °C 0,0 km/h (0 Bft)
24.11.2017 08:13 2,0 °C 2,0 °C 82 % 1015,8 hPa 0,0 mm 0,0 km/h (0 Bft) SO 132 ° 0 min 0,000 mm 0,0 UV-I 28 W/m² -0,7 °C 2,0 °C 0,0 km/h (0 Bft)
24.11.2017 08:14 2,0 °C 2,0 °C 82 % 1015,8 hPa 0,0 mm 0,0 km/h (0 Bft) SO 132 ° 0 min 0,000 mm 0,0 UV-I 30 W/m² -0,7 °C 2,0 °C 0,0 km/h (0 Bft)
24.11.2017 08:15 2,1 °C 2,1 °C 82 % 1015,7 hPa 0,0 mm 0,0 km/h (0 Bft) SO 132 ° 0 min 0,000 mm 0,0 UV-I 30 W/m² -0,6 °C 2,1 °C 0,0 km/h (0 Bft)
24.11.2017 08:16 2,1 °C 2,1 °C 82 % 1015,8 hPa 0,0 mm 0,0 km/h (0 Bft) SO 132 ° 0 min 0,000 mm 0,0 UV-I 32 W/m² -0,6 °C 2,1 °C 0,0 km/h (0 Bft)
24.11.2017 08:17 2,1 °C 2,1 °C 82 % 1015,7 hPa 0,0 mm 0,0 km/h (0 Bft) SO 132 ° 0 min 0,000 mm 0,0 UV-I 32 W/m² -0,6 °C 2,1 °C 0,0 km/h (0 Bft)
24.11.2017 08:18 2,1 °C 2,2 °C 82 % 1015,7 hPa 0,0 mm 0,0 km/h (0 Bft) SO 132 ° 0 min 0,000 mm 0,0 UV-I 33 W/m² -0,6 °C 2,1 °C 0,0 km/h (0 Bft)
24.11.2017 08:19 2,2 °C 2,2 °C 82 % 1015,7 hPa 0,0 mm 0,0 km/h (0 Bft) SO 132 ° 0 min 0,000 mm 0,0 UV-I 33 W/m² -0,5 °C 2,2 °C 0,0 km/h (0 Bft)
24.11.2017 08:20 2,2 °C 2,2 °C 81 % 1015,7 hPa 0,0 mm 0,0 km/h (0 Bft) SO 132 ° 0 min 0,000 mm 0,0 UV-I 33 W/m² -0,7 °C 2,2 °C 0,0 km/h (0 Bft)
24.11.2017 08:21 2,2 °C 2,2 °C 81 % 1015,7 hPa 0,0 mm 0,0 km/h (0 Bft) SO 132 ° 0 min 0,000 mm 0,0 UV-I 33 W/m² -0,7 °C 2,2 °C 0,0 km/h (0 Bft)
24.11.2017 08:22 2,2 °C 2,2 °C 81 % 1015,8 hPa 0,0 mm 0,0 km/h (0 Bft) SO 132 ° 0 min 0,000 mm 0,0 UV-I 35 W/m² -0,7 °C 2,2 °C 0,0 km/h (0 Bft)
24.11.2017 08:23 2,2 °C 2,2 °C 81 % 1015,8 hPa 0,0 mm 0,0 km/h (0 Bft) SO 132 ° 0 min 0,000 mm 0,0 UV-I 35 W/m² -0,7 °C 2,2 °C 0,0 km/h (0 Bft)
24.11.2017 08:24 2,3 °C 2,3 °C 81 % 1015,8 hPa 0,0 mm 0,0 km/h (0 Bft) SO 132 ° 0 min 0,000 mm 0,0 UV-I 37 W/m² -0,6 °C 2,3 °C 0,0 km/h (0 Bft)
24.11.2017 08:25 2,2 °C 2,3 °C 81 % 1015,8 hPa 0,0 mm 0,0 km/h (0 Bft) SO 132 ° 0 min 0,000 mm 0,0 UV-I 37 W/m² -0,7 °C 2,2 °C 0,0 km/h (0 Bft)
24.11.2017 08:26 2,3 °C 2,3 °C 81 % 1015,8 hPa 0,0 mm 0,0 km/h (0 Bft) SO 132 ° 0 min 0,000 mm 0,0 UV-I 37 W/m² -0,6 °C 2,3 °C 0,0 km/h (0 Bft)
24.11.2017 08:27 2,2 °C 2,3 °C 81 % 1015,8 hPa 0,0 mm 0,0 km/h (0 Bft) SO 132 ° 0 min 0,000 mm 0,0 UV-I 37 W/m² -0,7 °C 2,2 °C 0,0 km/h (0 Bft)
24.11.2017 08:28 2,3 °C 2,3 °C 81 % 1015,7 hPa 0,0 mm 0,0 km/h (0 Bft) SO 132 ° 0 min 0,000 mm 0,0 UV-I 37 W/m² -0,6 °C 2,3 °C 0,0 km/h (0 Bft)
24.11.2017 08:29 2,3 °C 2,3 °C 80 % 1015,7 hPa 0,0 mm 0,0 km/h (0 Bft) SO 132 ° 0 min 0,000 mm 0,0 UV-I 35 W/m² -0,8 °C 2,3 °C 0,0 km/h (0 Bft)
24.11.2017 08:30 2,3 °C 2,3 °C 80 % 1015,7 hPa 0,0 mm 0,0 km/h (0 Bft) SO 132 ° 0 min 0,000 mm 0,0 UV-I 35 W/m² -0,8 °C 2,3 °C 0,0 km/h (0 Bft)
24.11.2017 08:31 2,3 °C 2,3 °C 80 % 1015,7 hPa 0,0 mm 0,0 km/h (0 Bft) SO 132 ° 0 min 0,000 mm 0,0 UV-I 35 W/m² -0,8 °C 2,3 °C 0,0 km/h (0 Bft)
24.11.2017 08:32 2,3 °C 2,3 °C 80 % 1015,7 hPa 0,0 mm 0,0 km/h (0 Bft) SO 132 ° 0 min 0,000 mm 0,0 UV-I 35 W/m² -0,8 °C 2,3 °C 0,0 km/h (0 Bft)
24.11.2017 08:33 2,3 °C 2,3 °C 80 % 1015,7 hPa 0,0 mm 0,0 km/h (0 Bft) SO 132 ° 0 min 0,000 mm 0,0 UV-I 35 W/m² -0,8 °C 2,3 °C 0,0 km/h (0 Bft)
24.11.2017 08:34 2,3 °C 2,3 °C 80 % 1015,8 hPa 0,0 mm 0,0 km/h (0 Bft) SO 132 ° 0 min 0,000 mm 0,0 UV-I 35 W/m² -0,8 °C 2,3 °C 0,0 km/h (0 Bft)
24.11.2017 08:35 2,3 °C 2,3 °C 80 % 1015,8 hPa 0,0 mm 0,0 km/h (0 Bft) SO 132 ° 0 min 0,000 mm 0,0 UV-I 35 W/m² -0,8 °C 2,3 °C 0,0 km/h (0 Bft)
24.11.2017 08:36 2,3 °C 2,3 °C 80 % 1015,7 hPa 0,0 mm 0,0 km/h (0 Bft) SO 132 ° 0 min 0,000 mm 0,0 UV-I 37 W/m² -0,8 °C 2,3 °C 0,0 km/h (0 Bft)
24.11.2017 08:37 2,3 °C 2,3 °C 80 % 1015,7 hPa 0,0 mm 0,0 km/h (0 Bft) SO 132 ° 0 min 0,000 mm 0,0 UV-I 37 W/m² -0,8 °C 2,3 °C 0,0 km/h (0 Bft)
24.11.2017 08:38 2,3 °C 2,3 °C 80 % 1015,7 hPa 0,0 mm 0,0 km/h (0 Bft) SO 132 ° 0 min 0,000 mm 0,0 UV-I 39 W/m² -0,8 °C 2,3 °C 0,0 km/h (0 Bft)
24.11.2017 08:39 2,3 °C 2,3 °C 80 % 1015,7 hPa 0,0 mm 0,0 km/h (0 Bft) SO 132 ° 0 min 0,000 mm 0,0 UV-I 39 W/m² -0,8 °C 2,3 °C 0,0 km/h (0 Bft)
24.11.2017 08:40 2,3 °C 2,3 °C 80 % 1015,7 hPa 0,0 mm 0,0 km/h (0 Bft) SO 132 ° 0 min 0,000 mm 0,0 UV-I 40 W/m² -0,8 °C 2,3 °C 0,0 km/h (0 Bft)
24.11.2017 08:41 2,3 °C 2,3 °C 80 % 1015,7 hPa 0,0 mm 0,0 km/h (0 Bft) SO 132 ° 0 min 0,000 mm 0,0 UV-I 42 W/m² -0,8 °C 2,3 °C 0,0 km/h (0 Bft)
24.11.2017 08:42 2,3 °C 2,3 °C 80 % 1015,7 hPa 0,0 mm 0,0 km/h (0 Bft) SO 132 ° 0 min 0,000 mm 0,0 UV-I 42 W/m² -0,8 °C 2,3 °C 0,0 km/h (0 Bft)
24.11.2017 08:43 2,3 °C 2,3 °C 80 % 1015,7 hPa 0,0 mm 0,0 km/h (0 Bft) SO 132 ° 0 min 0,000 mm 0,0 UV-I 42 W/m² -0,8 °C 2,3 °C 0,0 km/h (0 Bft)
24.11.2017 08:44 2,3 °C 2,3 °C 81 % 1015,7 hPa 0,0 mm 0,0 km/h (0 Bft) SO 132 ° 0 min 0,000 mm 0,0 UV-I 42 W/m² -0,6 °C 2,3 °C 0,0 km/h (0 Bft)
24.11.2017 08:45 2,3 °C 2,3 °C 81 % 1015,7 hPa 0,0 mm 0,0 km/h (0 Bft) SO 132 ° 0 min 0,000 mm 0,0 UV-I 42 W/m² -0,6 °C 2,3 °C 0,0 km/h (0 Bft)
24.11.2017 08:46 2,3 °C 2,3 °C 81 % 1015,6 hPa 0,0 mm 0,0 km/h (0 Bft) SO 132 ° 0 min 0,000 mm 0,0 UV-I 42 W/m² -0,6 °C 2,3 °C 0,0 km/h (0 Bft)
24.11.2017 08:47 2,3 °C 2,3 °C 81 % 1015,6 hPa 0,0 mm 0,0 km/h (0 Bft) SO 132 ° 0 min 0,000 mm 0,0 UV-I 44 W/m² -0,6 °C 2,3 °C 0,0 km/h (0 Bft)
24.11.2017 08:48 2,3 °C 2,3 °C 81 % 1015,7 hPa 0,0 mm 0,0 km/h (0 Bft) SO 132 ° 0 min 0,000 mm 0,0 UV-I 44 W/m² -0,6 °C 2,3 °C 0,0 km/h (0 Bft)
24.11.2017 08:49 2,3 °C 2,3 °C 81 % 1015,7 hPa 0,0 mm 0,0 km/h (0 Bft) SO 132 ° 0 min 0,000 mm 0,0 UV-I 44 W/m² -0,6 °C 2,3 °C 0,0 km/h (0 Bft)
24.11.2017 08:50 2,3 °C 2,3 °C 81 % 1015,7 hPa 0,0 mm 0,0 km/h (0 Bft) SO 132 ° 0 min 0,000 mm 0,0 UV-I 42 W/m² -0,6 °C 2,3 °C 0,0 km/h (0 Bft)
24.11.2017 08:51 2,3 °C 2,3 °C 81 % 1015,8 hPa 0,0 mm 0,2 km/h (0 Bft) SO 132 ° 0 min 0,000 mm 0,0 UV-I 42 W/m² -0,6 °C 2,3 °C 1,6 km/h (1 Bft)
24.11.2017 08:52 2,3 °C 2,3 °C 81 % 1015,8 hPa 0,0 mm 0,2 km/h (0 Bft) SO 132 ° 0 min 0,000 mm 0,0 UV-I 42 W/m² -0,6 °C 2,3 °C 1,6 km/h (1 Bft)
24.11.2017 08:53 2,3 °C 2,3 °C 81 % 1015,8 hPa 0,0 mm 0,0 km/h (0 Bft) SO 132 ° 0 min 0,000 mm 0,0 UV-I 42 W/m² -0,6 °C 2,3 °C 0,0 km/h (0 Bft)
24.11.2017 08:54 2,3 °C 2,3 °C 81 % 1015,7 hPa 0,0 mm 0,0 km/h (0 Bft) SO 132 ° 0 min 0,000 mm 0,0 UV-I 42 W/m² -0,6 °C 2,3 °C 0,0 km/h (0 Bft)
24.11.2017 08:55 2,3 °C 2,3 °C 81 % 1015,8 hPa 0,0 mm 0,0 km/h (0 Bft) SO 132 ° 0 min 0,000 mm 0,0 UV-I 44 W/m² -0,6 °C 2,3 °C 0,0 km/h (0 Bft)
24.11.2017 08:56 2,4 °C 2,4 °C 81 % 1015,8 hPa 0,0 mm 0,0 km/h (0 Bft) SO 132 ° 0 min 0,000 mm 0,0 UV-I 44 W/m² -0,5 °C 2,4 °C 0,0 km/h (0 Bft)
24.11.2017 08:57 2,3 °C 2,4 °C 81 % 1015,8 hPa 0,0 mm 1,5 km/h (1 Bft) NO 36 ° 0 min 0,000 mm 0,0 UV-I 44 W/m² -0,6 °C 2,3 °C 4,8 km/h (1 Bft)
24.11.2017 08:58 2,4 °C 2,4 °C 81 % 1015,8 hPa 0,0 mm 0,0 km/h (0 Bft) NO 36 ° 0 min 0,000 mm 0,0 UV-I 44 W/m² -0,5 °C 2,4 °C 0,0 km/h (0 Bft)
24.11.2017 08:59 2,4 °C 2,4 °C 81 % 1015,8 hPa 0,0 mm 0,0 km/h (0 Bft) NO 36 ° 0 min 0,000 mm 0,0 UV-I 44 W/m² -0,5 °C 2,4 °C 0,0 km/h (0 Bft)
24.11.2017 09:00 2,4 °C 2,4 °C 81 % 1015,8 hPa 0,0 mm 0,0 km/h (0 Bft) NO 36 ° 0 min 0,025 mm 0,0 UV-I 44 W/m² -0,5 °C 2,4 °C 0,0 km/h (0 Bft)
24.11.2017 09:01 2,4 °C 2,4 °C 81 % 1015,7 hPa 0,0 mm 0,0 km/h (0 Bft) NO 36 ° 0 min 0,000 mm 0,0 UV-I 46 W/m² -0,5 °C 2,4 °C 0,0 km/h (0 Bft)
24.11.2017 09:02 2,4 °C 2,4 °C 81 % 1015,8 hPa 0,0 mm 0,0 km/h (0 Bft) NO 36 ° 0 min 0,000 mm 0,0 UV-I 46 W/m² -0,5 °C 2,4 °C 0,0 km/h (0 Bft)
24.11.2017 09:03 2,4 °C 2,4 °C 81 % 1015,8 hPa 0,0 mm 0,0 km/h (0 Bft) NO 36 ° 0 min 0,000 mm 0,0 UV-I 47 W/m² -0,5 °C 2,4 °C 0,0 km/h (0 Bft)
24.11.2017 09:04 2,4 °C 2,4 °C 81 % 1015,8 hPa 0,0 mm 0,0 km/h (0 Bft) NO 36 ° 0 min 0,000 mm 0,0 UV-I 49 W/m² -0,5 °C 2,4 °C 0,0 km/h (0 Bft)
24.11.2017 09:05 2,5 °C 2,5 °C 81 % 1015,8 hPa 0,0 mm 0,0 km/h (0 Bft) NO 36 ° 0 min 0,000 mm 0,0 UV-I 51 W/m² -0,4 °C 2,5 °C 0,0 km/h (0 Bft)
24.11.2017 09:06 2,5 °C 2,5 °C 81 % 1015,8 hPa 0,0 mm 0,0 km/h (0 Bft) NO 36 ° 0 min 0,000 mm 0,0 UV-I 53 W/m² -0,4 °C 2,5 °C 0,0 km/h (0 Bft)
24.11.2017 09:07 2,5 °C 2,5 °C 81 % 1015,8 hPa 0,0 mm 0,0 km/h (0 Bft) NO 36 ° 0 min 0,000 mm 0,0 UV-I 53 W/m² -0,4 °C 2,5 °C 0,0 km/h (0 Bft)
24.11.2017 09:08 2,6 °C 2,6 °C 81 % 1015,8 hPa 0,0 mm 0,0 km/h (0 Bft) NO 36 ° 0 min 0,000 mm 0,0 UV-I 54 W/m² -0,3 °C 2,6 °C 0,0 km/h (0 Bft)
24.11.2017 09:09 2,6 °C 2,6 °C 82 % 1015,7 hPa 0,0 mm 0,0 km/h (0 Bft) NO 36 ° 0 min 0,000 mm 0,5 UV-I 56 W/m² -0,2 °C 2,6 °C 0,0 km/h (0 Bft)
24.11.2017 09:10 2,6 °C 2,6 °C 82 % 1015,7 hPa 0,0 mm 0,0 km/h (0 Bft) NO 36 ° 0 min 0,000 mm 0,5 UV-I 58 W/m² -0,2 °C 2,6 °C 0,0 km/h (0 Bft)
24.11.2017 09:11 2,6 °C 2,6 °C 82 % 1015,8 hPa 0,0 mm 0,0 km/h (0 Bft) NO 36 ° 0 min 0,000 mm 0,6 UV-I 58 W/m² -0,2 °C 2,6 °C 0,0 km/h (0 Bft)
24.11.2017 09:12 2,6 °C 2,6 °C 82 % 1015,7 hPa 0,0 mm 0,0 km/h (0 Bft) NO 36 ° 0 min 0,000 mm 0,6 UV-I 58 W/m² -0,2 °C 2,6 °C 0,0 km/h (0 Bft)
24.11.2017 09:13 2,7 °C 2,7 °C 82 % 1015,7 hPa 0,0 mm 0,3 km/h (0 Bft) NO 36 ° 0 min 0,000 mm 0,6 UV-I 58 W/m² -0,1 °C 2,7 °C 3,2 km/h (1 Bft)
24.11.2017 09:14 2,7 °C 2,7 °C 82 % 1015,7 hPa 0,0 mm 1,3 km/h (1 Bft) NO 36 ° 0 min 0,000 mm 0,6 UV-I 58 W/m² -0,1 °C 2,7 °C 3,2 km/h (1 Bft)
24.11.2017 09:15 2,7 °C 2,7 °C 82 % 1015,7 hPa 0,0 mm 0,0 km/h (0 Bft) NO 36 ° 0 min 0,000 mm 0,6 UV-I 56 W/m² -0,1 °C 2,7 °C 0,0 km/h (0 Bft)
24.11.2017 09:16 2,8 °C 2,8 °C 82 % 1015,7 hPa 0,0 mm 0,0 km/h (0 Bft) NO 36 ° 0 min 0,000 mm 0,0 UV-I 54 W/m² 0,0 °C 2,8 °C 0,0 km/h (0 Bft)
24.11.2017 09:17 2,8 °C 2,8 °C 82 % 1015,7 hPa 0,0 mm 0,0 km/h (0 Bft) NO 36 ° 0 min 0,000 mm 0,0 UV-I 53 W/m² 0,0 °C 2,8 °C 0,0 km/h (0 Bft)
24.11.2017 09:18 2,8 °C 2,8 °C 81 % 1015,7 hPa 0,0 mm 0,0 km/h (0 Bft) NO 36 ° 0 min 0,000 mm 0,0 UV-I 51 W/m² -0,1 °C 2,8 °C 0,0 km/h (0 Bft)
24.11.2017 09:19 2,9 °C 2,9 °C 81 % 1015,7 hPa 0,0 mm 0,0 km/h (0 Bft) NO 36 ° 0 min 0,000 mm 0,0 UV-I 49 W/m² -0,0 °C 2,9 °C 0,0 km/h (0 Bft)
24.11.2017 09:20 2,9 °C 2,9 °C 81 % 1015,7 hPa 0,0 mm 0,0 km/h (0 Bft) NO 36 ° 0 min 0,000 mm 0,0 UV-I 47 W/m² -0,0 °C 2,9 °C 0,0 km/h (0 Bft)
24.11.2017 09:21 2,9 °C 2,9 °C 81 % 1015,7 hPa 0,0 mm 0,0 km/h (0 Bft) NO 36 ° 0 min 0,000 mm 0,0 UV-I 44 W/m² -0,0 °C 2,9 °C 0,0 km/h (0 Bft)
24.11.2017 09:22 2,9 °C 2,9 °C 81 % 1015,7 hPa 0,0 mm 0,0 km/h (0 Bft) NO 36 ° 0 min 0,000 mm 0,0 UV-I 44 W/m² -0,0 °C 2,9 °C 0,0 km/h (0 Bft)
24.11.2017 09:23 3,1 °C 3,1 °C 82 % 1015,7 hPa 0,0 mm 0,0 km/h (0 Bft) NO 36 ° 0 min 0,000 mm 0,0 UV-I 42 W/m² 0,3 °C 3,1 °C 0,0 km/h (0 Bft)
24.11.2017 09:24 3,1 °C 3,1 °C 82 % 1015,6 hPa 0,0 mm 0,0 km/h (0 Bft) NO 36 ° 0 min 0,000 mm 0,0 UV-I 42 W/m² 0,3 °C 3,1 °C 0,0 km/h (0 Bft)
24.11.2017 09:25 3,1 °C 3,1 °C 82 % 1015,6 hPa 0,0 mm 0,0 km/h (0 Bft) NO 36 ° 0 min 0,000 mm 0,0 UV-I 40 W/m² 0,3 °C 3,1 °C 0,0 km/h (0 Bft)
24.11.2017 09:26 3,2 °C 3,2 °C 81 % 1015,5 hPa 0,0 mm 0,0 km/h (0 Bft) NO 36 ° 0 min 0,000 mm 0,0 UV-I 40 W/m² 0,3 °C 3,2 °C 0,0 km/h (0 Bft)
24.11.2017 09:27 3,2 °C 3,2 °C 81 % 1015,5 hPa 0,0 mm 0,0 km/h (0 Bft) NO 36 ° 0 min 0,000 mm 0,0 UV-I 39 W/m² 0,3 °C 3,2 °C 0,0 km/h (0 Bft)
24.11.2017 09:28 3,2 °C 3,2 °C 81 % 1015,5 hPa 0,0 mm 0,0 km/h (0 Bft) NO 36 ° 0 min 0,000 mm 0,0 UV-I 39 W/m² 0,3 °C 3,2 °C 0,0 km/h (0 Bft)
24.11.2017 09:29 3,3 °C 3,3 °C 81 % 1015,5 hPa 0,0 mm 0,0 km/h (0 Bft) NO 36 ° 0 min 0,000 mm 0,0 UV-I 39 W/m² 0,4 °C 3,3 °C 0,0 km/h (0 Bft)
24.11.2017 09:30 3,3 °C 3,3 °C 81 % 1015,5 hPa 0,0 mm 0,0 km/h (0 Bft) NO 36 ° 0 min 0,000 mm 0,0 UV-I 37 W/m² 0,4 °C 3,3 °C 0,0 km/h (0 Bft)
24.11.2017 09:31 3,3 °C 3,3 °C 80 % 1015,5 hPa 0,0 mm 0,0 km/h (0 Bft) NO 36 ° 0 min 0,000 mm 0,0 UV-I 37 W/m² 0,2 °C 3,3 °C 0,0 km/h (0 Bft)
24.11.2017 09:32 3,3 °C 3,3 °C 80 % 1015,5 hPa 0,0 mm 0,0 km/h (0 Bft) NO 36 ° 0 min 0,000 mm 0,0 UV-I 37 W/m² 0,2 °C 3,3 °C 0,0 km/h (0 Bft)
24.11.2017 09:33 3,4 °C 3,4 °C 80 % 1015,5 hPa 0,0 mm 0,0 km/h (0 Bft) NO 36 ° 0 min 0,000 mm 0,0 UV-I 35 W/m² 0,3 °C 3,4 °C 0,0 km/h (0 Bft)
24.11.2017 09:34 3,4 °C 3,4 °C 80 % 1015,5 hPa 0,0 mm 0,0 km/h (0 Bft) NO 36 ° 0 min 0,000 mm 0,0 UV-I 35 W/m² 0,3 °C 3,4 °C 0,0 km/h (0 Bft)
24.11.2017 09:35 3,5 °C 3,5 °C 80 % 1015,5 hPa 0,0 mm 0,0 km/h (0 Bft) NO 36 ° 0 min 0,000 mm 0,0 UV-I 35 W/m² 0,4 °C 3,5 °C 0,0 km/h (0 Bft)
24.11.2017 09:36 3,6 °C 3,6 °C 80 % 1015,5 hPa 0,0 mm 0,0 km/h (0 Bft) NO 36 ° 0 min 0,000 mm 0,0 UV-I 35 W/m² 0,5 °C 3,6 °C 0,0 km/h (0 Bft)
24.11.2017 09:37 3,6 °C 3,6 °C 79 % 1015,5 hPa 0,0 mm 0,1 km/h (0 Bft) NO 36 ° 0 min 0,000 mm 0,0 UV-I 35 W/m² 0,3 °C 3,6 °C 1,6 km/h (1 Bft)
24.11.2017 09:38 3,6 °C 3,6 °C 79 % 1015,5 hPa 0,0 mm 0,0 km/h (0 Bft) NO 36 ° 0 min 0,000 mm 0,0 UV-I 35 W/m² 0,3 °C 3,6 °C 0,0 km/h (0 Bft)
24.11.2017 09:39 3,6 °C 3,6 °C 79 % 1015,4 hPa 0,0 mm 0,0 km/h (0 Bft) NO 36 ° 0 min 0,000 mm 0,0 UV-I 33 W/m² 0,3 °C 3,6 °C 0,0 km/h (0 Bft)
24.11.2017 09:40 3,6 °C 3,6 °C 78 % 1015,5 hPa 0,0 mm 0,0 km/h (0 Bft) NO 36 ° 0 min 0,000 mm 0,0 UV-I 33 W/m² 0,1 °C 3,6 °C 0,0 km/h (0 Bft)
24.11.2017 09:41 3,7 °C 3,7 °C 78 % 1015,4 hPa 0,0 mm 0,0 km/h (0 Bft) NO 36 ° 0 min 0,000 mm 0,0 UV-I 33 W/m² 0,2 °C 3,7 °C 0,0 km/h (0 Bft)
24.11.2017 09:42 3,7 °C 3,7 °C 78 % 1015,5 hPa 0,0 mm 0,0 km/h (0 Bft) NO 36 ° 0 min 0,000 mm 0,0 UV-I 33 W/m² 0,2 °C 3,7 °C 0,0 km/h (0 Bft)
24.11.2017 09:43 3,8 °C 3,8 °C 77 % 1015,5 hPa 0,0 mm 0,0 km/h (0 Bft) NO 36 ° 0 min 0,000 mm 0,0 UV-I 33 W/m² 0,1 °C 3,8 °C 0,0 km/h (0 Bft)
24.11.2017 09:44 3,8 °C 3,8 °C 77 % 1015,4 hPa 0,0 mm 0,0 km/h (0 Bft) NO 36 ° 0 min 0,000 mm 0,0 UV-I 32 W/m² 0,1 °C 3,8 °C 0,0 km/h (0 Bft)
24.11.2017 09:45 3,9 °C 3,9 °C 78 % 1015,4 hPa 0,0 mm 0,0 km/h (0 Bft) NO 36 ° 0 min 0,000 mm 0,0 UV-I 32 W/m² 0,4 °C 3,9 °C 0,0 km/h (0 Bft)
24.11.2017 09:46 3,9 °C 3,9 °C 78 % 1015,3 hPa 0,0 mm 0,0 km/h (0 Bft) NO 36 ° 0 min 0,000 mm 0,0 UV-I 32 W/m² 0,4 °C 3,9 °C 0,0 km/h (0 Bft)
24.11.2017 09:47 3,9 °C 3,9 °C 78 % 1015,3 hPa 0,0 mm 0,0 km/h (0 Bft) NO 36 ° 0 min 0,000 mm 0,0 UV-I 30 W/m² 0,4 °C 3,9 °C 0,0 km/h (0 Bft)
24.11.2017 09:48 4,0 °C 4,1 °C 78 % 1015,3 hPa 0,0 mm 0,0 km/h (0 Bft) NO 36 ° 0 min 0,000 mm 0,0 UV-I 30 W/m² 0,5 °C 4,0 °C 0,0 km/h (0 Bft)
24.11.2017 09:49 4,1 °C 4,1 °C 77 % 1015,3 hPa 0,0 mm 0,3 km/h (0 Bft) NO 36 ° 0 min 0,000 mm 0,0 UV-I 30 W/m² 0,4 °C 4,1 °C 1,6 km/h (1 Bft)
24.11.2017 09:50 4,1 °C 4,1 °C 77 % 1015,3 hPa 0,0 mm 0,0 km/h (0 Bft) NO 36 ° 0 min 0,000 mm 0,0 UV-I 30 W/m² 0,4 °C 4,1 °C 0,0 km/h (0 Bft)
24.11.2017 09:51 4,2 °C 4,2 °C 77 % 1015,3 hPa 0,0 mm 0,0 km/h (0 Bft) NO 36 ° 0 min 0,000 mm 0,0 UV-I 30 W/m² 0,5 °C 4,2 °C 0,0 km/h (0 Bft)
24.11.2017 09:52 4,2 °C 4,2 °C 77 % 1015,2 hPa 0,0 mm 0,0 km/h (0 Bft) NO 36 ° 0 min 0,000 mm 0,0 UV-I 30 W/m² 0,5 °C 4,2 °C 0,0 km/h (0 Bft)
24.11.2017 09:53 4,3 °C 4,3 °C 77 % 1015,2 hPa 0,0 mm 0,0 km/h (0 Bft) NO 36 ° 0 min 0,000 mm 0,0 UV-I 30 W/m² 0,6 °C 4,3 °C 0,0 km/h (0 Bft)
24.11.2017 09:54 4,3 °C 4,3 °C 77 % 1015,2 hPa 0,0 mm 0,7 km/h (0 Bft) NO 36 ° 0 min 0,000 mm 0,0 UV-I 30 W/m² 0,6 °C 4,3 °C 1,6 km/h (1 Bft)
24.11.2017 09:55 4,3 °C 4,3 °C 77 % 1015,2 hPa 0,0 mm 0,2 km/h (0 Bft) NO 36 ° 0 min 0,000 mm 0,0 UV-I 30 W/m² 0,6 °C 4,3 °C 1,6 km/h (1 Bft)
24.11.2017 09:56 4,4 °C 4,4 °C 77 % 1015,2 hPa 0,0 mm 0,8 km/h (0 Bft) NO 36 ° 0 min 0,000 mm 0,0 UV-I 32 W/m² 0,7 °C 4,4 °C 3,2 km/h (1 Bft)
24.11.2017 09:57 4,4 °C 4,4 °C 77 % 1015,3 hPa 0,0 mm 1,0 km/h (0 Bft) NO 36 ° 0 min 0,000 mm 0,0 UV-I 32 W/m² 0,7 °C 4,4 °C 4,8 km/h (1 Bft)
24.11.2017 09:58 4,5 °C 4,5 °C 77 % 1015,3 hPa 0,0 mm 1,0 km/h (0 Bft) NO 36 ° 0 min 0,000 mm 0,0 UV-I 32 W/m² 0,8 °C 4,5 °C 3,2 km/h (1 Bft)
24.11.2017 09:59 4,6 °C 4,6 °C 77 % 1015,2 hPa 0,0 mm 1,1 km/h (1 Bft) NO 36 ° 0 min 0,000 mm 0,0 UV-I 32 W/m² 0,9 °C 4,6 °C 3,2 km/h (1 Bft)
24.11.2017 10:00 4,6 °C 4,6 °C 76 % 1015,3 hPa 0,0 mm 1,6 km/h (1 Bft) NO 36 ° 0 min 0,026 mm 0,0 UV-I 32 W/m² 0,7 °C 4,6 °C 3,2 km/h (1 Bft)
24.11.2017 10:01 4,6 °C 4,6 °C 75 % 1015,2 hPa 0,0 mm 0,7 km/h (0 Bft) NO 36 ° 0 min 0,000 mm 0,0 UV-I 33 W/m² 0,6 °C 4,6 °C 3,2 km/h (1 Bft)
24.11.2017 10:02 4,7 °C 4,7 °C 75 % 1015,2 hPa 0,0 mm 1,0 km/h (0 Bft) NO 36 ° 0 min 0,000 mm 0,0 UV-I 33 W/m² 0,7 °C 4,7 °C 3,2 km/h (1 Bft)
24.11.2017 10:03 4,8 °C 4,8 °C 75 % 1015,3 hPa 0,0 mm 0,8 km/h (0 Bft) NO 36 ° 0 min 0,000 mm 0,0 UV-I 33 W/m² 0,8 °C 4,8 °C 1,6 km/h (1 Bft)
24.11.2017 10:04 4,8 °C 4,8 °C 75 % 1015,3 hPa 0,0 mm 0,0 km/h (0 Bft) NO 36 ° 0 min 0,000 mm 0,0 UV-I 33 W/m² 0,8 °C 4,8 °C 0,0 km/h (0 Bft)
24.11.2017 10:05 4,9 °C 4,9 °C 75 % 1015,3 hPa 0,0 mm 0,0 km/h (0 Bft) NO 36 ° 0 min 0,000 mm 0,0 UV-I 33 W/m² 0,8 °C 4,9 °C 0,0 km/h (0 Bft)
24.11.2017 10:06 4,9 °C 4,9 °C 75 % 1015,3 hPa 0,0 mm 0,1 km/h (0 Bft) NO 36 ° 0 min 0,000 mm 0,0 UV-I 33 W/m² 0,8 °C 4,9 °C 1,6 km/h (1 Bft)
24.11.2017 10:07 5,0 °C 5,0 °C 74 % 1015,3 hPa 0,0 mm 0,5 km/h (0 Bft) NO 36 ° 0 min 0,000 mm 0,0 UV-I 33 W/m² 0,8 °C 5,0 °C 1,6 km/h (1 Bft)
24.11.2017 10:08 5,1 °C 5,1 °C 74 % 1015,3 hPa 0,0 mm 0,5 km/h (0 Bft) NO 36 ° 0 min 0,000 mm 0,0 UV-I 33 W/m² 0,9 °C 5,1 °C 1,6 km/h (1 Bft)
24.11.2017 10:09 5,1 °C 5,1 °C 74 % 1015,3 hPa 0,0 mm 0,0 km/h (0 Bft) NO 36 ° 0 min 0,000 mm 0,0 UV-I 33 W/m² 0,9 °C 5,1 °C 0,0 km/h (0 Bft)
24.11.2017 10:10 5,2 °C 5,2 °C 73 % 1015,4 hPa 0,0 mm 0,8 km/h (0 Bft) NO 36 ° 0 min 0,000 mm 0,0 UV-I 33 W/m² 0,8 °C 5,2 °C 3,2 km/h (1 Bft)
24.11.2017 10:11 5,2 °C 5,2 °C 72 % 1015,4 hPa 0,0 mm 0,0 km/h (0 Bft) NO 36 ° 0 min 0,000 mm 0,0 UV-I 33 W/m² 0,6 °C 5,2 °C 0,0 km/h (0 Bft)
24.11.2017 10:12 5,3 °C 5,3 °C 73 % 1015,3 hPa 0,0 mm 0,0 km/h (0 Bft) NO 36 ° 0 min 0,000 mm 0,0 UV-I 33 W/m² 0,9 °C 5,3 °C 0,0 km/h (0 Bft)
24.11.2017 10:13 5,4 °C 5,4 °C 72 % 1015,4 hPa 0,0 mm 0,0 km/h (0 Bft) NO 36 ° 0 min 0,000 mm 0,0 UV-I 32 W/m² 0,8 °C 5,4 °C 0,0 km/h (0 Bft)
24.11.2017 10:14 5,4 °C 5,4 °C 73 % 1015,4 hPa 0,0 mm 0,0 km/h (0 Bft) NO 36 ° 0 min 0,000 mm 0,0 UV-I 32 W/m² 1,0 °C 5,4 °C 0,0 km/h (0 Bft)
24.11.2017 10:15 5,5 °C 5,5 °C 72 % 1015,4 hPa 0,0 mm 0,0 km/h (0 Bft) NO 36 ° 0 min 0,000 mm 0,0 UV-I 32 W/m² 0,9 °C 5,5 °C 0,0 km/h (0 Bft)
24.11.2017 10:16 5,6 °C 5,6 °C 72 % 1015,4 hPa 0,0 mm 0,0 km/h (0 Bft) NO 36 ° 0 min 0,000 mm 0,0 UV-I 33 W/m² 1,0 °C 5,6 °C 0,0 km/h (0 Bft)
24.11.2017 10:17 5,7 °C 5,7 °C 72 % 1015,4 hPa 0,0 mm 0,0 km/h (0 Bft) NO 36 ° 0 min 0,000 mm 0,0 UV-I 33 W/m² 1,1 °C 5,7 °C 0,0 km/h (0 Bft)
24.11.2017 10:19 5,8 °C 5,8 °C 72 % 1015,4 hPa 0,0 mm 1,6 km/h (1 Bft) NO 36 ° 0 min 0,000 mm 0,0 UV-I 32 W/m² 1,2 °C 5,8 °C 4,8 km/h (1 Bft)
24.11.2017 10:20 5,8 °C 5,8 °C 72 % 1015,4 hPa 0,0 mm 2,4 km/h (1 Bft) NO 36 ° 0 min 0,000 mm 0,0 UV-I 32 W/m² 1,2 °C 5,8 °C 6,4 km/h (2 Bft)
24.11.2017 10:21 5,9 °C 5,9 °C 71 % 1015,4 hPa 0,0 mm 0,8 km/h (0 Bft) NO 36 ° 0 min 0,000 mm 0,0 UV-I 32 W/m² 1,1 °C 5,9 °C 3,2 km/h (1 Bft)
24.11.2017 10:22 6,0 °C 6,0 °C 71 % 1015,4 hPa 0,0 mm 3,0 km/h (1 Bft) O-NO 77 ° 0 min 0,000 mm 0,0 UV-I 32 W/m² 1,1 °C 6,0 °C 4,8 km/h (1 Bft)
24.11.2017 10:23 6,2 °C 6,2 °C 71 % 1015,5 hPa 0,0 mm 0,4 km/h (0 Bft) O-NO 77 ° 0 min 0,000 mm 0,0 UV-I 32 W/m² 1,3 °C 6,2 °C 1,6 km/h (1 Bft)
24.11.2017 10:24 6,2 °C 6,2 °C 71 % 1015,5 hPa 0,0 mm 0,0 km/h (0 Bft) O-NO 77 ° 0 min 0,000 mm 0,0 UV-I 32 W/m² 1,3 °C 6,2 °C 0,0 km/h (0 Bft)
24.11.2017 10:25 6,3 °C 6,3 °C 71 % 1015,5 hPa 0,0 mm 0,0 km/h (0 Bft) O-NO 77 ° 0 min 0,000 mm 0,0 UV-I 32 W/m² 1,4 °C 6,3 °C 0,0 km/h (0 Bft)
24.11.2017 10:26 6,3 °C 6,3 °C 70 % 1015,5 hPa 0,0 mm 0,0 km/h (0 Bft) O-NO 77 ° 0 min 0,000 mm 0,0 UV-I 33 W/m² 1,2 °C 6,3 °C 0,0 km/h (0 Bft)
24.11.2017 10:27 6,4 °C 6,4 °C 70 % 1015,5 hPa 0,0 mm 0,0 km/h (0 Bft) O-NO 77 ° 0 min 0,000 mm 0,0 UV-I 33 W/m² 1,3 °C 6,4 °C 0,0 km/h (0 Bft)
24.11.2017 10:28 6,4 °C 6,4 °C 70 % 1015,4 hPa 0,0 mm 0,0 km/h (0 Bft) O-NO 77 ° 0 min 0,000 mm 0,0 UV-I 33 W/m² 1,3 °C 6,4 °C 0,0 km/h (0 Bft)
24.11.2017 10:29 6,5 °C 6,5 °C 70 % 1015,4 hPa 0,0 mm 0,0 km/h (0 Bft) O-NO 77 ° 0 min 0,000 mm 0,0 UV-I 33 W/m² 1,4 °C 6,5 °C 0,0 km/h (0 Bft)
24.11.2017 10:30 6,6 °C 6,6 °C 70 % 1015,3 hPa 0,0 mm 0,0 km/h (0 Bft) O-NO 77 ° 0 min 0,000 mm 0,0 UV-I 35 W/m² 1,5 °C 6,6 °C 0,0 km/h (0 Bft)
24.11.2017 10:31 6,7 °C 6,7 °C 70 % 1015,4 hPa 0,0 mm 0,0 km/h (0 Bft) O-NO 77 ° 0 min 0,000 mm 0,0 UV-I 35 W/m² 1,6 °C 6,7 °C 0,0 km/h (0 Bft)
24.11.2017 10:32 6,7 °C 6,7 °C 69 % 1015,4 hPa 0,0 mm 0,0 km/h (0 Bft) O-NO 77 ° 0 min 0,000 mm 0,0 UV-I 37 W/m² 1,4 °C 6,7 °C 0,0 km/h (0 Bft)
24.11.2017 10:33 6,8 °C 6,8 °C 69 % 1015,3 hPa 0,0 mm 0,0 km/h (0 Bft) O-NO 77 ° 0 min 0,000 mm 0,0 UV-I 37 W/m² 1,5 °C 6,8 °C 0,0 km/h (0 Bft)
24.11.2017 10:34 6,8 °C 6,8 °C 68 % 1015,3 hPa 0,0 mm 0,0 km/h (0 Bft) O-NO 77 ° 0 min 0,000 mm 0,0 UV-I 39 W/m² 1,3 °C 6,8 °C 0,0 km/h (0 Bft)
24.11.2017 10:35 6,8 °C 6,8 °C 68 % 1015,3 hPa 0,0 mm 0,0 km/h (0 Bft) O-NO 77 ° 0 min 0,000 mm 0,0 UV-I 39 W/m² 1,3 °C 6,8 °C 0,0 km/h (0 Bft)
24.11.2017 10:36 6,9 °C 6,9 °C 68 % 1015,3 hPa 0,0 mm 0,0 km/h (0 Bft) O-NO 77 ° 0 min 0,000 mm 0,0 UV-I 39 W/m² 1,4 °C 6,9 °C 0,0 km/h (0 Bft)
24.11.2017 10:37 6,9 °C 6,9 °C 68 % 1015,3 hPa 0,0 mm 0,0 km/h (0 Bft) O-NO 77 ° 0 min 0,000 mm 0,0 UV-I 37 W/m² 1,4 °C 6,9 °C 0,0 km/h (0 Bft)
24.11.2017 10:38 7,0 °C 7,0 °C 67 % 1015,3 hPa 0,0 mm 0,0 km/h (0 Bft) O-NO 77 ° 0 min 0,000 mm 0,0 UV-I 37 W/m² 1,3 °C 7,0 °C 0,0 km/h (0 Bft)
24.11.2017 10:39 7,1 °C 7,1 °C 67 % 1015,3 hPa 0,0 mm 0,0 km/h (0 Bft) O-NO 77 ° 0 min 0,000 mm 0,0 UV-I 37 W/m² 1,4 °C 7,1 °C 0,0 km/h (0 Bft)
24.11.2017 10:40 7,1 °C 7,1 °C 68 % 1015,3 hPa 0,0 mm 0,0 km/h (0 Bft) O-NO 77 ° 0 min 0,000 mm 0,0 UV-I 37 W/m² 1,6 °C 7,1 °C 0,0 km/h (0 Bft)
24.11.2017 10:41 7,2 °C 7,2 °C 68 % 1015,3 hPa 0,0 mm 0,0 km/h (0 Bft) O-NO 77 ° 0 min 0,000 mm 0,0 UV-I 37 W/m² 1,7 °C 7,2 °C 0,0 km/h (0 Bft)
24.11.2017 10:42 7,2 °C 7,2 °C 68 % 1015,3 hPa 0,0 mm 0,0 km/h (0 Bft) O-NO 77 ° 0 min 0,000 mm 0,0 UV-I 37 W/m² 1,7 °C 7,2 °C 0,0 km/h (0 Bft)
24.11.2017 10:43 7,2 °C 7,2 °C 67 % 1015,3 hPa 0,0 mm 0,0 km/h (0 Bft) O-NO 77 ° 0 min 0,000 mm 0,0 UV-I 37 W/m² 1,5 °C 7,2 °C 0,0 km/h (0 Bft)
24.11.2017 10:44 7,3 °C 7,3 °C 67 % 1015,3 hPa 0,0 mm 0,0 km/h (0 Bft) O-NO 77 ° 0 min 0,000 mm 0,0 UV-I 37 W/m² 1,6 °C 7,3 °C 0,0 km/h (0 Bft)
24.11.2017 10:45 7,3 °C 7,3 °C 67 % 1015,3 hPa 0,0 mm 0,9 km/h (0 Bft) O-NO 77 ° 0 min 0,000 mm 0,0 UV-I 37 W/m² 1,6 °C 7,3 °C 1,6 km/h (1 Bft)
24.11.2017 10:46 7,3 °C 7,3 °C 67 % 1015,2 hPa 0,0 mm 1,5 km/h (1 Bft) O-NO 70 ° 0 min 0,000 mm 0,0 UV-I 39 W/m² 1,6 °C 7,3 °C 3,2 km/h (1 Bft)
24.11.2017 10:47 7,4 °C 7,4 °C 67 % 1015,2 hPa 0,0 mm 0,3 km/h (0 Bft) O-NO 70 ° 0 min 0,000 mm 0,0 UV-I 40 W/m² 1,7 °C 7,4 °C 1,6 km/h (1 Bft)
24.11.2017 10:48 7,4 °C 7,4 °C 66 % 1015,2 hPa 0,0 mm 1,1 km/h (1 Bft) O-NO 69 ° 0 min 0,000 mm 0,0 UV-I 40 W/m² 1,5 °C 7,4 °C 4,8 km/h (1 Bft)
24.11.2017 10:49 7,5 °C 7,5 °C 66 % 1015,2 hPa 0,0 mm 1,0 km/h (0 Bft) O-NO 69 ° 0 min 0,000 mm 0,0 UV-I 40 W/m² 1,6 °C 7,5 °C 3,2 km/h (1 Bft)
24.11.2017 10:50 7,6 °C 7,6 °C 66 % 1015,2 hPa 0,0 mm 0,1 km/h (0 Bft) O-NO 69 ° 0 min 0,000 mm 0,0 UV-I 40 W/m² 1,7 °C 7,6 °C 1,6 km/h (1 Bft)
24.11.2017 10:51 7,6 °C 7,6 °C 66 % 1015,2 hPa 0,0 mm 0,0 km/h (0 Bft) O-NO 69 ° 0 min 0,000 mm 0,0 UV-I 40 W/m² 1,7 °C 7,6 °C 0,0 km/h (0 Bft)
24.11.2017 10:52 7,7 °C 7,7 °C 66 % 1015,1 hPa 0,0 mm 0,8 km/h (0 Bft) O-NO 69 ° 0 min 0,000 mm 0,0 UV-I 42 W/m² 1,8 °C 7,7 °C 3,2 km/h (1 Bft)
24.11.2017 10:53 7,7 °C 7,7 °C 65 % 1015,1 hPa 0,0 mm 0,0 km/h (0 Bft) O-NO 69 ° 0 min 0,000 mm 0,0 UV-I 44 W/m² 1,5 °C 7,7 °C 0,0 km/h (0 Bft)
24.11.2017 10:54 7,7 °C 7,7 °C 66 % 1015,1 hPa 0,0 mm 0,6 km/h (0 Bft) O-NO 69 ° 0 min 0,000 mm 0,0 UV-I 46 W/m² 1,8 °C 7,7 °C 3,2 km/h (1 Bft)
24.11.2017 10:55 7,8 °C 7,8 °C 66 % 1015,0 hPa 0,0 mm 1,0 km/h (0 Bft) O-NO 69 ° 0 min 0,000 mm 0,0 UV-I 51 W/m² 1,9 °C 7,8 °C 3,2 km/h (1 Bft)
24.11.2017 10:56 7,8 °C 7,8 °C 65 % 1015,0 hPa 0,0 mm 0,0 km/h (0 Bft) O-NO 69 ° 0 min 0,000 mm 0,0 UV-I 54 W/m² 1,6 °C 7,8 °C 0,0 km/h (0 Bft)
24.11.2017 10:57 7,8 °C 7,8 °C 65 % 1015,0 hPa 0,0 mm 0,0 km/h (0 Bft) O-NO 69 ° 0 min 0,000 mm 1,1 UV-I 58 W/m² 1,6 °C 7,8 °C 0,0 km/h (0 Bft)
24.11.2017 10:58 7,9 °C 7,9 °C 65 % 1015,0 hPa 0,0 mm 0,0 km/h (0 Bft) O-NO 69 ° 0 min 0,000 mm 1,1 UV-I 62 W/m² 1,7 °C 7,9 °C 0,0 km/h (0 Bft)
24.11.2017 10:59 7,9 °C 7,9 °C 65 % 1015,0 hPa 0,0 mm 0,0 km/h (0 Bft) O-NO 69 ° 0 min 0,000 mm 1,1 UV-I 65 W/m² 1,7 °C 7,9 °C 0,0 km/h (0 Bft)
24.11.2017 11:00 7,9 °C 7,9 °C 65 % 1015,0 hPa 0,0 mm 0,4 km/h (0 Bft) O-NO 69 ° 0 min 0,025 mm 1,1 UV-I 69 W/m² 1,7 °C 7,9 °C 1,6 km/h (1 Bft)
24.11.2017 11:01 8,0 °C 8,0 °C 65 % 1015,0 hPa 0,0 mm 1,0 km/h (0 Bft) N 355 ° 0 min 0,000 mm 1,1 UV-I 77 W/m² 1,8 °C 8,0 °C 6,4 km/h (2 Bft)
24.11.2017 11:02 8,1 °C 8,1 °C 65 % 1014,9 hPa 0,0 mm 2,5 km/h (1 Bft) SO 142 ° 0 min 0,000 mm 1,1 UV-I 81 W/m² 1,9 °C 8,1 °C 8,0 km/h (2 Bft)
24.11.2017 11:03 8,1 °C 8,1 °C 65 % 1014,9 hPa 0,0 mm 0,0 km/h (0 Bft) SO 142 ° 0 min 0,000 mm 1,1 UV-I 83 W/m² 1,9 °C 8,1 °C 0,0 km/h (0 Bft)
24.11.2017 11:04 8,2 °C 8,2 °C 65 % 1014,9 hPa 0,0 mm 0,0 km/h (0 Bft) SO 142 ° 0 min 0,000 mm 1,1 UV-I 84 W/m² 2,0 °C 8,2 °C 0,0 km/h (0 Bft)
24.11.2017 11:05 8,6 °C 8,6 °C 62 % 1014,9 hPa 0,0 mm 0,0 km/h (0 Bft) SO 142 ° 0 min 0,000 mm 1,1 UV-I 86 W/m² 1,7 °C 8,6 °C 0,0 km/h (0 Bft)
24.11.2017 11:06 9,1 °C 9,1 °C 60 % 1014,9 hPa 0,0 mm 1,8 km/h (1 Bft) O-SO 109 ° 0 min 0,000 mm 1,1 UV-I 86 W/m² 1,8 °C 9,1 °C 6,4 km/h (2 Bft)
24.11.2017 11:07 9,6 °C 9,6 °C 61 % 1015,0 hPa 0,0 mm 1,1 km/h (1 Bft) O-SO 109 ° 0 min 0,000 mm 1,1 UV-I 83 W/m² 2,5 °C 9,6 °C 1,6 km/h (1 Bft)
24.11.2017 11:08 10,0 °C 10,0 °C 59 % 1014,9 hPa 0,0 mm 1,0 km/h (0 Bft) N 360 ° 0 min 0,000 mm 1,1 UV-I 81 W/m² 2,4 °C 10,0 °C 4,8 km/h (1 Bft)
24.11.2017 11:09 10,3 °C 10,3 °C 58 % 1014,9 hPa 0,0 mm 1,3 km/h (1 Bft) NO 50 ° 0 min 0,000 mm 1,1 UV-I 79 W/m² 2,4 °C 10,3 °C 4,8 km/h (1 Bft)
24.11.2017 11:10 10,5 °C 10,5 °C 57 % 1014,9 hPa 0,0 mm 0,3 km/h (0 Bft) NO 50 ° 0 min 0,000 mm 1,1 UV-I 77 W/m² 2,3 °C 10,5 °C 1,6 km/h (1 Bft)
24.11.2017 11:11 10,7 °C 10,7 °C 56 % 1014,9 hPa 0,0 mm 0,9 km/h (0 Bft) NO 50 ° 0 min 0,000 mm 1,1 UV-I 76 W/m² 2,3 °C 10,7 °C 3,2 km/h (1 Bft)
24.11.2017 11:12 10,8 °C 10,8 °C 54 % 1014,9 hPa 0,0 mm 1,0 km/h (0 Bft) NO 50 ° 0 min 0,000 mm 1,0 UV-I 74 W/m² 1,9 °C 10,8 °C 3,2 km/h (1 Bft)
24.11.2017 11:13 11,0 °C 11,0 °C 53 % 1014,8 hPa 0,0 mm 0,0 km/h (0 Bft) NO 50 ° 0 min 0,000 mm 1,0 UV-I 70 W/m² 1,8 °C 11,0 °C 0,0 km/h (0 Bft)
24.11.2017 11:14 11,1 °C 11,1 °C 53 % 1014,8 hPa 0,0 mm 1,4 km/h (1 Bft) NO 50 ° 0 min 0,000 mm 1,0 UV-I 69 W/m² 1,9 °C 11,1 °C 3,2 km/h (1 Bft)
24.11.2017 11:15 11,2 °C 11,2 °C 53 % 1014,8 hPa 0,0 mm 2,6 km/h (1 Bft) O 95 ° 0 min 0,000 mm 1,0 UV-I 67 W/m² 2,0 °C 11,2 °C 4,8 km/h (1 Bft)
24.11.2017 11:16 11,2 °C 11,2 °C 54 % 1014,8 hPa 0,0 mm 0,4 km/h (0 Bft) O 95 ° 0 min 0,000 mm 1,1 UV-I 67 W/m² 2,2 °C 11,2 °C 1,6 km/h (1 Bft)
24.11.2017 11:17 11,3 °C 11,3 °C 53 % 1014,8 hPa 0,0 mm 0,0 km/h (0 Bft) O 95 ° 0 min 0,000 mm 1,1 UV-I 65 W/m² 2,1 °C 11,3 °C 0,0 km/h (0 Bft)
24.11.2017 11:18 11,3 °C 11,4 °C 53 % 1014,8 hPa 0,0 mm 1,1 km/h (1 Bft) O 87 ° 0 min 0,000 mm 1,1 UV-I 62 W/m² 2,1 °C 11,3 °C 3,2 km/h (1 Bft)
24.11.2017 11:19 11,3 °C 11,3 °C 53 % 1014,8 hPa 0,0 mm 0,5 km/h (0 Bft) O 87 ° 0 min 0,000 mm 1,1 UV-I 62 W/m² 2,1 °C 11,3 °C 1,6 km/h (1 Bft)
24.11.2017 11:20 11,3 °C 11,3 °C 52 % 1014,8 hPa 0,0 mm 0,3 km/h (0 Bft) O 87 ° 0 min 0,000 mm 1,1 UV-I 63 W/m² 1,8 °C 11,3 °C 1,6 km/h (1 Bft)
24.11.2017 11:21 11,3 °C 11,3 °C 54 % 1014,8 hPa 0,0 mm 1,2 km/h (1 Bft) N-NO 28 ° 0 min 0,000 mm 1,1 UV-I 63 W/m² 2,3 °C 11,3 °C 3,2 km/h (1 Bft)
24.11.2017 11:22 11,3 °C 11,3 °C 54 % 1014,8 hPa 0,0 mm 1,9 km/h (1 Bft) N 9 ° 0 min 0,000 mm 1,1 UV-I 65 W/m² 2,3 °C 11,3 °C 4,8 km/h (1 Bft)
24.11.2017 11:23 11,3 °C 11,3 °C 54 % 1014,8 hPa 0,0 mm 0,8 km/h (0 Bft) N 355 ° 0 min 0,000 mm 1,1 UV-I 67 W/m² 2,3 °C 11,3 °C 1,6 km/h (1 Bft)
24.11.2017 11:24 11,4 °C 11,4 °C 53 % 1014,8 hPa 0,0 mm 0,5 km/h (0 Bft) N 355 ° 0 min 0,000 mm 1,1 UV-I 69 W/m² 2,2 °C 11,4 °C 3,2 km/h (1 Bft)
24.11.2017 11:25 11,4 °C 11,4 °C 53 % 1014,7 hPa 0,0 mm 0,5 km/h (0 Bft) N 355 ° 0 min 0,000 mm 1,1 UV-I 74 W/m² 2,2 °C 11,4 °C 3,2 km/h (1 Bft)
24.11.2017 11:26 11,5 °C 11,5 °C 52 % 1014,8 hPa 0,0 mm 0,6 km/h (0 Bft) N 355 ° 0 min 0,000 mm 1,1 UV-I 76 W/m² 2,0 °C 11,5 °C 3,2 km/h (1 Bft)
24.11.2017 11:27 11,6 °C 11,6 °C 52 % 1014,8 hPa 0,0 mm 0,0 km/h (0 Bft) N 355 ° 0 min 0,000 mm 1,1 UV-I 79 W/m² 2,1 °C 11,6 °C 0,0 km/h (0 Bft)
24.11.2017 11:28 11,6 °C 11,6 °C 51 % 1014,7 hPa 0,0 mm 2,2 km/h (1 Bft) O 86 ° 0 min 0,000 mm 1,1 UV-I 83 W/m² 1,8 °C 11,6 °C 8,0 km/h (2 Bft)
24.11.2017 11:29 11,6 °C 11,6 °C 50 % 1014,7 hPa 0,0 mm 1,6 km/h (1 Bft) O-SO 106 ° 0 min 0,000 mm 1,1 UV-I 86 W/m² 1,5 °C 11,6 °C 3,2 km/h (1 Bft)
24.11.2017 11:30 11,7 °C 11,7 °C 50 % 1014,8 hPa 0,0 mm 0,7 km/h (0 Bft) O 86 ° 0 min 0,000 mm 1,1 UV-I 90 W/m² 1,6 °C 11,7 °C 1,6 km/h (1 Bft)
24.11.2017 11:31 11,7 °C 11,7 °C 51 % 1014,8 hPa 0,0 mm 0,5 km/h (0 Bft) O-NO 77 ° 0 min 0,000 mm 1,1 UV-I 98 W/m² 1,9 °C 11,7 °C 3,2 km/h (1 Bft)
24.11.2017 11:32 11,8 °C 11,8 °C 51 % 1014,8 hPa 0,0 mm 1,0 km/h (0 Bft) O-NO 76 ° 0 min 0,000 mm 1,1 UV-I 104 W/m² 2,0 °C 11,8 °C 3,2 km/h (1 Bft)
24.11.2017 11:33 11,8 °C 11,8 °C 50 % 1014,8 hPa 0,0 mm 1,3 km/h (1 Bft) O-NO 60 ° 0 min 0,000 mm 1,2 UV-I 109 W/m² 1,7 °C 11,8 °C 6,4 km/h (2 Bft)
24.11.2017 11:34 11,8 °C 11,8 °C 50 % 1014,8 hPa 0,0 mm 0,2 km/h (0 Bft) O-NO 61 ° 0 min 0,000 mm 1,2 UV-I 114 W/m² 1,7 °C 11,8 °C 1,6 km/h (1 Bft)
24.11.2017 11:35 11,9 °C 11,9 °C 52 % 1014,8 hPa 0,0 mm 0,7 km/h (0 Bft) O-NO 61 ° 0 min 0,000 mm 1,2 UV-I 118 W/m² 2,4 °C 11,9 °C 1,6 km/h (1 Bft)
24.11.2017 11:36 11,9 °C 11,9 °C 49 % 1014,7 hPa 0,0 mm 0,0 km/h (0 Bft) O-NO 61 ° 0 min 0,000 mm 1,2 UV-I 121 W/m² 1,5 °C 11,9 °C 0,0 km/h (0 Bft)
24.11.2017 11:37 12,0 °C 12,0 °C 51 % 1014,7 hPa 0,0 mm 0,5 km/h (0 Bft) O-NO 61 ° 0 min 0,000 mm 1,1 UV-I 120 W/m² 2,2 °C 12,0 °C 3,2 km/h (1 Bft)
24.11.2017 11:38 12,1 °C 12,1 °C 49 % 1014,7 hPa 0,0 mm 2,4 km/h (1 Bft) O-NO 61 ° 0 min 0,000 mm 1,1 UV-I 120 W/m² 1,7 °C 12,1 °C 4,8 km/h (1 Bft)
24.11.2017 11:39 12,1 °C 12,1 °C 50 % 1014,7 hPa 0,0 mm 0,7 km/h (0 Bft) O-NO 61 ° 0 min 0,000 mm 1,1 UV-I 120 W/m² 2,0 °C 12,1 °C 3,2 km/h (1 Bft)
24.11.2017 11:40 12,2 °C 12,2 °C 52 % 1014,7 hPa 0,0 mm 2,7 km/h (1 Bft) S-SO 161 ° 0 min 0,000 mm 1,1 UV-I 121 W/m² 2,6 °C 12,2 °C 4,8 km/h (1 Bft)
24.11.2017 11:41 12,2 °C 12,2 °C 51 % 1014,6 hPa 0,0 mm 0,4 km/h (0 Bft) S-SO 161 ° 0 min 0,000 mm 1,1 UV-I 121 W/m² 2,4 °C 12,2 °C 1,6 km/h (1 Bft)
24.11.2017 11:42 12,2 °C 12,2 °C 49 % 1014,7 hPa 0,0 mm 0,0 km/h (0 Bft) S-SO 161 ° 0 min 0,000 mm 1,1 UV-I 123 W/m² 1,8 °C 12,2 °C 0,0 km/h (0 Bft)
24.11.2017 11:43 12,4 °C 12,4 °C 47 % 1014,7 hPa 0,0 mm 0,0 km/h (0 Bft) S-SO 161 ° 0 min 0,000 mm 1,1 UV-I 120 W/m² 1,4 °C 12,4 °C 0,0 km/h (0 Bft)
24.11.2017 11:44 12,4 °C 12,4 °C 51 % 1014,7 hPa 0,0 mm 0,0 km/h (0 Bft) S-SO 161 ° 0 min 0,000 mm 1,1 UV-I 116 W/m² 2,6 °C 12,4 °C 0,0 km/h (0 Bft)
24.11.2017 11:45 12,4 °C 12,4 °C 51 % 1014,7 hPa 0,0 mm 0,0 km/h (0 Bft) S-SO 161 ° 0 min 0,000 mm 1,1 UV-I 111 W/m² 2,6 °C 12,4 °C 0,0 km/h (0 Bft)
24.11.2017 11:46 12,4 °C 12,4 °C 49 % 1014,6 hPa 0,0 mm 0,1 km/h (0 Bft) S-SO 161 ° 0 min 0,000 mm 1,1 UV-I 105 W/m² 2,0 °C 12,4 °C 1,6 km/h (1 Bft)
24.11.2017 11:47 12,4 °C 12,4 °C 51 % 1014,7 hPa 0,0 mm 0,0 km/h (0 Bft) S-SO 161 ° 0 min 0,000 mm 1,1 UV-I 102 W/m² 2,6 °C 12,4 °C 0,0 km/h (0 Bft)
24.11.2017 11:48 12,4 °C 12,4 °C 50 % 1014,7 hPa 0,0 mm 0,3 km/h (0 Bft) S-SO 161 ° 0 min 0,000 mm 1,0 UV-I 91 W/m² 2,3 °C 12,4 °C 1,6 km/h (1 Bft)
24.11.2017 11:49 12,4 °C 12,4 °C 50 % 1014,7 hPa 0,0 mm 0,0 km/h (0 Bft) S-SO 161 ° 0 min 0,000 mm 1,0 UV-I 88 W/m² 2,3 °C 12,4 °C 0,0 km/h (0 Bft)
24.11.2017 11:50 12,4 °C 12,4 °C 50 % 1014,6 hPa 0,0 mm 0,0 km/h (0 Bft) S-SO 161 ° 0 min 0,000 mm 1,0 UV-I 84 W/m² 2,3 °C 12,4 °C 0,0 km/h (0 Bft)
24.11.2017 11:51 12,4 °C 12,4 °C 50 % 1014,6 hPa 0,0 mm 0,0 km/h (0 Bft) S-SO 161 ° 0 min 0,000 mm 1,0 UV-I 81 W/m² 2,3 °C 12,4 °C 0,0 km/h (0 Bft)
24.11.2017 11:52 12,3 °C 12,4 °C 50 % 1014,7 hPa 0,0 mm 0,6 km/h (0 Bft) W 265 ° 0 min 0,000 mm 1,0 UV-I 79 W/m² 2,2 °C 12,3 °C 3,2 km/h (1 Bft)
24.11.2017 11:53 12,3 °C 12,4 °C 50 % 1014,7 hPa 0,0 mm 4,4 km/h (1 Bft) W-SW 254 ° 0 min 0,000 mm 1,0 UV-I 76 W/m² 2,2 °C 12,3 °C 6,4 km/h (2 Bft)
24.11.2017 11:54 12,4 °C 12,4 °C 48 % 1014,7 hPa 0,0 mm 7,6 km/h (2 Bft) W 271 ° 0 min 0,000 mm 1,0 UV-I 72 W/m² 1,7 °C 12,4 °C 11,3 km/h (2 Bft)
24.11.2017 11:55 12,6 °C 12,6 °C 46 % 1014,8 hPa 0,0 mm 10,2 km/h (2 Bft) W 271 ° 0 min 0,000 mm 1,0 UV-I 69 W/m² 1,3 °C 12,6 °C 12,9 km/h (3 Bft)
24.11.2017 11:56 12,7 °C 12,7 °C 47 % 1014,8 hPa 0,0 mm 6,6 km/h (2 Bft) W 269 ° 0 min 0,000 mm 1,0 UV-I 67 W/m² 1,7 °C 12,7 °C 9,7 km/h (2 Bft)
24.11.2017 11:57 12,8 °C 12,8 °C 47 % 1014,8 hPa 0,0 mm 4,7 km/h (1 Bft) W 265 ° 0 min 0,000 mm 1,1 UV-I 65 W/m² 1,8 °C 12,8 °C 9,7 km/h (2 Bft)
24.11.2017 11:58 12,8 °C 12,8 °C 48 % 1014,8 hPa 0,0 mm 3,6 km/h (1 Bft) W-SW 253 ° 0 min 0,000 mm 1,1 UV-I 62 W/m² 2,1 °C 12,8 °C 4,8 km/h (1 Bft)
24.11.2017 11:59 12,8 °C 12,8 °C 49 % 1014,8 hPa 0,0 mm 3,4 km/h (1 Bft) W-SW 244 ° 0 min 0,000 mm 1,1 UV-I 60 W/m² 2,4 °C 12,8 °C 4,8 km/h (1 Bft)
24.11.2017 12:00 12,8 °C 12,8 °C 50 % 1014,8 hPa 0,0 mm 3,4 km/h (1 Bft) W 260 ° 0 min 0,000 mm 1,1 UV-I 58 W/m² 2,6 °C 12,8 °C 6,4 km/h (2 Bft)
24.11.2017 12:01 12,8 °C 12,9 °C 53 % 1014,7 hPa 0,0 mm 4,3 km/h (1 Bft) SW 236 ° 0 min 0,051 mm 1,1 UV-I 56 W/m² 3,5 °C 12,8 °C 8,0 km/h (2 Bft)
24.11.2017 12:02 12,8 °C 12,9 °C 54 % 1014,7 hPa 0,0 mm 4,3 km/h (1 Bft) W-SW 242 ° 0 min 0,000 mm 1,1 UV-I 56 W/m² 3,7 °C 12,8 °C 6,4 km/h (2 Bft)
24.11.2017 12:03 12,8 °C 12,8 °C 55 % 1014,8 hPa 0,0 mm 1,9 km/h (1 Bft) W-SW 242 ° 0 min 0,000 mm 0,0 UV-I 54 W/m² 4,0 °C 12,8 °C 3,2 km/h (1 Bft)
24.11.2017 12:04 12,8 °C 12,8 °C 54 % 1014,8 hPa 0,0 mm 3,0 km/h (1 Bft) W-SW 242 ° 0 min 0,000 mm 0,0 UV-I 54 W/m² 3,7 °C 12,8 °C 4,8 km/h (1 Bft)
24.11.2017 12:05 12,7 °C 12,8 °C 55 % 1014,7 hPa 0,0 mm 2,4 km/h (1 Bft) W 279 ° 0 min 0,000 mm 0,0 UV-I 54 W/m² 3,9 °C 12,7 °C 6,4 km/h (2 Bft)
24.11.2017 12:06 12,6 °C 12,7 °C 56 % 1014,7 hPa 0,0 mm 1,5 km/h (1 Bft) W 279 ° 0 min 0,000 mm 0,0 UV-I 56 W/m² 4,1 °C 12,6 °C 3,2 km/h (1 Bft)
24.11.2017 12:07 12,5 °C 12,6 °C 57 % 1014,7 hPa 0,0 mm 4,5 km/h (1 Bft) W 268 ° 0 min 0,000 mm 1,1 UV-I 56 W/m² 4,2 °C 12,5 °C 9,7 km/h (2 Bft)
24.11.2017 12:08 12,4 °C 12,5 °C 58 % 1014,7 hPa 0,0 mm 5,9 km/h (2 Bft) W 270 ° 0 min 0,000 mm 1,1 UV-I 56 W/m² 4,4 °C 12,4 °C 9,7 km/h (2 Bft)
24.11.2017 12:09 12,3 °C 12,4 °C 58 % 1014,7 hPa 0,0 mm 7,5 km/h (2 Bft) W-SW 240 ° 0 min 0,000 mm 1,1 UV-I 56 W/m² 4,3 °C 12,3 °C 11,3 km/h (2 Bft)
24.11.2017 12:10 12,2 °C 12,3 °C 56 % 1014,7 hPa 0,0 mm 4,0 km/h (1 Bft) W-SW 240 ° 0 min 0,000 mm 1,1 UV-I 56 W/m² 3,7 °C 12,2 °C 6,4 km/h (2 Bft)
24.11.2017 12:11 12,2 °C 12,2 °C 55 % 1014,7 hPa 0,0 mm 3,2 km/h (1 Bft) W-SW 239 ° 0 min 0,000 mm 1,1 UV-I 56 W/m² 3,4 °C 12,2 °C 4,8 km/h (1 Bft)
24.11.2017 12:12 12,2 °C 12,2 °C 54 % 1014,7 hPa 0,0 mm 3,3 km/h (1 Bft) W 260 ° 0 min 0,000 mm 1,1 UV-I 56 W/m² 3,2 °C 12,2 °C 4,8 km/h (1 Bft)
24.11.2017 12:13 12,2 °C 12,2 °C 54 % 1014,7 hPa 0,0 mm 4,8 km/h (1 Bft) W 263 ° 0 min 0,000 mm 1,1 UV-I 58 W/m² 3,2 °C 12,2 °C 9,7 km/h (2 Bft)
24.11.2017 12:14 12,2 °C 12,2 °C 53 % 1014,8 hPa 0,0 mm 10,1 km/h (2 Bft) W 259 ° 0 min 0,000 mm 1,1 UV-I 60 W/m² 2,9 °C 12,2 °C 12,9 km/h (3 Bft)
24.11.2017 12:15 12,1 °C 12,2 °C 55 % 1014,8 hPa 0,0 mm 7,0 km/h (2 Bft) W-SW 254 ° 0 min 0,000 mm 1,1 UV-I 63 W/m² 3,3 °C 12,1 °C 11,3 km/h (2 Bft)
24.11.2017 12:16 12,1 °C 12,1 °C 55 % 1014,8 hPa 0,0 mm 6,2 km/h (2 Bft) W-SW 247 ° 0 min 0,000 mm 1,1 UV-I 67 W/m² 3,3 °C 12,1 °C 9,7 km/h (2 Bft)
24.11.2017 12:17 12,1 °C 12,1 °C 55 % 1014,8 hPa 0,0 mm 3,7 km/h (1 Bft) W-SW 255 ° 0 min 0,000 mm 1,1 UV-I 72 W/m² 3,3 °C 12,1 °C 4,8 km/h (1 Bft)
24.11.2017 12:18 12,1 °C 12,1 °C 54 % 1014,7 hPa 0,0 mm 2,9 km/h (1 Bft) W-SW 258 ° 0 min 0,000 mm 1,1 UV-I 77 W/m² 3,1 °C 12,1 °C 6,4 km/h (2 Bft)
24.11.2017 12:19 12,1 °C 12,1 °C 54 % 1014,7 hPa 0,0 mm 3,1 km/h (1 Bft) W-SW 255 ° 0 min 0,000 mm 1,1 UV-I 79 W/m² 3,1 °C 12,1 °C 6,4 km/h (2 Bft)
24.11.2017 12:20 12,1 °C 12,1 °C 55 % 1014,6 hPa 0,0 mm 2,6 km/h (1 Bft) W-SW 255 ° 0 min 0,000 mm 1,1 UV-I 76 W/m² 3,3 °C 12,1 °C 4,8 km/h (1 Bft)
24.11.2017 12:21 12,1 °C 12,1 °C 55 % 1014,6 hPa 0,0 mm 1,2 km/h (1 Bft) W-SW 255 ° 0 min 0,000 mm 1,1 UV-I 77 W/m² 3,3 °C 12,1 °C 3,2 km/h (1 Bft)
24.11.2017 12:22 12,1 °C 12,1 °C 55 % 1014,7 hPa 0,0 mm 2,6 km/h (1 Bft) W-SW 255 ° 0 min 0,000 mm 1,1 UV-I 70 W/m² 3,3 °C 12,1 °C 3,2 km/h (1 Bft)
24.11.2017 12:23 12,1 °C 12,1 °C 55 % 1014,7 hPa 0,0 mm 2,8 km/h (1 Bft) W-NW 294 ° 0 min 0,000 mm 1,1 UV-I 62 W/m² 3,3 °C 12,1 °C 6,4 km/h (2 Bft)
24.11.2017 12:24 12,1 °C 12,1 °C 55 % 1014,7 hPa 0,0 mm 5,6 km/h (1 Bft) W-NW 302 ° 0 min 0,000 mm 1,1 UV-I 62 W/m² 3,3 °C 12,1 °C 12,9 km/h (3 Bft)
24.11.2017 12:25 12,1 °C 12,1 °C 54 % 1014,7 hPa 0,0 mm 3,3 km/h (1 Bft) NW 315 ° 0 min 0,000 mm 1,1 UV-I 60 W/m² 3,1 °C 12,1 °C 6,4 km/h (2 Bft)
24.11.2017 12:26 12,2 °C 12,2 °C 55 % 1014,7 hPa 0,0 mm 3,6 km/h (1 Bft) W-NW 293 ° 0 min 0,000 mm 1,1 UV-I 60 W/m² 3,4 °C 12,2 °C 9,7 km/h (2 Bft)
24.11.2017 12:27 12,2 °C 12,2 °C 56 % 1014,7 hPa 0,0 mm 3,4 km/h (1 Bft) W-NW 282 ° 0 min 0,000 mm 1,1 UV-I 58 W/m² 3,7 °C 12,2 °C 6,4 km/h (2 Bft)
24.11.2017 12:28 12,1 °C 12,2 °C 57 % 1014,7 hPa 0,0 mm 4,0 km/h (1 Bft) NW 310 ° 0 min 0,000 mm 1,1 UV-I 58 W/m² 3,8 °C 12,1 °C 6,4 km/h (2 Bft)
24.11.2017 12:29 12,1 °C 12,1 °C 57 % 1014,7 hPa 0,0 mm 2,7 km/h (1 Bft) NW 310 ° 0 min 0,000 mm 1,1 UV-I 56 W/m² 3,8 °C 12,1 °C 4,8 km/h (1 Bft)
24.11.2017 12:30 12,1 °C 12,1 °C 56 % 1014,8 hPa 0,0 mm 5,4 km/h (1 Bft) NW 304 ° 0 min 0,000 mm 0,0 UV-I 54 W/m² 3,6 °C 12,1 °C 8,0 km/h (2 Bft)
24.11.2017 12:31 12,0 °C 12,1 °C 55 % 1014,8 hPa 0,0 mm 7,2 km/h (2 Bft) W-NW 291 ° 0 min 0,000 mm 0,0 UV-I 54 W/m² 3,2 °C 12,0 °C 11,3 km/h (2 Bft)
24.11.2017 12:32 12,1 °C 12,1 °C 55 % 1014,8 hPa 0,0 mm 1,7 km/h (1 Bft) W-NW 291 ° 0 min 0,000 mm 0,0 UV-I 54 W/m² 3,3 °C 12,1 °C 3,2 km/h (1 Bft)
24.11.2017 12:33 12,1 °C 12,1 °C 56 % 1014,8 hPa 0,0 mm 3,0 km/h (1 Bft) W-NW 298 ° 0 min 0,000 mm 0,0 UV-I 54 W/m² 3,6 °C 12,1 °C 4,8 km/h (1 Bft)
24.11.2017 12:34 12,1 °C 12,1 °C 55 % 1014,8 hPa 0,0 mm 2,7 km/h (1 Bft) W-NW 286 ° 0 min 0,000 mm 0,0 UV-I 54 W/m² 3,3 °C 12,1 °C 6,4 km/h (2 Bft)
24.11.2017 12:35 12,2 °C 12,2 °C 55 % 1014,8 hPa 0,0 mm 4,8 km/h (1 Bft) NW 315 ° 0 min 0,000 mm 0,0 UV-I 54 W/m² 3,4 °C 12,2 °C 9,7 km/h (2 Bft)
24.11.2017 12:36 12,2 °C 12,2 °C 55 % 1014,8 hPa 0,0 mm 4,3 km/h (1 Bft) W-NW 286 ° 0 min 0,000 mm 0,0 UV-I 54 W/m² 3,4 °C 12,2 °C 6,4 km/h (2 Bft)
24.11.2017 12:37 12,2 °C 12,2 °C 55 % 1014,8 hPa 0,0 mm 5,7 km/h (1 Bft) W 261 ° 0 min 0,000 mm 0,0 UV-I 54 W/m² 3,4 °C 12,2 °C 8,0 km/h (2 Bft)
24.11.2017 12:38 12,2 °C 12,2 °C 56 % 1014,9 hPa 0,0 mm 6,2 km/h (2 Bft) W-NW 290 ° 0 min 0,000 mm 1,1 UV-I 56 W/m² 3,7 °C 12,2 °C 11,3 km/h (2 Bft)
24.11.2017 12:39 12,2 °C 12,2 °C 55 % 1014,9 hPa 0,0 mm 3,4 km/h (1 Bft) W-NW 293 ° 0 min 0,000 mm 1,1 UV-I 56 W/m² 3,4 °C 12,2 °C 6,4 km/h (2 Bft)
24.11.2017 12:40 12,2 °C 12,2 °C 57 % 1014,9 hPa 0,0 mm 3,4 km/h (1 Bft) W-NW 288 ° 0 min 0,000 mm 1,1 UV-I 56 W/m² 3,9 °C 12,2 °C 6,4 km/h (2 Bft)
24.11.2017 12:41 12,2 °C 12,2 °C 57 % 1014,8 hPa 0,0 mm 4,5 km/h (1 Bft) W-NW 297 ° 0 min 0,000 mm 1,1 UV-I 62 W/m² 3,9 °C 12,2 °C 6,4 km/h (2 Bft)
24.11.2017 12:42 12,1 °C 12,2 °C 56 % 1014,7 hPa 0,0 mm 3,4 km/h (1 Bft) W-NW 301 ° 0 min 0,000 mm 1,1 UV-I 63 W/m² 3,6 °C 12,1 °C 4,8 km/h (1 Bft)
24.11.2017 12:43 12,1 °C 12,1 °C 55 % 1014,7 hPa 0,0 mm 2,2 km/h (1 Bft) W-NW 301 ° 0 min 0,000 mm 1,1 UV-I 67 W/m² 3,3 °C 12,1 °C 3,2 km/h (1 Bft)
24.11.2017 12:44 12,2 °C 12,2 °C 56 % 1014,7 hPa 0,0 mm 1,4 km/h (1 Bft) W-NW 301 ° 0 min 0,000 mm 1,1 UV-I 70 W/m² 3,7 °C 12,2 °C 3,2 km/h (1 Bft)
24.11.2017 12:45 12,1 °C 12,2 °C 56 % 1014,7 hPa 0,0 mm 1,9 km/h (1 Bft) W-NW 300 ° 0 min 0,000 mm 1,1 UV-I 72 W/m² 3,6 °C 12,1 °C 4,8 km/h (1 Bft)
24.11.2017 12:46 12,2 °C 12,2 °C 55 % 1014,7 hPa 0,0 mm 1,4 km/h (1 Bft) W-NW 300 ° 0 min 0,000 mm 1,1 UV-I 76 W/m² 3,4 °C 12,2 °C 4,8 km/h (1 Bft)
24.11.2017 12:47 12,2 °C 12,2 °C 56 % 1014,7 hPa 0,0 mm 4,5 km/h (1 Bft) W 281 ° 0 min 0,000 mm 1,1 UV-I 84 W/m² 3,7 °C 12,2 °C 6,4 km/h (2 Bft)
24.11.2017 12:48 12,2 °C 12,2 °C 55 % 1014,8 hPa 0,0 mm 1,9 km/h (1 Bft) W 281 ° 0 min 0,000 mm 1,1 UV-I 86 W/m² 3,4 °C 12,2 °C 3,2 km/h (1 Bft)
24.11.2017 12:49 12,1 °C 12,2 °C 57 % 1014,7 hPa 0,0 mm 2,7 km/h (1 Bft) W 281 ° 0 min 0,000 mm 1,1 UV-I 90 W/m² 3,8 °C 12,1 °C 4,8 km/h (1 Bft)
24.11.2017 12:50 12,1 °C 12,1 °C 58 % 1014,7 hPa 0,0 mm 2,5 km/h (1 Bft) W 281 ° 0 min 0,000 mm 1,1 UV-I 91 W/m² 4,1 °C 12,1 °C 4,8 km/h (1 Bft)
24.11.2017 12:51 12,1 °C 12,1 °C 56 % 1014,7 hPa 0,0 mm 1,0 km/h (0 Bft) W 281 ° 0 min 0,000 mm 1,1 UV-I 95 W/m² 3,6 °C 12,1 °C 3,2 km/h (1 Bft)
24.11.2017 12:52 12,1 °C 12,1 °C 57 % 1014,6 hPa 0,0 mm 1,1 km/h (1 Bft) W 281 ° 0 min 0,000 mm 1,1 UV-I 97 W/m² 3,8 °C 12,1 °C 3,2 km/h (1 Bft)
24.11.2017 12:53 12,1 °C 12,1 °C 58 % 1014,6 hPa 0,0 mm 0,2 km/h (0 Bft) W 281 ° 0 min 0,000 mm 1,1 UV-I 95 W/m² 4,1 °C 12,1 °C 1,6 km/h (1 Bft)
24.11.2017 12:54 12,1 °C 12,1 °C 58 % 1014,7 hPa 0,0 mm 0,4 km/h (0 Bft) W 281 ° 0 min 0,000 mm 1,1 UV-I 95 W/m² 4,1 °C 12,1 °C 3,2 km/h (1 Bft)
24.11.2017 12:55 12,1 °C 12,1 °C 57 % 1014,7 hPa 0,0 mm 4,1 km/h (1 Bft) W-NW 284 ° 0 min 0,000 mm 1,1 UV-I 93 W/m² 3,8 °C 12,1 °C 6,4 km/h (2 Bft)
24.11.2017 12:56 12,1 °C 12,1 °C 58 % 1014,8 hPa 0,0 mm 3,0 km/h (1 Bft) W-NW 284 ° 0 min 0,000 mm 1,1 UV-I 91 W/m² 4,1 °C 12,1 °C 4,8 km/h (1 Bft)
24.11.2017 12:57 12,1 °C 12,1 °C 59 % 1014,8 hPa 0,0 mm 3,5 km/h (1 Bft) W 271 ° 0 min 0,000 mm 1,0 UV-I 90 W/m² 4,3 °C 12,1 °C 4,8 km/h (1 Bft)
24.11.2017 12:58 11,9 °C 12,1 °C 59 % 1014,8 hPa 0,0 mm 4,5 km/h (1 Bft) W 275 ° 0 min 0,000 mm 1,0 UV-I 84 W/m² 4,1 °C 11,9 °C 6,4 km/h (2 Bft)
24.11.2017 12:59 11,9 °C 12,0 °C 58 % 1014,8 hPa 0,0 mm 3,3 km/h (1 Bft) W 277 ° 0 min 0,000 mm 1,0 UV-I 84 W/m² 3,9 °C 11,9 °C 4,8 km/h (1 Bft)
24.11.2017 13:00 11,9 °C 12,0 °C 59 % 1014,8 hPa 0,0 mm 5,6 km/h (1 Bft) W-NW 285 ° 0 min 0,000 mm 1,0 UV-I 83 W/m² 4,1 °C 11,9 °C 9,7 km/h (2 Bft)
24.11.2017 13:01 11,9 °C 11,9 °C 58 % 1014,8 hPa 0,0 mm 5,1 km/h (1 Bft) W-NW 288 ° 0 min 0,051 mm 1,1 UV-I 83 W/m² 3,9 °C 11,9 °C 9,7 km/h (2 Bft)
24.11.2017 13:02 11,9 °C 11,9 °C 58 % 1014,8 hPa 0,0 mm 4,2 km/h (1 Bft) W-NW 288 ° 0 min 0,000 mm 1,1 UV-I 81 W/m² 3,9 °C 11,9 °C 6,4 km/h (2 Bft)
24.11.2017 13:03 11,9 °C 11,9 °C 58 % 1014,8 hPa 0,0 mm 4,9 km/h (1 Bft) NW 312 ° 0 min 0,000 mm 1,1 UV-I 79 W/m² 3,9 °C 11,9 °C 11,3 km/h (2 Bft)
24.11.2017 13:04 11,9 °C 11,9 °C 58 % 1014,9 hPa 0,0 mm 6,8 km/h (2 Bft) W-NW 298 ° 0 min 0,000 mm 1,1 UV-I 79 W/m² 3,9 °C 11,9 °C 11,3 km/h (2 Bft)
24.11.2017 13:05 12,0 °C 12,0 °C 57 % 1014,8 hPa 0,0 mm 3,9 km/h (1 Bft) W-NW 298 ° 0 min 0,000 mm 1,1 UV-I 79 W/m² 3,8 °C 12,0 °C 8,0 km/h (2 Bft)
24.11.2017 13:06 12,1 °C 12,1 °C 56 % 1014,9 hPa 0,0 mm 4,5 km/h (1 Bft) NW 318 ° 0 min 0,000 mm 1,0 UV-I 77 W/m² 3,6 °C 12,1 °C 6,4 km/h (2 Bft)
24.11.2017 13:07 12,1 °C 12,1 °C 56 % 1014,9 hPa 0,0 mm 3,8 km/h (1 Bft) W-NW 302 ° 0 min 0,000 mm 1,0 UV-I 77 W/m² 3,6 °C 12,1 °C 6,4 km/h (2 Bft)
24.11.2017 13:08 12,1 °C 12,1 °C 57 % 1014,9 hPa 0,0 mm 3,5 km/h (1 Bft) W-NW 286 ° 0 min 0,000 mm 1,0 UV-I 76 W/m² 3,8 °C 12,1 °C 6,4 km/h (2 Bft)
24.11.2017 13:09 12,1 °C 12,1 °C 57 % 1014,9 hPa 0,0 mm 4,6 km/h (1 Bft) W-NW 299 ° 0 min 0,000 mm 1,0 UV-I 74 W/m² 3,8 °C 12,1 °C 6,4 km/h (2 Bft)
24.11.2017 13:10 12,1 °C 12,1 °C 56 % 1014,9 hPa 0,0 mm 8,0 km/h (2 Bft) W-NW 295 ° 0 min 0,000 mm 1,0 UV-I 72 W/m² 3,6 °C 12,1 °C 12,9 km/h (3 Bft)
24.11.2017 13:11 12,1 °C 12,1 °C 56 % 1015,0 hPa 0,0 mm 7,8 km/h (2 Bft) W-NW 293 ° 0 min 0,000 mm 1,0 UV-I 70 W/m² 3,6 °C 12,1 °C 11,3 km/h (2 Bft)
24.11.2017 13:12 12,1 °C 12,2 °C 56 % 1014,9 hPa 0,0 mm 4,9 km/h (1 Bft) W-NW 284 ° 0 min 0,000 mm 1,0 UV-I 70 W/m² 3,6 °C 12,1 °C 6,4 km/h (2 Bft)
24.11.2017 13:13 12,1 °C 12,1 °C 56 % 1014,9 hPa 0,0 mm 3,7 km/h (1 Bft) W-NW 286 ° 0 min 0,000 mm 0,9 UV-I 70 W/m² 3,6 °C 12,1 °C 6,4 km/h (2 Bft)
24.11.2017 13:14 12,0 °C 12,1 °C 57 % 1014,8 hPa 0,0 mm 4,0 km/h (1 Bft) W 276 ° 0 min 0,000 mm 0,9 UV-I 70 W/m² 3,8 °C 12,0 °C 6,4 km/h (2 Bft)
24.11.2017 13:15 11,9 °C 12,0 °C 58 % 1014,9 hPa 0,0 mm 5,1 km/h (1 Bft) W 259 ° 0 min 0,000 mm 0,9 UV-I 69 W/m² 3,9 °C 11,9 °C 9,7 km/h (2 Bft)
24.11.2017 13:16 11,8 °C 11,9 °C 58 % 1014,9 hPa 0,0 mm 5,3 km/h (1 Bft) W 260 ° 0 min 0,000 mm 0,9 UV-I 69 W/m² 3,8 °C 11,8 °C 6,4 km/h (2 Bft)
24.11.2017 13:17 11,7 °C 11,8 °C 59 % 1014,9 hPa 0,0 mm 4,4 km/h (1 Bft) W 269 ° 0 min 0,000 mm 0,9 UV-I 67 W/m² 4,0 °C 11,7 °C 6,4 km/h (2 Bft)
24.11.2017 13:18 11,6 °C 11,7 °C 59 % 1014,9 hPa 0,0 mm 3,5 km/h (1 Bft) W 276 ° 0 min 0,000 mm 1,0 UV-I 65 W/m² 3,9 °C 11,6 °C 4,8 km/h (1 Bft)
24.11.2017 13:19 11,5 °C 11,6 °C 59 % 1014,8 hPa 0,0 mm 3,8 km/h (1 Bft) W 275 ° 0 min 0,000 mm 1,0 UV-I 65 W/m² 3,8 °C 11,5 °C 6,4 km/h (2 Bft)
24.11.2017 13:20 11,4 °C 11,5 °C 60 % 1014,8 hPa 0,0 mm 4,3 km/h (1 Bft) W-NW 286 ° 0 min 0,000 mm 1,0 UV-I 63 W/m² 3,9 °C 11,4 °C 6,4 km/h (2 Bft)
24.11.2017 13:21 11,4 °C 11,4 °C 60 % 1014,9 hPa 0,0 mm 4,7 km/h (1 Bft) NW 311 ° 0 min 0,000 mm 1,0 UV-I 62 W/m² 3,9 °C 11,4 °C 6,4 km/h (2 Bft)
24.11.2017 13:22 11,4 °C 11,5 °C 60 % 1014,9 hPa 0,0 mm 4,8 km/h (1 Bft) W 263 ° 0 min 0,000 mm 1,0 UV-I 62 W/m² 3,9 °C 11,4 °C 8,0 km/h (2 Bft)
24.11.2017 13:23 11,5 °C 11,5 °C 59 % 1014,8 hPa 0,0 mm 4,3 km/h (1 Bft) W 280 ° 0 min 0,000 mm 1,0 UV-I 63 W/m² 3,8 °C 11,5 °C 6,4 km/h (2 Bft)
24.11.2017 13:24 11,6 °C 11,6 °C 60 % 1014,8 hPa 0,0 mm 2,9 km/h (1 Bft) W 280 ° 0 min 0,000 mm 1,0 UV-I 70 W/m² 4,1 °C 11,6 °C 4,8 km/h (1 Bft)
24.11.2017 13:25 11,6 °C 11,6 °C 60 % 1014,8 hPa 0,0 mm 3,4 km/h (1 Bft) W 271 ° 0 min 0,000 mm 1,0 UV-I 83 W/m² 4,1 °C 11,6 °C 6,4 km/h (2 Bft)
24.11.2017 13:26 11,6 °C 11,6 °C 60 % 1014,8 hPa 0,0 mm 5,4 km/h (1 Bft) W 278 ° 0 min 0,000 mm 1,0 UV-I 79 W/m² 4,1 °C 11,6 °C 6,4 km/h (2 Bft)
24.11.2017 13:27 11,7 °C 11,7 °C 59 % 1014,8 hPa 0,0 mm 3,7 km/h (1 Bft) W-SW 248 ° 0 min 0,000 mm 1,0 UV-I 88 W/m² 4,0 °C 11,7 °C 6,4 km/h (2 Bft)
24.11.2017 13:28 11,6 °C 11,7 °C 59 % 1014,7 hPa 0,0 mm 5,5 km/h (1 Bft) W 262 ° 0 min 0,000 mm 1,0 UV-I 121 W/m² 3,9 °C 11,6 °C 9,7 km/h (2 Bft)
24.11.2017 13:29 11,6 °C 11,6 °C 60 % 1014,8 hPa 0,0 mm 5,5 km/h (1 Bft) S-SW 213 ° 0 min 0,000 mm 1,0 UV-I 116 W/m² 4,1 °C 11,6 °C 11,3 km/h (2 Bft)
24.11.2017 13:30 11,7 °C 11,7 °C 58 % 1014,7 hPa 0,0 mm 3,4 km/h (1 Bft) SW 220 ° 0 min 0,000 mm 1,0 UV-I 100 W/m² 3,7 °C 11,7 °C 4,8 km/h (1 Bft)
24.11.2017 13:31 11,8 °C 11,8 °C 57 % 1014,7 hPa 0,0 mm 3,1 km/h (1 Bft) W-SW 242 ° 0 min 0,000 mm 0,9 UV-I 74 W/m² 3,6 °C 11,8 °C 4,8 km/h (1 Bft)
24.11.2017 13:32 11,8 °C 11,8 °C 57 % 1014,7 hPa 0,0 mm 3,2 km/h (1 Bft) W-SW 237 ° 0 min 0,000 mm 0,9 UV-I 72 W/m² 3,6 °C 11,8 °C 4,8 km/h (1 Bft)
24.11.2017 13:33 11,8 °C 11,8 °C 57 % 1014,7 hPa 0,0 mm 4,1 km/h (1 Bft) SW 236 ° 0 min 0,000 mm 0,9 UV-I 83 W/m² 3,6 °C 11,8 °C 4,8 km/h (1 Bft)
24.11.2017 13:34 11,8 °C 11,8 °C 56 % 1014,7 hPa 0,0 mm 3,1 km/h (1 Bft) W-SW 251 ° 0 min 0,000 mm 1,0 UV-I 186 W/m² 3,3 °C 11,8 °C 4,8 km/h (1 Bft)
24.11.2017 13:35 11,9 °C 11,9 °C 56 % 1014,7 hPa 0,0 mm 0,5 km/h (0 Bft) W-SW 251 ° 0 min 0,000 mm 1,2 UV-I 258 W/m² 3,4 °C 11,9 °C 3,2 km/h (1 Bft)
24.11.2017 13:36 11,9 °C 11,9 °C 56 % 1014,7 hPa 0,0 mm 0,0 km/h (0 Bft) W-SW 251 ° 0 min 0,000 mm 1,2 UV-I 267 W/m² 3,4 °C 11,9 °C 0,0 km/h (0 Bft)
24.11.2017 13:37 12,0 °C 12,0 °C 57 % 1014,7 hPa 0,0 mm 0,0 km/h (0 Bft) W-SW 251 ° 0 min 0,000 mm 1,2 UV-I 250 W/m² 3,8 °C 12,0 °C 0,0 km/h (0 Bft)
24.11.2017 13:38 12,1 °C 12,1 °C 56 % 1014,7 hPa 0,0 mm 0,0 km/h (0 Bft) W-SW 251 ° 0 min 0,000 mm 1,2 UV-I 287 W/m² 3,6 °C 12,1 °C 0,0 km/h (0 Bft)
24.11.2017 13:39 12,1 °C 12,1 °C 57 % 1014,6 hPa 0,0 mm 0,5 km/h (0 Bft) W-SW 244 ° 0 min 0,000 mm 1,1 UV-I 225 W/m² 3,8 °C 12,1 °C 3,2 km/h (1 Bft)
24.11.2017 13:40 12,1 °C 12,1 °C 57 % 1014,6 hPa 0,0 mm 4,1 km/h (1 Bft) W-SW 251 ° 0 min 0,000 mm 1,1 UV-I 195 W/m² 3,8 °C 12,1 °C 6,4 km/h (2 Bft)
24.11.2017 13:41 12,0 °C 12,1 °C 57 % 1014,6 hPa 0,0 mm 1,1 km/h (1 Bft) W-SW 251 ° 0 min 0,000 mm 1,1 UV-I 188 W/m² 3,8 °C 12,0 °C 3,2 km/h (1 Bft)
24.11.2017 13:42 12,0 °C 12,0 °C 56 % 1014,6 hPa 0,0 mm 0,0 km/h (0 Bft) W-SW 251 ° 0 min 0,000 mm 1,1 UV-I 195 W/m² 3,5 °C 12,0 °C 0,0 km/h (0 Bft)
24.11.2017 13:43 12,1 °C 12,1 °C 54 % 1014,5 hPa 0,0 mm 0,0 km/h (0 Bft) W-SW 251 ° 0 min 0,000 mm 1,1 UV-I 192 W/m² 3,1 °C 12,1 °C 0,0 km/h (0 Bft)
24.11.2017 13:44 12,2 °C 12,2 °C 55 % 1014,5 hPa 0,0 mm 0,0 km/h (0 Bft) W-SW 251 ° 0 min 0,000 mm 1,0 UV-I 171 W/m² 3,4 °C 12,2 °C 0,0 km/h (0 Bft)
24.11.2017 13:45 12,2 °C 12,2 °C 55 % 1014,4 hPa 0,0 mm 0,0 km/h (0 Bft) W-SW 251 ° 0 min 0,000 mm 1,0 UV-I 118 W/m² 3,4 °C 12,2 °C 0,0 km/h (0 Bft)
24.11.2017 13:46 12,2 °C 12,2 °C 55 % 1014,4 hPa 0,0 mm 0,0 km/h (0 Bft) W-SW 251 ° 0 min 0,000 mm 0,9 UV-I 98 W/m² 3,4 °C 12,2 °C 0,0 km/h (0 Bft)
24.11.2017 13:47 12,1 °C 12,2 °C 55 % 1014,4 hPa 0,0 mm 0,0 km/h (0 Bft) W-SW 251 ° 0 min 0,000 mm 0,9 UV-I 93 W/m² 3,3 °C 12,1 °C 0,0 km/h (0 Bft)
24.11.2017 13:48 12,1 °C 12,2 °C 55 % 1014,4 hPa 0,0 mm 0,0 km/h (0 Bft) W-SW 251 ° 0 min 0,000 mm 0,9 UV-I 91 W/m² 3,3 °C 12,1 °C 0,0 km/h (0 Bft)
24.11.2017 13:49 12,1 °C 12,1 °C 55 % 1014,4 hPa 0,0 mm 0,0 km/h (0 Bft) W-SW 251 ° 0 min 0,000 mm 0,9 UV-I 79 W/m² 3,3 °C 12,1 °C 0,0 km/h (0 Bft)
24.11.2017 13:50 11,7 °C 12,1 °C 60 % 1014,4 hPa 0,0 mm 0,0 km/h (0 Bft) W-SW 251 ° 0 min 0,000 mm 0,8 UV-I 72 W/m² 4,2 °C 11,7 °C 0,0 km/h (0 Bft)
24.11.2017 13:51 11,6 °C 11,7 °C 59 % 1014,4 hPa 0,0 mm 0,0 km/h (0 Bft) W-SW 251 ° 0 min 0,000 mm 0,8 UV-I 97 W/m² 3,9 °C 11,6 °C 0,0 km/h (0 Bft)
24.11.2017 13:52 11,4 °C 11,6 °C 59 % 1014,4 hPa 0,0 mm 0,0 km/h (0 Bft) W-SW 251 ° 0 min 0,000 mm 0,9 UV-I 105 W/m² 3,7 °C 11,4 °C 0,0 km/h (0 Bft)
24.11.2017 13:53 11,4 °C 11,4 °C 58 % 1014,3 hPa 0,0 mm 0,0 km/h (0 Bft) W-SW 251 ° 0 min 0,000 mm 0,9 UV-I 111 W/m² 3,4 °C 11,4 °C 0,0 km/h (0 Bft)
24.11.2017 13:54 11,6 °C 11,6 °C 56 % 1014,3 hPa 0,0 mm 0,0 km/h (0 Bft) W-SW 251 ° 0 min 0,000 mm 0,9 UV-I 149 W/m² 3,1 °C 11,6 °C 0,0 km/h (0 Bft)
24.11.2017 13:55 11,6 °C 11,6 °C 59 % 1014,4 hPa 0,0 mm 0,0 km/h (0 Bft) W-SW 251 ° 0 min 0,000 mm 0,9 UV-I 146 W/m² 3,9 °C 11,6 °C 0,0 km/h (0 Bft)
24.11.2017 13:56 11,5 °C 11,6 °C 59 % 1014,4 hPa 0,0 mm 0,0 km/h (0 Bft) W-SW 251 ° 0 min 0,000 mm 0,9 UV-I 135 W/m² 3,8 °C 11,5 °C 0,0 km/h (0 Bft)
24.11.2017 13:57 11,5 °C 11,6 °C 57 % 1014,4 hPa 0,0 mm 0,0 km/h (0 Bft) W-SW 251 ° 0 min 0,000 mm 0,9 UV-I 114 W/m² 3,3 °C 11,5 °C 0,0 km/h (0 Bft)
24.11.2017 13:58 11,7 °C 11,7 °C 56 % 1014,4 hPa 0,0 mm 0,0 km/h (0 Bft) W-SW 251 ° 0 min 0,000 mm 0,8 UV-I 74 W/m² 3,2 °C 11,7 °C 0,0 km/h (0 Bft)
24.11.2017 13:59 11,7 °C 11,7 °C 57 % 1014,4 hPa 0,0 mm 0,0 km/h (0 Bft) W-SW 251 ° 0 min 0,000 mm 0,8 UV-I 63 W/m² 3,5 °C 11,7 °C 0,0 km/h (0 Bft)
24.11.2017 14:00 11,6 °C 11,7 °C 57 % 1014,4 hPa 0,0 mm 0,0 km/h (0 Bft) W-SW 251 ° 0 min 0,000 mm 0,8 UV-I 56 W/m² 3,4 °C 11,6 °C 0,0 km/h (0 Bft)
24.11.2017 14:01 11,6 °C 11,6 °C 56 % 1014,4 hPa 0,0 mm 0,0 km/h (0 Bft) W-SW 251 ° 0 min 0,076 mm 0,0 UV-I 53 W/m² 3,1 °C 11,6 °C 0,0 km/h (0 Bft)
24.11.2017 14:02 11,6 °C 11,6 °C 56 % 1014,4 hPa 0,0 mm 0,0 km/h (0 Bft) W-SW 251 ° 0 min 0,000 mm 0,0 UV-I 51 W/m² 3,1 °C 11,6 °C 0,0 km/h (0 Bft)
24.11.2017 14:03 11,7 °C 11,7 °C 55 % 1014,4 hPa 0,0 mm 0,0 km/h (0 Bft) W-SW 251 ° 0 min 0,000 mm 0,0 UV-I 49 W/m² 3,0 °C 11,7 °C 0,0 km/h (0 Bft)
24.11.2017 14:04 11,8 °C 11,8 °C 56 % 1014,4 hPa 0,0 mm 0,1 km/h (0 Bft) W-SW 251 ° 0 min 0,000 mm 0,0 UV-I 49 W/m² 3,3 °C 11,8 °C 1,6 km/h (1 Bft)
24.11.2017 14:05 11,8 °C 11,8 °C 55 % 1014,4 hPa 0,0 mm 0,0 km/h (0 Bft) W-SW 251 ° 0 min 0,000 mm 0,0 UV-I 49 W/m² 3,1 °C 11,8 °C 0,0 km/h (0 Bft)
24.11.2017 14:06 11,8 °C 11,8 °C 56 % 1014,4 hPa 0,0 mm 0,9 km/h (0 Bft) W-SW 251 ° 0 min 0,000 mm 0,0 UV-I 47 W/m² 3,3 °C 11,8 °C 3,2 km/h (1 Bft)
24.11.2017 14:07 11,8 °C 11,8 °C 57 % 1014,4 hPa 0,0 mm 2,0 km/h (1 Bft) W-SW 251 ° 0 min 0,000 mm 0,0 UV-I 47 W/m² 3,6 °C 11,8 °C 3,2 km/h (1 Bft)
24.11.2017 14:08 11,7 °C 11,8 °C 57 % 1014,5 hPa 0,0 mm 1,9 km/h (1 Bft) W-SW 251 ° 0 min 0,000 mm 0,0 UV-I 46 W/m² 3,5 °C 11,7 °C 3,2 km/h (1 Bft)
24.11.2017 14:09 11,7 °C 11,7 °C 57 % 1014,4 hPa 0,0 mm 0,0 km/h (0 Bft) W-SW 251 ° 0 min 0,000 mm 0,0 UV-I 44 W/m² 3,5 °C 11,7 °C 0,0 km/h (0 Bft)
24.11.2017 14:10 11,6 °C 11,7 °C 59 % 1014,4 hPa 0,0 mm 1,2 km/h (1 Bft) W-SW 237 ° 0 min 0,000 mm 0,0 UV-I 46 W/m² 3,9 °C 11,6 °C 3,2 km/h (1 Bft)
24.11.2017 14:11 11,3 °C 11,6 °C 59 % 1014,4 hPa 0,0 mm 1,1 km/h (1 Bft) SW 217 ° 0 min 0,000 mm 0,0 UV-I 46 W/m² 3,6 °C 11,3 °C 1,6 km/h (1 Bft)
24.11.2017 14:12 11,2 °C 11,3 °C 59 % 1014,4 hPa 0,0 mm 1,9 km/h (1 Bft) SW 217 ° 0 min 0,000 mm 0,0 UV-I 47 W/m² 3,5 °C 11,2 °C 3,2 km/h (1 Bft)
24.11.2017 14:13 11,2 °C 11,2 °C 59 % 1014,4 hPa 0,0 mm 0,5 km/h (0 Bft) SW 217 ° 0 min 0,000 mm 0,0 UV-I 49 W/m² 3,5 °C 11,2 °C 1,6 km/h (1 Bft)
24.11.2017 14:14 11,2 °C 11,2 °C 59 % 1014,3 hPa 0,0 mm 1,3 km/h (1 Bft) SW 217 ° 0 min 0,000 mm 0,0 UV-I 54 W/m² 3,5 °C 11,2 °C 3,2 km/h (1 Bft)
24.11.2017 14:15 11,3 °C 11,3 °C 58 % 1014,3 hPa 0,0 mm 3,1 km/h (1 Bft) SW 217 ° 0 min 0,000 mm 0,7 UV-I 58 W/m² 3,3 °C 11,3 °C 4,8 km/h (1 Bft)
24.11.2017 14:16 11,3 °C 11,3 °C 58 % 1014,3 hPa 0,0 mm 3,6 km/h (1 Bft) SW 217 ° 0 min 0,000 mm 0,7 UV-I 60 W/m² 3,3 °C 11,3 °C 4,8 km/h (1 Bft)
24.11.2017 14:17 11,3 °C 11,3 °C 58 % 1014,3 hPa 0,0 mm 3,6 km/h (1 Bft) SW 217 ° 0 min 0,000 mm 0,7 UV-I 62 W/m² 3,3 °C 11,3 °C 4,8 km/h (1 Bft)
24.11.2017 14:18 11,3 °C 11,3 °C 58 % 1014,3 hPa 0,0 mm 2,4 km/h (1 Bft) SW 217 ° 0 min 0,000 mm 0,7 UV-I 65 W/m² 3,3 °C 11,3 °C 3,2 km/h (1 Bft)
24.11.2017 14:19 11,3 °C 11,3 °C 57 % 1014,3 hPa 0,0 mm 1,0 km/h (0 Bft) SW 217 ° 0 min 0,000 mm 0,7 UV-I 69 W/m² 3,1 °C 11,3 °C 3,2 km/h (1 Bft)
24.11.2017 14:20 11,3 °C 11,3 °C 57 % 1014,3 hPa 0,0 mm 3,1 km/h (1 Bft) SW 217 ° 0 min 0,000 mm 0,7 UV-I 74 W/m² 3,1 °C 11,3 °C 4,8 km/h (1 Bft)
24.11.2017 14:21 11,4 °C 11,4 °C 57 % 1014,3 hPa 0,0 mm 2,5 km/h (1 Bft) SW 217 ° 0 min 0,000 mm 0,7 UV-I 77 W/m² 3,2 °C 11,4 °C 3,2 km/h (1 Bft)
24.11.2017 14:22 11,3 °C 11,4 °C 57 % 1014,4 hPa 0,0 mm 0,8 km/h (0 Bft) SW 217 ° 0 min 0,000 mm 0,7 UV-I 79 W/m² 3,1 °C 11,3 °C 3,2 km/h (1 Bft)
24.11.2017 14:23 11,3 °C 11,4 °C 59 % 1014,4 hPa 0,0 mm 1,5 km/h (1 Bft) SW 217 ° 0 min 0,000 mm 0,7 UV-I 83 W/m² 3,6 °C 11,3 °C 3,2 km/h (1 Bft)
24.11.2017 14:24 11,3 °C 11,3 °C 57 % 1014,4 hPa 0,0 mm 1,9 km/h (1 Bft) SW 216 ° 0 min 0,000 mm 0,7 UV-I 84 W/m² 3,1 °C 11,3 °C 3,2 km/h (1 Bft)
24.11.2017 14:25 11,3 °C 11,3 °C 58 % 1014,4 hPa 0,0 mm 0,3 km/h (0 Bft) SW 216 ° 0 min 0,000 mm 0,7 UV-I 86 W/m² 3,3 °C 11,3 °C 1,6 km/h (1 Bft)
24.11.2017 14:26 11,2 °C 11,3 °C 60 % 1014,3 hPa 0,0 mm 1,7 km/h (1 Bft) SW 216 ° 0 min 0,000 mm 0,7 UV-I 90 W/m² 3,7 °C 11,2 °C 3,2 km/h (1 Bft)
24.11.2017 14:27 11,2 °C 11,2 °C 58 % 1014,3 hPa 0,0 mm 2,1 km/h (1 Bft) SW 216 ° 0 min 0,000 mm 0,7 UV-I 91 W/m² 3,2 °C 11,2 °C 3,2 km/h (1 Bft)
24.11.2017 14:28 11,2 °C 11,2 °C 56 % 1014,3 hPa 0,0 mm 1,9 km/h (1 Bft) SW 216 ° 0 min 0,000 mm 0,7 UV-I 93 W/m² 2,8 °C 11,2 °C 3,2 km/h (1 Bft)
24.11.2017 14:29 11,3 °C 11,3 °C 57 % 1014,3 hPa 0,0 mm 1,3 km/h (1 Bft) SW 216 ° 0 min 0,000 mm 0,7 UV-I 95 W/m² 3,1 °C 11,3 °C 3,2 km/h (1 Bft)
24.11.2017 14:30 11,4 °C 11,4 °C 59 % 1014,3 hPa 0,0 mm 2,7 km/h (1 Bft) SW 216 ° 0 min 0,000 mm 0,7 UV-I 98 W/m² 3,7 °C 11,4 °C 3,2 km/h (1 Bft)
24.11.2017 14:31 11,4 °C 11,4 °C 59 % 1014,3 hPa 0,0 mm 2,9 km/h (1 Bft) SW 216 ° 0 min 0,000 mm 0,7 UV-I 105 W/m² 3,7 °C 11,4 °C 4,8 km/h (1 Bft)
24.11.2017 14:32 11,4 °C 11,4 °C 59 % 1014,4 hPa 0,0 mm 2,7 km/h (1 Bft) SW 216 ° 0 min 0,000 mm 0,7 UV-I 153 W/m² 3,7 °C 11,4 °C 4,8 km/h (1 Bft)
24.11.2017 14:33 11,4 °C 11,4 °C 57 % 1014,3 hPa 0,0 mm 3,4 km/h (1 Bft) SW 216 ° 0 min 0,000 mm 0,7 UV-I 167 W/m² 3,2 °C 11,4 °C 4,8 km/h (1 Bft)
24.11.2017 14:34 11,4 °C 11,4 °C 58 % 1014,3 hPa 0,0 mm 2,7 km/h (1 Bft) SW 216 ° 0 min 0,000 mm 0,7 UV-I 190 W/m² 3,4 °C 11,4 °C 4,8 km/h (1 Bft)
24.11.2017 14:35 11,5 °C 11,6 °C 56 % 1014,3 hPa 0,0 mm 1,9 km/h (1 Bft) SW 216 ° 0 min 0,000 mm 0,7 UV-I 181 W/m² 3,0 °C 11,5 °C 3,2 km/h (1 Bft)
24.11.2017 14:36 11,5 °C 11,6 °C 56 % 1014,3 hPa 0,0 mm 2,9 km/h (1 Bft) SW 216 ° 0 min 0,000 mm 0,7 UV-I 185 W/m² 3,0 °C 11,5 °C 3,2 km/h (1 Bft)
24.11.2017 14:37 11,5 °C 11,5 °C 57 % 1014,3 hPa 0,0 mm 5,0 km/h (1 Bft) S-SW 192 ° 0 min 0,000 mm 0,7 UV-I 179 W/m² 3,3 °C 11,5 °C 8,0 km/h (2 Bft)
24.11.2017 14:38 11,8 °C 11,8 °C 52 % 1014,3 hPa 0,0 mm 0,2 km/h (0 Bft) S-SW 192 ° 0 min 0,000 mm 0,7 UV-I 188 W/m² 2,3 °C 11,8 °C 1,6 km/h (1 Bft)
24.11.2017 14:39 12,0 °C 12,0 °C 53 % 1014,3 hPa 0,0 mm 0,6 km/h (0 Bft) S-SW 192 ° 0 min 0,000 mm 0,7 UV-I 220 W/m² 2,7 °C 12,0 °C 1,6 km/h (1 Bft)
24.11.2017 14:40 12,1 °C 12,1 °C 53 % 1014,3 hPa 0,0 mm 0,2 km/h (0 Bft) S-SW 192 ° 0 min 0,000 mm 0,7 UV-I 220 W/m² 2,8 °C 12,1 °C 1,6 km/h (1 Bft)
24.11.2017 14:41 12,2 °C 12,2 °C 53 % 1014,3 hPa 0,0 mm 0,1 km/h (0 Bft) S-SW 192 ° 0 min 0,000 mm 0,7 UV-I 204 W/m² 2,9 °C 12,2 °C 1,6 km/h (1 Bft)
24.11.2017 14:42 12,2 °C 12,3 °C 56 % 1014,3 hPa 0,0 mm 0,0 km/h (0 Bft) S-SW 192 ° 0 min 0,000 mm 0,7 UV-I 172 W/m² 3,7 °C 12,2 °C 0,0 km/h (0 Bft)
24.11.2017 14:44 12,1 °C 12,2 °C 57 % 1014,3 hPa 0,0 mm 0,8 km/h (0 Bft) S-SW 212 ° 0 min 0,000 mm 0,6 UV-I 116 W/m² 3,8 °C 12,1 °C 3,2 km/h (1 Bft)
24.11.2017 14:45 12,0 °C 12,1 °C 56 % 1014,3 hPa 0,0 mm 0,0 km/h (0 Bft) S-SW 212 ° 0 min 0,000 mm 0,6 UV-I 104 W/m² 3,5 °C 12,0 °C 0,0 km/h (0 Bft)
24.11.2017 14:46 12,1 °C 12,1 °C 54 % 1014,3 hPa 0,0 mm 2,0 km/h (1 Bft) S-SW 212 ° 0 min 0,000 mm 0,6 UV-I 95 W/m² 3,1 °C 12,1 °C 4,8 km/h (1 Bft)
24.11.2017 14:47 12,1 °C 12,1 °C 53 % 1014,3 hPa 0,0 mm 1,5 km/h (1 Bft) S-SW 212 ° 0 min 0,000 mm 0,6 UV-I 93 W/m² 2,8 °C 12,1 °C 3,2 km/h (1 Bft)
24.11.2017 14:48 12,2 °C 12,2 °C 55 % 1014,3 hPa 0,0 mm 0,9 km/h (0 Bft) S-SW 212 ° 0 min 0,000 mm 0,6 UV-I 93 W/m² 3,4 °C 12,2 °C 1,6 km/h (1 Bft)
24.11.2017 14:49 12,2 °C 12,2 °C 56 % 1014,3 hPa 0,0 mm 0,0 km/h (0 Bft) S-SW 212 ° 0 min 0,000 mm 0,6 UV-I 93 W/m² 3,7 °C 12,2 °C 0,0 km/h (0 Bft)
24.11.2017 14:50 12,1 °C 12,2 °C 56 % 1014,4 hPa 0,0 mm 0,0 km/h (0 Bft) S-SW 212 ° 0 min 0,000 mm 0,6 UV-I 91 W/m² 3,6 °C 12,1 °C 0,0 km/h (0 Bft)
24.11.2017 14:51 12,1 °C 12,1 °C 57 % 1014,3 hPa 0,0 mm 0,0 km/h (0 Bft) S-SW 212 ° 0 min 0,000 mm 0,6 UV-I 90 W/m² 3,8 °C 12,1 °C 0,0 km/h (0 Bft)
24.11.2017 14:52 11,9 °C 12,1 °C 57 % 1014,4 hPa 0,0 mm 0,0 km/h (0 Bft) S-SW 212 ° 0 min 0,000 mm 0,6 UV-I 88 W/m² 3,7 °C 11,9 °C 0,0 km/h (0 Bft)
24.11.2017 14:53 11,8 °C 11,9 °C 59 % 1014,4 hPa 0,0 mm 0,0 km/h (0 Bft) S-SW 212 ° 0 min 0,000 mm 0,6 UV-I 86 W/m² 4,1 °C 11,8 °C 0,0 km/h (0 Bft)
24.11.2017 14:54 11,8 °C 11,8 °C 56 % 1014,4 hPa 0,0 mm 0,0 km/h (0 Bft) S-SW 212 ° 0 min 0,000 mm 0,6 UV-I 84 W/m² 3,3 °C 11,8 °C 0,0 km/h (0 Bft)
24.11.2017 14:55 11,7 °C 11,8 °C 59 % 1014,4 hPa 0,0 mm 0,0 km/h (0 Bft) S-SW 212 ° 0 min 0,000 mm 0,6 UV-I 81 W/m² 4,0 °C 11,7 °C 0,0 km/h (0 Bft)
24.11.2017 14:56 11,7 °C 11,7 °C 56 % 1014,4 hPa 0,0 mm 0,0 km/h (0 Bft) S-SW 212 ° 0 min 0,000 mm 0,5 UV-I 79 W/m² 3,2 °C 11,7 °C 0,0 km/h (0 Bft)
24.11.2017 14:57 11,7 °C 11,7 °C 56 % 1014,4 hPa 0,0 mm 0,0 km/h (0 Bft) S-SW 212 ° 0 min 0,000 mm 0,5 UV-I 77 W/m² 3,2 °C 11,7 °C 0,0 km/h (0 Bft)
24.11.2017 14:58 11,8 °C 11,8 °C 56 % 1014,4 hPa 0,0 mm 0,0 km/h (0 Bft) S-SW 212 ° 0 min 0,000 mm 0,5 UV-I 77 W/m² 3,3 °C 11,8 °C 0,0 km/h (0 Bft)
24.11.2017 14:59 11,8 °C 11,8 °C 56 % 1014,4 hPa 0,0 mm 0,0 km/h (0 Bft) S-SW 212 ° 0 min 0,000 mm 0,5 UV-I 76 W/m² 3,3 °C 11,8 °C 0,0 km/h (0 Bft)
24.11.2017 15:00 11,8 °C 11,8 °C 57 % 1014,4 hPa 0,0 mm 0,0 km/h (0 Bft) S-SW 212 ° 0 min 0,000 mm 0,5 UV-I 74 W/m² 3,6 °C 11,8 °C 0,0 km/h (0 Bft)
24.11.2017 15:01 11,8 °C 11,8 °C 59 % 1014,4 hPa 0,0 mm 0,0 km/h (0 Bft) S-SW 212 ° 0 min 0,051 mm 0,5 UV-I 70 W/m² 4,1 °C 11,8 °C 0,0 km/h (0 Bft)
24.11.2017 15:02 11,7 °C 11,8 °C 57 % 1014,4 hPa 0,0 mm 0,0 km/h (0 Bft) S-SW 212 ° 0 min 0,000 mm 0,5 UV-I 69 W/m² 3,5 °C 11,7 °C 0,0 km/h (0 Bft)
24.11.2017 15:03 11,8 °C 11,8 °C 56 % 1014,5 hPa 0,0 mm 0,0 km/h (0 Bft) S-SW 212 ° 0 min 0,000 mm 0,5 UV-I 67 W/m² 3,3 °C 11,8 °C 0,0 km/h (0 Bft)
24.11.2017 15:04 11,9 °C 11,9 °C 56 % 1014,5 hPa 0,0 mm 0,0 km/h (0 Bft) S-SW 212 ° 0 min 0,000 mm 0,5 UV-I 65 W/m² 3,4 °C 11,9 °C 0,0 km/h (0 Bft)
24.11.2017 15:05 11,9 °C 11,9 °C 55 % 1014,5 hPa 0,0 mm 0,0 km/h (0 Bft) S-SW 212 ° 0 min 0,000 mm 0,5 UV-I 65 W/m² 3,2 °C 11,9 °C 0,0 km/h (0 Bft)
24.11.2017 15:06 11,9 °C 11,9 °C 58 % 1014,5 hPa 0,0 mm 0,0 km/h (0 Bft) S-SW 212 ° 0 min 0,000 mm 0,5 UV-I 63 W/m² 3,9 °C 11,9 °C 0,0 km/h (0 Bft)
24.11.2017 15:07 11,8 °C 11,9 °C 57 % 1014,5 hPa 0,0 mm 0,0 km/h (0 Bft) S-SW 212 ° 0 min 0,000 mm 0,5 UV-I 63 W/m² 3,6 °C 11,8 °C 0,0 km/h (0 Bft)
24.11.2017 15:08 11,8 °C 11,8 °C 56 % 1014,5 hPa 0,0 mm 0,0 km/h (0 Bft) S-SW 212 ° 0 min 0,000 mm 0,0 UV-I 63 W/m² 3,3 °C 11,8 °C 0,0 km/h (0 Bft)
24.11.2017 15:09 11,8 °C 11,8 °C 58 % 1014,5 hPa 0,0 mm 0,0 km/h (0 Bft) S-SW 212 ° 0 min 0,000 mm 0,0 UV-I 63 W/m² 3,8 °C 11,8 °C 0,0 km/h (0 Bft)
24.11.2017 15:10 11,8 °C 11,8 °C 57 % 1014,5 hPa 0,0 mm 0,0 km/h (0 Bft) S-SW 212 ° 0 min 0,000 mm 0,0 UV-I 63 W/m² 3,6 °C 11,8 °C 0,0 km/h (0 Bft)
24.11.2017 15:11 11,8 °C 11,8 °C 56 % 1014,5 hPa 0,0 mm 0,0 km/h (0 Bft) S-SW 212 ° 0 min 0,000 mm 0,0 UV-I 63 W/m² 3,3 °C 11,8 °C 0,0 km/h (0 Bft)
24.11.2017 15:12 11,9 °C 11,9 °C 55 % 1014,5 hPa 0,0 mm 0,0 km/h (0 Bft) S-SW 212 ° 0 min 0,000 mm 0,0 UV-I 63 W/m² 3,2 °C 11,9 °C 0,0 km/h (0 Bft)
24.11.2017 15:13 12,0 °C 12,0 °C 56 % 1014,5 hPa 0,0 mm 0,0 km/h (0 Bft) S-SW 212 ° 0 min 0,000 mm 0,0 UV-I 65 W/m² 3,5 °C 12,0 °C 0,0 km/h (0 Bft)
24.11.2017 15:14 12,0 °C 12,1 °C 55 % 1014,5 hPa 0,0 mm 0,0 km/h (0 Bft) S-SW 212 ° 0 min 0,000 mm 0,0 UV-I 65 W/m² 3,2 °C 12,0 °C 0,0 km/h (0 Bft)
24.11.2017 15:15 12,0 °C 12,0 °C 55 % 1014,6 hPa 0,0 mm 0,0 km/h (0 Bft) S-SW 212 ° 0 min 0,000 mm 0,0 UV-I 67 W/m² 3,2 °C 12,0 °C 0,0 km/h (0 Bft)
24.11.2017 15:16 12,1 °C 12,1 °C 55 % 1014,6 hPa 0,0 mm 2,0 km/h (1 Bft) S-SW 212 ° 0 min 0,000 mm 0,0 UV-I 65 W/m² 3,3 °C 12,1 °C 3,2 km/h (1 Bft)
24.11.2017 15:17 12,1 °C 12,1 °C 55 % 1014,7 hPa 0,0 mm 3,1 km/h (1 Bft) W-SW 253 ° 0 min 0,000 mm 0,0 UV-I 65 W/m² 3,3 °C 12,1 °C 4,8 km/h (1 Bft)
24.11.2017 15:18 12,0 °C 12,1 °C 55 % 1014,7 hPa 0,0 mm 0,6 km/h (0 Bft) W-SW 253 ° 0 min 0,000 mm 0,0 UV-I 63 W/m² 3,2 °C 12,0 °C 3,2 km/h (1 Bft)
24.11.2017 15:19 12,0 °C 12,0 °C 55 % 1014,7 hPa 0,0 mm 0,9 km/h (0 Bft) W-SW 253 ° 0 min 0,000 mm 0,0 UV-I 62 W/m² 3,2 °C 12,0 °C 1,6 km/h (1 Bft)
24.11.2017 15:20 11,9 °C 12,0 °C 58 % 1014,7 hPa 0,0 mm 5,0 km/h (1 Bft) SW 228 ° 0 min 0,000 mm 0,0 UV-I 60 W/m² 3,9 °C 11,9 °C 9,7 km/h (2 Bft)
24.11.2017 15:21 11,9 °C 11,9 °C 56 % 1014,7 hPa 0,0 mm 2,0 km/h (1 Bft) SW 234 ° 0 min 0,000 mm 0,0 UV-I 60 W/m² 3,4 °C 11,9 °C 3,2 km/h (1 Bft)
24.11.2017 15:22 11,9 °C 11,9 °C 55 % 1014,7 hPa 0,0 mm 2,1 km/h (1 Bft) SW 234 ° 0 min 0,000 mm 0,0 UV-I 58 W/m² 3,2 °C 11,9 °C 3,2 km/h (1 Bft)
24.11.2017 15:23 11,8 °C 11,9 °C 56 % 1014,8 hPa 0,0 mm 4,9 km/h (1 Bft) W-SW 248 ° 0 min 0,000 mm 0,0 UV-I 56 W/m² 3,3 °C 11,8 °C 8,0 km/h (2 Bft)
24.11.2017 15:24 11,8 °C 11,9 °C 56 % 1014,8 hPa 0,0 mm 2,5 km/h (1 Bft) W-SW 248 ° 0 min 0,000 mm 0,0 UV-I 56 W/m² 3,3 °C 11,8 °C 4,8 km/h (1 Bft)
24.11.2017 15:25 11,8 °C 11,8 °C 56 % 1014,8 hPa 0,0 mm 1,9 km/h (1 Bft) W-SW 248 ° 0 min 0,000 mm 0,0 UV-I 53 W/m² 3,3 °C 11,8 °C 3,2 km/h (1 Bft)
24.11.2017 15:26 11,8 °C 11,8 °C 56 % 1014,8 hPa 0,0 mm 0,0 km/h (0 Bft) W-SW 248 ° 0 min 0,000 mm 0,0 UV-I 53 W/m² 3,3 °C 11,8 °C 0,0 km/h (0 Bft)
24.11.2017 15:27 11,8 °C 11,8 °C 56 % 1014,8 hPa 0,0 mm 0,0 km/h (0 Bft) W-SW 248 ° 0 min 0,000 mm 0,0 UV-I 53 W/m² 3,3 °C 11,8 °C 0,0 km/h (0 Bft)
24.11.2017 15:28 11,8 °C 11,8 °C 56 % 1014,9 hPa 0,0 mm 1,1 km/h (1 Bft) W-SW 248 ° 0 min 0,000 mm 0,0 UV-I 51 W/m² 3,3 °C 11,8 °C 3,2 km/h (1 Bft)
24.11.2017 15:29 11,8 °C 11,8 °C 56 % 1014,9 hPa 0,0 mm 1,6 km/h (1 Bft) W-SW 248 ° 0 min 0,000 mm 0,0 UV-I 49 W/m² 3,3 °C 11,8 °C 3,2 km/h (1 Bft)
24.11.2017 15:30 11,8 °C 11,8 °C 55 % 1014,8 hPa 0,0 mm 0,2 km/h (0 Bft) W-SW 249 ° 0 min 0,000 mm 0,0 UV-I 47 W/m² 3,1 °C 11,8 °C 3,2 km/h (1 Bft)
24.11.2017 15:31 11,7 °C 11,8 °C 55 % 1014,9 hPa 0,0 mm 1,1 km/h (1 Bft) W-SW 249 ° 0 min 0,000 mm 0,0 UV-I 40 W/m² 3,0 °C 11,7 °C 3,2 km/h (1 Bft)
24.11.2017 15:32 11,7 °C 11,8 °C 55 % 1014,9 hPa 0,0 mm 1,2 km/h (1 Bft) W-SW 249 ° 0 min 0,000 mm 0,0 UV-I 37 W/m² 3,0 °C 11,7 °C 3,2 km/h (1 Bft)
24.11.2017 15:33 11,7 °C 11,7 °C 55 % 1014,9 hPa 0,0 mm 1,7 km/h (1 Bft) W-SW 249 ° 0 min 0,000 mm 0,0 UV-I 35 W/m² 3,0 °C 11,7 °C 3,2 km/h (1 Bft)
24.11.2017 15:34 11,7 °C 11,7 °C 56 % 1014,9 hPa 0,0 mm 3,4 km/h (1 Bft) W 260 ° 0 min 0,000 mm 0,0 UV-I 32 W/m² 3,2 °C 11,7 °C 8,0 km/h (2 Bft)
24.11.2017 15:35 11,6 °C 11,7 °C 56 % 1014,9 hPa 0,0 mm 2,9 km/h (1 Bft) W 261 ° 0 min 0,000 mm 0,0 UV-I 30 W/m² 3,1 °C 11,6 °C 4,8 km/h (1 Bft)
24.11.2017 15:36 11,6 °C 11,6 °C 56 % 1015,0 hPa 0,0 mm 6,4 km/h (2 Bft) W 270 ° 0 min 0,000 mm 0,0 UV-I 28 W/m² 3,1 °C 11,6 °C 12,9 km/h (3 Bft)
24.11.2017 15:37 11,6 °C 11,6 °C 56 % 1015,0 hPa 0,0 mm 4,0 km/h (1 Bft) W-SW 244 ° 0 min 0,000 mm 0,0 UV-I 26 W/m² 3,1 °C 11,6 °C 6,4 km/h (2 Bft)
24.11.2017 15:38 11,6 °C 11,6 °C 55 % 1015,0 hPa 0,0 mm 1,1 km/h (1 Bft) W 263 ° 0 min 0,000 mm 0,0 UV-I 26 W/m² 2,9 °C 11,6 °C 3,2 km/h (1 Bft)
24.11.2017 15:39 11,6 °C 11,6 °C 55 % 1015,0 hPa 0,0 mm 3,0 km/h (1 Bft) W 262 ° 0 min 0,000 mm 0,0 UV-I 25 W/m² 2,9 °C 11,6 °C 4,8 km/h (1 Bft)
24.11.2017 15:40 11,6 °C 11,6 °C 55 % 1015,0 hPa 0,0 mm 3,8 km/h (1 Bft) W-SW 256 ° 0 min 0,000 mm 0,0 UV-I 25 W/m² 2,9 °C 11,6 °C 6,4 km/h (2 Bft)
24.11.2017 15:41 11,6 °C 11,6 °C 55 % 1015,0 hPa 0,0 mm 2,0 km/h (1 Bft) W-SW 257 ° 0 min 0,000 mm 0,0 UV-I 25 W/m² 2,9 °C 11,6 °C 3,2 km/h (1 Bft)
24.11.2017 15:42 11,6 °C 11,6 °C 55 % 1015,1 hPa 0,0 mm 4,0 km/h (1 Bft) W-SW 253 ° 0 min 0,000 mm 0,0 UV-I 23 W/m² 2,9 °C 11,6 °C 9,7 km/h (2 Bft)
24.11.2017 15:43 11,6 °C 11,6 °C 55 % 1015,1 hPa 0,0 mm 4,9 km/h (1 Bft) W-SW 252 ° 0 min 0,000 mm 0,0 UV-I 21 W/m² 2,9 °C 11,6 °C 6,4 km/h (2 Bft)
24.11.2017 15:44 11,6 °C 11,6 °C 56 % 1015,1 hPa 0,0 mm 8,1 km/h (2 Bft) W 263 ° 0 min 0,000 mm 0,0 UV-I 21 W/m² 3,1 °C 11,6 °C 12,9 km/h (3 Bft)
24.11.2017 15:45 11,5 °C 11,6 °C 56 % 1015,1 hPa 0,0 mm 4,4 km/h (1 Bft) W-SW 256 ° 0 min 0,000 mm 0,0 UV-I 21 W/m² 3,0 °C 11,5 °C 9,7 km/h (2 Bft)
24.11.2017 15:46 11,5 °C 11,5 °C 56 % 1015,1 hPa 0,0 mm 2,5 km/h (1 Bft) W-SW 256 ° 0 min 0,000 mm 0,0 UV-I 21 W/m² 3,0 °C 11,5 °C 4,8 km/h (1 Bft)
24.11.2017 15:47 11,4 °C 11,5 °C 55 % 1015,1 hPa 0,0 mm 1,7 km/h (1 Bft) W 264 ° 0 min 0,000 mm 0,0 UV-I 19 W/m² 2,7 °C 11,4 °C 3,2 km/h (1 Bft)
24.11.2017 15:48 11,4 °C 11,4 °C 55 % 1015,1 hPa 0,0 mm 3,6 km/h (1 Bft) W-SW 248 ° 0 min 0,000 mm 0,0 UV-I 19 W/m² 2,7 °C 11,4 °C 4,8 km/h (1 Bft)
24.11.2017 15:49 11,4 °C 11,5 °C 54 % 1015,1 hPa 0,0 mm 1,6 km/h (1 Bft) W-SW 248 ° 0 min 0,000 mm 0,0 UV-I 18 W/m² 2,4 °C 11,4 °C 3,2 km/h (1 Bft)
24.11.2017 15:50 11,5 °C 11,5 °C 55 % 1015,1 hPa 0,0 mm 0,8 km/h (0 Bft) W-SW 248 ° 0 min 0,000 mm 0,0 UV-I 18 W/m² 2,8 °C 11,5 °C 3,2 km/h (1 Bft)
24.11.2017 15:51 11,5 °C 11,5 °C 55 % 1015,1 hPa 0,0 mm 4,4 km/h (1 Bft) W 269 ° 0 min 0,000 mm 0,0 UV-I 18 W/m² 2,8 °C 11,5 °C 6,4 km/h (2 Bft)
24.11.2017 15:52 11,5 °C 11,5 °C 56 % 1015,1 hPa 0,0 mm 2,3 km/h (1 Bft) W 267 ° 0 min 0,000 mm 0,0 UV-I 16 W/m² 3,0 °C 11,5 °C 6,4 km/h (2 Bft)
24.11.2017 15:54 11,3 °C 11,5 °C 55 % 1015,1 hPa 0,0 mm 3,2 km/h (1 Bft) W 260 ° 0 min 0,000 mm 0,0 UV-I 16 W/m² 2,6 °C 11,3 °C 6,4 km/h (2 Bft)
24.11.2017 15:55 11,4 °C 11,4 °C 55 % 1015,1 hPa 0,0 mm 3,1 km/h (1 Bft) W-SW 255 ° 0 min 0,000 mm 0,0 UV-I 14 W/m² 2,7 °C 11,4 °C 4,8 km/h (1 Bft)
24.11.2017 15:56 11,4 °C 11,4 °C 54 % 1015,1 hPa 0,0 mm 5,7 km/h (1 Bft) W-SW 240 ° 0 min 0,000 mm 0,0 UV-I 14 W/m² 2,4 °C 11,4 °C 12,9 km/h (3 Bft)
24.11.2017 15:57 11,4 °C 11,4 °C 55 % 1015,1 hPa 0,0 mm 3,6 km/h (1 Bft) S-SW 205 ° 0 min 0,000 mm 0,0 UV-I 14 W/m² 2,7 °C 11,4 °C 8,0 km/h (2 Bft)
24.11.2017 15:58 11,4 °C 11,4 °C 55 % 1015,1 hPa 0,0 mm 4,0 km/h (1 Bft) W-SW 257 ° 0 min 0,000 mm 0,0 UV-I 14 W/m² 2,7 °C 11,4 °C 6,4 km/h (2 Bft)
24.11.2017 15:59 11,4 °C 11,4 °C 55 % 1015,1 hPa 0,0 mm 8,2 km/h (2 Bft) SW 223 ° 0 min 0,000 mm 0,0 UV-I 12 W/m² 2,7 °C 11,4 °C 12,9 km/h (3 Bft)
24.11.2017 16:00 11,4 °C 11,4 °C 55 % 1015,1 hPa 0,0 mm 5,2 km/h (1 Bft) S-SW 207 ° 0 min 0,000 mm 0,0 UV-I 12 W/m² 2,7 °C 11,4 °C 6,4 km/h (2 Bft)
24.11.2017 16:01 11,4 °C 11,4 °C 55 % 1015,1 hPa 0,0 mm 1,7 km/h (1 Bft) S-SW 207 ° 0 min 0,025 mm 0,0 UV-I 12 W/m² 2,7 °C 11,4 °C 4,8 km/h (1 Bft)
24.11.2017 16:02 11,4 °C 11,4 °C 54 % 1015,1 hPa 0,0 mm 3,0 km/h (1 Bft) S-SW 206 ° 0 min 0,000 mm 0,0 UV-I 11 W/m² 2,4 °C 11,4 °C 6,4 km/h (2 Bft)
24.11.2017 16:03 11,4 °C 11,5 °C 54 % 1015,1 hPa 0,0 mm 4,5 km/h (1 Bft) S-SW 204 ° 0 min 0,000 mm 0,0 UV-I 11 W/m² 2,4 °C 11,4 °C 6,4 km/h (2 Bft)
24.11.2017 16:04 11,5 °C 11,5 °C 53 % 1015,1 hPa 0,0 mm 4,2 km/h (1 Bft) SW 219 ° 0 min 0,000 mm 0,0 UV-I 11 W/m² 2,3 °C 11,5 °C 6,4 km/h (2 Bft)
24.11.2017 16:05 11,5 °C 11,6 °C 54 % 1015,1 hPa 0,0 mm 2,0 km/h (1 Bft) SW 219 ° 0 min 0,000 mm 0,0 UV-I 11 W/m² 2,5 °C 11,5 °C 3,2 km/h (1 Bft)
24.11.2017 16:06 11,6 °C 11,6 °C 54 % 1015,1 hPa 0,0 mm 2,2 km/h (1 Bft) S 191 ° 0 min 0,000 mm 0,0 UV-I 9 W/m² 2,6 °C 11,6 °C 6,4 km/h (2 Bft)
24.11.2017 16:07 11,6 °C 11,6 °C 55 % 1015,1 hPa 0,0 mm 1,9 km/h (1 Bft) S-SW 192 ° 0 min 0,000 mm 0,0 UV-I 9 W/m² 2,9 °C 11,6 °C 3,2 km/h (1 Bft)
24.11.2017 16:08 11,5 °C 11,6 °C 54 % 1015,1 hPa 0,0 mm 3,8 km/h (1 Bft) W-SW 244 ° 0 min 0,000 mm 0,0 UV-I 7 W/m² 2,5 °C 11,5 °C 6,4 km/h (2 Bft)
24.11.2017 16:09 11,5 °C 11,6 °C 54 % 1015,1 hPa 0,0 mm 1,3 km/h (1 Bft) W-SW 244 ° 0 min 0,000 mm 0,0 UV-I 7 W/m² 2,5 °C 11,5 °C 3,2 km/h (1 Bft)
24.11.2017 16:10 11,5 °C 11,5 °C 54 % 1015,1 hPa 0,0 mm 3,8 km/h (1 Bft) S-SW 192 ° 0 min 0,000 mm 0,0 UV-I 7 W/m² 2,5 °C 11,5 °C 6,4 km/h (2 Bft)
24.11.2017 16:11 11,5 °C 11,5 °C 53 % 1015,1 hPa 0,0 mm 3,3 km/h (1 Bft) S-SW 193 ° 0 min 0,000 mm 0,0 UV-I 5 W/m² 2,3 °C 11,5 °C 4,8 km/h (1 Bft)
24.11.2017 16:12 11,5 °C 11,5 °C 54 % 1015,1 hPa 0,0 mm 1,6 km/h (1 Bft) S-SW 193 ° 0 min 0,000 mm 0,0 UV-I 5 W/m² 2,5 °C 11,5 °C 3,2 km/h (1 Bft)
24.11.2017 16:13 11,5 °C 11,5 °C 54 % 1015,1 hPa 0,0 mm 4,2 km/h (1 Bft) W-SW 242 ° 0 min 0,000 mm 0,0 UV-I 5 W/m² 2,5 °C 11,5 °C 6,4 km/h (2 Bft)
24.11.2017 16:14 11,5 °C 11,5 °C 53 % 1015,1 hPa 0,0 mm 3,9 km/h (1 Bft) S-SW 209 ° 0 min 0,000 mm 0,0 UV-I 5 W/m² 2,3 °C 11,5 °C 4,8 km/h (1 Bft)
24.11.2017 16:15 11,6 °C 11,6 °C 54 % 1015,1 hPa 0,0 mm 5,4 km/h (1 Bft) S-SW 198 ° 0 min 0,000 mm 0,0 UV-I 5 W/m² 2,6 °C 11,6 °C 8,0 km/h (2 Bft)
24.11.2017 16:16 11,6 °C 11,6 °C 53 % 1015,1 hPa 0,0 mm 5,3 km/h (1 Bft) SW 229 ° 0 min 0,000 mm 0,0 UV-I 5 W/m² 2,4 °C 11,6 °C 6,4 km/h (2 Bft)
24.11.2017 16:17 11,6 °C 11,6 °C 53 % 1015,1 hPa 0,0 mm 5,1 km/h (1 Bft) SW 214 ° 0 min 0,000 mm 0,0 UV-I 5 W/m² 2,4 °C 11,6 °C 6,4 km/h (2 Bft)
24.11.2017 16:18 11,6 °C 11,6 °C 53 % 1015,1 hPa 0,0 mm 4,9 km/h (1 Bft) S-SW 192 ° 0 min 0,000 mm 0,0 UV-I 5 W/m² 2,4 °C 11,6 °C 9,7 km/h (2 Bft)
24.11.2017 16:19 11,6 °C 11,6 °C 54 % 1015,1 hPa 0,0 mm 7,7 km/h (2 Bft) SW 227 ° 0 min 0,000 mm 0,0 UV-I 5 W/m² 2,6 °C 11,6 °C 11,3 km/h (2 Bft)
24.11.2017 16:20 11,6 °C 11,6 °C 54 % 1015,1 hPa 0,0 mm 8,6 km/h (2 Bft) S-SW 203 ° 0 min 0,000 mm 0,0 UV-I 0 W/m² 2,6 °C 11,6 °C 11,3 km/h (2 Bft)
24.11.2017 16:21 11,6 °C 11,6 °C 53 % 1015,1 hPa 0,0 mm 9,9 km/h (2 Bft) S 177 ° 0 min 0,000 mm 0,0 UV-I 0 W/m² 2,4 °C 11,6 °C 12,9 km/h (3 Bft)
24.11.2017 16:22 11,6 °C 11,6 °C 54 % 1015,1 hPa 0,0 mm 5,3 km/h (1 Bft) S 191 ° 0 min 0,000 mm 0,0 UV-I 0 W/m² 2,6 °C 11,6 °C 9,7 km/h (2 Bft)
24.11.2017 16:23 11,6 °C 11,7 °C 55 % 1015,1 hPa 0,0 mm 1,9 km/h (1 Bft) S 189 ° 0 min 0,000 mm 0,0 UV-I 0 W/m² 2,9 °C 11,6 °C 4,8 km/h (1 Bft)
24.11.2017 16:24 11,6 °C 11,6 °C 54 % 1015,1 hPa 0,0 mm 1,3 km/h (1 Bft) S 189 ° 0 min 0,000 mm 0,0 UV-I 0 W/m² 2,6 °C 11,6 °C 3,2 km/h (1 Bft)
24.11.2017 16:25 11,6 °C 11,7 °C 54 % 1015,1 hPa 0,0 mm 0,8 km/h (0 Bft) S 189 ° 0 min 0,000 mm 0,0 UV-I 0 W/m² 2,6 °C 11,6 °C 3,2 km/h (1 Bft)
24.11.2017 16:26 11,6 °C 11,7 °C 55 % 1015,1 hPa 0,0 mm 2,3 km/h (1 Bft) S 186 ° 0 min 0,000 mm 0,0 UV-I 0 W/m² 2,9 °C 11,6 °C 4,8 km/h (1 Bft)
24.11.2017 16:27 11,6 °C 11,7 °C 55 % 1015,1 hPa 0,0 mm 2,7 km/h (1 Bft) S 187 ° 0 min 0,000 mm 0,0 UV-I 0 W/m² 2,9 °C 11,6 °C 4,8 km/h (1 Bft)
24.11.2017 16:28 11,6 °C 11,6 °C 55 % 1015,1 hPa 0,0 mm 1,7 km/h (1 Bft) S 187 ° 0 min 0,000 mm 0,0 UV-I 0 W/m² 2,9 °C 11,6 °C 3,2 km/h (1 Bft)
24.11.2017 16:29 11,6 °C 11,6 °C 55 % 1015,1 hPa 0,0 mm 0,8 km/h (0 Bft) S 187 ° 0 min 0,000 mm 0,0 UV-I 0 W/m² 2,9 °C 11,6 °C 1,6 km/h (1 Bft)
24.11.2017 16:30 11,6 °C 11,6 °C 56 % 1015,1 hPa 0,0 mm 1,6 km/h (1 Bft) S 188 ° 0 min 0,000 mm 0,0 UV-I 0 W/m² 3,1 °C 11,6 °C 3,2 km/h (1 Bft)
24.11.2017 16:31 11,6 °C 11,6 °C 56 % 1015,1 hPa 0,0 mm 4,6 km/h (1 Bft) S-SW 213 ° 0 min 0,000 mm 0,0 UV-I 0 W/m² 3,1 °C 11,6 °C 6,4 km/h (2 Bft)
24.11.2017 16:32 11,6 °C 11,6 °C 55 % 1015,1 hPa 0,0 mm 5,0 km/h (1 Bft) S-SW 209 ° 0 min 0,000 mm 0,0 UV-I 0 W/m² 2,9 °C 11,6 °C 8,0 km/h (2 Bft)
24.11.2017 16:33 11,5 °C 11,6 °C 56 % 1015,1 hPa 0,0 mm 4,3 km/h (1 Bft) S-SW 207 ° 0 min 0,000 mm 0,0 UV-I 0 W/m² 3,0 °C 11,5 °C 8,0 km/h (2 Bft)
24.11.2017 16:34 11,5 °C 11,5 °C 56 % 1015,0 hPa 0,0 mm 3,2 km/h (1 Bft) S 185 ° 0 min 0,000 mm 0,0 UV-I 0 W/m² 3,0 °C 11,5 °C 4,8 km/h (1 Bft)
24.11.2017 16:35 11,4 °C 11,5 °C 56 % 1015,0 hPa 0,0 mm 1,3 km/h (1 Bft) SW 217 ° 0 min 0,000 mm 0,0 UV-I 0 W/m² 2,9 °C 11,4 °C 4,8 km/h (1 Bft)
24.11.2017 16:36 11,4 °C 11,4 °C 56 % 1014,9 hPa 0,0 mm 4,1 km/h (1 Bft) S-SW 197 ° 0 min 0,000 mm 0,0 UV-I 0 W/m² 2,9 °C 11,4 °C 6,4 km/h (2 Bft)
24.11.2017 16:37 11,4 °C 11,4 °C 55 % 1014,9 hPa 0,0 mm 4,2 km/h (1 Bft) S-SW 210 ° 0 min 0,000 mm 0,0 UV-I 0 W/m² 2,7 °C 11,4 °C 8,0 km/h (2 Bft)
24.11.2017 16:38 11,3 °C 11,4 °C 55 % 1014,9 hPa 0,0 mm 1,2 km/h (1 Bft) S-SW 208 ° 0 min 0,000 mm 0,0 UV-I 0 W/m² 2,6 °C 11,3 °C 4,8 km/h (1 Bft)
24.11.2017 16:39 11,3 °C 11,3 °C 56 % 1014,9 hPa 0,0 mm 1,3 km/h (1 Bft) S-SW 208 ° 0 min 0,000 mm 0,0 UV-I 0 W/m² 2,8 °C 11,3 °C 3,2 km/h (1 Bft)
24.11.2017 16:40 11,3 °C 11,3 °C 56 % 1014,9 hPa 0,0 mm 1,5 km/h (1 Bft) SW 236 ° 0 min 0,000 mm 0,0 UV-I 0 W/m² 2,8 °C 11,3 °C 4,8 km/h (1 Bft)
24.11.2017 16:41 11,3 °C 11,3 °C 56 % 1014,9 hPa 0,0 mm 3,5 km/h (1 Bft) SW 224 ° 0 min 0,000 mm 0,0 UV-I 0 W/m² 2,8 °C 11,3 °C 4,8 km/h (1 Bft)
24.11.2017 16:42 11,2 °C 11,3 °C 57 % 1014,9 hPa 0,0 mm 2,0 km/h (1 Bft) S-SO 151 ° 0 min 0,000 mm 0,0 UV-I 0 W/m² 3,0 °C 11,2 °C 9,7 km/h (2 Bft)
24.11.2017 16:43 11,2 °C 11,2 °C 57 % 1014,9 hPa 0,0 mm 3,0 km/h (1 Bft) S-SO 148 ° 0 min 0,000 mm 0,0 UV-I 0 W/m² 3,0 °C 11,2 °C 6,4 km/h (2 Bft)
24.11.2017 16:44 11,2 °C 11,2 °C 57 % 1014,9 hPa 0,0 mm 2,1 km/h (1 Bft) S 177 ° 0 min 0,000 mm 0,0 UV-I 0 W/m² 3,0 °C 11,2 °C 6,4 km/h (2 Bft)
24.11.2017 16:45 11,2 °C 11,2 °C 57 % 1014,8 hPa 0,0 mm 2,5 km/h (1 Bft) S-SW 211 ° 0 min 0,000 mm 0,0 UV-I 0 W/m² 3,0 °C 11,2 °C 4,8 km/h (1 Bft)
24.11.2017 16:46 11,1 °C 11,2 °C 58 % 1014,9 hPa 0,0 mm 3,6 km/h (1 Bft) S-SW 201 ° 0 min 0,000 mm 0,0 UV-I 0 W/m² 3,2 °C 11,1 °C 8,0 km/h (2 Bft)
24.11.2017 16:47 11,1 °C 11,1 °C 58 % 1014,9 hPa 0,0 mm 0,7 km/h (0 Bft) S-SW 192 ° 0 min 0,000 mm 0,0 UV-I 0 W/m² 3,2 °C 11,1 °C 3,2 km/h (1 Bft)
24.11.2017 16:48 11,1 °C 11,1 °C 58 % 1014,9 hPa 0,0 mm 0,0 km/h (0 Bft) S 191 ° 0 min 0,000 mm 0,0 UV-I 0 W/m² 3,2 °C 11,1 °C 0,0 km/h (0 Bft)
24.11.2017 16:49 11,1 °C 11,1 °C 58 % 1014,8 hPa 0,0 mm 1,3 km/h (1 Bft) S-SW 192 ° 0 min 0,000 mm 0,0 UV-I 0 W/m² 3,2 °C 11,1 °C 3,2 km/h (1 Bft)
24.11.2017 16:50 11,0 °C 11,1 °C 58 % 1014,8 hPa 0,0 mm 2,5 km/h (1 Bft) S-SW 193 ° 0 min 0,000 mm 0,0 UV-I 0 W/m² 3,1 °C 11,0 °C 4,8 km/h (1 Bft)
24.11.2017 16:51 11,0 °C 11,0 °C 58 % 1014,8 hPa 0,0 mm 3,4 km/h (1 Bft) S-SW 194 ° 0 min 0,000 mm 0,0 UV-I 0 W/m² 3,1 °C 11,0 °C 4,8 km/h (1 Bft)
24.11.2017 16:52 10,9 °C 11,0 °C 57 % 1014,8 hPa 0,0 mm 3,5 km/h (1 Bft) S 186 ° 0 min 0,000 mm 0,0 UV-I 0 W/m² 2,7 °C 10,9 °C 6,4 km/h (2 Bft)
24.11.2017 16:53 10,9 °C 10,9 °C 58 % 1014,8 hPa 0,0 mm 7,1 km/h (2 Bft) SW 217 ° 0 min 0,000 mm 0,0 UV-I 0 W/m² 3,0 °C 10,9 °C 16,1 km/h (3 Bft)
24.11.2017 16:54 10,9 °C 10,9 °C 58 % 1014,8 hPa 0,0 mm 5,6 km/h (1 Bft) SW 215 ° 0 min 0,000 mm 0,0 UV-I 0 W/m² 3,0 °C 10,9 °C 8,0 km/h (2 Bft)
24.11.2017 16:55 10,9 °C 10,9 °C 58 % 1014,9 hPa 0,0 mm 5,6 km/h (1 Bft) S-SW 194 ° 0 min 0,000 mm 0,0 UV-I 0 W/m² 3,0 °C 10,9 °C 16,1 km/h (3 Bft)
24.11.2017 16:56 10,9 °C 10,9 °C 58 % 1014,9 hPa 0,0 mm 9,5 km/h (2 Bft) S-SW 206 ° 0 min 0,000 mm 0,0 UV-I 0 W/m² 3,0 °C 10,9 °C 16,1 km/h (3 Bft)
24.11.2017 16:57 10,9 °C 10,9 °C 58 % 1014,9 hPa 0,0 mm 5,2 km/h (1 Bft) S-SW 193 ° 0 min 0,000 mm 0,0 UV-I 0 W/m² 3,0 °C 10,9 °C 9,7 km/h (2 Bft)
24.11.2017 16:58 10,9 °C 10,9 °C 58 % 1014,8 hPa 0,0 mm 4,8 km/h (1 Bft) S-SO 160 ° 0 min 0,000 mm 0,0 UV-I 0 W/m² 3,0 °C 10,9 °C 6,4 km/h (2 Bft)
24.11.2017 16:59 10,9 °C 10,9 °C 59 % 1014,8 hPa 0,0 mm 1,7 km/h (1 Bft) S-SO 159 ° 0 min 0,000 mm 0,0 UV-I 0 W/m² 3,2 °C 10,9 °C 6,4 km/h (2 Bft)
24.11.2017 17:00 10,9 °C 10,9 °C 59 % 1014,8 hPa 0,0 mm 2,0 km/h (1 Bft) S-SW 208 ° 0 min 0,000 mm 0,0 UV-I 0 W/m² 3,2 °C 10,9 °C 4,8 km/h (1 Bft)
24.11.2017 17:01 10,9 °C 10,9 °C 59 % 1014,9 hPa 0,0 mm 7,0 km/h (2 Bft) S-SW 210 ° 0 min 0,026 mm 0,0 UV-I 0 W/m² 3,2 °C 10,9 °C 11,3 km/h (2 Bft)
24.11.2017 17:02 10,9 °C 10,9 °C 59 % 1014,8 hPa 0,0 mm 5,1 km/h (1 Bft) S 178 ° 0 min 0,000 mm 0,0 UV-I 0 W/m² 3,2 °C 10,9 °C 8,0 km/h (2 Bft)
24.11.2017 17:03 10,9 °C 10,9 °C 59 % 1014,8 hPa 0,0 mm 3,5 km/h (1 Bft) S-SW 202 ° 0 min 0,000 mm 0,0 UV-I 0 W/m² 3,2 °C 10,9 °C 6,4 km/h (2 Bft)
24.11.2017 17:04 10,9 °C 10,9 °C 58 % 1014,9 hPa 0,0 mm 3,8 km/h (1 Bft) S-SW 197 ° 0 min 0,000 mm 0,0 UV-I 0 W/m² 3,0 °C 10,9 °C 6,4 km/h (2 Bft)
24.11.2017 17:05 10,8 °C 10,9 °C 60 % 1014,9 hPa 0,0 mm 2,7 km/h (1 Bft) S-SW 200 ° 0 min 0,000 mm 0,0 UV-I 0 W/m² 3,4 °C 10,8 °C 4,8 km/h (1 Bft)
24.11.2017 17:06 10,8 °C 10,9 °C 59 % 1014,8 hPa 0,0 mm 4,7 km/h (1 Bft) S-SW 201 ° 0 min 0,000 mm 0,0 UV-I 0 W/m² 3,1 °C 10,8 °C 8,0 km/h (2 Bft)
24.11.2017 17:07 10,8 °C 10,9 °C 59 % 1014,8 hPa 0,0 mm 5,3 km/h (1 Bft) SW 223 ° 0 min 0,000 mm 0,0 UV-I 0 W/m² 3,1 °C 10,8 °C 9,7 km/h (2 Bft)
24.11.2017 17:08 10,8 °C 10,8 °C 60 % 1014,9 hPa 0,0 mm 3,9 km/h (1 Bft) S-SW 200 ° 0 min 0,000 mm 0,0 UV-I 0 W/m² 3,4 °C 10,8 °C 4,8 km/h (1 Bft)
24.11.2017 17:09 10,8 °C 10,8 °C 59 % 1014,9 hPa 0,0 mm 4,0 km/h (1 Bft) SW 217 ° 0 min 0,000 mm 0,0 UV-I 0 W/m² 3,1 °C 10,8 °C 6,4 km/h (2 Bft)
24.11.2017 17:10 10,8 °C 10,8 °C 59 % 1014,8 hPa 0,0 mm 4,8 km/h (1 Bft) S-SW 202 ° 0 min 0,000 mm 0,0 UV-I 0 W/m² 3,1 °C 10,8 °C 6,4 km/h (2 Bft)
24.11.2017 17:11 10,8 °C 10,8 °C 60 % 1014,9 hPa 0,0 mm 4,4 km/h (1 Bft) S-SW 202 ° 0 min 0,000 mm 0,0 UV-I 0 W/m² 3,4 °C 10,8 °C 4,8 km/h (1 Bft)
24.11.2017 17:12 10,8 °C 10,8 °C 59 % 1014,8 hPa 0,0 mm 3,3 km/h (1 Bft) SW 221 ° 0 min 0,000 mm 0,0 UV-I 0 W/m² 3,1 °C 10,8 °C 8,0 km/h (2 Bft)
24.11.2017 17:13 10,8 °C 10,8 °C 59 % 1014,9 hPa 0,0 mm 5,0 km/h (1 Bft) S-SW 207 ° 0 min 0,000 mm 0,0 UV-I 0 W/m² 3,1 °C 10,8 °C 6,4 km/h (2 Bft)
24.11.2017 17:14 10,8 °C 10,8 °C 60 % 1014,9 hPa 0,0 mm 4,5 km/h (1 Bft) SW 215 ° 0 min 0,000 mm 0,0 UV-I 0 W/m² 3,4 °C 10,8 °C 6,4 km/h (2 Bft)
24.11.2017 17:15 10,8 °C 10,8 °C 60 % 1014,9 hPa 0,0 mm 3,7 km/h (1 Bft) SW 214 ° 0 min 0,000 mm 0,0 UV-I 0 W/m² 3,4 °C 10,8 °C 6,4 km/h (2 Bft)
24.11.2017 17:16 10,8 °C 10,8 °C 60 % 1014,9 hPa 0,0 mm 1,7 km/h (1 Bft) S-SW 213 ° 0 min 0,000 mm 0,0 UV-I 0 W/m² 3,4 °C 10,8 °C 3,2 km/h (1 Bft)
24.11.2017 17:17 10,8 °C 10,8 °C 60 % 1014,9 hPa 0,0 mm 3,6 km/h (1 Bft) S 189 ° 0 min 0,000 mm 0,0 UV-I 0 W/m² 3,4 °C 10,8 °C 8,0 km/h (2 Bft)
24.11.2017 17:18 10,8 °C 10,8 °C 60 % 1014,9 hPa 0,0 mm 3,5 km/h (1 Bft) S 178 ° 0 min 0,000 mm 0,0 UV-I 0 W/m² 3,4 °C 10,8 °C 6,4 km/h (2 Bft)
24.11.2017 17:19 10,8 °C 10,8 °C 60 % 1014,8 hPa 0,0 mm 3,5 km/h (1 Bft) S 178 ° 0 min 0,000 mm 0,0 UV-I 0 W/m² 3,4 °C 10,8 °C 6,4 km/h (2 Bft)
24.11.2017 17:20 10,8 °C 10,8 °C 61 % 1014,8 hPa 0,0 mm 1,6 km/h (1 Bft) S 178 ° 0 min 0,000 mm 0,0 UV-I 0 W/m² 3,6 °C 10,8 °C 3,2 km/h (1 Bft)
24.11.2017 17:21 10,8 °C 10,8 °C 61 % 1014,8 hPa 0,0 mm 3,0 km/h (1 Bft) S 178 ° 0 min 0,000 mm 0,0 UV-I 0 W/m² 3,6 °C 10,8 °C 4,8 km/h (1 Bft)
24.11.2017 17:22 10,7 °C 10,8 °C 61 % 1014,8 hPa 0,0 mm 2,1 km/h (1 Bft) S 178 ° 0 min 0,000 mm 0,0 UV-I 0 W/m² 3,5 °C 10,7 °C 3,2 km/h (1 Bft)
24.11.2017 17:23 10,7 °C 10,7 °C 61 % 1014,8 hPa 0,0 mm 0,8 km/h (0 Bft) S 178 ° 0 min 0,000 mm 0,0 UV-I 0 W/m² 3,5 °C 10,7 °C 3,2 km/h (1 Bft)
24.11.2017 17:24 10,7 °C 10,7 °C 61 % 1014,8 hPa 0,0 mm 0,0 km/h (0 Bft) S 178 ° 0 min 0,000 mm 0,0 UV-I 0 W/m² 3,5 °C 10,7 °C 0,0 km/h (0 Bft)
24.11.2017 17:25 10,7 °C 10,7 °C 61 % 1014,8 hPa 0,0 mm 0,0 km/h (0 Bft) S 178 ° 0 min 0,000 mm 0,0 UV-I 0 W/m² 3,5 °C 10,7 °C 0,0 km/h (0 Bft)
24.11.2017 17:26 10,7 °C 10,7 °C 61 % 1014,8 hPa 0,0 mm 0,8 km/h (0 Bft) S-SW 198 ° 0 min 0,000 mm 0,0 UV-I 0 W/m² 3,5 °C 10,7 °C 4,8 km/h (1 Bft)
24.11.2017 17:27 10,6 °C 10,7 °C 61 % 1014,8 hPa 0,0 mm 4,8 km/h (1 Bft) S-SW 198 ° 0 min 0,000 mm 0,0 UV-I 0 W/m² 3,4 °C 10,6 °C 6,4 km/h (2 Bft)
24.11.2017 17:28 10,6 °C 10,6 °C 61 % 1014,9 hPa 0,0 mm 4,9 km/h (1 Bft) S-SW 200 ° 0 min 0,000 mm 0,0 UV-I 0 W/m² 3,4 °C 10,6 °C 6,4 km/h (2 Bft)
24.11.2017 17:29 10,5 °C 10,6 °C 61 % 1014,9 hPa 0,0 mm 3,8 km/h (1 Bft) S-SW 200 ° 0 min 0,000 mm 0,0 UV-I 0 W/m² 3,3 °C 10,5 °C 6,4 km/h (2 Bft)
24.11.2017 17:30 10,4 °C 10,5 °C 61 % 1014,9 hPa 0,0 mm 2,5 km/h (1 Bft) S-SW 200 ° 0 min 0,000 mm 0,0 UV-I 0 W/m² 3,2 °C 10,4 °C 3,2 km/h (1 Bft)
24.11.2017 17:31 10,4 °C 10,4 °C 62 % 1014,9 hPa 0,0 mm 4,1 km/h (1 Bft) S-SW 200 ° 0 min 0,000 mm 0,0 UV-I 0 W/m² 3,4 °C 10,4 °C 4,8 km/h (1 Bft)
24.11.2017 17:32 10,4 °C 10,4 °C 62 % 1014,9 hPa 0,0 mm 3,0 km/h (1 Bft) S 179 ° 0 min 0,000 mm 0,0 UV-I 0 W/m² 3,4 °C 10,4 °C 4,8 km/h (1 Bft)
24.11.2017 17:33 10,3 °C 10,4 °C 62 % 1014,9 hPa 0,0 mm 2,7 km/h (1 Bft) S 179 ° 0 min 0,000 mm 0,0 UV-I 0 W/m² 3,3 °C 10,3 °C 4,8 km/h (1 Bft)
24.11.2017 17:34 10,3 °C 10,3 °C 62 % 1014,9 hPa 0,0 mm 3,8 km/h (1 Bft) S-SW 200 ° 0 min 0,000 mm 0,0 UV-I 0 W/m² 3,3 °C 10,3 °C 4,8 km/h (1 Bft)
24.11.2017 17:35 10,2 °C 10,3 °C 62 % 1014,9 hPa 0,0 mm 3,1 km/h (1 Bft) S-SW 205 ° 0 min 0,000 mm 0,0 UV-I 0 W/m² 3,3 °C 10,2 °C 4,8 km/h (1 Bft)
24.11.2017 17:36 10,2 °C 10,2 °C 63 % 1014,9 hPa 0,0 mm 4,3 km/h (1 Bft) S-SW 205 ° 0 min 0,000 mm 0,0 UV-I 0 W/m² 3,5 °C 10,2 °C 4,8 km/h (1 Bft)
24.11.2017 17:37 10,1 °C 10,2 °C 63 % 1014,9 hPa 0,0 mm 3,1 km/h (1 Bft) S-SW 205 ° 0 min 0,000 mm 0,0 UV-I 0 W/m² 3,4 °C 10,1 °C 4,8 km/h (1 Bft)
24.11.2017 17:38 10,1 °C 10,1 °C 64 % 1014,9 hPa 0,0 mm 4,3 km/h (1 Bft) S-SW 206 ° 0 min 0,000 mm 0,0 UV-I 0 W/m² 3,6 °C 10,1 °C 6,4 km/h (2 Bft)
24.11.2017 17:39 10,1 °C 10,1 °C 63 % 1014,9 hPa 0,0 mm 2,4 km/h (1 Bft) S-SW 205 ° 0 min 0,000 mm 0,0 UV-I 0 W/m² 3,4 °C 10,1 °C 3,2 km/h (1 Bft)
24.11.2017 17:40 10,0 °C 10,1 °C 63 % 1014,8 hPa 0,0 mm 3,6 km/h (1 Bft) S-SW 205 ° 0 min 0,000 mm 0,0 UV-I 0 W/m² 3,3 °C 10,0 °C 6,4 km/h (2 Bft)
24.11.2017 17:41 10,0 °C 10,0 °C 64 % 1014,8 hPa 0,0 mm 2,3 km/h (1 Bft) S-SW 205 ° 0 min 0,000 mm 0,0 UV-I 0 W/m² 3,5 °C 10,0 °C 3,2 km/h (1 Bft)
24.11.2017 17:42 9,9 °C 10,0 °C 63 % 1014,8 hPa 0,0 mm 2,7 km/h (1 Bft) S-SW 204 ° 0 min 0,000 mm 0,0 UV-I 0 W/m² 3,2 °C 9,9 °C 4,8 km/h (1 Bft)
24.11.2017 17:43 9,9 °C 9,9 °C 64 % 1014,8 hPa 0,0 mm 3,0 km/h (1 Bft) S-SW 201 ° 0 min 0,000 mm 0,0 UV-I 0 W/m² 3,4 °C 9,9 °C 4,8 km/h (1 Bft)
24.11.2017 17:44 9,9 °C 9,9 °C 64 % 1014,8 hPa 0,0 mm 1,6 km/h (1 Bft) S-SW 201 ° 0 min 0,000 mm 0,0 UV-I 0 W/m² 3,4 °C 9,9 °C 4,8 km/h (1 Bft)
24.11.2017 17:45 9,8 °C 9,9 °C 64 % 1014,8 hPa 0,0 mm 0,4 km/h (0 Bft) S-SW 201 ° 0 min 0,000 mm 0,0 UV-I 0 W/m² 3,3 °C 9,8 °C 3,2 km/h (1 Bft)
24.11.2017 17:46 9,8 °C 9,9 °C 64 % 1014,8 hPa 0,0 mm 1,6 km/h (1 Bft) S-SW 201 ° 0 min 0,000 mm 0,0 UV-I 0 W/m² 3,3 °C 9,8 °C 3,2 km/h (1 Bft)
24.11.2017 17:47 9,8 °C 9,8 °C 65 % 1014,8 hPa 0,0 mm 2,8 km/h (1 Bft) S-SW 200 ° 0 min 0,000 mm 0,0 UV-I 0 W/m² 3,5 °C 9,8 °C 4,8 km/h (1 Bft)
24.11.2017 17:48 9,8 °C 9,8 °C 65 % 1014,8 hPa 0,0 mm 2,7 km/h (1 Bft) S 181 ° 0 min 0,000 mm 0,0 UV-I 0 W/m² 3,5 °C 9,8 °C 3,2 km/h (1 Bft)
24.11.2017 17:49 9,7 °C 9,8 °C 64 % 1014,8 hPa 0,0 mm 0,8 km/h (0 Bft) S 181 ° 0 min 0,000 mm 0,0 UV-I 0 W/m² 3,2 °C 9,7 °C 1,6 km/h (1 Bft)
24.11.2017 17:50 9,7 °C 9,7 °C 64 % 1014,8 hPa 0,0 mm 0,9 km/h (0 Bft) S 181 ° 0 min 0,000 mm 0,0 UV-I 0 W/m² 3,2 °C 9,7 °C 1,6 km/h (1 Bft)
24.11.2017 17:51 9,7 °C 9,7 °C 65 % 1014,8 hPa 0,0 mm 1,2 km/h (1 Bft) S 181 ° 0 min 0,000 mm 0,0 UV-I 0 W/m² 3,4 °C 9,7 °C 3,2 km/h (1 Bft)
24.11.2017 17:52 9,6 °C 9,7 °C 65 % 1014,8 hPa 0,0 mm 0,1 km/h (0 Bft) S 181 ° 0 min 0,000 mm 0,0 UV-I 0 W/m² 3,4 °C 9,6 °C 1,6 km/h (1 Bft)
24.11.2017 17:53 9,6 °C 9,7 °C 65 % 1014,9 hPa 0,0 mm 0,0 km/h (0 Bft) S 181 ° 0 min 0,000 mm 0,0 UV-I 0 W/m² 3,4 °C 9,6 °C 0,0 km/h (0 Bft)
24.11.2017 17:54 9,6 °C 9,6 °C 65 % 1014,9 hPa 0,0 mm 0,8 km/h (0 Bft) S 181 ° 0 min 0,000 mm 0,0 UV-I 0 W/m² 3,4 °C 9,6 °C 3,2 km/h (1 Bft)
24.11.2017 17:55 9,5 °C 9,6 °C 65 % 1014,9 hPa 0,0 mm 3,0 km/h (1 Bft) S 181 ° 0 min 0,000 mm 0,0 UV-I 0 W/m² 3,3 °C 9,5 °C 3,2 km/h (1 Bft)
24.11.2017 17:56 9,4 °C 9,5 °C 65 % 1014,9 hPa 0,0 mm 0,9 km/h (0 Bft) S 181 ° 0 min 0,000 mm 0,0 UV-I 0 W/m² 3,2 °C 9,4 °C 3,2 km/h (1 Bft)
24.11.2017 17:57 9,4 °C 9,4 °C 66 % 1014,8 hPa 0,0 mm 0,0 km/h (0 Bft) S 181 ° 0 min 0,000 mm 0,0 UV-I 0 W/m² 3,4 °C 9,4 °C 0,0 km/h (0 Bft)
24.11.2017 17:58 9,4 °C 9,4 °C 66 % 1014,8 hPa 0,0 mm 0,0 km/h (0 Bft) S 181 ° 0 min 0,000 mm 0,0 UV-I 0 W/m² 3,4 °C 9,4 °C 0,0 km/h (0 Bft)
24.11.2017 17:59 9,3 °C 9,4 °C 66 % 1014,8 hPa 0,0 mm 0,2 km/h (0 Bft) S 181 ° 0 min 0,000 mm 0,0 UV-I 0 W/m² 3,3 °C 9,3 °C 1,6 km/h (1 Bft)
24.11.2017 18:00 9,3 °C 9,3 °C 66 % 1014,8 hPa 0,0 mm 0,0 km/h (0 Bft) S 181 ° 0 min 0,000 mm 0,0 UV-I 0 W/m² 3,3 °C 9,3 °C 0,0 km/h (0 Bft)
24.11.2017 18:01 9,3 °C 9,3 °C 66 % 1014,8 hPa 0,0 mm 0,0 km/h (0 Bft) S 181 ° 0 min 0,025 mm 0,0 UV-I 0 W/m² 3,3 °C 9,3 °C 0,0 km/h (0 Bft)
24.11.2017 18:02 9,3 °C 9,3 °C 66 % 1014,8 hPa 0,0 mm 0,0 km/h (0 Bft) S 181 ° 0 min 0,000 mm 0,0 UV-I 0 W/m² 3,3 °C 9,3 °C 0,0 km/h (0 Bft)
24.11.2017 18:03 9,2 °C 9,3 °C 67 % 1014,8 hPa 0,0 mm 0,0 km/h (0 Bft) S 181 ° 0 min 0,000 mm 0,0 UV-I 0 W/m² 3,4 °C 9,2 °C 0,0 km/h (0 Bft)
24.11.2017 18:04 9,2 °C 9,2 °C 67 % 1014,8 hPa 0,0 mm 0,0 km/h (0 Bft) S 181 ° 0 min 0,000 mm 0,0 UV-I 0 W/m² 3,4 °C 9,2 °C 0,0 km/h (0 Bft)
24.11.2017 18:05 9,2 °C 9,2 °C 68 % 1014,8 hPa 0,0 mm 1,4 km/h (1 Bft) S 181 ° 0 min 0,000 mm 0,0 UV-I 0 W/m² 3,6 °C 9,2 °C 3,2 km/h (1 Bft)
24.11.2017 18:06 9,1 °C 9,2 °C 67 % 1014,8 hPa 0,0 mm 1,1 km/h (1 Bft) S 181 ° 0 min 0,000 mm 0,0 UV-I 0 W/m² 3,3 °C 9,1 °C 3,2 km/h (1 Bft)
24.11.2017 18:07 9,1 °C 9,2 °C 67 % 1014,8 hPa 0,0 mm 0,0 km/h (0 Bft) S 181 ° 0 min 0,000 mm 0,0 UV-I 0 W/m² 3,3 °C 9,1 °C 0,0 km/h (0 Bft)
24.11.2017 18:08 9,1 °C 9,1 °C 67 % 1014,8 hPa 0,0 mm 1,8 km/h (1 Bft) S 181 ° 0 min 0,000 mm 0,0 UV-I 0 W/m² 3,3 °C 9,1 °C 3,2 km/h (1 Bft)
24.11.2017 18:09 9,0 °C 9,1 °C 67 % 1014,9 hPa 0,0 mm 3,6 km/h (1 Bft) W-SW 250 ° 0 min 0,000 mm 0,0 UV-I 0 W/m² 3,2 °C 9,0 °C 6,4 km/h (2 Bft)
24.11.2017 18:10 8,9 °C 9,0 °C 67 % 1014,9 hPa 0,0 mm 1,3 km/h (1 Bft) W-SW 250 ° 0 min 0,000 mm 0,0 UV-I 0 W/m² 3,1 °C 8,9 °C 3,2 km/h (1 Bft)
24.11.2017 18:11 8,9 °C 8,9 °C 67 % 1014,9 hPa 0,0 mm 0,7 km/h (0 Bft) W-SW 250 ° 0 min 0,000 mm 0,0 UV-I 0 W/m² 3,1 °C 8,9 °C 1,6 km/h (1 Bft)
24.11.2017 18:12 8,8 °C 8,9 °C 68 % 1014,9 hPa 0,0 mm 2,0 km/h (1 Bft) W-SW 250 ° 0 min 0,000 mm 0,0 UV-I 0 W/m² 3,2 °C 8,8 °C 3,2 km/h (1 Bft)
24.11.2017 18:13 8,8 °C 8,8 °C 68 % 1014,9 hPa 0,0 mm 2,2 km/h (1 Bft) W-SW 250 ° 0 min 0,000 mm 0,0 UV-I 0 W/m² 3,2 °C 8,8 °C 3,2 km/h (1 Bft)
24.11.2017 18:14 8,7 °C 8,8 °C 68 % 1014,9 hPa 0,0 mm 2,0 km/h (1 Bft) W-SW 250 ° 0 min 0,000 mm 0,0 UV-I 0 W/m² 3,1 °C 8,7 °C 3,2 km/h (1 Bft)
24.11.2017 18:15 8,7 °C 8,7 °C 68 % 1014,9 hPa 0,0 mm 0,5 km/h (0 Bft) W-SW 250 ° 0 min 0,000 mm 0,0 UV-I 0 W/m² 3,1 °C 8,7 °C 3,2 km/h (1 Bft)
24.11.2017 18:16 8,6 °C 8,7 °C 68 % 1014,8 hPa 0,0 mm 0,0 km/h (0 Bft) W-SW 250 ° 0 min 0,000 mm 0,0 UV-I 0 W/m² 3,0 °C 8,6 °C 0,0 km/h (0 Bft)
24.11.2017 18:17 8,6 °C 8,6 °C 68 % 1014,8 hPa 0,0 mm 0,0 km/h (0 Bft) W-SW 250 ° 0 min 0,000 mm 0,0 UV-I 0 W/m² 3,0 °C 8,6 °C 0,0 km/h (0 Bft)
24.11.2017 18:18 8,6 °C 8,6 °C 69 % 1014,8 hPa 0,0 mm 1,2 km/h (1 Bft) S 171 ° 0 min 0,000 mm 0,0 UV-I 0 W/m² 3,2 °C 8,6 °C 6,4 km/h (2 Bft)
24.11.2017 18:19 8,5 °C 8,6 °C 68 % 1014,7 hPa 0,0 mm 4,8 km/h (1 Bft) S 170 ° 0 min 0,000 mm 0,0 UV-I 0 W/m² 2,9 °C 8,1 °C 6,4 km/h (2 Bft)
24.11.2017 18:20 8,5 °C 8,6 °C 68 % 1014,8 hPa 0,0 mm 2,0 km/h (1 Bft) S 170 ° 0 min 0,000 mm 0,0 UV-I 0 W/m² 2,9 °C 8,5 °C 6,4 km/h (2 Bft)
24.11.2017 18:21 8,4 °C 8,5 °C 68 % 1014,8 hPa 0,0 mm 2,4 km/h (1 Bft) W-SW 251 ° 0 min 0,000 mm 0,0 UV-I 0 W/m² 2,8 °C 8,4 °C 6,4 km/h (2 Bft)
24.11.2017 18:22 8,4 °C 8,4 °C 68 % 1014,9 hPa 0,0 mm 5,4 km/h (1 Bft) W 276 ° 0 min 0,000 mm 0,0 UV-I 0 W/m² 2,8 °C 7,8 °C 9,7 km/h (2 Bft)
24.11.2017 18:23 8,4 °C 8,4 °C 69 % 1014,9 hPa 0,0 mm 3,3 km/h (1 Bft) W 272 ° 0 min 0,000 mm 0,0 UV-I 0 W/m² 3,0 °C 8,4 °C 4,8 km/h (1 Bft)
24.11.2017 18:24 8,4 °C 8,4 °C 69 % 1014,9 hPa 0,0 mm 0,2 km/h (0 Bft) W 272 ° 0 min 0,000 mm 0,0 UV-I 0 W/m² 3,0 °C 8,4 °C 1,6 km/h (1 Bft)
24.11.2017 18:25 8,3 °C 8,4 °C 69 % 1014,9 hPa 0,0 mm 1,1 km/h (1 Bft) W 268 ° 0 min 0,000 mm 0,0 UV-I 0 W/m² 3,0 °C 8,3 °C 1,6 km/h (1 Bft)
24.11.2017 18:26 8,3 °C 8,3 °C 69 % 1014,9 hPa 0,0 mm 3,6 km/h (1 Bft) S 190 ° 0 min 0,000 mm 0,0 UV-I 0 W/m² 3,0 °C 8,3 °C 4,8 km/h (1 Bft)
24.11.2017 18:27 8,3 °C 8,3 °C 69 % 1014,9 hPa 0,0 mm 5,8 km/h (2 Bft) S-SO 165 ° 0 min 0,000 mm 0,0 UV-I 0 W/m² 3,0 °C 7,6 °C 8,0 km/h (2 Bft)
24.11.2017 18:28 8,3 °C 8,3 °C 70 % 1014,9 hPa 0,0 mm 4,1 km/h (1 Bft) S-SO 165 ° 0 min 0,000 mm 0,0 UV-I 0 W/m² 3,2 °C 8,3 °C 6,4 km/h (2 Bft)
24.11.2017 18:29 8,2 °C 8,3 °C 69 % 1014,9 hPa 0,0 mm 4,2 km/h (1 Bft) S 179 ° 0 min 0,000 mm 0,0 UV-I 0 W/m² 2,9 °C 8,2 °C 8,0 km/h (2 Bft)
24.11.2017 18:30 8,2 °C 8,2 °C 69 % 1015,0 hPa 0,0 mm 5,2 km/h (1 Bft) W 271 ° 0 min 0,000 mm 0,0 UV-I 0 W/m² 2,9 °C 7,6 °C 6,4 km/h (2 Bft)
24.11.2017 18:31 8,2 °C 8,2 °C 70 % 1015,0 hPa 0,0 mm 4,6 km/h (1 Bft) W 259 ° 0 min 0,000 mm 0,0 UV-I 0 W/m² 3,1 °C 7,9 °C 11,3 km/h (2 Bft)
24.11.2017 18:32 8,1 °C 8,2 °C 70 % 1015,0 hPa 0,0 mm 5,7 km/h (1 Bft) S 190 ° 0 min 0,000 mm 0,0 UV-I 0 W/m² 3,0 °C 7,4 °C 9,7 km/h (2 Bft)
24.11.2017 18:33 8,1 °C 8,1 °C 70 % 1015,0 hPa 0,0 mm 6,2 km/h (2 Bft) S 173 ° 0 min 0,000 mm 0,0 UV-I 0 W/m² 3,0 °C 7,2 °C 8,0 km/h (2 Bft)
24.11.2017 18:34 8,1 °C 8,1 °C 70 % 1015,0 hPa 0,0 mm 5,2 km/h (1 Bft) S 173 ° 0 min 0,000 mm 0,0 UV-I 0 W/m² 3,0 °C 7,5 °C 8,0 km/h (2 Bft)
24.11.2017 18:35 8,0 °C 8,1 °C 70 % 1015,0 hPa 0,0 mm 5,6 km/h (1 Bft) S 172 ° 0 min 0,000 mm 0,0 UV-I 0 W/m² 2,9 °C 7,3 °C 8,0 km/h (2 Bft)
24.11.2017 18:36 7,9 °C 8,0 °C 70 % 1015,0 hPa 0,0 mm 5,6 km/h (1 Bft) S-SO 160 ° 0 min 0,000 mm 0,0 UV-I 0 W/m² 2,8 °C 7,2 °C 9,7 km/h (2 Bft)
24.11.2017 18:37 7,9 °C 8,0 °C 70 % 1015,0 hPa 0,0 mm 7,2 km/h (2 Bft) S 173 ° 0 min 0,000 mm 0,0 UV-I 0 W/m² 2,8 °C 6,7 °C 9,7 km/h (2 Bft)
24.11.2017 18:38 7,9 °C 7,9 °C 70 % 1015,0 hPa 0,0 mm 5,6 km/h (1 Bft) S 173 ° 0 min 0,000 mm 0,0 UV-I 0 W/m² 2,8 °C 7,2 °C 8,0 km/h (2 Bft)
24.11.2017 18:39 7,9 °C 7,9 °C 70 % 1015,0 hPa 0,0 mm 5,9 km/h (2 Bft) S 173 ° 0 min 0,000 mm 0,0 UV-I 0 W/m² 2,8 °C 7,1 °C 8,0 km/h (2 Bft)
24.11.2017 18:40 7,9 °C 7,9 °C 71 % 1014,9 hPa 0,0 mm 3,0 km/h (1 Bft) S 173 ° 0 min 0,000 mm 0,0 UV-I 0 W/m² 3,0 °C 7,9 °C 4,8 km/h (1 Bft)
24.11.2017 18:41 7,9 °C 7,9 °C 71 % 1014,9 hPa 0,0 mm 4,1 km/h (1 Bft) W 280 ° 0 min 0,000 mm 0,0 UV-I 0 W/m² 3,0 °C 7,9 °C 6,4 km/h (2 Bft)
24.11.2017 18:42 7,8 °C 7,9 °C 70 % 1014,9 hPa 0,0 mm 0,8 km/h (0 Bft) W 280 ° 0 min 0,000 mm 0,0 UV-I 0 W/m² 2,7 °C 7,8 °C 1,6 km/h (1 Bft)
24.11.2017 18:43 7,8 °C 7,8 °C 70 % 1014,9 hPa 0,0 mm 1,0 km/h (0 Bft) SW 234 ° 0 min 0,000 mm 0,0 UV-I 0 W/m² 2,7 °C 7,8 °C 3,2 km/h (1 Bft)
24.11.2017 18:44 7,8 °C 7,8 °C 70 % 1014,9 hPa 0,0 mm 1,9 km/h (1 Bft) S-SW 202 ° 0 min 0,000 mm 0,0 UV-I 0 W/m² 2,7 °C 7,8 °C 4,8 km/h (1 Bft)
24.11.2017 18:45 7,8 °C 7,8 °C 70 % 1014,9 hPa 0,0 mm 0,0 km/h (0 Bft) S-SW 202 ° 0 min 0,000 mm 0,0 UV-I 0 W/m² 2,7 °C 7,8 °C 0,0 km/h (0 Bft)
24.11.2017 18:46 7,8 °C 7,8 °C 71 % 1014,9 hPa 0,0 mm 0,0 km/h (0 Bft) S-SW 202 ° 0 min 0,000 mm 0,0 UV-I 0 W/m² 2,9 °C 7,8 °C 0,0 km/h (0 Bft)
24.11.2017 18:47 7,8 °C 7,8 °C 71 % 1014,9 hPa 0,0 mm 0,0 km/h (0 Bft) S-SW 202 ° 0 min 0,000 mm 0,0 UV-I 0 W/m² 2,9 °C 7,8 °C 0,0 km/h (0 Bft)
24.11.2017 18:48 7,7 °C 7,8 °C 71 % 1014,9 hPa 0,0 mm 1,0 km/h (0 Bft) S-SW 202 ° 0 min 0,000 mm 0,0 UV-I 0 W/m² 2,8 °C 7,7 °C 3,2 km/h (1 Bft)
24.11.2017 18:49 7,7 °C 7,7 °C 71 % 1014,8 hPa 0,0 mm 2,3 km/h (1 Bft) S-SW 202 ° 0 min 0,000 mm 0,0 UV-I 0 W/m² 2,8 °C 7,7 °C 3,2 km/h (1 Bft)
24.11.2017 18:50 7,7 °C 7,7 °C 72 % 1014,8 hPa 0,0 mm 0,1 km/h (0 Bft) S-SW 201 ° 0 min 0,000 mm 0,0 UV-I 0 W/m² 3,0 °C 7,7 °C 1,6 km/h (1 Bft)
24.11.2017 18:51 7,7 °C 7,7 °C 71 % 1014,9 hPa 0,0 mm 0,0 km/h (0 Bft) S-SW 202 ° 0 min 0,000 mm 0,0 UV-I 0 W/m² 2,8 °C 7,7 °C 0,0 km/h (0 Bft)
24.11.2017 18:52 7,6 °C 7,7 °C 71 % 1014,8 hPa 0,0 mm 0,0 km/h (0 Bft) S-SW 202 ° 0 min 0,000 mm 0,0 UV-I 0 W/m² 2,7 °C 7,6 °C 0,0 km/h (0 Bft)
24.11.2017 18:53 7,6 °C 7,6 °C 72 % 1014,8 hPa 0,0 mm 0,2 km/h (0 Bft) S-SW 202 ° 0 min 0,000 mm 0,0 UV-I 0 W/m² 2,9 °C 7,6 °C 1,6 km/h (1 Bft)
24.11.2017 18:54 7,6 °C 7,6 °C 72 % 1014,8 hPa 0,0 mm 3,2 km/h (1 Bft) S 180 ° 0 min 0,000 mm 0,0 UV-I 0 W/m² 2,9 °C 7,6 °C 4,8 km/h (1 Bft)
24.11.2017 18:55 7,5 °C 7,6 °C 72 % 1014,8 hPa 0,0 mm 4,6 km/h (1 Bft) S 176 ° 0 min 0,000 mm 0,0 UV-I 0 W/m² 2,8 °C 7,1 °C 6,4 km/h (2 Bft)
24.11.2017 18:56 7,4 °C 7,5 °C 72 % 1014,8 hPa 0,0 mm 5,1 km/h (1 Bft) S 176 ° 0 min 0,000 mm 0,0 UV-I 0 W/m² 2,7 °C 6,8 °C 11,3 km/h (2 Bft)
24.11.2017 18:57 7,4 °C 7,4 °C 72 % 1014,7 hPa 0,0 mm 6,4 km/h (2 Bft) S 176 ° 0 min 0,000 mm 0,0 UV-I 0 W/m² 2,7 °C 6,4 °C 8,0 km/h (2 Bft)
24.11.2017 18:58 7,3 °C 7,4 °C 72 % 1014,7 hPa 0,0 mm 5,9 km/h (2 Bft) S 186 ° 0 min 0,000 mm 0,0 UV-I 0 W/m² 2,6 °C 6,4 °C 8,0 km/h (2 Bft)
24.11.2017 18:59 7,3 °C 7,4 °C 72 % 1014,7 hPa 0,0 mm 2,0 km/h (1 Bft) S 186 ° 0 min 0,000 mm 0,0 UV-I 0 W/m² 2,6 °C 7,3 °C 6,4 km/h (2 Bft)
24.11.2017 19:00 7,3 °C 7,3 °C 72 % 1014,7 hPa 0,0 mm 1,8 km/h (1 Bft) S 186 ° 0 min 0,000 mm 0,0 UV-I 0 W/m² 2,6 °C 7,3 °C 6,4 km/h (2 Bft)
24.11.2017 19:01 7,3 °C 7,3 °C 72 % 1014,7 hPa 0,0 mm 7,3 km/h (2 Bft) S 186 ° 0 min 0,025 mm 0,0 UV-I 0 W/m² 2,6 °C 6,0 °C 8,0 km/h (2 Bft)
24.11.2017 19:02 7,3 °C 7,3 °C 72 % 1014,7 hPa 0,0 mm 6,8 km/h (2 Bft) S 185 ° 0 min 0,000 mm 0,0 UV-I 0 W/m² 2,6 °C 6,1 °C 8,0 km/h (2 Bft)
24.11.2017 19:03 7,3 °C 7,3 °C 73 % 1014,7 hPa 0,0 mm 5,2 km/h (1 Bft) S 184 ° 0 min 0,000 mm 0,0 UV-I 0 W/m² 2,8 °C 6,6 °C 8,0 km/h (2 Bft)
24.11.2017 19:04 7,2 °C 7,3 °C 73 % 1014,7 hPa 0,0 mm 6,3 km/h (2 Bft) S 184 ° 0 min 0,000 mm 0,0 UV-I 0 W/m² 2,7 °C 6,2 °C 8,0 km/h (2 Bft)
24.11.2017 19:05 7,2 °C 7,2 °C 73 % 1014,8 hPa 0,0 mm 4,8 km/h (1 Bft) S 184 ° 0 min 0,000 mm 0,0 UV-I 0 W/m² 2,7 °C 6,7 °C 6,4 km/h (2 Bft)
24.11.2017 19:06 7,2 °C 7,2 °C 73 % 1014,8 hPa 0,0 mm 5,6 km/h (1 Bft) S 184 ° 0 min 0,000 mm 0,0 UV-I 0 W/m² 2,7 °C 6,4 °C 6,4 km/h (2 Bft)
24.11.2017 19:07 7,1 °C 7,2 °C 73 % 1014,8 hPa 0,0 mm 6,2 km/h (2 Bft) S 186 ° 0 min 0,000 mm 0,0 UV-I 0 W/m² 2,6 °C 6,1 °C 8,0 km/h (2 Bft)
24.11.2017 19:08 7,1 °C 7,1 °C 73 % 1014,8 hPa 0,0 mm 5,8 km/h (2 Bft) S 187 ° 0 min 0,000 mm 0,0 UV-I 0 W/m² 2,6 °C 6,2 °C 8,0 km/h (2 Bft)
24.11.2017 19:09 7,1 °C 7,1 °C 73 % 1014,9 hPa 0,0 mm 5,6 km/h (1 Bft) S 184 ° 0 min 0,000 mm 0,0 UV-I 0 W/m² 2,6 °C 6,3 °C 8,0 km/h (2 Bft)
24.11.2017 19:10 7,1 °C 7,1 °C 73 % 1014,9 hPa 0,0 mm 4,6 km/h (1 Bft) S 180 ° 0 min 0,000 mm 0,0 UV-I 0 W/m² 2,6 °C 6,6 °C 6,4 km/h (2 Bft)
24.11.2017 19:11 7,1 °C 7,1 °C 73 % 1014,8 hPa 0,0 mm 4,2 km/h (1 Bft) S 180 ° 0 min 0,000 mm 0,0 UV-I 0 W/m² 2,6 °C 7,1 °C 6,4 km/h (2 Bft)
24.11.2017 19:12 7,1 °C 7,1 °C 73 % 1014,9 hPa 0,0 mm 4,5 km/h (1 Bft) S 180 ° 0 min 0,000 mm 0,0 UV-I 0 W/m² 2,6 °C 7,1 °C 6,4 km/h (2 Bft)
24.11.2017 19:13 7,1 °C 7,1 °C 73 % 1014,9 hPa 0,0 mm 5,6 km/h (1 Bft) S 180 ° 0 min 0,000 mm 0,0 UV-I 0 W/m² 2,6 °C 6,3 °C 6,4 km/h (2 Bft)
24.11.2017 19:14 7,1 °C 7,1 °C 73 % 1014,9 hPa 0,0 mm 4,9 km/h (1 Bft) S 175 ° 0 min 0,000 mm 0,0 UV-I 0 W/m² 2,6 °C 6,5 °C 6,4 km/h (2 Bft)
24.11.2017 19:15 7,0 °C 7,1 °C 74 % 1014,9 hPa 0,0 mm 5,2 km/h (1 Bft) S 175 ° 0 min 0,000 mm 0,0 UV-I 0 W/m² 2,7 °C 6,3 °C 6,4 km/h (2 Bft)
24.11.2017 19:16 6,9 °C 7,1 °C 74 % 1014,9 hPa 0,0 mm 4,7 km/h (1 Bft) S 175 ° 0 min 0,000 mm 0,0 UV-I 0 W/m² 2,6 °C 6,3 °C 6,4 km/h (2 Bft)
24.11.2017 19:17 7,0 °C 7,0 °C 74 % 1014,9 hPa 0,0 mm 4,0 km/h (1 Bft) S 175 ° 0 min 0,000 mm 0,0 UV-I 0 W/m² 2,7 °C 7,0 °C 4,8 km/h (1 Bft)
24.11.2017 19:18 6,9 °C 7,0 °C 74 % 1014,9 hPa 0,0 mm 3,8 km/h (1 Bft) S 175 ° 0 min 0,000 mm 0,0 UV-I 0 W/m² 2,6 °C 6,9 °C 4,8 km/h (1 Bft)
24.11.2017 19:19 6,9 °C 6,9 °C 74 % 1014,8 hPa 0,0 mm 2,0 km/h (1 Bft) S 175 ° 0 min 0,000 mm 0,0 UV-I 0 W/m² 2,6 °C 6,9 °C 3,2 km/h (1 Bft)
24.11.2017 19:20 6,9 °C 6,9 °C 74 % 1014,9 hPa 0,0 mm 2,6 km/h (1 Bft) S 175 ° 0 min 0,000 mm 0,0 UV-I 0 W/m² 2,6 °C 6,9 °C 4,8 km/h (1 Bft)
24.11.2017 19:21 6,9 °C 6,9 °C 74 % 1014,9 hPa 0,0 mm 1,8 km/h (1 Bft) S 175 ° 0 min 0,000 mm 0,0 UV-I 0 W/m² 2,6 °C 6,9 °C 3,2 km/h (1 Bft)
24.11.2017 19:22 6,9 °C 6,9 °C 73 % 1014,9 hPa 0,0 mm 1,1 km/h (1 Bft) S 175 ° 0 min 0,000 mm 0,0 UV-I 0 W/m² 2,4 °C 6,9 °C 1,6 km/h (1 Bft)
24.11.2017 19:23 6,9 °C 7,0 °C 73 % 1014,8 hPa 0,0 mm 2,7 km/h (1 Bft) S 175 ° 0 min 0,000 mm 0,0 UV-I 0 W/m² 2,4 °C 6,9 °C 4,8 km/h (1 Bft)
24.11.2017 19:24 6,9 °C 6,9 °C 73 % 1014,8 hPa 0,0 mm 4,4 km/h (1 Bft) S 175 ° 0 min 0,000 mm 0,0 UV-I 0 W/m² 2,4 °C 6,9 °C 9,7 km/h (2 Bft)
24.11.2017 19:25 7,0 °C 7,0 °C 73 % 1014,9 hPa 0,0 mm 3,5 km/h (1 Bft) S 175 ° 0 min 0,000 mm 0,0 UV-I 0 W/m² 2,5 °C 7,0 °C 4,8 km/h (1 Bft)
24.11.2017 19:26 7,0 °C 7,0 °C 73 % 1014,8 hPa 0,0 mm 2,3 km/h (1 Bft) S 175 ° 0 min 0,000 mm 0,0 UV-I 0 W/m² 2,5 °C 7,0 °C 4,8 km/h (1 Bft)
24.11.2017 19:27 7,0 °C 7,0 °C 73 % 1014,9 hPa 0,0 mm 0,7 km/h (0 Bft) S 175 ° 0 min 0,000 mm 0,0 UV-I 0 W/m² 2,5 °C 7,0 °C 1,6 km/h (1 Bft)
24.11.2017 19:28 7,0 °C 7,1 °C 73 % 1014,8 hPa 0,0 mm 0,4 km/h (0 Bft) S 175 ° 0 min 0,000 mm 0,0 UV-I 0 W/m² 2,5 °C 7,0 °C 1,6 km/h (1 Bft)
24.11.2017 19:29 7,0 °C 7,0 °C 73 % 1014,8 hPa 0,0 mm 0,1 km/h (0 Bft) S 175 ° 0 min 0,000 mm 0,0 UV-I 0 W/m² 2,5 °C 7,0 °C 1,6 km/h (1 Bft)
24.11.2017 19:30 7,0 °C 7,1 °C 73 % 1014,8 hPa 0,0 mm 0,0 km/h (0 Bft) S 175 ° 0 min 0,000 mm 0,0 UV-I 0 W/m² 2,5 °C 7,0 °C 0,0 km/h (0 Bft)
24.11.2017 19:31 7,1 °C 7,1 °C 73 % 1014,8 hPa 0,0 mm 0,0 km/h (0 Bft) S 175 ° 0 min 0,000 mm 0,0 UV-I 0 W/m² 2,6 °C 7,1 °C 0,0 km/h (0 Bft)
24.11.2017 19:32 7,0 °C 7,1 °C 73 % 1014,8 hPa 0,0 mm 0,0 km/h (0 Bft) S 175 ° 0 min 0,000 mm 0,0 UV-I 0 W/m² 2,5 °C 7,0 °C 0,0 km/h (0 Bft)
24.11.2017 19:33 6,9 °C 7,0 °C 73 % 1014,8 hPa 0,0 mm 0,0 km/h (0 Bft) S 175 ° 0 min 0,000 mm 0,0 UV-I 0 W/m² 2,4 °C 6,9 °C 0,0 km/h (0 Bft)
24.11.2017 19:34 6,9 °C 6,9 °C 74 % 1014,8 hPa 0,0 mm 0,1 km/h (0 Bft) S 175 ° 0 min 0,000 mm 0,0 UV-I 0 W/m² 2,6 °C 6,9 °C 1,6 km/h (1 Bft)
24.11.2017 19:35 6,9 °C 6,9 °C 74 % 1014,8 hPa 0,0 mm 0,0 km/h (0 Bft) S 175 ° 0 min 0,000 mm 0,0 UV-I 0 W/m² 2,6 °C 6,9 °C 0,0 km/h (0 Bft)
24.11.2017 19:36 6,8 °C 6,9 °C 74 % 1014,7 hPa 0,0 mm 0,0 km/h (0 Bft) S 175 ° 0 min 0,000 mm 0,0 UV-I 0 W/m² 2,5 °C 6,8 °C 0,0 km/h (0 Bft)
24.11.2017 19:37 6,8 °C 6,8 °C 74 % 1014,7 hPa 0,0 mm 0,0 km/h (0 Bft) S 175 ° 0 min 0,000 mm 0,0 UV-I 0 W/m² 2,5 °C 6,8 °C 0,0 km/h (0 Bft)
24.11.2017 19:38 6,8 °C 6,8 °C 75 % 1014,7 hPa 0,0 mm 0,0 km/h (0 Bft) S 175 ° 0 min 0,000 mm 0,0 UV-I 0 W/m² 2,7 °C 6,8 °C 0,0 km/h (0 Bft)
24.11.2017 19:39 6,7 °C 6,8 °C 75 % 1014,8 hPa 0,0 mm 0,0 km/h (0 Bft) S 175 ° 0 min 0,000 mm 0,0 UV-I 0 W/m² 2,6 °C 6,7 °C 0,0 km/h (0 Bft)
24.11.2017 19:40 6,7 °C 6,7 °C 75 % 1014,8 hPa 0,0 mm 0,0 km/h (0 Bft) S 175 ° 0 min 0,000 mm 0,0 UV-I 0 W/m² 2,6 °C 6,7 °C 0,0 km/h (0 Bft)
24.11.2017 19:42 6,7 °C 6,7 °C 75 % 1014,8 hPa 0,0 mm 0,0 km/h (0 Bft) S 175 ° 0 min 0,000 mm 0,0 UV-I 0 W/m² 2,6 °C 6,7 °C 0,0 km/h (0 Bft)
24.11.2017 19:43 6,7 °C 6,7 °C 75 % 1014,7 hPa 0,0 mm 0,0 km/h (0 Bft) S 180 ° 0 min 0,000 mm 0,0 UV-I 0 W/m² 2,6 °C 6,7 °C 1,6 km/h (1 Bft)
24.11.2017 19:44 6,7 °C 6,7 °C 75 % 1014,7 hPa 0,0 mm 0,0 km/h (0 Bft) N 0 ° 0 min 0,000 mm 0,0 UV-I 0 W/m² 2,6 °C 6,7 °C 0,0 km/h (0 Bft)
24.11.2017 19:45 6,6 °C 6,7 °C 75 % 1014,8 hPa 0,0 mm 0,0 km/h (0 Bft) N 0 ° 0 min 0,000 mm 0,0 UV-I 0 W/m² 2,5 °C 6,6 °C 0,0 km/h (0 Bft)
24.11.2017 19:46 6,6 °C 6,7 °C 75 % 1014,7 hPa 0,0 mm 0,0 km/h (0 Bft) N 0 ° 0 min 0,000 mm 0,0 UV-I 0 W/m² 2,5 °C 6,6 °C 0,0 km/h (0 Bft)
24.11.2017 19:47 6,6 °C 6,6 °C 76 % 1014,7 hPa 0,0 mm 0,0 km/h (0 Bft) N 0 ° 0 min 0,000 mm 0,0 UV-I 0 W/m² 2,7 °C 6,6 °C 0,0 km/h (0 Bft)
24.11.2017 19:48 6,5 °C 6,6 °C 76 % 1014,7 hPa 0,0 mm 0,0 km/h (0 Bft) N 0 ° 0 min 0,000 mm 0,0 UV-I 0 W/m² 2,6 °C 6,5 °C 0,0 km/h (0 Bft)
24.11.2017 19:49 6,5 °C 6,5 °C 76 % 1014,8 hPa 0,0 mm 0,0 km/h (0 Bft) N 0 ° 0 min 0,000 mm 0,0 UV-I 0 W/m² 2,6 °C 6,5 °C 0,0 km/h (0 Bft)
24.11.2017 19:50 6,4 °C 6,5 °C 76 % 1014,8 hPa 0,0 mm 0,0 km/h (0 Bft) N 0 ° 0 min 0,000 mm 0,0 UV-I 0 W/m² 2,5 °C 6,4 °C 0,0 km/h (0 Bft)
24.11.2017 19:51 6,4 °C 6,4 °C 76 % 1014,8 hPa 0,0 mm 0,0 km/h (0 Bft) N 0 ° 0 min 0,000 mm 0,0 UV-I 0 W/m² 2,5 °C 6,4 °C 0,0 km/h (0 Bft)
24.11.2017 19:52 6,4 °C 6,4 °C 76 % 1014,8 hPa 0,0 mm 0,0 km/h (0 Bft) N 0 ° 0 min 0,000 mm 0,0 UV-I 0 W/m² 2,5 °C 6,4 °C 0,0 km/h (0 Bft)
24.11.2017 19:56 6,4 °C 6,4 °C 76 % 1014,9 hPa 0,0 mm 0,0 km/h (0 Bft) S 175 ° 0 min 0,000 mm 0,0 UV-I 0 W/m² 2,5 °C 6,4 °C 0,0 km/h (0 Bft)
24.11.2017 19:57 6,3 °C 6,4 °C 76 % 1014,9 hPa 0,0 mm 0,0 km/h (0 Bft) S 175 ° 0 min 0,000 mm 0,0 UV-I 0 W/m² 2,4 °C 6,3 °C 0,0 km/h (0 Bft)
24.11.2017 19:58 6,3 °C 6,4 °C 76 % 1014,9 hPa 0,0 mm 0,0 km/h (0 Bft) S 175 ° 0 min 0,000 mm 0,0 UV-I 0 W/m² 2,4 °C 6,3 °C 0,0 km/h (0 Bft)
24.11.2017 19:59 6,3 °C 6,4 °C 77 % 1014,9 hPa 0,0 mm 0,0 km/h (0 Bft) S 175 ° 0 min 0,000 mm 0,0 UV-I 0 W/m² 2,6 °C 6,3 °C 0,0 km/h (0 Bft)
24.11.2017 20:00 6,3 °C 6,3 °C 77 % 1014,9 hPa 0,0 mm 0,0 km/h (0 Bft) S 175 ° 0 min 0,026 mm 0,0 UV-I 0 W/m² 2,6 °C 6,3 °C 0,0 km/h (0 Bft)
24.11.2017 20:01 6,3 °C 6,3 °C 77 % 1014,9 hPa 0,0 mm 0,0 km/h (0 Bft) S 175 ° 0 min 0,000 mm 0,0 UV-I 0 W/m² 2,6 °C 6,3 °C 0,0 km/h (0 Bft)
24.11.2017 20:02 6,3 °C 6,3 °C 77 % 1014,9 hPa 0,0 mm 0,0 km/h (0 Bft) S 175 ° 0 min 0,000 mm 0,0 UV-I 0 W/m² 2,6 °C 6,3 °C 0,0 km/h (0 Bft)
24.11.2017 20:03 6,3 °C 6,3 °C 77 % 1014,9 hPa 0,0 mm 0,0 km/h (0 Bft) S 175 ° 0 min 0,000 mm 0,0 UV-I 0 W/m² 2,6 °C 6,3 °C 0,0 km/h (0 Bft)
24.11.2017 20:04 6,2 °C 6,3 °C 77 % 1014,9 hPa 0,0 mm 0,0 km/h (0 Bft) S 175 ° 0 min 0,000 mm 0,0 UV-I 0 W/m² 2,5 °C 6,2 °C 0,0 km/h (0 Bft)
24.11.2017 20:05 6,2 °C 6,2 °C 77 % 1014,9 hPa 0,0 mm 0,0 km/h (0 Bft) S 175 ° 0 min 0,000 mm 0,0 UV-I 0 W/m² 2,5 °C 6,2 °C 0,0 km/h (0 Bft)
24.11.2017 20:06 6,2 °C 6,2 °C 77 % 1014,9 hPa 0,0 mm 0,0 km/h (0 Bft) S 175 ° 0 min 0,000 mm 0,0 UV-I 0 W/m² 2,5 °C 6,2 °C 0,0 km/h (0 Bft)
24.11.2017 20:07 6,2 °C 6,2 °C 77 % 1014,9 hPa 0,0 mm 0,0 km/h (0 Bft) S 175 ° 0 min 0,000 mm 0,0 UV-I 0 W/m² 2,5 °C 6,2 °C 0,0 km/h (0 Bft)
24.11.2017 20:08 6,2 °C 6,2 °C 77 % 1014,9 hPa 0,0 mm 0,0 km/h (0 Bft) S 175 ° 0 min 0,000 mm 0,0 UV-I 0 W/m² 2,5 °C 6,2 °C 0,0 km/h (0 Bft)
24.11.2017 20:10 6,1 °C 6,2 °C 78 % 1014,9 hPa 0,0 mm 0,0 km/h (0 Bft) S 175 ° 0 min 0,000 mm 0,0 UV-I 0 W/m² 2,6 °C 6,1 °C 0,0 km/h (0 Bft)
24.11.2017 20:11 6,1 °C 6,1 °C 78 % 1014,9 hPa 0,0 mm 0,0 km/h (0 Bft) S 175 ° 0 min 0,000 mm 0,0 UV-I 0 W/m² 2,6 °C 6,1 °C 0,0 km/h (0 Bft)
24.11.2017 20:12 6,1 °C 6,1 °C 78 % 1014,9 hPa 0,0 mm 0,0 km/h (0 Bft) S 175 ° 0 min 0,000 mm 0,0 UV-I 0 W/m² 2,6 °C 6,1 °C 0,0 km/h (0 Bft)
24.11.2017 20:13 6,1 °C 6,1 °C 78 % 1015,0 hPa 0,0 mm 0,0 km/h (0 Bft) S 175 ° 0 min 0,000 mm 0,0 UV-I 0 W/m² 2,6 °C 6,1 °C 0,0 km/h (0 Bft)
24.11.2017 20:14 6,1 °C 6,1 °C 78 % 1014,9 hPa 0,0 mm 0,0 km/h (0 Bft) S 175 ° 0 min 0,000 mm 0,0 UV-I 0 W/m² 2,6 °C 6,1 °C 0,0 km/h (0 Bft)
24.11.2017 20:15 6,1 °C 6,1 °C 78 % 1014,9 hPa 0,0 mm 0,0 km/h (0 Bft) S 175 ° 0 min 0,000 mm 0,0 UV-I 0 W/m² 2,6 °C 6,1 °C 0,0 km/h (0 Bft)
24.11.2017 20:16 6,1 °C 6,1 °C 78 % 1014,9 hPa 0,0 mm 0,0 km/h (0 Bft) S 175 ° 0 min 0,000 mm 0,0 UV-I 0 W/m² 2,6 °C 6,1 °C 0,0 km/h (0 Bft)
24.11.2017 20:17 6,0 °C 6,1 °C 78 % 1014,9 hPa 0,0 mm 0,0 km/h (0 Bft) S 175 ° 0 min 0,000 mm 0,0 UV-I 0 W/m² 2,5 °C 6,0 °C 0,0 km/h (0 Bft)
24.11.2017 20:18 6,0 °C 6,0 °C 78 % 1015,0 hPa 0,0 mm 0,0 km/h (0 Bft) S 175 ° 0 min 0,000 mm 0,0 UV-I 0 W/m² 2,5 °C 6,0 °C 0,0 km/h (0 Bft)
24.11.2017 20:19 6,0 °C 6,0 °C 78 % 1015,0 hPa 0,0 mm 0,0 km/h (0 Bft) S 175 ° 0 min 0,000 mm 0,0 UV-I 0 W/m² 2,5 °C 6,0 °C 0,0 km/h (0 Bft)
24.11.2017 20:20 6,0 °C 6,0 °C 78 % 1015,0 hPa 0,0 mm 0,0 km/h (0 Bft) S 175 ° 0 min 0,000 mm 0,0 UV-I 0 W/m² 2,5 °C 6,0 °C 0,0 km/h (0 Bft)
24.11.2017 20:21 5,9 °C 6,0 °C 78 % 1015,0 hPa 0,0 mm 0,0 km/h (0 Bft) S 175 ° 0 min 0,000 mm 0,0 UV-I 0 W/m² 2,4 °C 5,9 °C 0,0 km/h (0 Bft)
24.11.2017 20:22 6,0 °C 6,0 °C 78 % 1015,0 hPa 0,0 mm 0,0 km/h (0 Bft) S 175 ° 0 min 0,000 mm 0,0 UV-I 0 W/m² 2,5 °C 6,0 °C 0,0 km/h (0 Bft)
24.11.2017 20:23 5,9 °C 6,0 °C 78 % 1015,0 hPa 0,0 mm 0,0 km/h (0 Bft) S 175 ° 0 min 0,000 mm 0,0 UV-I 0 W/m² 2,4 °C 5,9 °C 0,0 km/h (0 Bft)
24.11.2017 20:24 5,9 °C 6,0 °C 78 % 1015,0 hPa 0,0 mm 0,0 km/h (0 Bft) S 175 ° 0 min 0,000 mm 0,0 UV-I 0 W/m² 2,4 °C 5,9 °C 0,0 km/h (0 Bft)
24.11.2017 20:25 5,9 °C 5,9 °C 78 % 1014,9 hPa 0,0 mm 0,0 km/h (0 Bft) S 175 ° 0 min 0,000 mm 0,0 UV-I 0 W/m² 2,4 °C 5,9 °C 0,0 km/h (0 Bft)
24.11.2017 20:26 5,9 °C 5,9 °C 78 % 1014,9 hPa 0,0 mm 0,0 km/h (0 Bft) S 175 ° 0 min 0,000 mm 0,0 UV-I 0 W/m² 2,4 °C 5,9 °C 0,0 km/h (0 Bft)
24.11.2017 20:27 5,9 °C 5,9 °C 78 % 1014,9 hPa 0,0 mm 0,0 km/h (0 Bft) S 175 ° 0 min 0,000 mm 0,0 UV-I 0 W/m² 2,4 °C 5,9 °C 0,0 km/h (0 Bft)
24.11.2017 20:28 5,9 °C 5,9 °C 79 % 1014,9 hPa 0,0 mm 0,0 km/h (0 Bft) S 175 ° 0 min 0,000 mm 0,0 UV-I 0 W/m² 2,5 °C 5,9 °C 0,0 km/h (0 Bft)
24.11.2017 20:29 5,9 °C 5,9 °C 79 % 1014,9 hPa 0,0 mm 0,0 km/h (0 Bft) S 175 ° 0 min 0,000 mm 0,0 UV-I 0 W/m² 2,5 °C 5,9 °C 0,0 km/h (0 Bft)
24.11.2017 20:30 5,9 °C 5,9 °C 79 % 1014,9 hPa 0,0 mm 0,0 km/h (0 Bft) S 175 ° 0 min 0,000 mm 0,0 UV-I 0 W/m² 2,5 °C 5,9 °C 0,0 km/h (0 Bft)
24.11.2017 20:31 5,9 °C 5,9 °C 79 % 1014,9 hPa 0,0 mm 0,0 km/h (0 Bft) S 175 ° 0 min 0,000 mm 0,0 UV-I 0 W/m² 2,5 °C 5,9 °C 0,0 km/h (0 Bft)
24.11.2017 20:32 5,9 °C 5,9 °C 79 % 1014,9 hPa 0,0 mm 0,0 km/h (0 Bft) S 175 ° 0 min 0,000 mm 0,0 UV-I 0 W/m² 2,5 °C 5,9 °C 0,0 km/h (0 Bft)
24.11.2017 20:33 5,8 °C 5,9 °C 79 % 1014,9 hPa 0,0 mm 0,0 km/h (0 Bft) S 175 ° 0 min 0,000 mm 0,0 UV-I 0 W/m² 2,4 °C 5,8 °C 0,0 km/h (0 Bft)
24.11.2017 20:34 5,8 °C 5,9 °C 79 % 1014,9 hPa 0,0 mm 0,0 km/h (0 Bft) S 175 ° 0 min 0,000 mm 0,0 UV-I 0 W/m² 2,4 °C 5,8 °C 0,0 km/h (0 Bft)
24.11.2017 20:35 5,8 °C 5,8 °C 79 % 1014,9 hPa 0,0 mm 0,0 km/h (0 Bft) S 175 ° 0 min 0,000 mm 0,0 UV-I 0 W/m² 2,4 °C 5,8 °C 0,0 km/h (0 Bft)
24.11.2017 20:36 5,8 °C 5,8 °C 78 % 1014,9 hPa 0,0 mm 0,0 km/h (0 Bft) S 175 ° 0 min 0,000 mm 0,0 UV-I 0 W/m² 2,3 °C 5,8 °C 0,0 km/h (0 Bft)
24.11.2017 20:37 5,8 °C 5,8 °C 78 % 1014,9 hPa 0,0 mm 0,0 km/h (0 Bft) S 175 ° 0 min 0,000 mm 0,0 UV-I 0 W/m² 2,3 °C 5,8 °C 0,0 km/h (0 Bft)
24.11.2017 20:38 5,8 °C 5,8 °C 79 % 1014,8 hPa 0,0 mm 0,0 km/h (0 Bft) S 175 ° 0 min 0,000 mm 0,0 UV-I 0 W/m² 2,4 °C 5,8 °C 0,0 km/h (0 Bft)
24.11.2017 20:39 5,8 °C 5,8 °C 78 % 1014,8 hPa 0,0 mm 0,0 km/h (0 Bft) S 175 ° 0 min 0,000 mm 0,0 UV-I 0 W/m² 2,3 °C 5,8 °C 0,0 km/h (0 Bft)
24.11.2017 20:40 5,8 °C 5,8 °C 78 % 1014,8 hPa 0,0 mm 0,0 km/h (0 Bft) S 175 ° 0 min 0,000 mm 0,0 UV-I 0 W/m² 2,3 °C 5,8 °C 0,0 km/h (0 Bft)
24.11.2017 20:41 5,8 °C 5,8 °C 79 % 1014,8 hPa 0,0 mm 0,0 km/h (0 Bft) S 175 ° 0 min 0,000 mm 0,0 UV-I 0 W/m² 2,4 °C 5,8 °C 0,0 km/h (0 Bft)
24.11.2017 20:42 5,8 °C 5,8 °C 79 % 1014,8 hPa 0,0 mm 0,0 km/h (0 Bft) S 175 ° 0 min 0,000 mm 0,0 UV-I 0 W/m² 2,4 °C 5,8 °C 0,0 km/h (0 Bft)
24.11.2017 20:43 5,8 °C 5,8 °C 79 % 1014,8 hPa 0,0 mm 0,0 km/h (0 Bft) S 175 ° 0 min 0,000 mm 0,0 UV-I 0 W/m² 2,4 °C 5,8 °C 0,0 km/h (0 Bft)
24.11.2017 20:44 5,7 °C 5,8 °C 79 % 1014,9 hPa 0,0 mm 0,0 km/h (0 Bft) S 175 ° 0 min 0,000 mm 0,0 UV-I 0 W/m² 2,3 °C 5,7 °C 0,0 km/h (0 Bft)
24.11.2017 20:45 5,7 °C 5,7 °C 80 % 1014,8 hPa 0,0 mm 0,0 km/h (0 Bft) S 175 ° 0 min 0,000 mm 0,0 UV-I 0 W/m² 2,5 °C 5,7 °C 0,0 km/h (0 Bft)
24.11.2017 20:46 5,7 °C 5,7 °C 80 % 1014,8 hPa 0,0 mm 0,0 km/h (0 Bft) S 175 ° 0 min 0,000 mm 0,0 UV-I 0 W/m² 2,5 °C 5,7 °C 0,0 km/h (0 Bft)
24.11.2017 20:47 5,7 °C 5,7 °C 80 % 1014,8 hPa 0,0 mm 0,9 km/h (0 Bft) S 175 ° 0 min 0,000 mm 0,0 UV-I 0 W/m² 2,5 °C 5,7 °C 4,8 km/h (1 Bft)
24.11.2017 20:48 5,7 °C 5,7 °C 80 % 1014,7 hPa 0,0 mm 3,4 km/h (1 Bft) S 175 ° 0 min 0,000 mm 0,0 UV-I 0 W/m² 2,5 °C 5,7 °C 4,8 km/h (1 Bft)
24.11.2017 20:49 5,7 °C 5,7 °C 80 % 1014,7 hPa 0,0 mm 3,2 km/h (1 Bft) S 175 ° 0 min 0,000 mm 0,0 UV-I 0 W/m² 2,5 °C 5,7 °C 4,8 km/h (1 Bft)
24.11.2017 20:50 5,7 °C 5,7 °C 81 % 1014,7 hPa 0,0 mm 3,3 km/h (1 Bft) S 175 ° 0 min 0,000 mm 0,0 UV-I 0 W/m² 2,7 °C 5,7 °C 4,8 km/h (1 Bft)
24.11.2017 20:51 5,7 °C 5,7 °C 81 % 1014,7 hPa 0,0 mm 2,9 km/h (1 Bft) S 175 ° 0 min 0,000 mm 0,0 UV-I 0 W/m² 2,7 °C 5,7 °C 4,8 km/h (1 Bft)
24.11.2017 20:52 5,7 °C 5,8 °C 81 % 1014,7 hPa 0,0 mm 2,8 km/h (1 Bft) S 175 ° 0 min 0,000 mm 0,0 UV-I 0 W/m² 2,7 °C 5,7 °C 3,2 km/h (1 Bft)
24.11.2017 20:53 5,8 °C 5,8 °C 80 % 1014,7 hPa 0,0 mm 2,3 km/h (1 Bft) S 175 ° 0 min 0,000 mm 0,0 UV-I 0 W/m² 2,6 °C 5,8 °C 4,8 km/h (1 Bft)
24.11.2017 20:54 5,7 °C 5,8 °C 80 % 1014,7 hPa 0,0 mm 2,3 km/h (1 Bft) S 175 ° 0 min 0,000 mm 0,0 UV-I 0 W/m² 2,5 °C 5,7 °C 3,2 km/h (1 Bft)
24.11.2017 20:55 5,8 °C 5,8 °C 80 % 1014,7 hPa 0,0 mm 1,3 km/h (1 Bft) S 175 ° 0 min 0,000 mm 0,0 UV-I 0 W/m² 2,6 °C 5,8 °C 3,2 km/h (1 Bft)
24.11.2017 20:56 5,8 °C 5,8 °C 80 % 1014,7 hPa 0,0 mm 1,6 km/h (1 Bft) S 175 ° 0 min 0,000 mm 0,0 UV-I 0 W/m² 2,6 °C 5,8 °C 3,2 km/h (1 Bft)
24.11.2017 20:57 5,8 °C 5,8 °C 80 % 1014,7 hPa 0,0 mm 0,0 km/h (0 Bft) S 175 ° 0 min 0,000 mm 0,0 UV-I 0 W/m² 2,6 °C 5,8 °C 0,0 km/h (0 Bft)
24.11.2017 20:58 5,8 °C 5,8 °C 79 % 1014,7 hPa 0,0 mm 0,0 km/h (0 Bft) S 175 ° 0 min 0,000 mm 0,0 UV-I 0 W/m² 2,4 °C 5,8 °C 0,0 km/h (0 Bft)
24.11.2017 20:59 5,8 °C 5,8 °C 80 % 1014,7 hPa 0,0 mm 0,0 km/h (0 Bft) S 175 ° 0 min 0,000 mm 0,0 UV-I 0 W/m² 2,6 °C 5,8 °C 0,0 km/h (0 Bft)
24.11.2017 21:00 5,9 °C 5,9 °C 80 % 1014,8 hPa 0,0 mm 0,0 km/h (0 Bft) S 175 ° 0 min 0,025 mm 0,0 UV-I 0 W/m² 2,7 °C 5,9 °C 0,0 km/h (0 Bft)
24.11.2017 21:01 5,9 °C 5,9 °C 80 % 1014,8 hPa 0,0 mm 1,6 km/h (1 Bft) W 280 ° 0 min 0,000 mm 0,0 UV-I 0 W/m² 2,7 °C 5,9 °C 4,8 km/h (1 Bft)
24.11.2017 21:03 5,9 °C 5,9 °C 79 % 1014,9 hPa 0,0 mm 1,6 km/h (1 Bft) W-NW 303 ° 0 min 0,000 mm 0,0 UV-I 0 W/m² 2,5 °C 5,9 °C 4,8 km/h (1 Bft)
24.11.2017 21:04 5,9 °C 5,9 °C 79 % 1014,9 hPa 0,0 mm 0,0 km/h (0 Bft) W-NW 303 ° 0 min 0,000 mm 0,0 UV-I 0 W/m² 2,5 °C 5,9 °C 0,0 km/h (0 Bft)
24.11.2017 21:05 5,9 °C 5,9 °C 79 % 1014,9 hPa 0,0 mm 0,0 km/h (0 Bft) W-NW 303 ° 0 min 0,000 mm 0,0 UV-I 0 W/m² 2,5 °C 5,9 °C 0,0 km/h (0 Bft)
24.11.2017 21:06 5,9 °C 5,9 °C 79 % 1014,9 hPa 0,0 mm 0,0 km/h (0 Bft) W-NW 303 ° 0 min 0,000 mm 0,0 UV-I 0 W/m² 2,5 °C 5,9 °C 0,0 km/h (0 Bft)
24.11.2017 21:07 5,9 °C 5,9 °C 79 % 1014,9 hPa 0,0 mm 0,0 km/h (0 Bft) W-NW 303 ° 0 min 0,000 mm 0,0 UV-I 0 W/m² 2,5 °C 5,9 °C 0,0 km/h (0 Bft)
24.11.2017 21:08 5,9 °C 5,9 °C 79 % 1014,9 hPa 0,0 mm 0,0 km/h (0 Bft) W-NW 303 ° 0 min 0,000 mm 0,0 UV-I 0 W/m² 2,5 °C 5,9 °C 0,0 km/h (0 Bft)
24.11.2017 21:09 5,9 °C 5,9 °C 79 % 1015,0 hPa 0,0 mm 0,0 km/h (0 Bft) W-NW 303 ° 0 min 0,000 mm 0,0 UV-I 0 W/m² 2,5 °C 5,9 °C 0,0 km/h (0 Bft)
24.11.2017 21:10 5,9 °C 5,9 °C 79 % 1014,9 hPa 0,0 mm 0,0 km/h (0 Bft) W-NW 303 ° 0 min 0,000 mm 0,0 UV-I 0 W/m² 2,5 °C 5,9 °C 0,0 km/h (0 Bft)
24.11.2017 21:11 5,9 °C 5,9 °C 79 % 1014,9 hPa 0,0 mm 0,0 km/h (0 Bft) W-NW 303 ° 0 min 0,000 mm 0,0 UV-I 0 W/m² 2,5 °C 5,9 °C 0,0 km/h (0 Bft)
24.11.2017 21:12 5,9 °C 5,9 °C 79 % 1014,9 hPa 0,0 mm 0,0 km/h (0 Bft) W-NW 303 ° 0 min 0,000 mm 0,0 UV-I 0 W/m² 2,5 °C 5,9 °C 0,0 km/h (0 Bft)
24.11.2017 21:13 5,9 °C 5,9 °C 79 % 1014,8 hPa 0,0 mm 0,0 km/h (0 Bft) W-NW 303 ° 0 min 0,000 mm 0,0 UV-I 0 W/m² 2,5 °C 5,9 °C 0,0 km/h (0 Bft)
24.11.2017 21:14 5,9 °C 5,9 °C 79 % 1014,8 hPa 0,0 mm 0,0 km/h (0 Bft) W-NW 303 ° 0 min 0,000 mm 0,0 UV-I 0 W/m² 2,5 °C 5,9 °C 0,0 km/h (0 Bft)
24.11.2017 21:15 5,9 °C 5,9 °C 78 % 1014,8 hPa 0,0 mm 0,0 km/h (0 Bft) W-NW 303 ° 0 min 0,000 mm 0,0 UV-I 0 W/m² 2,4 °C 5,9 °C 0,0 km/h (0 Bft)
24.11.2017 21:16 5,9 °C 5,9 °C 78 % 1014,8 hPa 0,0 mm 0,0 km/h (0 Bft) W-NW 303 ° 0 min 0,000 mm 0,0 UV-I 0 W/m² 2,4 °C 5,9 °C 0,0 km/h (0 Bft)
24.11.2017 21:17 5,9 °C 5,9 °C 78 % 1014,8 hPa 0,0 mm 0,0 km/h (0 Bft) W-NW 303 ° 0 min 0,000 mm 0,0 UV-I 0 W/m² 2,4 °C 5,9 °C 0,0 km/h (0 Bft)
24.11.2017 21:18 5,9 °C 5,9 °C 78 % 1014,9 hPa 0,0 mm 0,0 km/h (0 Bft) W-NW 303 ° 0 min 0,000 mm 0,0 UV-I 0 W/m² 2,4 °C 5,9 °C 0,0 km/h (0 Bft)
24.11.2017 21:19 5,9 °C 5,9 °C 78 % 1014,9 hPa 0,0 mm 0,0 km/h (0 Bft) W-NW 303 ° 0 min 0,000 mm 0,0 UV-I 0 W/m² 2,4 °C 5,9 °C 0,0 km/h (0 Bft)
24.11.2017 21:20 5,9 °C 5,9 °C 78 % 1014,9 hPa 0,0 mm 0,0 km/h (0 Bft) W-NW 303 ° 0 min 0,000 mm 0,0 UV-I 0 W/m² 2,4 °C 5,9 °C 0,0 km/h (0 Bft)
24.11.2017 21:21 5,9 °C 5,9 °C 78 % 1015,0 hPa 0,0 mm 0,0 km/h (0 Bft) W-NW 303 ° 0 min 0,000 mm 0,0 UV-I 0 W/m² 2,4 °C 5,9 °C 0,0 km/h (0 Bft)
24.11.2017 21:22 5,9 °C 5,9 °C 78 % 1015,0 hPa 0,0 mm 0,0 km/h (0 Bft) W-NW 303 ° 0 min 0,000 mm 0,0 UV-I 0 W/m² 2,4 °C 5,9 °C 0,0 km/h (0 Bft)
24.11.2017 21:23 5,9 °C 5,9 °C 78 % 1014,9 hPa 0,0 mm 0,0 km/h (0 Bft) W-NW 303 ° 0 min 0,000 mm 0,0 UV-I 0 W/m² 2,4 °C 5,9 °C 0,0 km/h (0 Bft)
24.11.2017 21:24 5,8 °C 5,9 °C 78 % 1014,9 hPa 0,0 mm 0,0 km/h (0 Bft) W-NW 303 ° 0 min 0,000 mm 0,0 UV-I 0 W/m² 2,3 °C 5,8 °C 0,0 km/h (0 Bft)
24.11.2017 21:25 5,8 °C 5,8 °C 79 % 1014,9 hPa 0,0 mm 0,0 km/h (0 Bft) W-NW 303 ° 0 min 0,000 mm 0,0 UV-I 0 W/m² 2,4 °C 5,8 °C 0,0 km/h (0 Bft)
24.11.2017 21:26 5,8 °C 5,8 °C 79 % 1015,0 hPa 0,0 mm 1,5 km/h (1 Bft) W-NW 303 ° 0 min 0,000 mm 0,0 UV-I 0 W/m² 2,4 °C 5,8 °C 3,2 km/h (1 Bft)
24.11.2017 21:27 5,8 °C 5,8 °C 79 % 1015,0 hPa 0,0 mm 2,1 km/h (1 Bft) W-NW 303 ° 0 min 0,000 mm 0,0 UV-I 0 W/m² 2,4 °C 5,8 °C 3,2 km/h (1 Bft)
24.11.2017 21:28 5,8 °C 5,8 °C 78 % 1015,0 hPa 0,0 mm 0,9 km/h (0 Bft) W-NW 303 ° 0 min 0,000 mm 0,0 UV-I 0 W/m² 2,3 °C 5,8 °C 3,2 km/h (1 Bft)
24.11.2017 21:29 5,8 °C 5,8 °C 79 % 1014,9 hPa 0,0 mm 1,3 km/h (1 Bft) W-NW 303 ° 0 min 0,000 mm 0,0 UV-I 0 W/m² 2,4 °C 5,8 °C 1,6 km/h (1 Bft)
24.11.2017 21:30 5,7 °C 5,8 °C 79 % 1014,9 hPa 0,0 mm 0,9 km/h (0 Bft) W-NW 303 ° 0 min 0,000 mm 0,0 UV-I 0 W/m² 2,3 °C 5,7 °C 1,6 km/h (1 Bft)
24.11.2017 21:31 5,7 °C 5,8 °C 79 % 1014,9 hPa 0,0 mm 0,1 km/h (0 Bft) W-NW 303 ° 0 min 0,000 mm 0,0 UV-I 0 W/m² 2,3 °C 5,7 °C 1,6 km/h (1 Bft)
24.11.2017 21:32 5,7 °C 5,7 °C 79 % 1014,9 hPa 0,0 mm 0,0 km/h (0 Bft) W-NW 303 ° 0 min 0,000 mm 0,0 UV-I 0 W/m² 2,3 °C 5,7 °C 0,0 km/h (0 Bft)
24.11.2017 21:33 5,7 °C 5,7 °C 79 % 1014,8 hPa 0,0 mm 0,0 km/h (0 Bft) W-NW 303 ° 0 min 0,000 mm 0,0 UV-I 0 W/m² 2,3 °C 5,7 °C 0,0 km/h (0 Bft)
24.11.2017 21:34 5,7 °C 5,7 °C 79 % 1014,8 hPa 0,0 mm 0,0 km/h (0 Bft) W-NW 303 ° 0 min 0,000 mm 0,0 UV-I 0 W/m² 2,3 °C 5,7 °C 0,0 km/h (0 Bft)
24.11.2017 21:35 5,7 °C 5,7 °C 79 % 1014,7 hPa 0,0 mm 0,0 km/h (0 Bft) W-NW 303 ° 0 min 0,000 mm 0,0 UV-I 0 W/m² 2,3 °C 5,7 °C 0,0 km/h (0 Bft)
24.11.2017 21:36 5,7 °C 5,7 °C 79 % 1014,7 hPa 0,0 mm 0,0 km/h (0 Bft) W-NW 303 ° 0 min 0,000 mm 0,0 UV-I 0 W/m² 2,3 °C 5,7 °C 0,0 km/h (0 Bft)
24.11.2017 21:37 5,6 °C 5,7 °C 79 % 1014,7 hPa 0,0 mm 0,0 km/h (0 Bft) W-NW 303 ° 0 min 0,000 mm 0,0 UV-I 0 W/m² 2,3 °C 5,6 °C 0,0 km/h (0 Bft)
24.11.2017 21:38 5,6 °C 5,6 °C 79 % 1014,7 hPa 0,0 mm 0,0 km/h (0 Bft) W-NW 303 ° 0 min 0,000 mm 0,0 UV-I 0 W/m² 2,3 °C 5,6 °C 0,0 km/h (0 Bft)
24.11.2017 21:39 5,6 °C 5,6 °C 79 % 1014,7 hPa 0,0 mm 0,0 km/h (0 Bft) W-NW 303 ° 0 min 0,000 mm 0,0 UV-I 0 W/m² 2,3 °C 5,6 °C 0,0 km/h (0 Bft)
24.11.2017 21:40 5,6 °C 5,6 °C 79 % 1014,6 hPa 0,0 mm 0,0 km/h (0 Bft) W-NW 303 ° 0 min 0,000 mm 0,0 UV-I 0 W/m² 2,3 °C 5,6 °C 0,0 km/h (0 Bft)
24.11.2017 21:42 5,6 °C 5,6 °C 79 % 1014,6 hPa 0,0 mm 0,0 km/h (0 Bft) W-NW 303 ° 0 min 0,000 mm 0,0 UV-I 0 W/m² 2,3 °C 5,6 °C 0,0 km/h (0 Bft)
24.11.2017 21:43 5,6 °C 5,6 °C 79 % 1014,6 hPa 0,0 mm 0,0 km/h (0 Bft) W-NW 303 ° 0 min 0,000 mm 0,0 UV-I 0 W/m² 2,3 °C 5,6 °C 0,0 km/h (0 Bft)
24.11.2017 21:44 5,5 °C 5,6 °C 79 % 1014,6 hPa 0,0 mm 0,0 km/h (0 Bft) W-NW 303 ° 0 min 0,000 mm 0,0 UV-I 0 W/m² 2,2 °C 5,5 °C 0,0 km/h (0 Bft)
24.11.2017 21:45 5,5 °C 5,6 °C 79 % 1014,5 hPa 0,0 mm 0,0 km/h (0 Bft) W-NW 303 ° 0 min 0,000 mm 0,0 UV-I 0 W/m² 2,2 °C 5,5 °C 0,0 km/h (0 Bft)
24.11.2017 21:46 5,5 °C 5,6 °C 79 % 1014,5 hPa 0,0 mm 0,0 km/h (0 Bft) W-NW 303 ° 0 min 0,000 mm 0,0 UV-I 0 W/m² 2,2 °C 5,5 °C 0,0 km/h (0 Bft)
24.11.2017 21:47 5,5 °C 5,5 °C 79 % 1014,6 hPa 0,0 mm 0,0 km/h (0 Bft) W-NW 303 ° 0 min 0,000 mm 0,0 UV-I 0 W/m² 2,2 °C 5,5 °C 0,0 km/h (0 Bft)
24.11.2017 21:48 5,5 °C 5,5 °C 79 % 1014,6 hPa 0,0 mm 0,0 km/h (0 Bft) W-NW 303 ° 0 min 0,000 mm 0,0 UV-I 0 W/m² 2,2 °C 5,5 °C 0,0 km/h (0 Bft)
24.11.2017 21:49 5,5 °C 5,5 °C 79 % 1014,6 hPa 0,0 mm 0,0 km/h (0 Bft) W-NW 303 ° 0 min 0,000 mm 0,0 UV-I 0 W/m² 2,2 °C 5,5 °C 0,0 km/h (0 Bft)
24.11.2017 21:50 5,4 °C 5,5 °C 79 % 1014,6 hPa 0,0 mm 0,0 km/h (0 Bft) W-NW 303 ° 0 min 0,000 mm 0,0 UV-I 0 W/m² 2,1 °C 5,4 °C 0,0 km/h (0 Bft)
24.11.2017 21:51 5,4 °C 5,4 °C 79 % 1014,6 hPa 0,0 mm 0,0 km/h (0 Bft) W-NW 303 ° 0 min 0,000 mm 0,0 UV-I 0 W/m² 2,1 °C 5,4 °C 0,0 km/h (0 Bft)
24.11.2017 21:52 5,4 °C 5,4 °C 79 % 1014,6 hPa 0,0 mm 0,0 km/h (0 Bft) W-NW 303 ° 0 min 0,000 mm 0,0 UV-I 0 W/m² 2,1 °C 5,4 °C 0,0 km/h (0 Bft)
24.11.2017 21:53 5,4 °C 5,4 °C 80 % 1014,6 hPa 0,0 mm 0,0 km/h (0 Bft) W-NW 303 ° 0 min 0,000 mm 0,0 UV-I 0 W/m² 2,2 °C 5,4 °C 0,0 km/h (0 Bft)
24.11.2017 21:55 5,4 °C 5,4 °C 80 % 1014,6 hPa 0,0 mm 0,0 km/h (0 Bft) W-NW 303 ° 0 min 0,000 mm 0,0 UV-I 0 W/m² 2,2 °C 5,4 °C 0,0 km/h (0 Bft)
24.11.2017 21:56 5,4 °C 5,4 °C 80 % 1014,6 hPa 0,0 mm 0,0 km/h (0 Bft) W-NW 303 ° 0 min 0,000 mm 0,0 UV-I 0 W/m² 2,2 °C 5,4 °C 0,0 km/h (0 Bft)
24.11.2017 21:57 5,3 °C 5,4 °C 80 % 1014,6 hPa 0,0 mm 0,0 km/h (0 Bft) W-NW 303 ° 0 min 0,000 mm 0,0 UV-I 0 W/m² 2,1 °C 5,3 °C 0,0 km/h (0 Bft)
24.11.2017 21:58 5,3 °C 5,3 °C 80 % 1014,6 hPa 0,0 mm 0,0 km/h (0 Bft) W-NW 303 ° 0 min 0,000 mm 0,0 UV-I 0 W/m² 2,1 °C 5,3 °C 0,0 km/h (0 Bft)
24.11.2017 21:59 5,3 °C 5,3 °C 80 % 1014,6 hPa 0,0 mm 0,0 km/h (0 Bft) W-NW 303 ° 0 min 0,000 mm 0,0 UV-I 0 W/m² 2,1 °C 5,3 °C 0,0 km/h (0 Bft)
24.11.2017 22:00 5,3 °C 5,3 °C 80 % 1014,6 hPa 0,0 mm 0,0 km/h (0 Bft) N 355 ° 0 min 0,000 mm 0,0 UV-I 0 W/m² 2,1 °C 5,3 °C 0,0 km/h (0 Bft)
24.11.2017 22:01 5,3 °C 5,3 °C 80 % 1014,7 hPa 0,0 mm 1,0 km/h (0 Bft) N 355 ° 0 min 0,000 mm 0,0 UV-I 0 W/m² 2,1 °C 5,3 °C 3,2 km/h (1 Bft)
24.11.2017 22:02 5,3 °C 5,3 °C 80 % 1014,7 hPa 0,0 mm 0,0 km/h (0 Bft) N 355 ° 0 min 0,000 mm 0,0 UV-I 0 W/m² 2,1 °C 5,3 °C 0,0 km/h (0 Bft)
24.11.2017 22:04 5,2 °C 5,3 °C 80 % 1014,7 hPa 0,0 mm 0,0 km/h (0 Bft) N 355 ° 0 min 0,000 mm 0,0 UV-I 0 W/m² 2,0 °C 5,2 °C 0,0 km/h (0 Bft)
24.11.2017 22:05 5,2 °C 5,3 °C 80 % 1014,7 hPa 0,0 mm 0,0 km/h (0 Bft) N 355 ° 0 min 0,000 mm 0,0 UV-I 0 W/m² 2,0 °C 5,2 °C 0,0 km/h (0 Bft)
24.11.2017 22:06 5,2 °C 5,3 °C 80 % 1014,6 hPa 0,0 mm 0,0 km/h (0 Bft) N 355 ° 0 min 0,000 mm 0,0 UV-I 0 W/m² 2,0 °C 5,2 °C 0,0 km/h (0 Bft)
24.11.2017 22:07 5,2 °C 5,2 °C 80 % 1014,6 hPa 0,0 mm 0,0 km/h (0 Bft) N 355 ° 0 min 0,000 mm 0,0 UV-I 0 W/m² 2,0 °C 5,2 °C 0,0 km/h (0 Bft)
24.11.2017 22:08 5,2 °C 5,2 °C 80 % 1014,7 hPa 0,0 mm 0,0 km/h (0 Bft) N 355 ° 0 min 0,000 mm 0,0 UV-I 0 W/m² 2,0 °C 5,2 °C 0,0 km/h (0 Bft)
24.11.2017 22:09 5,2 °C 5,2 °C 80 % 1014,7 hPa 0,0 mm 0,0 km/h (0 Bft) N 355 ° 0 min 0,000 mm 0,0 UV-I 0 W/m² 2,0 °C 5,2 °C 0,0 km/h (0 Bft)
24.11.2017 22:10 5,2 °C 5,2 °C 80 % 1014,7 hPa 0,0 mm 0,0 km/h (0 Bft) N 355 ° 0 min 0,000 mm 0,0 UV-I 0 W/m² 2,0 °C 5,2 °C 0,0 km/h (0 Bft)
24.11.2017 22:11 5,2 °C 5,2 °C 81 % 1014,7 hPa 0,0 mm 0,0 km/h (0 Bft) N 355 ° 0 min 0,000 mm 0,0 UV-I 0 W/m² 2,2 °C 5,2 °C 0,0 km/h (0 Bft)
24.11.2017 22:12 5,2 °C 5,2 °C 81 % 1014,7 hPa 0,0 mm 0,0 km/h (0 Bft) N 355 ° 0 min 0,000 mm 0,0 UV-I 0 W/m² 2,2 °C 5,2 °C 0,0 km/h (0 Bft)
24.11.2017 22:13 5,2 °C 5,2 °C 81 % 1014,7 hPa 0,0 mm 0,0 km/h (0 Bft) N 355 ° 0 min 0,000 mm 0,0 UV-I 0 W/m² 2,2 °C 5,2 °C 0,0 km/h (0 Bft)
24.11.2017 22:14 5,2 °C 5,2 °C 81 % 1014,7 hPa 0,0 mm 0,0 km/h (0 Bft) N 355 ° 0 min 0,000 mm 0,0 UV-I 0 W/m² 2,2 °C 5,2 °C 0,0 km/h (0 Bft)
24.11.2017 22:15 5,2 °C 5,2 °C 81 % 1014,7 hPa 0,0 mm 0,0 km/h (0 Bft) N 355 ° 0 min 0,000 mm 0,0 UV-I 0 W/m² 2,2 °C 5,2 °C 0,0 km/h (0 Bft)
24.11.2017 22:16 5,2 °C 5,2 °C 81 % 1014,7 hPa 0,0 mm 0,0 km/h (0 Bft) N 355 ° 0 min 0,000 mm 0,0 UV-I 0 W/m² 2,2 °C 5,2 °C 0,0 km/h (0 Bft)
24.11.2017 22:17 5,2 °C 5,2 °C 81 % 1014,7 hPa 0,0 mm 0,0 km/h (0 Bft) N 355 ° 0 min 0,000 mm 0,0 UV-I 0 W/m² 2,2 °C 5,2 °C 0,0 km/h (0 Bft)
24.11.2017 22:18 5,2 °C 5,2 °C 81 % 1014,7 hPa 0,0 mm 0,0 km/h (0 Bft) N 355 ° 0 min 0,000 mm 0,0 UV-I 0 W/m² 2,2 °C 5,2 °C 0,0 km/h (0 Bft)
24.11.2017 22:19 5,2 °C 5,2 °C 81 % 1014,7 hPa 0,0 mm 0,0 km/h (0 Bft) N 355 ° 0 min 0,000 mm 0,0 UV-I 0 W/m² 2,2 °C 5,2 °C 0,0 km/h (0 Bft)
24.11.2017 22:20 5,2 °C 5,2 °C 82 % 1014,7 hPa 0,0 mm 0,0 km/h (0 Bft) N 355 ° 0 min 0,000 mm 0,0 UV-I 0 W/m² 2,4 °C 5,2 °C 0,0 km/h (0 Bft)
24.11.2017 22:21 5,2 °C 5,2 °C 82 % 1014,7 hPa 0,0 mm 0,0 km/h (0 Bft) N 355 ° 0 min 0,000 mm 0,0 UV-I 0 W/m² 2,4 °C 5,2 °C 0,0 km/h (0 Bft)
24.11.2017 22:22 5,2 °C 5,2 °C 82 % 1014,7 hPa 0,0 mm 0,0 km/h (0 Bft) N 355 ° 0 min 0,000 mm 0,0 UV-I 0 W/m² 2,4 °C 5,2 °C 0,0 km/h (0 Bft)
24.11.2017 22:23 5,2 °C 5,2 °C 82 % 1014,8 hPa 0,0 mm 0,0 km/h (0 Bft) N 355 ° 0 min 0,000 mm 0,0 UV-I 0 W/m² 2,4 °C 5,2 °C 0,0 km/h (0 Bft)
24.11.2017 22:24 5,2 °C 5,2 °C 82 % 1014,8 hPa 0,0 mm 0,0 km/h (0 Bft) N 355 ° 0 min 0,000 mm 0,0 UV-I 0 W/m² 2,4 °C 5,2 °C 0,0 km/h (0 Bft)
24.11.2017 22:25 5,2 °C 5,2 °C 82 % 1014,8 hPa 0,0 mm 1,5 km/h (1 Bft) N 355 ° 0 min 0,000 mm 0,0 UV-I 0 W/m² 2,4 °C 5,2 °C 1,6 km/h (1 Bft)
24.11.2017 22:26 5,2 °C 5,2 °C 82 % 1014,8 hPa 0,0 mm 1,4 km/h (1 Bft) N 355 ° 0 min 0,000 mm 0,0 UV-I 0 W/m² 2,4 °C 5,2 °C 3,2 km/h (1 Bft)
24.11.2017 22:27 5,2 °C 5,2 °C 82 % 1014,8 hPa 0,0 mm 0,0 km/h (0 Bft) N 355 ° 0 min 0,000 mm 0,0 UV-I 0 W/m² 2,4 °C 5,2 °C 0,0 km/h (0 Bft)
24.11.2017 22:28 5,1 °C 5,2 °C 82 % 1014,8 hPa 0,0 mm 0,0 km/h (0 Bft) N 355 ° 0 min 0,000 mm 0,0 UV-I 0 W/m² 2,3 °C 5,1 °C 0,0 km/h (0 Bft)
24.11.2017 22:29 5,1 °C 5,1 °C 81 % 1014,7 hPa 0,0 mm 0,0 km/h (0 Bft) N 355 ° 0 min 0,000 mm 0,0 UV-I 0 W/m² 2,1 °C 5,1 °C 0,0 km/h (0 Bft)
24.11.2017 22:30 5,1 °C 5,1 °C 81 % 1014,8 hPa 0,0 mm 0,0 km/h (0 Bft) N 355 ° 0 min 0,000 mm 0,0 UV-I 0 W/m² 2,1 °C 5,1 °C 0,0 km/h (0 Bft)
24.11.2017 22:31 5,1 °C 5,1 °C 81 % 1014,8 hPa 0,0 mm 0,0 km/h (0 Bft) N 355 ° 0 min 0,000 mm 0,0 UV-I 0 W/m² 2,1 °C 5,1 °C 0,0 km/h (0 Bft)
24.11.2017 22:32 5,1 °C 5,1 °C 81 % 1014,8 hPa 0,0 mm 0,0 km/h (0 Bft) N 355 ° 0 min 0,000 mm 0,0 UV-I 0 W/m² 2,1 °C 5,1 °C 0,0 km/h (0 Bft)
24.11.2017 22:33 5,1 °C 5,1 °C 81 % 1014,8 hPa 0,0 mm 0,0 km/h (0 Bft) N 355 ° 0 min 0,000 mm 0,0 UV-I 0 W/m² 2,1 °C 5,1 °C 0,0 km/h (0 Bft)
24.11.2017 22:34 5,1 °C 5,1 °C 81 % 1014,8 hPa 0,0 mm 0,0 km/h (0 Bft) N 355 ° 0 min 0,000 mm 0,0 UV-I 0 W/m² 2,1 °C 5,1 °C 0,0 km/h (0 Bft)
24.11.2017 22:35 5,1 °C 5,1 °C 81 % 1014,8 hPa 0,0 mm 0,0 km/h (0 Bft) N 355 ° 0 min 0,000 mm 0,0 UV-I 0 W/m² 2,1 °C 5,1 °C 0,0 km/h (0 Bft)
24.11.2017 22:36 5,1 °C 5,1 °C 81 % 1014,7 hPa 0,0 mm 0,0 km/h (0 Bft) N 355 ° 0 min 0,000 mm 0,0 UV-I 0 W/m² 2,1 °C 5,1 °C 0,0 km/h (0 Bft)
24.11.2017 22:37 5,1 °C 5,1 °C 81 % 1014,8 hPa 0,0 mm 0,0 km/h (0 Bft) N 355 ° 0 min 0,000 mm 0,0 UV-I 0 W/m² 2,1 °C 5,1 °C 0,0 km/h (0 Bft)
24.11.2017 22:38 5,1 °C 5,1 °C 81 % 1014,8 hPa 0,0 mm 0,0 km/h (0 Bft) N 355 ° 0 min 0,000 mm 0,0 UV-I 0 W/m² 2,1 °C 5,1 °C 0,0 km/h (0 Bft)
24.11.2017 22:39 5,1 °C 5,1 °C 81 % 1014,8 hPa 0,0 mm 0,0 km/h (0 Bft) N 355 ° 0 min 0,000 mm 0,0 UV-I 0 W/m² 2,1 °C 5,1 °C 0,0 km/h (0 Bft)
24.11.2017 22:40 5,1 °C 5,1 °C 81 % 1014,7 hPa 0,0 mm 0,0 km/h (0 Bft) N 355 ° 0 min 0,000 mm 0,0 UV-I 0 W/m² 2,1 °C 5,1 °C 0,0 km/h (0 Bft)
24.11.2017 22:41 5,1 °C 5,1 °C 81 % 1014,8 hPa 0,0 mm 0,0 km/h (0 Bft) N 355 ° 0 min 0,000 mm 0,0 UV-I 0 W/m² 2,1 °C 5,1 °C 0,0 km/h (0 Bft)
24.11.2017 22:42 5,1 °C 5,1 °C 81 % 1014,8 hPa 0,0 mm 0,0 km/h (0 Bft) N 355 ° 0 min 0,000 mm 0,0 UV-I 0 W/m² 2,1 °C 5,1 °C 0,0 km/h (0 Bft)
24.11.2017 22:43 5,1 °C 5,1 °C 81 % 1014,8 hPa 0,0 mm 0,0 km/h (0 Bft) N 355 ° 0 min 0,000 mm 0,0 UV-I 0 W/m² 2,1 °C 5,1 °C 0,0 km/h (0 Bft)
24.11.2017 22:44 5,1 °C 5,1 °C 81 % 1014,8 hPa 0,0 mm 0,0 km/h (0 Bft) N 355 ° 0 min 0,000 mm 0,0 UV-I 0 W/m² 2,1 °C 5,1 °C 0,0 km/h (0 Bft)
24.11.2017 22:45 5,0 °C 5,1 °C 81 % 1014,7 hPa 0,0 mm 0,0 km/h (0 Bft) N 355 ° 0 min 0,000 mm 0,0 UV-I 0 W/m² 2,0 °C 5,0 °C 0,0 km/h (0 Bft)
24.11.2017 22:46 5,1 °C 5,1 °C 81 % 1014,7 hPa 0,0 mm 0,0 km/h (0 Bft) N 355 ° 0 min 0,000 mm 0,0 UV-I 0 W/m² 2,1 °C 5,1 °C 0,0 km/h (0 Bft)
24.11.2017 22:47 5,0 °C 5,1 °C 81 % 1014,8 hPa 0,0 mm 0,0 km/h (0 Bft) N 355 ° 0 min 0,000 mm 0,0 UV-I 0 W/m² 2,0 °C 5,0 °C 0,0 km/h (0 Bft)
24.11.2017 22:48 5,0 °C 5,0 °C 81 % 1014,8 hPa 0,0 mm 0,0 km/h (0 Bft) N 355 ° 0 min 0,000 mm 0,0 UV-I 0 W/m² 2,0 °C 5,0 °C 0,0 km/h (0 Bft)
24.11.2017 22:49 4,9 °C 5,0 °C 81 % 1014,8 hPa 0,0 mm 0,0 km/h (0 Bft) N 355 ° 0 min 0,000 mm 0,0 UV-I 0 W/m² 1,9 °C 4,9 °C 0,0 km/h (0 Bft)
24.11.2017 22:50 5,0 °C 5,0 °C 81 % 1014,8 hPa 0,0 mm 0,0 km/h (0 Bft) N 355 ° 0 min 0,000 mm 0,0 UV-I 0 W/m² 2,0 °C 5,0 °C 0,0 km/h (0 Bft)
24.11.2017 22:51 4,9 °C 5,0 °C 81 % 1014,7 hPa 0,0 mm 0,0 km/h (0 Bft) N 355 ° 0 min 0,000 mm 0,0 UV-I 0 W/m² 1,9 °C 4,9 °C 0,0 km/h (0 Bft)
24.11.2017 22:52 4,9 °C 4,9 °C 81 % 1014,7 hPa 0,0 mm 0,0 km/h (0 Bft) N 355 ° 0 min 0,000 mm 0,0 UV-I 0 W/m² 1,9 °C 4,9 °C 0,0 km/h (0 Bft)
24.11.2017 22:53 4,9 °C 4,9 °C 81 % 1014,8 hPa 0,0 mm 0,0 km/h (0 Bft) N 355 ° 0 min 0,000 mm 0,0 UV-I 0 W/m² 1,9 °C 4,9 °C 0,0 km/h (0 Bft)
24.11.2017 22:54 4,9 °C 4,9 °C 81 % 1014,8 hPa 0,0 mm 0,0 km/h (0 Bft) N 355 ° 0 min 0,000 mm 0,0 UV-I 0 W/m² 1,9 °C 4,9 °C 0,0 km/h (0 Bft)
24.11.2017 22:55 4,9 °C 4,9 °C 81 % 1014,8 hPa 0,0 mm 0,0 km/h (0 Bft) N 355 ° 0 min 0,000 mm 0,0 UV-I 0 W/m² 1,9 °C 4,9 °C 0,0 km/h (0 Bft)
24.11.2017 22:56 4,9 °C 4,9 °C 81 % 1014,7 hPa 0,0 mm 0,0 km/h (0 Bft) N 355 ° 0 min 0,000 mm 0,0 UV-I 0 W/m² 1,9 °C 4,9 °C 0,0 km/h (0 Bft)
24.11.2017 22:57 4,9 °C 4,9 °C 81 % 1014,7 hPa 0,0 mm 0,0 km/h (0 Bft) N 355 ° 0 min 0,000 mm 0,0 UV-I 0 W/m² 1,9 °C 4,9 °C 0,0 km/h (0 Bft)
24.11.2017 22:58 4,9 °C 4,9 °C 81 % 1014,8 hPa 0,0 mm 0,0 km/h (0 Bft) N 355 ° 0 min 0,000 mm 0,0 UV-I 0 W/m² 1,9 °C 4,9 °C 0,0 km/h (0 Bft)
24.11.2017 22:59 4,9 °C 4,9 °C 81 % 1014,8 hPa 0,0 mm 0,0 km/h (0 Bft) N 355 ° 0 min 0,000 mm 0,0 UV-I 0 W/m² 1,9 °C 4,9 °C 0,0 km/h (0 Bft)
24.11.2017 23:00 4,9 °C 4,9 °C 81 % 1014,8 hPa 0,0 mm 0,0 km/h (0 Bft) N 355 ° 0 min 0,000 mm 0,0 UV-I 0 W/m² 1,9 °C 4,9 °C 0,0 km/h (0 Bft)
24.11.2017 23:01 4,9 °C 4,9 °C 82 % 1014,8 hPa 0,0 mm 0,0 km/h (0 Bft) N 355 ° 0 min 0,000 mm 0,0 UV-I 0 W/m² 2,1 °C 4,9 °C 0,0 km/h (0 Bft)
24.11.2017 23:02 4,9 °C 4,9 °C 82 % 1014,9 hPa 0,0 mm 0,0 km/h (0 Bft) N 355 ° 0 min 0,000 mm 0,0 UV-I 0 W/m² 2,1 °C 4,9 °C 0,0 km/h (0 Bft)
24.11.2017 23:03 4,9 °C 4,9 °C 82 % 1014,8 hPa 0,0 mm 0,0 km/h (0 Bft) N 355 ° 0 min 0,000 mm 0,0 UV-I 0 W/m² 2,1 °C 4,9 °C 0,0 km/h (0 Bft)
24.11.2017 23:04 4,8 °C 4,9 °C 82 % 1014,8 hPa 0,0 mm 0,0 km/h (0 Bft) N 355 ° 0 min 0,000 mm 0,0 UV-I 0 W/m² 2,0 °C 4,8 °C 0,0 km/h (0 Bft)
24.11.2017 23:05 4,8 °C 4,8 °C 82 % 1014,8 hPa 0,0 mm 0,0 km/h (0 Bft) N 355 ° 0 min 0,000 mm 0,0 UV-I 0 W/m² 2,0 °C 4,8 °C 0,0 km/h (0 Bft)
24.11.2017 23:06 4,8 °C 4,8 °C 82 % 1014,9 hPa 0,0 mm 0,0 km/h (0 Bft) N 355 ° 0 min 0,000 mm 0,0 UV-I 0 W/m² 2,0 °C 4,8 °C 0,0 km/h (0 Bft)
24.11.2017 23:07 4,8 °C 4,8 °C 82 % 1014,9 hPa 0,0 mm 0,0 km/h (0 Bft) N 355 ° 0 min 0,000 mm 0,0 UV-I 0 W/m² 2,0 °C 4,8 °C 0,0 km/h (0 Bft)
24.11.2017 23:08 4,8 °C 4,8 °C 82 % 1014,9 hPa 0,0 mm 0,0 km/h (0 Bft) N 355 ° 0 min 0,000 mm 0,0 UV-I 0 W/m² 2,0 °C 4,8 °C 0,0 km/h (0 Bft)
24.11.2017 23:09 4,8 °C 4,8 °C 82 % 1014,9 hPa 0,0 mm 1,8 km/h (1 Bft) SW 215 ° 0 min 0,000 mm 0,0 UV-I 0 W/m² 2,0 °C 4,8 °C 3,2 km/h (1 Bft)
24.11.2017 23:10 4,8 °C 4,8 °C 82 % 1014,9 hPa 0,0 mm 3,5 km/h (1 Bft) SW 215 ° 0 min 0,000 mm 0,0 UV-I 0 W/m² 2,0 °C 4,8 °C 4,8 km/h (1 Bft)
24.11.2017 23:11 4,8 °C 4,8 °C 82 % 1014,9 hPa 0,0 mm 1,1 km/h (1 Bft) SW 215 ° 0 min 0,000 mm 0,0 UV-I 0 W/m² 2,0 °C 4,8 °C 1,6 km/h (1 Bft)
24.11.2017 23:12 4,8 °C 4,8 °C 82 % 1014,9 hPa 0,0 mm 0,1 km/h (0 Bft) SW 215 ° 0 min 0,000 mm 0,0 UV-I 0 W/m² 2,0 °C 4,8 °C 1,6 km/h (1 Bft)
24.11.2017 23:13 4,8 °C 4,8 °C 82 % 1014,8 hPa 0,0 mm 0,0 km/h (0 Bft) SW 215 ° 0 min 0,000 mm 0,0 UV-I 0 W/m² 2,0 °C 4,8 °C 0,0 km/h (0 Bft)
24.11.2017 23:14 4,8 °C 4,8 °C 82 % 1014,8 hPa 0,0 mm 0,0 km/h (0 Bft) SW 215 ° 0 min 0,000 mm 0,0 UV-I 0 W/m² 2,0 °C 4,8 °C 0,0 km/h (0 Bft)
24.11.2017 23:15 4,8 °C 4,8 °C 82 % 1014,8 hPa 0,0 mm 0,0 km/h (0 Bft) SW 215 ° 0 min 0,000 mm 0,0 UV-I 0 W/m² 2,0 °C 4,8 °C 0,0 km/h (0 Bft)
24.11.2017 23:16 4,9 °C 4,9 °C 82 % 1014,8 hPa 0,0 mm 0,0 km/h (0 Bft) SW 215 ° 0 min 0,000 mm 0,0 UV-I 0 W/m² 2,1 °C 4,9 °C 0,0 km/h (0 Bft)
24.11.2017 23:17 4,9 °C 4,9 °C 82 % 1014,8 hPa 0,0 mm 0,0 km/h (0 Bft) SW 215 ° 0 min 0,000 mm 0,0 UV-I 0 W/m² 2,1 °C 4,9 °C 0,0 km/h (0 Bft)
24.11.2017 23:18 4,8 °C 4,9 °C 82 % 1014,8 hPa 0,0 mm 0,0 km/h (0 Bft) SW 215 ° 0 min 0,000 mm 0,0 UV-I 0 W/m² 2,0 °C 4,8 °C 0,0 km/h (0 Bft)
24.11.2017 23:19 4,8 °C 4,8 °C 82 % 1014,8 hPa 0,0 mm 0,0 km/h (0 Bft) SW 215 ° 0 min 0,000 mm 0,0 UV-I 0 W/m² 2,0 °C 4,8 °C 0,0 km/h (0 Bft)
24.11.2017 23:20 4,8 °C 4,8 °C 82 % 1014,8 hPa 0,0 mm 0,0 km/h (0 Bft) SW 215 ° 0 min 0,000 mm 0,0 UV-I 0 W/m² 2,0 °C 4,8 °C 0,0 km/h (0 Bft)
24.11.2017 23:21 4,8 °C 4,8 °C 82 % 1014,8 hPa 0,0 mm 0,0 km/h (0 Bft) SW 215 ° 0 min 0,000 mm 0,0 UV-I 0 W/m² 2,0 °C 4,8 °C 0,0 km/h (0 Bft)
24.11.2017 23:22 4,8 °C 4,8 °C 82 % 1014,8 hPa 0,0 mm 0,0 km/h (0 Bft) SW 215 ° 0 min 0,000 mm 0,0 UV-I 0 W/m² 2,0 °C 4,8 °C 0,0 km/h (0 Bft)
24.11.2017 23:23 4,8 °C 4,8 °C 82 % 1014,8 hPa 0,0 mm 0,0 km/h (0 Bft) SW 215 ° 0 min 0,000 mm 0,0 UV-I 0 W/m² 2,0 °C 4,8 °C 0,0 km/h (0 Bft)
24.11.2017 23:24 4,8 °C 4,8 °C 82 % 1014,8 hPa 0,0 mm 0,7 km/h (0 Bft) SW 215 ° 0 min 0,000 mm 0,0 UV-I 0 W/m² 2,0 °C 4,8 °C 3,2 km/h (1 Bft)
24.11.2017 23:25 4,8 °C 4,8 °C 82 % 1014,8 hPa 0,0 mm 0,2 km/h (0 Bft) SW 215 ° 0 min 0,000 mm 0,0 UV-I 0 W/m² 2,0 °C 4,8 °C 1,6 km/h (1 Bft)
24.11.2017 23:26 4,8 °C 4,9 °C 82 % 1014,8 hPa 0,0 mm 3,0 km/h (1 Bft) W-SW 241 ° 0 min 0,000 mm 0,0 UV-I 0 W/m² 2,0 °C 4,8 °C 4,8 km/h (1 Bft)
24.11.2017 23:27 4,8 °C 4,9 °C 82 % 1014,8 hPa 0,0 mm 3,0 km/h (1 Bft) W-SW 241 ° 0 min 0,000 mm 0,0 UV-I 0 W/m² 2,0 °C 4,8 °C 4,8 km/h (1 Bft)
24.11.2017 23:28 4,8 °C 4,8 °C 82 % 1014,8 hPa 0,0 mm 2,8 km/h (1 Bft) SW 227 ° 0 min 0,000 mm 0,0 UV-I 0 W/m² 2,0 °C 4,8 °C 3,2 km/h (1 Bft)
24.11.2017 23:29 4,8 °C 4,9 °C 83 % 1014,8 hPa 0,0 mm 2,5 km/h (1 Bft) S-SW 208 ° 0 min 0,000 mm 0,0 UV-I 0 W/m² 2,2 °C 4,8 °C 4,8 km/h (1 Bft)
24.11.2017 23:30 4,9 °C 4,9 °C 83 % 1014,8 hPa 0,0 mm 2,6 km/h (1 Bft) S-SW 208 ° 0 min 0,000 mm 0,0 UV-I 0 W/m² 2,3 °C 4,9 °C 6,4 km/h (2 Bft)
24.11.2017 23:31 4,9 °C 4,9 °C 83 % 1014,8 hPa 0,0 mm 5,4 km/h (1 Bft) S-SW 204 ° 0 min 0,000 mm 0,0 UV-I 0 W/m² 2,3 °C 3,8 °C 8,0 km/h (2 Bft)
24.11.2017 23:32 4,9 °C 4,9 °C 83 % 1014,8 hPa 0,0 mm 5,2 km/h (1 Bft) S 188 ° 0 min 0,000 mm 0,0 UV-I 0 W/m² 2,3 °C 3,9 °C 9,7 km/h (2 Bft)
24.11.2017 23:33 5,0 °C 5,0 °C 83 % 1014,8 hPa 0,0 mm 5,9 km/h (2 Bft) S-SW 198 ° 0 min 0,000 mm 0,0 UV-I 0 W/m² 2,4 °C 3,8 °C 8,0 km/h (2 Bft)
24.11.2017 23:34 5,1 °C 5,1 °C 83 % 1014,8 hPa 0,0 mm 5,4 km/h (1 Bft) S-SW 197 ° 0 min 0,000 mm 0,0 UV-I 0 W/m² 2,5 °C 4,0 °C 8,0 km/h (2 Bft)
24.11.2017 23:35 5,2 °C 5,2 °C 82 % 1014,7 hPa 0,0 mm 6,2 km/h (2 Bft) S-SW 196 ° 0 min 0,000 mm 0,0 UV-I 0 W/m² 2,4 °C 3,9 °C 8,0 km/h (2 Bft)
24.11.2017 23:36 5,2 °C 5,2 °C 82 % 1014,6 hPa 0,0 mm 5,6 km/h (1 Bft) S-SW 201 ° 0 min 0,000 mm 0,0 UV-I 0 W/m² 2,4 °C 4,1 °C 8,0 km/h (2 Bft)
24.11.2017 23:37 5,2 °C 5,2 °C 82 % 1014,6 hPa 0,0 mm 1,7 km/h (1 Bft) S-SW 201 ° 0 min 0,000 mm 0,0 UV-I 0 W/m² 2,4 °C 5,2 °C 4,8 km/h (1 Bft)
24.11.2017 23:38 5,3 °C 5,3 °C 82 % 1014,6 hPa 0,0 mm 0,0 km/h (0 Bft) S-SW 201 ° 0 min 0,000 mm 0,0 UV-I 0 W/m² 2,5 °C 5,3 °C 0,0 km/h (0 Bft)
24.11.2017 23:39 5,3 °C 5,3 °C 82 % 1014,6 hPa 0,0 mm 0,0 km/h (0 Bft) S-SW 201 ° 0 min 0,000 mm 0,0 UV-I 0 W/m² 2,5 °C 5,3 °C 0,0 km/h (0 Bft)
24.11.2017 23:40 5,4 °C 5,4 °C 82 % 1014,6 hPa 0,0 mm 0,0 km/h (0 Bft) S-SW 201 ° 0 min 0,000 mm 0,0 UV-I 0 W/m² 2,6 °C 5,4 °C 0,0 km/h (0 Bft)
24.11.2017 23:41 5,4 °C 5,4 °C 82 % 1014,7 hPa 0,0 mm 0,3 km/h (0 Bft) S-SW 201 ° 0 min 0,000 mm 0,0 UV-I 0 W/m² 2,6 °C 5,4 °C 1,6 km/h (1 Bft)
24.11.2017 23:42 5,4 °C 5,4 °C 82 % 1014,7 hPa 0,0 mm 1,5 km/h (1 Bft) S-SW 201 ° 0 min 0,000 mm 0,0 UV-I 0 W/m² 2,6 °C 5,4 °C 3,2 km/h (1 Bft)
24.11.2017 23:43 5,3 °C 5,4 °C 82 % 1014,7 hPa 0,0 mm 0,0 km/h (0 Bft) S-SW 201 ° 0 min 0,000 mm 0,0 UV-I 0 W/m² 2,5 °C 5,3 °C 0,0 km/h (0 Bft)
24.11.2017 23:44 5,4 °C 5,4 °C 81 % 1014,7 hPa 0,0 mm 0,0 km/h (0 Bft) S-SW 201 ° 0 min 0,000 mm 0,0 UV-I 0 W/m² 2,4 °C 5,4 °C 0,0 km/h (0 Bft)
24.11.2017 23:45 5,4 °C 5,4 °C 81 % 1014,7 hPa 0,0 mm 0,0 km/h (0 Bft) S-SW 201 ° 0 min 0,000 mm 0,0 UV-I 0 W/m² 2,4 °C 5,4 °C 0,0 km/h (0 Bft)
24.11.2017 23:46 5,4 °C 5,4 °C 81 % 1014,6 hPa 0,0 mm 1,9 km/h (1 Bft) S-SW 201 ° 0 min 0,000 mm 0,0 UV-I 0 W/m² 2,4 °C 5,4 °C 3,2 km/h (1 Bft)
24.11.2017 23:47 5,4 °C 5,4 °C 81 % 1014,6 hPa 0,0 mm 1,0 km/h (0 Bft) S-SW 201 ° 0 min 0,000 mm 0,0 UV-I 0 W/m² 2,4 °C 5,4 °C 1,6 km/h (1 Bft)
24.11.2017 23:48 5,4 °C 5,4 °C 82 % 1014,6 hPa 0,0 mm 0,6 km/h (0 Bft) S-SW 201 ° 0 min 0,000 mm 0,0 UV-I 0 W/m² 2,6 °C 5,4 °C 1,6 km/h (1 Bft)
24.11.2017 23:49 5,4 °C 5,4 °C 82 % 1014,6 hPa 0,0 mm 1,8 km/h (1 Bft) S-SW 201 ° 0 min 0,000 mm 0,0 UV-I 0 W/m² 2,6 °C 5,4 °C 3,2 km/h (1 Bft)
24.11.2017 23:50 5,4 °C 5,4 °C 82 % 1014,5 hPa 0,0 mm 2,7 km/h (1 Bft) S-SW 198 ° 0 min 0,000 mm 0,0 UV-I 0 W/m² 2,6 °C 5,4 °C 4,8 km/h (1 Bft)
24.11.2017 23:51 5,5 °C 5,5 °C 82 % 1014,5 hPa 0,0 mm 0,7 km/h (0 Bft) S-SW 198 ° 0 min 0,000 mm 0,0 UV-I 0 W/m² 2,7 °C 5,5 °C 3,2 km/h (1 Bft)
24.11.2017 23:52 5,4 °C 5,5 °C 82 % 1014,5 hPa 0,0 mm 2,8 km/h (1 Bft) S-SW 198 ° 0 min 0,000 mm 0,0 UV-I 0 W/m² 2,6 °C 5,4 °C 4,8 km/h (1 Bft)
24.11.2017 23:53 5,5 °C 5,5 °C 82 % 1014,5 hPa 0,0 mm 2,1 km/h (1 Bft) S-SW 198 ° 0 min 0,000 mm 0,0 UV-I 0 W/m² 2,7 °C 5,5 °C 4,8 km/h (1 Bft)
24.11.2017 23:54 5,5 °C 5,5 °C 82 % 1014,5 hPa 0,0 mm 0,2 km/h (0 Bft) S-SW 198 ° 0 min 0,000 mm 0,0 UV-I 0 W/m² 2,7 °C 5,5 °C 1,6 km/h (1 Bft)
24.11.2017 23:55 5,5 °C 5,6 °C 82 % 1014,5 hPa 0,0 mm 0,3 km/h (0 Bft) S-SW 198 ° 0 min 0,000 mm 0,0 UV-I 0 W/m² 2,7 °C 5,5 °C 1,6 km/h (1 Bft)
24.11.2017 23:56 5,6 °C 5,6 °C 82 % 1014,5 hPa 0,0 mm 1,6 km/h (1 Bft) S-SW 198 ° 0 min 0,000 mm 0,0 UV-I 0 W/m² 2,8 °C 5,6 °C 3,2 km/h (1 Bft)
24.11.2017 23:57 5,6 °C 5,6 °C 82 % 1014,4 hPa 0,0 mm 0,0 km/h (0 Bft) S-SW 198 ° 0 min 0,000 mm 0,0 UV-I 0 W/m² 2,8 °C 5,6 °C 0,0 km/h (0 Bft)
24.11.2017 23:58 5,6 °C 5,6 °C 82 % 1014,3 hPa 0,0 mm 0,0 km/h (0 Bft) S-SW 198 ° 0 min 0,000 mm 0,0 UV-I 0 W/m² 2,8 °C 5,6 °C 0,0 km/h (0 Bft)
24.11.2017 23:59 5,6 °C 5,6 °C 82 % 1014,3 hPa 0,0 mm 0,0 km/h (0 Bft) S-SW 198 ° 0 min 0,000 mm 0,0 UV-I 0 W/m² 2,8 °C 5,6 °C 0,0 km/h (0 Bft)
_ Min-Zeit 07:45 08:04 11:55 23:59 - 23:59 - - - - - - 06:01 07:44 23:59
Minimum _ 1,6 °C 1,7 °C 46 % 1014,3 hPa - 0,0 km/h (0 Bft) - - - - - - -1,2 °C 0,4 °C 0,0 km/h (0 Bft)
_ Max-Zeit 12:01 12:02 23:34 00:03 23:59 11:55 - - 23:59 14:01 13:38 13:38 12:08 12:04 16:56
Maximum _ 12,9 °C 12,9 °C 83 % 1017,4 hPa 0,0 mm 10,2 km/h
W (2 Bft)
- - 0 min 0,076 mm 1,2 UV-I 287 W/m² 4,4 °C 12,8 °C 16,1 km/h
S (3 Bft)
Durchschnitt _ 6,5 °C 6,5 °C 71 % 1015,4 hPa #0,0 mm 1,1 km/h (1 Bft) S - #0 min. #0,584 mm 0,9 UV-I 22 W/m² 1,4 °C 6,5 °C 2,2 km/h (1 Bft)